<?xml version="1.0" encoding="UTF-8" standalone="no" ?>
<gpx xmlns="http://www.topografix.com/GPX/1/1" xmlns:xsi="http://www.w3.org/2001/XMLSchema-instance" xsi:schemaLocation="http://www.topografix.com/GPX/1/1 http://www.topografix.com/GPX/1/1/gpx.xsd" version="1.1" creator="VisuGPX - https://www.visugpx.com">
  <metadata>
    <name>Soum des Salettes</name>
    <desc><![CDATA[Soum des Salettes, depuis Piau Engaly par le Port de Campbieil]]></desc>
  </metadata>
  <trk>
    <name><![CDATA[2017-02-21 09-06]]></name>
    <trkseg>
      <trkpt lat="42.78676" lon="0.15511">
        <ele>1845.4</ele>
        <time>2017-02-21T08:06:24Z</time>
      </trkpt>
      <trkpt lat="42.78676" lon="0.15512">
        <ele>1845.4</ele>
        <time>2017-02-21T08:06:29Z</time>
      </trkpt>
      <trkpt lat="42.78675" lon="0.15512">
        <ele>1844.2</ele>
        <time>2017-02-21T08:06:34Z</time>
      </trkpt>
      <trkpt lat="42.78674" lon="0.15512">
        <ele>1843.2</ele>
        <time>2017-02-21T08:06:39Z</time>
      </trkpt>
      <trkpt lat="42.78673" lon="0.15511">
        <ele>1842.4</ele>
        <time>2017-02-21T08:06:44Z</time>
      </trkpt>
      <trkpt lat="42.78674" lon="0.15511">
        <ele>1842.8</ele>
        <time>2017-02-21T08:06:49Z</time>
      </trkpt>
      <trkpt lat="42.78675" lon="0.1551">
        <ele>1845.8</ele>
        <time>2017-02-21T08:06:54Z</time>
      </trkpt>
      <trkpt lat="42.78676" lon="0.1551">
        <ele>1844</ele>
        <time>2017-02-21T08:06:59Z</time>
      </trkpt>
      <trkpt lat="42.78678" lon="0.15509">
        <ele>1844</ele>
        <time>2017-02-21T08:07:04Z</time>
      </trkpt>
      <trkpt lat="42.78678" lon="0.15505">
        <ele>1844</ele>
        <time>2017-02-21T08:07:09Z</time>
      </trkpt>
      <trkpt lat="42.78678" lon="0.15501">
        <ele>1845.4</ele>
        <time>2017-02-21T08:07:14Z</time>
      </trkpt>
      <trkpt lat="42.78678" lon="0.155">
        <ele>1845</ele>
        <time>2017-02-21T08:07:19Z</time>
      </trkpt>
      <trkpt lat="42.78678" lon="0.15494">
        <ele>1845.8</ele>
        <time>2017-02-21T08:07:24Z</time>
      </trkpt>
      <trkpt lat="42.78678" lon="0.15485">
        <ele>1843.6</ele>
        <time>2017-02-21T08:07:29Z</time>
      </trkpt>
      <trkpt lat="42.78678" lon="0.15475">
        <ele>1847.4</ele>
        <time>2017-02-21T08:07:35Z</time>
      </trkpt>
      <trkpt lat="42.78679" lon="0.15466">
        <ele>1842.2</ele>
        <time>2017-02-21T08:07:40Z</time>
      </trkpt>
      <trkpt lat="42.78679" lon="0.15456">
        <ele>1844.2</ele>
        <time>2017-02-21T08:07:45Z</time>
      </trkpt>
      <trkpt lat="42.78678" lon="0.15447">
        <ele>1844</ele>
        <time>2017-02-21T08:07:50Z</time>
      </trkpt>
      <trkpt lat="42.78677" lon="0.15437">
        <ele>1845.2</ele>
        <time>2017-02-21T08:07:55Z</time>
      </trkpt>
      <trkpt lat="42.78676" lon="0.15428">
        <ele>1842.4</ele>
        <time>2017-02-21T08:08:00Z</time>
      </trkpt>
      <trkpt lat="42.78676" lon="0.1542">
        <ele>1840.2</ele>
        <time>2017-02-21T08:08:05Z</time>
      </trkpt>
      <trkpt lat="42.78675" lon="0.15411">
        <ele>1843.4</ele>
        <time>2017-02-21T08:08:10Z</time>
      </trkpt>
      <trkpt lat="42.78676" lon="0.15403">
        <ele>1844.2</ele>
        <time>2017-02-21T08:08:15Z</time>
      </trkpt>
      <trkpt lat="42.7868" lon="0.15398">
        <ele>1844</ele>
        <time>2017-02-21T08:08:20Z</time>
      </trkpt>
      <trkpt lat="42.78683" lon="0.15395">
        <ele>1845.8</ele>
        <time>2017-02-21T08:08:25Z</time>
      </trkpt>
      <trkpt lat="42.78683" lon="0.15387">
        <ele>1843</ele>
        <time>2017-02-21T08:08:30Z</time>
      </trkpt>
      <trkpt lat="42.78685" lon="0.15379">
        <ele>1846.8</ele>
        <time>2017-02-21T08:08:35Z</time>
      </trkpt>
      <trkpt lat="42.78686" lon="0.15369">
        <ele>1844</ele>
        <time>2017-02-21T08:08:40Z</time>
      </trkpt>
      <trkpt lat="42.78685" lon="0.15361">
        <ele>1845.6</ele>
        <time>2017-02-21T08:08:45Z</time>
      </trkpt>
      <trkpt lat="42.78685" lon="0.15357">
        <ele>1845</ele>
        <time>2017-02-21T08:08:50Z</time>
      </trkpt>
      <trkpt lat="42.78679" lon="0.15353">
        <ele>1843.6</ele>
        <time>2017-02-21T08:08:55Z</time>
      </trkpt>
      <trkpt lat="42.78673" lon="0.1535">
        <ele>1845.8</ele>
        <time>2017-02-21T08:09:00Z</time>
      </trkpt>
      <trkpt lat="42.78668" lon="0.15344">
        <ele>1848.6</ele>
        <time>2017-02-21T08:09:05Z</time>
      </trkpt>
      <trkpt lat="42.78666" lon="0.15339">
        <ele>1847.4</ele>
        <time>2017-02-21T08:09:10Z</time>
      </trkpt>
      <trkpt lat="42.78665" lon="0.15334">
        <ele>1846.2</ele>
        <time>2017-02-21T08:09:15Z</time>
      </trkpt>
      <trkpt lat="42.78663" lon="0.15329">
        <ele>1847.6</ele>
        <time>2017-02-21T08:09:20Z</time>
      </trkpt>
      <trkpt lat="42.7866" lon="0.15325">
        <ele>1843.8</ele>
        <time>2017-02-21T08:09:25Z</time>
      </trkpt>
      <trkpt lat="42.78656" lon="0.1532">
        <ele>1843.4</ele>
        <time>2017-02-21T08:09:30Z</time>
      </trkpt>
      <trkpt lat="42.78654" lon="0.15315">
        <ele>1843.6</ele>
        <time>2017-02-21T08:09:35Z</time>
      </trkpt>
      <trkpt lat="42.78651" lon="0.15308">
        <ele>1841.6</ele>
        <time>2017-02-21T08:09:40Z</time>
      </trkpt>
      <trkpt lat="42.7865" lon="0.15305">
        <ele>1841.6</ele>
        <time>2017-02-21T08:09:45Z</time>
      </trkpt>
      <trkpt lat="42.7865" lon="0.15305">
        <ele>1841.8</ele>
        <time>2017-02-21T08:09:50Z</time>
      </trkpt>
      <trkpt lat="42.7865" lon="0.15305">
        <ele>1842</ele>
        <time>2017-02-21T08:09:55Z</time>
      </trkpt>
      <trkpt lat="42.7865" lon="0.15305">
        <ele>1842.2</ele>
        <time>2017-02-21T08:10:00Z</time>
      </trkpt>
      <trkpt lat="42.7865" lon="0.15305">
        <ele>1842</ele>
        <time>2017-02-21T08:10:05Z</time>
      </trkpt>
      <trkpt lat="42.78648" lon="0.15301">
        <ele>1841.6</ele>
        <time>2017-02-21T08:10:10Z</time>
      </trkpt>
      <trkpt lat="42.78647" lon="0.15296">
        <ele>1842.8</ele>
        <time>2017-02-21T08:10:15Z</time>
      </trkpt>
      <trkpt lat="42.78647" lon="0.15295">
        <ele>1842.8</ele>
        <time>2017-02-21T08:10:20Z</time>
      </trkpt>
      <trkpt lat="42.78647" lon="0.15295">
        <ele>1842.8</ele>
        <time>2017-02-21T08:10:25Z</time>
      </trkpt>
      <trkpt lat="42.78647" lon="0.15295">
        <ele>1842.6</ele>
        <time>2017-02-21T08:10:30Z</time>
      </trkpt>
      <trkpt lat="42.78647" lon="0.15295">
        <ele>1841.8</ele>
        <time>2017-02-21T08:10:35Z</time>
      </trkpt>
      <trkpt lat="42.78646" lon="0.15295">
        <ele>1842</ele>
        <time>2017-02-21T08:10:40Z</time>
      </trkpt>
      <trkpt lat="42.78646" lon="0.15295">
        <ele>1842</ele>
        <time>2017-02-21T08:10:45Z</time>
      </trkpt>
      <trkpt lat="42.78646" lon="0.15295">
        <ele>1842</ele>
        <time>2017-02-21T08:10:50Z</time>
      </trkpt>
      <trkpt lat="42.78647" lon="0.15295">
        <ele>1842.4</ele>
        <time>2017-02-21T08:10:55Z</time>
      </trkpt>
      <trkpt lat="42.78647" lon="0.15295">
        <ele>1842.4</ele>
        <time>2017-02-21T08:11:00Z</time>
      </trkpt>
      <trkpt lat="42.78647" lon="0.15295">
        <ele>1842.4</ele>
        <time>2017-02-21T08:11:05Z</time>
      </trkpt>
      <trkpt lat="42.78647" lon="0.15295">
        <ele>1842.2</ele>
        <time>2017-02-21T08:11:10Z</time>
      </trkpt>
      <trkpt lat="42.78647" lon="0.15295">
        <ele>1842.2</ele>
        <time>2017-02-21T08:11:15Z</time>
      </trkpt>
      <trkpt lat="42.78647" lon="0.15295">
        <ele>1842.2</ele>
        <time>2017-02-21T08:11:20Z</time>
      </trkpt>
      <trkpt lat="42.78647" lon="0.15294">
        <ele>1842.2</ele>
        <time>2017-02-21T08:11:25Z</time>
      </trkpt>
      <trkpt lat="42.78648" lon="0.15293">
        <ele>1845.8</ele>
        <time>2017-02-21T08:11:30Z</time>
      </trkpt>
      <trkpt lat="42.78649" lon="0.15283">
        <ele>1843.8</ele>
        <time>2017-02-21T08:11:36Z</time>
      </trkpt>
      <trkpt lat="42.78648" lon="0.15274">
        <ele>1841.6</ele>
        <time>2017-02-21T08:11:41Z</time>
      </trkpt>
      <trkpt lat="42.78649" lon="0.15265">
        <ele>1840.4</ele>
        <time>2017-02-21T08:11:46Z</time>
      </trkpt>
      <trkpt lat="42.78648" lon="0.15255">
        <ele>1839.4</ele>
        <time>2017-02-21T08:11:51Z</time>
      </trkpt>
      <trkpt lat="42.78647" lon="0.15246">
        <ele>1845</ele>
        <time>2017-02-21T08:11:56Z</time>
      </trkpt>
      <trkpt lat="42.78647" lon="0.15237">
        <ele>1837.2</ele>
        <time>2017-02-21T08:12:01Z</time>
      </trkpt>
      <trkpt lat="42.78647" lon="0.15228">
        <ele>1839</ele>
        <time>2017-02-21T08:12:06Z</time>
      </trkpt>
      <trkpt lat="42.78647" lon="0.15219">
        <ele>1839.4</ele>
        <time>2017-02-21T08:12:11Z</time>
      </trkpt>
      <trkpt lat="42.78647" lon="0.1521">
        <ele>1838</ele>
        <time>2017-02-21T08:12:16Z</time>
      </trkpt>
      <trkpt lat="42.78646" lon="0.15202">
        <ele>1837</ele>
        <time>2017-02-21T08:12:21Z</time>
      </trkpt>
      <trkpt lat="42.78647" lon="0.15192">
        <ele>1836.2</ele>
        <time>2017-02-21T08:12:26Z</time>
      </trkpt>
      <trkpt lat="42.78647" lon="0.15182">
        <ele>1837</ele>
        <time>2017-02-21T08:12:31Z</time>
      </trkpt>
      <trkpt lat="42.78646" lon="0.15171">
        <ele>1836</ele>
        <time>2017-02-21T08:12:36Z</time>
      </trkpt>
      <trkpt lat="42.78645" lon="0.1516">
        <ele>1836.4</ele>
        <time>2017-02-21T08:12:41Z</time>
      </trkpt>
      <trkpt lat="42.78645" lon="0.15149">
        <ele>1836.6</ele>
        <time>2017-02-21T08:12:46Z</time>
      </trkpt>
      <trkpt lat="42.78647" lon="0.15139">
        <ele>1835.6</ele>
        <time>2017-02-21T08:12:51Z</time>
      </trkpt>
      <trkpt lat="42.78649" lon="0.15127">
        <ele>1837.2</ele>
        <time>2017-02-21T08:12:56Z</time>
      </trkpt>
      <trkpt lat="42.78651" lon="0.15116">
        <ele>1833.8</ele>
        <time>2017-02-21T08:13:01Z</time>
      </trkpt>
      <trkpt lat="42.78651" lon="0.15112">
        <ele>1834.4</ele>
        <time>2017-02-21T08:13:06Z</time>
      </trkpt>
      <trkpt lat="42.78653" lon="0.15105">
        <ele>1836.2</ele>
        <time>2017-02-21T08:13:11Z</time>
      </trkpt>
      <trkpt lat="42.78653" lon="0.15096">
        <ele>1834.4</ele>
        <time>2017-02-21T08:13:16Z</time>
      </trkpt>
      <trkpt lat="42.78655" lon="0.15088">
        <ele>1834.4</ele>
        <time>2017-02-21T08:13:21Z</time>
      </trkpt>
      <trkpt lat="42.78657" lon="0.1508">
        <ele>1833.4</ele>
        <time>2017-02-21T08:13:26Z</time>
      </trkpt>
      <trkpt lat="42.78659" lon="0.15077">
        <ele>1834.2</ele>
        <time>2017-02-21T08:13:31Z</time>
      </trkpt>
      <trkpt lat="42.7866" lon="0.15076">
        <ele>1832.8</ele>
        <time>2017-02-21T08:13:36Z</time>
      </trkpt>
      <trkpt lat="42.7866" lon="0.15075">
        <ele>1833.2</ele>
        <time>2017-02-21T08:13:41Z</time>
      </trkpt>
      <trkpt lat="42.7866" lon="0.15076">
        <ele>1833.8</ele>
        <time>2017-02-21T08:13:46Z</time>
      </trkpt>
      <trkpt lat="42.7866" lon="0.15076">
        <ele>1834</ele>
        <time>2017-02-21T08:13:51Z</time>
      </trkpt>
      <trkpt lat="42.7866" lon="0.15076">
        <ele>1834.2</ele>
        <time>2017-02-21T08:13:56Z</time>
      </trkpt>
      <trkpt lat="42.7866" lon="0.15076">
        <ele>1834.2</ele>
        <time>2017-02-21T08:14:01Z</time>
      </trkpt>
      <trkpt lat="42.7866" lon="0.15076">
        <ele>1834.4</ele>
        <time>2017-02-21T08:14:06Z</time>
      </trkpt>
      <trkpt lat="42.7866" lon="0.15076">
        <ele>1834.4</ele>
        <time>2017-02-21T08:14:11Z</time>
      </trkpt>
      <trkpt lat="42.7866" lon="0.15076">
        <ele>1834.4</ele>
        <time>2017-02-21T08:14:16Z</time>
      </trkpt>
      <trkpt lat="42.7866" lon="0.15076">
        <ele>1834.6</ele>
        <time>2017-02-21T08:14:21Z</time>
      </trkpt>
      <trkpt lat="42.78661" lon="0.15076">
        <ele>1834.6</ele>
        <time>2017-02-21T08:14:26Z</time>
      </trkpt>
      <trkpt lat="42.78661" lon="0.15073">
        <ele>1834</ele>
        <time>2017-02-21T08:14:32Z</time>
      </trkpt>
      <trkpt lat="42.78662" lon="0.15066">
        <ele>1834.8</ele>
        <time>2017-02-21T08:14:37Z</time>
      </trkpt>
      <trkpt lat="42.78662" lon="0.15062">
        <ele>1835</ele>
        <time>2017-02-21T08:14:42Z</time>
      </trkpt>
      <trkpt lat="42.78663" lon="0.15058">
        <ele>1833.2</ele>
        <time>2017-02-21T08:14:47Z</time>
      </trkpt>
      <trkpt lat="42.78663" lon="0.15057">
        <ele>1833.2</ele>
        <time>2017-02-21T08:14:52Z</time>
      </trkpt>
      <trkpt lat="42.78662" lon="0.15052">
        <ele>1836.2</ele>
        <time>2017-02-21T08:14:57Z</time>
      </trkpt>
      <trkpt lat="42.78662" lon="0.1505">
        <ele>1836.6</ele>
        <time>2017-02-21T08:15:02Z</time>
      </trkpt>
      <trkpt lat="42.78662" lon="0.1505">
        <ele>1835.8</ele>
        <time>2017-02-21T08:15:07Z</time>
      </trkpt>
      <trkpt lat="42.78662" lon="0.1505">
        <ele>1835</ele>
        <time>2017-02-21T08:15:12Z</time>
      </trkpt>
      <trkpt lat="42.78662" lon="0.1505">
        <ele>1834.6</ele>
        <time>2017-02-21T08:15:17Z</time>
      </trkpt>
      <trkpt lat="42.78661" lon="0.15049">
        <ele>1834.2</ele>
        <time>2017-02-21T08:15:22Z</time>
      </trkpt>
      <trkpt lat="42.78661" lon="0.15049">
        <ele>1833.8</ele>
        <time>2017-02-21T08:15:27Z</time>
      </trkpt>
      <trkpt lat="42.78661" lon="0.15049">
        <ele>1833.6</ele>
        <time>2017-02-21T08:15:32Z</time>
      </trkpt>
      <trkpt lat="42.78661" lon="0.15049">
        <ele>1833.4</ele>
        <time>2017-02-21T08:15:37Z</time>
      </trkpt>
      <trkpt lat="42.78661" lon="0.15049">
        <ele>1833.2</ele>
        <time>2017-02-21T08:15:42Z</time>
      </trkpt>
      <trkpt lat="42.78661" lon="0.15049">
        <ele>1833</ele>
        <time>2017-02-21T08:15:47Z</time>
      </trkpt>
      <trkpt lat="42.78661" lon="0.15047">
        <ele>1833.2</ele>
        <time>2017-02-21T08:15:52Z</time>
      </trkpt>
      <trkpt lat="42.78661" lon="0.15047">
        <ele>1833</ele>
        <time>2017-02-21T08:15:57Z</time>
      </trkpt>
      <trkpt lat="42.78661" lon="0.15047">
        <ele>1832.8</ele>
        <time>2017-02-21T08:16:02Z</time>
      </trkpt>
      <trkpt lat="42.78661" lon="0.15047">
        <ele>1832.6</ele>
        <time>2017-02-21T08:16:07Z</time>
      </trkpt>
      <trkpt lat="42.78661" lon="0.15047">
        <ele>1832.6</ele>
        <time>2017-02-21T08:16:12Z</time>
      </trkpt>
      <trkpt lat="42.7866" lon="0.15045">
        <ele>1834</ele>
        <time>2017-02-21T08:16:17Z</time>
      </trkpt>
      <trkpt lat="42.78661" lon="0.1504">
        <ele>1832</ele>
        <time>2017-02-21T08:16:22Z</time>
      </trkpt>
      <trkpt lat="42.78664" lon="0.15037">
        <ele>1830.4</ele>
        <time>2017-02-21T08:16:27Z</time>
      </trkpt>
      <trkpt lat="42.78667" lon="0.15031">
        <ele>1829</ele>
        <time>2017-02-21T08:16:32Z</time>
      </trkpt>
      <trkpt lat="42.78667" lon="0.1503">
        <ele>1830.2</ele>
        <time>2017-02-21T08:16:37Z</time>
      </trkpt>
      <trkpt lat="42.78663" lon="0.15033">
        <ele>1831.2</ele>
        <time>2017-02-21T08:16:42Z</time>
      </trkpt>
      <trkpt lat="42.78659" lon="0.15034">
        <ele>1832.8</ele>
        <time>2017-02-21T08:16:47Z</time>
      </trkpt>
      <trkpt lat="42.78655" lon="0.15031">
        <ele>1833</ele>
        <time>2017-02-21T08:16:52Z</time>
      </trkpt>
      <trkpt lat="42.78651" lon="0.15028">
        <ele>1834</ele>
        <time>2017-02-21T08:16:57Z</time>
      </trkpt>
      <trkpt lat="42.78648" lon="0.15023">
        <ele>1833.6</ele>
        <time>2017-02-21T08:17:02Z</time>
      </trkpt>
      <trkpt lat="42.78648" lon="0.15016">
        <ele>1836</ele>
        <time>2017-02-21T08:17:07Z</time>
      </trkpt>
      <trkpt lat="42.78645" lon="0.15005">
        <ele>1831.2</ele>
        <time>2017-02-21T08:17:12Z</time>
      </trkpt>
      <trkpt lat="42.7864" lon="0.14998">
        <ele>1833</ele>
        <time>2017-02-21T08:17:17Z</time>
      </trkpt>
      <trkpt lat="42.78635" lon="0.14993">
        <ele>1829.8</ele>
        <time>2017-02-21T08:17:22Z</time>
      </trkpt>
      <trkpt lat="42.7863" lon="0.14985">
        <ele>1831.4</ele>
        <time>2017-02-21T08:17:27Z</time>
      </trkpt>
      <trkpt lat="42.78628" lon="0.14978">
        <ele>1827.8</ele>
        <time>2017-02-21T08:17:32Z</time>
      </trkpt>
      <trkpt lat="42.78627" lon="0.14967">
        <ele>1827.2</ele>
        <time>2017-02-21T08:17:37Z</time>
      </trkpt>
      <trkpt lat="42.78626" lon="0.14949">
        <ele>1826.4</ele>
        <time>2017-02-21T08:17:42Z</time>
      </trkpt>
      <trkpt lat="42.78626" lon="0.14937">
        <ele>1827.4</ele>
        <time>2017-02-21T08:17:47Z</time>
      </trkpt>
      <trkpt lat="42.78626" lon="0.14929">
        <ele>1826</ele>
        <time>2017-02-21T08:17:52Z</time>
      </trkpt>
      <trkpt lat="42.78627" lon="0.14922">
        <ele>1822</ele>
        <time>2017-02-21T08:17:57Z</time>
      </trkpt>
      <trkpt lat="42.78627" lon="0.14914">
        <ele>1822.6</ele>
        <time>2017-02-21T08:18:02Z</time>
      </trkpt>
      <trkpt lat="42.78628" lon="0.14906">
        <ele>1823.8</ele>
        <time>2017-02-21T08:18:07Z</time>
      </trkpt>
      <trkpt lat="42.78629" lon="0.14895">
        <ele>1825</ele>
        <time>2017-02-21T08:18:12Z</time>
      </trkpt>
      <trkpt lat="42.7863" lon="0.14879">
        <ele>1822.4</ele>
        <time>2017-02-21T08:18:18Z</time>
      </trkpt>
      <trkpt lat="42.78631" lon="0.14868">
        <ele>1820.2</ele>
        <time>2017-02-21T08:18:24Z</time>
      </trkpt>
      <trkpt lat="42.78631" lon="0.14864">
        <ele>1819.4</ele>
        <time>2017-02-21T08:18:29Z</time>
      </trkpt>
      <trkpt lat="42.78632" lon="0.14861">
        <ele>1816.6</ele>
        <time>2017-02-21T08:18:34Z</time>
      </trkpt>
      <trkpt lat="42.78634" lon="0.14855">
        <ele>1817.8</ele>
        <time>2017-02-21T08:18:39Z</time>
      </trkpt>
      <trkpt lat="42.78636" lon="0.14849">
        <ele>1818.4</ele>
        <time>2017-02-21T08:18:44Z</time>
      </trkpt>
      <trkpt lat="42.78636" lon="0.14843">
        <ele>1819.6</ele>
        <time>2017-02-21T08:18:49Z</time>
      </trkpt>
      <trkpt lat="42.78636" lon="0.14838">
        <ele>1818.8</ele>
        <time>2017-02-21T08:18:54Z</time>
      </trkpt>
      <trkpt lat="42.78635" lon="0.14832">
        <ele>1820.2</ele>
        <time>2017-02-21T08:18:59Z</time>
      </trkpt>
      <trkpt lat="42.78635" lon="0.14825">
        <ele>1820.2</ele>
        <time>2017-02-21T08:19:05Z</time>
      </trkpt>
      <trkpt lat="42.78635" lon="0.1482">
        <ele>1820.8</ele>
        <time>2017-02-21T08:19:10Z</time>
      </trkpt>
      <trkpt lat="42.78634" lon="0.14819">
        <ele>1821.2</ele>
        <time>2017-02-21T08:19:15Z</time>
      </trkpt>
      <trkpt lat="42.78634" lon="0.14819">
        <ele>1821</ele>
        <time>2017-02-21T08:19:20Z</time>
      </trkpt>
      <trkpt lat="42.78634" lon="0.14819">
        <ele>1823.8</ele>
        <time>2017-02-21T08:19:25Z</time>
      </trkpt>
      <trkpt lat="42.78634" lon="0.14819">
        <ele>1822.8</ele>
        <time>2017-02-21T08:19:30Z</time>
      </trkpt>
      <trkpt lat="42.78633" lon="0.14819">
        <ele>1823.4</ele>
        <time>2017-02-21T08:19:35Z</time>
      </trkpt>
      <trkpt lat="42.78633" lon="0.14815">
        <ele>1820.6</ele>
        <time>2017-02-21T08:19:40Z</time>
      </trkpt>
      <trkpt lat="42.78631" lon="0.14808">
        <ele>1823</ele>
        <time>2017-02-21T08:19:45Z</time>
      </trkpt>
      <trkpt lat="42.7863" lon="0.14802">
        <ele>1820.6</ele>
        <time>2017-02-21T08:19:50Z</time>
      </trkpt>
      <trkpt lat="42.7863" lon="0.14797">
        <ele>1823.8</ele>
        <time>2017-02-21T08:19:55Z</time>
      </trkpt>
      <trkpt lat="42.78632" lon="0.14792">
        <ele>1822.2</ele>
        <time>2017-02-21T08:20:00Z</time>
      </trkpt>
      <trkpt lat="42.78633" lon="0.14787">
        <ele>1822</ele>
        <time>2017-02-21T08:20:05Z</time>
      </trkpt>
      <trkpt lat="42.78635" lon="0.14783">
        <ele>1825.2</ele>
        <time>2017-02-21T08:20:10Z</time>
      </trkpt>
      <trkpt lat="42.78639" lon="0.14779">
        <ele>1821.4</ele>
        <time>2017-02-21T08:20:15Z</time>
      </trkpt>
      <trkpt lat="42.78642" lon="0.14779">
        <ele>1823.8</ele>
        <time>2017-02-21T08:20:20Z</time>
      </trkpt>
      <trkpt lat="42.78644" lon="0.14782">
        <ele>1823.4</ele>
        <time>2017-02-21T08:20:25Z</time>
      </trkpt>
      <trkpt lat="42.78647" lon="0.14784">
        <ele>1821.8</ele>
        <time>2017-02-21T08:20:30Z</time>
      </trkpt>
      <trkpt lat="42.78649" lon="0.14782">
        <ele>1824.2</ele>
        <time>2017-02-21T08:20:35Z</time>
      </trkpt>
      <trkpt lat="42.78649" lon="0.14778">
        <ele>1824.6</ele>
        <time>2017-02-21T08:20:40Z</time>
      </trkpt>
      <trkpt lat="42.78649" lon="0.14774">
        <ele>1826.4</ele>
        <time>2017-02-21T08:20:45Z</time>
      </trkpt>
      <trkpt lat="42.78648" lon="0.1477">
        <ele>1827.8</ele>
        <time>2017-02-21T08:20:50Z</time>
      </trkpt>
      <trkpt lat="42.78648" lon="0.14766">
        <ele>1828.4</ele>
        <time>2017-02-21T08:20:55Z</time>
      </trkpt>
      <trkpt lat="42.78648" lon="0.14766">
        <ele>1828.4</ele>
        <time>2017-02-21T08:21:00Z</time>
      </trkpt>
      <trkpt lat="42.78648" lon="0.14762">
        <ele>1829.6</ele>
        <time>2017-02-21T08:21:05Z</time>
      </trkpt>
      <trkpt lat="42.78648" lon="0.14757">
        <ele>1827.8</ele>
        <time>2017-02-21T08:21:10Z</time>
      </trkpt>
      <trkpt lat="42.78648" lon="0.14754">
        <ele>1828.6</ele>
        <time>2017-02-21T08:21:15Z</time>
      </trkpt>
      <trkpt lat="42.78648" lon="0.1475">
        <ele>1831.8</ele>
        <time>2017-02-21T08:21:20Z</time>
      </trkpt>
      <trkpt lat="42.78648" lon="0.14746">
        <ele>1833.2</ele>
        <time>2017-02-21T08:21:25Z</time>
      </trkpt>
      <trkpt lat="42.78648" lon="0.14743">
        <ele>1830.6</ele>
        <time>2017-02-21T08:21:30Z</time>
      </trkpt>
      <trkpt lat="42.78648" lon="0.14739">
        <ele>1834.8</ele>
        <time>2017-02-21T08:21:35Z</time>
      </trkpt>
      <trkpt lat="42.78648" lon="0.14736">
        <ele>1834.6</ele>
        <time>2017-02-21T08:21:40Z</time>
      </trkpt>
      <trkpt lat="42.78647" lon="0.14732">
        <ele>1836</ele>
        <time>2017-02-21T08:21:45Z</time>
      </trkpt>
      <trkpt lat="42.78647" lon="0.14729">
        <ele>1834.8</ele>
        <time>2017-02-21T08:21:50Z</time>
      </trkpt>
      <trkpt lat="42.78646" lon="0.14725">
        <ele>1835.4</ele>
        <time>2017-02-21T08:21:55Z</time>
      </trkpt>
      <trkpt lat="42.78646" lon="0.14721">
        <ele>1840.6</ele>
        <time>2017-02-21T08:22:00Z</time>
      </trkpt>
      <trkpt lat="42.78645" lon="0.14718">
        <ele>1837.6</ele>
        <time>2017-02-21T08:22:05Z</time>
      </trkpt>
      <trkpt lat="42.78645" lon="0.14714">
        <ele>1837.4</ele>
        <time>2017-02-21T08:22:10Z</time>
      </trkpt>
      <trkpt lat="42.78644" lon="0.1471">
        <ele>1837.4</ele>
        <time>2017-02-21T08:22:15Z</time>
      </trkpt>
      <trkpt lat="42.78644" lon="0.14706">
        <ele>1839.2</ele>
        <time>2017-02-21T08:22:20Z</time>
      </trkpt>
      <trkpt lat="42.78644" lon="0.14703">
        <ele>1843</ele>
        <time>2017-02-21T08:22:25Z</time>
      </trkpt>
      <trkpt lat="42.78643" lon="0.14699">
        <ele>1840.2</ele>
        <time>2017-02-21T08:22:30Z</time>
      </trkpt>
      <trkpt lat="42.78643" lon="0.14694">
        <ele>1843.8</ele>
        <time>2017-02-21T08:22:35Z</time>
      </trkpt>
      <trkpt lat="42.78643" lon="0.1469">
        <ele>1842.4</ele>
        <time>2017-02-21T08:22:40Z</time>
      </trkpt>
      <trkpt lat="42.78642" lon="0.14686">
        <ele>1844.4</ele>
        <time>2017-02-21T08:22:45Z</time>
      </trkpt>
      <trkpt lat="42.78642" lon="0.14683">
        <ele>1845.6</ele>
        <time>2017-02-21T08:22:50Z</time>
      </trkpt>
      <trkpt lat="42.78642" lon="0.1468">
        <ele>1841.6</ele>
        <time>2017-02-21T08:22:55Z</time>
      </trkpt>
      <trkpt lat="42.78641" lon="0.14676">
        <ele>1843.4</ele>
        <time>2017-02-21T08:23:00Z</time>
      </trkpt>
      <trkpt lat="42.78641" lon="0.14672">
        <ele>1846</ele>
        <time>2017-02-21T08:23:05Z</time>
      </trkpt>
      <trkpt lat="42.78641" lon="0.14669">
        <ele>1846.2</ele>
        <time>2017-02-21T08:23:10Z</time>
      </trkpt>
      <trkpt lat="42.78641" lon="0.14665">
        <ele>1848.2</ele>
        <time>2017-02-21T08:23:15Z</time>
      </trkpt>
      <trkpt lat="42.78641" lon="0.14661">
        <ele>1848</ele>
        <time>2017-02-21T08:23:20Z</time>
      </trkpt>
      <trkpt lat="42.78641" lon="0.14658">
        <ele>1848.6</ele>
        <time>2017-02-21T08:23:25Z</time>
      </trkpt>
      <trkpt lat="42.78641" lon="0.14654">
        <ele>1852.6</ele>
        <time>2017-02-21T08:23:30Z</time>
      </trkpt>
      <trkpt lat="42.7864" lon="0.14651">
        <ele>1850.8</ele>
        <time>2017-02-21T08:23:35Z</time>
      </trkpt>
      <trkpt lat="42.78641" lon="0.14648">
        <ele>1852</ele>
        <time>2017-02-21T08:23:40Z</time>
      </trkpt>
      <trkpt lat="42.78641" lon="0.14643">
        <ele>1849.8</ele>
        <time>2017-02-21T08:23:45Z</time>
      </trkpt>
      <trkpt lat="42.7864" lon="0.14639">
        <ele>1853</ele>
        <time>2017-02-21T08:23:50Z</time>
      </trkpt>
      <trkpt lat="42.7864" lon="0.14635">
        <ele>1851.2</ele>
        <time>2017-02-21T08:23:55Z</time>
      </trkpt>
      <trkpt lat="42.78639" lon="0.14632">
        <ele>1853.6</ele>
        <time>2017-02-21T08:24:00Z</time>
      </trkpt>
      <trkpt lat="42.78639" lon="0.14628">
        <ele>1854</ele>
        <time>2017-02-21T08:24:05Z</time>
      </trkpt>
      <trkpt lat="42.78639" lon="0.14624">
        <ele>1856.8</ele>
        <time>2017-02-21T08:24:10Z</time>
      </trkpt>
      <trkpt lat="42.78638" lon="0.14619">
        <ele>1852.8</ele>
        <time>2017-02-21T08:24:15Z</time>
      </trkpt>
      <trkpt lat="42.78638" lon="0.14615">
        <ele>1856</ele>
        <time>2017-02-21T08:24:20Z</time>
      </trkpt>
      <trkpt lat="42.78638" lon="0.14611">
        <ele>1855.8</ele>
        <time>2017-02-21T08:24:25Z</time>
      </trkpt>
      <trkpt lat="42.78638" lon="0.14607">
        <ele>1857.8</ele>
        <time>2017-02-21T08:24:30Z</time>
      </trkpt>
      <trkpt lat="42.78638" lon="0.14603">
        <ele>1858.4</ele>
        <time>2017-02-21T08:24:35Z</time>
      </trkpt>
      <trkpt lat="42.78638" lon="0.14601">
        <ele>1856.4</ele>
        <time>2017-02-21T08:24:40Z</time>
      </trkpt>
      <trkpt lat="42.78638" lon="0.14601">
        <ele>1856.2</ele>
        <time>2017-02-21T08:24:45Z</time>
      </trkpt>
      <trkpt lat="42.78638" lon="0.14601">
        <ele>1856.2</ele>
        <time>2017-02-21T08:24:50Z</time>
      </trkpt>
      <trkpt lat="42.78638" lon="0.14601">
        <ele>1856</ele>
        <time>2017-02-21T08:24:55Z</time>
      </trkpt>
      <trkpt lat="42.78638" lon="0.14598">
        <ele>1858.4</ele>
        <time>2017-02-21T08:25:00Z</time>
      </trkpt>
      <trkpt lat="42.78638" lon="0.14594">
        <ele>1854.2</ele>
        <time>2017-02-21T08:25:05Z</time>
      </trkpt>
      <trkpt lat="42.78638" lon="0.14594">
        <ele>1855.2</ele>
        <time>2017-02-21T08:25:10Z</time>
      </trkpt>
      <trkpt lat="42.78638" lon="0.14594">
        <ele>1856</ele>
        <time>2017-02-21T08:25:15Z</time>
      </trkpt>
      <trkpt lat="42.78638" lon="0.14594">
        <ele>1856.4</ele>
        <time>2017-02-21T08:25:20Z</time>
      </trkpt>
      <trkpt lat="42.78638" lon="0.14594">
        <ele>1856.8</ele>
        <time>2017-02-21T08:25:25Z</time>
      </trkpt>
      <trkpt lat="42.78638" lon="0.14594">
        <ele>1857.2</ele>
        <time>2017-02-21T08:25:30Z</time>
      </trkpt>
      <trkpt lat="42.78638" lon="0.14594">
        <ele>1857.4</ele>
        <time>2017-02-21T08:25:35Z</time>
      </trkpt>
      <trkpt lat="42.78638" lon="0.14594">
        <ele>1857.6</ele>
        <time>2017-02-21T08:25:40Z</time>
      </trkpt>
      <trkpt lat="42.78638" lon="0.14594">
        <ele>1857.8</ele>
        <time>2017-02-21T08:25:45Z</time>
      </trkpt>
      <trkpt lat="42.78638" lon="0.14594">
        <ele>1858</ele>
        <time>2017-02-21T08:25:50Z</time>
      </trkpt>
      <trkpt lat="42.78639" lon="0.14594">
        <ele>1858</ele>
        <time>2017-02-21T08:25:55Z</time>
      </trkpt>
      <trkpt lat="42.78639" lon="0.14595">
        <ele>1858.2</ele>
        <time>2017-02-21T08:26:00Z</time>
      </trkpt>
      <trkpt lat="42.78639" lon="0.14595">
        <ele>1858.4</ele>
        <time>2017-02-21T08:26:05Z</time>
      </trkpt>
      <trkpt lat="42.78639" lon="0.14595">
        <ele>1858.4</ele>
        <time>2017-02-21T08:26:10Z</time>
      </trkpt>
      <trkpt lat="42.7864" lon="0.14594">
        <ele>1856.2</ele>
        <time>2017-02-21T08:26:15Z</time>
      </trkpt>
      <trkpt lat="42.78642" lon="0.14594">
        <ele>1857.6</ele>
        <time>2017-02-21T08:26:20Z</time>
      </trkpt>
      <trkpt lat="42.78644" lon="0.14591">
        <ele>1859.4</ele>
        <time>2017-02-21T08:26:25Z</time>
      </trkpt>
      <trkpt lat="42.78644" lon="0.14587">
        <ele>1858.6</ele>
        <time>2017-02-21T08:26:30Z</time>
      </trkpt>
      <trkpt lat="42.78644" lon="0.14583">
        <ele>1860.4</ele>
        <time>2017-02-21T08:26:35Z</time>
      </trkpt>
      <trkpt lat="42.78643" lon="0.14579">
        <ele>1862.6</ele>
        <time>2017-02-21T08:26:40Z</time>
      </trkpt>
      <trkpt lat="42.78643" lon="0.14575">
        <ele>1863.6</ele>
        <time>2017-02-21T08:26:45Z</time>
      </trkpt>
      <trkpt lat="42.78642" lon="0.14571">
        <ele>1861.6</ele>
        <time>2017-02-21T08:26:50Z</time>
      </trkpt>
      <trkpt lat="42.78642" lon="0.14568">
        <ele>1864.2</ele>
        <time>2017-02-21T08:26:55Z</time>
      </trkpt>
      <trkpt lat="42.78641" lon="0.14563">
        <ele>1865.2</ele>
        <time>2017-02-21T08:27:00Z</time>
      </trkpt>
      <trkpt lat="42.7864" lon="0.14559">
        <ele>1864</ele>
        <time>2017-02-21T08:27:05Z</time>
      </trkpt>
      <trkpt lat="42.7864" lon="0.14554">
        <ele>1864.8</ele>
        <time>2017-02-21T08:27:10Z</time>
      </trkpt>
      <trkpt lat="42.7864" lon="0.1455">
        <ele>1863</ele>
        <time>2017-02-21T08:27:15Z</time>
      </trkpt>
      <trkpt lat="42.7864" lon="0.14545">
        <ele>1866.4</ele>
        <time>2017-02-21T08:27:20Z</time>
      </trkpt>
      <trkpt lat="42.7864" lon="0.1454">
        <ele>1863.6</ele>
        <time>2017-02-21T08:27:25Z</time>
      </trkpt>
      <trkpt lat="42.7864" lon="0.14536">
        <ele>1865.4</ele>
        <time>2017-02-21T08:27:30Z</time>
      </trkpt>
      <trkpt lat="42.7864" lon="0.14531">
        <ele>1864.4</ele>
        <time>2017-02-21T08:27:35Z</time>
      </trkpt>
      <trkpt lat="42.7864" lon="0.14526">
        <ele>1867.8</ele>
        <time>2017-02-21T08:27:40Z</time>
      </trkpt>
      <trkpt lat="42.7864" lon="0.14521">
        <ele>1866</ele>
        <time>2017-02-21T08:27:45Z</time>
      </trkpt>
      <trkpt lat="42.78641" lon="0.14519">
        <ele>1869</ele>
        <time>2017-02-21T08:27:50Z</time>
      </trkpt>
      <trkpt lat="42.78642" lon="0.14514">
        <ele>1868.8</ele>
        <time>2017-02-21T08:27:55Z</time>
      </trkpt>
      <trkpt lat="42.78644" lon="0.14509">
        <ele>1871</ele>
        <time>2017-02-21T08:28:00Z</time>
      </trkpt>
      <trkpt lat="42.78645" lon="0.14502">
        <ele>1868.4</ele>
        <time>2017-02-21T08:28:05Z</time>
      </trkpt>
      <trkpt lat="42.78645" lon="0.14497">
        <ele>1871</ele>
        <time>2017-02-21T08:28:10Z</time>
      </trkpt>
      <trkpt lat="42.78646" lon="0.14492">
        <ele>1871.2</ele>
        <time>2017-02-21T08:28:15Z</time>
      </trkpt>
      <trkpt lat="42.78646" lon="0.14487">
        <ele>1867.6</ele>
        <time>2017-02-21T08:28:20Z</time>
      </trkpt>
      <trkpt lat="42.78645" lon="0.14482">
        <ele>1868.4</ele>
        <time>2017-02-21T08:28:25Z</time>
      </trkpt>
      <trkpt lat="42.78645" lon="0.14477">
        <ele>1873</ele>
        <time>2017-02-21T08:28:30Z</time>
      </trkpt>
      <trkpt lat="42.78645" lon="0.14472">
        <ele>1873.2</ele>
        <time>2017-02-21T08:28:35Z</time>
      </trkpt>
      <trkpt lat="42.78645" lon="0.14468">
        <ele>1871.8</ele>
        <time>2017-02-21T08:28:40Z</time>
      </trkpt>
      <trkpt lat="42.78646" lon="0.14463">
        <ele>1874.6</ele>
        <time>2017-02-21T08:28:45Z</time>
      </trkpt>
      <trkpt lat="42.78646" lon="0.14457">
        <ele>1874.2</ele>
        <time>2017-02-21T08:28:50Z</time>
      </trkpt>
      <trkpt lat="42.78647" lon="0.14452">
        <ele>1873.8</ele>
        <time>2017-02-21T08:28:55Z</time>
      </trkpt>
      <trkpt lat="42.78647" lon="0.14446">
        <ele>1875.2</ele>
        <time>2017-02-21T08:29:00Z</time>
      </trkpt>
      <trkpt lat="42.78647" lon="0.14441">
        <ele>1874.6</ele>
        <time>2017-02-21T08:29:05Z</time>
      </trkpt>
      <trkpt lat="42.78647" lon="0.14436">
        <ele>1873</ele>
        <time>2017-02-21T08:29:10Z</time>
      </trkpt>
      <trkpt lat="42.78647" lon="0.14431">
        <ele>1877.6</ele>
        <time>2017-02-21T08:29:15Z</time>
      </trkpt>
      <trkpt lat="42.78646" lon="0.14424">
        <ele>1876.6</ele>
        <time>2017-02-21T08:29:20Z</time>
      </trkpt>
      <trkpt lat="42.78646" lon="0.14418">
        <ele>1874.2</ele>
        <time>2017-02-21T08:29:25Z</time>
      </trkpt>
      <trkpt lat="42.78645" lon="0.14412">
        <ele>1876.2</ele>
        <time>2017-02-21T08:29:30Z</time>
      </trkpt>
      <trkpt lat="42.78644" lon="0.14407">
        <ele>1876.4</ele>
        <time>2017-02-21T08:29:35Z</time>
      </trkpt>
      <trkpt lat="42.78644" lon="0.14402">
        <ele>1875</ele>
        <time>2017-02-21T08:29:40Z</time>
      </trkpt>
      <trkpt lat="42.78644" lon="0.14397">
        <ele>1873.8</ele>
        <time>2017-02-21T08:29:45Z</time>
      </trkpt>
      <trkpt lat="42.78644" lon="0.14392">
        <ele>1874.4</ele>
        <time>2017-02-21T08:29:50Z</time>
      </trkpt>
      <trkpt lat="42.78644" lon="0.14387">
        <ele>1872</ele>
        <time>2017-02-21T08:29:55Z</time>
      </trkpt>
      <trkpt lat="42.78643" lon="0.14383">
        <ele>1873</ele>
        <time>2017-02-21T08:30:00Z</time>
      </trkpt>
      <trkpt lat="42.78641" lon="0.14378">
        <ele>1876.2</ele>
        <time>2017-02-21T08:30:05Z</time>
      </trkpt>
      <trkpt lat="42.78639" lon="0.14374">
        <ele>1873.6</ele>
        <time>2017-02-21T08:30:10Z</time>
      </trkpt>
      <trkpt lat="42.78637" lon="0.1437">
        <ele>1876.6</ele>
        <time>2017-02-21T08:30:15Z</time>
      </trkpt>
      <trkpt lat="42.78636" lon="0.14366">
        <ele>1876.6</ele>
        <time>2017-02-21T08:30:20Z</time>
      </trkpt>
      <trkpt lat="42.78635" lon="0.14362">
        <ele>1876.4</ele>
        <time>2017-02-21T08:30:25Z</time>
      </trkpt>
      <trkpt lat="42.78634" lon="0.14358">
        <ele>1876.8</ele>
        <time>2017-02-21T08:30:30Z</time>
      </trkpt>
      <trkpt lat="42.78633" lon="0.14358">
        <ele>1876.4</ele>
        <time>2017-02-21T08:30:35Z</time>
      </trkpt>
      <trkpt lat="42.78633" lon="0.14358">
        <ele>1876.2</ele>
        <time>2017-02-21T08:30:40Z</time>
      </trkpt>
      <trkpt lat="42.78633" lon="0.14358">
        <ele>1876</ele>
        <time>2017-02-21T08:30:45Z</time>
      </trkpt>
      <trkpt lat="42.78633" lon="0.14357">
        <ele>1875.8</ele>
        <time>2017-02-21T08:30:50Z</time>
      </trkpt>
      <trkpt lat="42.78632" lon="0.14352">
        <ele>1875</ele>
        <time>2017-02-21T08:30:55Z</time>
      </trkpt>
      <trkpt lat="42.78631" lon="0.14347">
        <ele>1878</ele>
        <time>2017-02-21T08:31:00Z</time>
      </trkpt>
      <trkpt lat="42.7863" lon="0.14342">
        <ele>1880.2</ele>
        <time>2017-02-21T08:31:05Z</time>
      </trkpt>
      <trkpt lat="42.78628" lon="0.14337">
        <ele>1881</ele>
        <time>2017-02-21T08:31:10Z</time>
      </trkpt>
      <trkpt lat="42.78627" lon="0.14332">
        <ele>1878.4</ele>
        <time>2017-02-21T08:31:15Z</time>
      </trkpt>
      <trkpt lat="42.78625" lon="0.14328">
        <ele>1880.2</ele>
        <time>2017-02-21T08:31:20Z</time>
      </trkpt>
      <trkpt lat="42.78624" lon="0.14323">
        <ele>1880.6</ele>
        <time>2017-02-21T08:31:25Z</time>
      </trkpt>
      <trkpt lat="42.78622" lon="0.14318">
        <ele>1881</ele>
        <time>2017-02-21T08:31:30Z</time>
      </trkpt>
      <trkpt lat="42.78621" lon="0.14313">
        <ele>1879.6</ele>
        <time>2017-02-21T08:31:35Z</time>
      </trkpt>
      <trkpt lat="42.7862" lon="0.14309">
        <ele>1880.8</ele>
        <time>2017-02-21T08:31:40Z</time>
      </trkpt>
      <trkpt lat="42.78619" lon="0.14304">
        <ele>1883.6</ele>
        <time>2017-02-21T08:31:45Z</time>
      </trkpt>
      <trkpt lat="42.78618" lon="0.143">
        <ele>1883.8</ele>
        <time>2017-02-21T08:31:50Z</time>
      </trkpt>
      <trkpt lat="42.78616" lon="0.14296">
        <ele>1885.6</ele>
        <time>2017-02-21T08:31:55Z</time>
      </trkpt>
      <trkpt lat="42.78615" lon="0.14291">
        <ele>1884</ele>
        <time>2017-02-21T08:32:01Z</time>
      </trkpt>
      <trkpt lat="42.78614" lon="0.14286">
        <ele>1883</ele>
        <time>2017-02-21T08:32:06Z</time>
      </trkpt>
      <trkpt lat="42.78613" lon="0.14282">
        <ele>1885.6</ele>
        <time>2017-02-21T08:32:11Z</time>
      </trkpt>
      <trkpt lat="42.78611" lon="0.14279">
        <ele>1885</ele>
        <time>2017-02-21T08:32:16Z</time>
      </trkpt>
      <trkpt lat="42.7861" lon="0.14275">
        <ele>1885.6</ele>
        <time>2017-02-21T08:32:21Z</time>
      </trkpt>
      <trkpt lat="42.78609" lon="0.14271">
        <ele>1887.4</ele>
        <time>2017-02-21T08:32:26Z</time>
      </trkpt>
      <trkpt lat="42.78609" lon="0.14268">
        <ele>1888.4</ele>
        <time>2017-02-21T08:32:31Z</time>
      </trkpt>
      <trkpt lat="42.78608" lon="0.14264">
        <ele>1888.6</ele>
        <time>2017-02-21T08:32:36Z</time>
      </trkpt>
      <trkpt lat="42.78607" lon="0.1426">
        <ele>1888.4</ele>
        <time>2017-02-21T08:32:41Z</time>
      </trkpt>
      <trkpt lat="42.78607" lon="0.14259">
        <ele>1888.4</ele>
        <time>2017-02-21T08:32:46Z</time>
      </trkpt>
      <trkpt lat="42.78607" lon="0.14259">
        <ele>1888.6</ele>
        <time>2017-02-21T08:32:51Z</time>
      </trkpt>
      <trkpt lat="42.78607" lon="0.14258">
        <ele>1889.6</ele>
        <time>2017-02-21T08:32:56Z</time>
      </trkpt>
      <trkpt lat="42.78607" lon="0.14258">
        <ele>1889.4</ele>
        <time>2017-02-21T08:33:01Z</time>
      </trkpt>
      <trkpt lat="42.78607" lon="0.14258">
        <ele>1889</ele>
        <time>2017-02-21T08:33:06Z</time>
      </trkpt>
      <trkpt lat="42.78607" lon="0.14259">
        <ele>1888.8</ele>
        <time>2017-02-21T08:33:11Z</time>
      </trkpt>
      <trkpt lat="42.78607" lon="0.14259">
        <ele>1888.6</ele>
        <time>2017-02-21T08:33:16Z</time>
      </trkpt>
      <trkpt lat="42.78607" lon="0.14259">
        <ele>1888.6</ele>
        <time>2017-02-21T08:33:21Z</time>
      </trkpt>
      <trkpt lat="42.78607" lon="0.14259">
        <ele>1888.4</ele>
        <time>2017-02-21T08:33:26Z</time>
      </trkpt>
      <trkpt lat="42.78607" lon="0.14259">
        <ele>1888.4</ele>
        <time>2017-02-21T08:33:31Z</time>
      </trkpt>
      <trkpt lat="42.78607" lon="0.14259">
        <ele>1888.4</ele>
        <time>2017-02-21T08:33:36Z</time>
      </trkpt>
      <trkpt lat="42.78607" lon="0.14259">
        <ele>1888.4</ele>
        <time>2017-02-21T08:33:41Z</time>
      </trkpt>
      <trkpt lat="42.78607" lon="0.14259">
        <ele>1888.4</ele>
        <time>2017-02-21T08:33:46Z</time>
      </trkpt>
      <trkpt lat="42.78607" lon="0.14259">
        <ele>1888.4</ele>
        <time>2017-02-21T08:33:51Z</time>
      </trkpt>
      <trkpt lat="42.78607" lon="0.14259">
        <ele>1888.2</ele>
        <time>2017-02-21T08:33:56Z</time>
      </trkpt>
      <trkpt lat="42.78607" lon="0.14259">
        <ele>1888.2</ele>
        <time>2017-02-21T08:34:01Z</time>
      </trkpt>
      <trkpt lat="42.78607" lon="0.14259">
        <ele>1888</ele>
        <time>2017-02-21T08:34:06Z</time>
      </trkpt>
      <trkpt lat="42.78607" lon="0.14259">
        <ele>1888</ele>
        <time>2017-02-21T08:34:11Z</time>
      </trkpt>
      <trkpt lat="42.78607" lon="0.14259">
        <ele>1888</ele>
        <time>2017-02-21T08:34:16Z</time>
      </trkpt>
      <trkpt lat="42.78607" lon="0.14259">
        <ele>1888</ele>
        <time>2017-02-21T08:34:21Z</time>
      </trkpt>
      <trkpt lat="42.78607" lon="0.14259">
        <ele>1888</ele>
        <time>2017-02-21T08:34:26Z</time>
      </trkpt>
      <trkpt lat="42.78608" lon="0.14259">
        <ele>1888</ele>
        <time>2017-02-21T08:34:32Z</time>
      </trkpt>
      <trkpt lat="42.78608" lon="0.14259">
        <ele>1888.2</ele>
        <time>2017-02-21T08:34:37Z</time>
      </trkpt>
      <trkpt lat="42.78608" lon="0.14259">
        <ele>1888</ele>
        <time>2017-02-21T08:34:42Z</time>
      </trkpt>
      <trkpt lat="42.78607" lon="0.14259">
        <ele>1888</ele>
        <time>2017-02-21T08:34:48Z</time>
      </trkpt>
      <trkpt lat="42.78605" lon="0.14256">
        <ele>1889</ele>
        <time>2017-02-21T08:34:53Z</time>
      </trkpt>
      <trkpt lat="42.78604" lon="0.14251">
        <ele>1888</ele>
        <time>2017-02-21T08:34:58Z</time>
      </trkpt>
      <trkpt lat="42.78603" lon="0.14247">
        <ele>1885.2</ele>
        <time>2017-02-21T08:35:03Z</time>
      </trkpt>
      <trkpt lat="42.78602" lon="0.14244">
        <ele>1885.2</ele>
        <time>2017-02-21T08:35:08Z</time>
      </trkpt>
      <trkpt lat="42.78601" lon="0.14241">
        <ele>1888.8</ele>
        <time>2017-02-21T08:35:13Z</time>
      </trkpt>
      <trkpt lat="42.786" lon="0.14238">
        <ele>1888.6</ele>
        <time>2017-02-21T08:35:18Z</time>
      </trkpt>
      <trkpt lat="42.78598" lon="0.14234">
        <ele>1890.2</ele>
        <time>2017-02-21T08:35:23Z</time>
      </trkpt>
      <trkpt lat="42.78598" lon="0.14231">
        <ele>1891.8</ele>
        <time>2017-02-21T08:35:28Z</time>
      </trkpt>
      <trkpt lat="42.78597" lon="0.14227">
        <ele>1892.8</ele>
        <time>2017-02-21T08:35:33Z</time>
      </trkpt>
      <trkpt lat="42.78596" lon="0.14224">
        <ele>1893</ele>
        <time>2017-02-21T08:35:38Z</time>
      </trkpt>
      <trkpt lat="42.78595" lon="0.1422">
        <ele>1893.6</ele>
        <time>2017-02-21T08:35:43Z</time>
      </trkpt>
      <trkpt lat="42.78594" lon="0.14216">
        <ele>1891.4</ele>
        <time>2017-02-21T08:35:48Z</time>
      </trkpt>
      <trkpt lat="42.78593" lon="0.14213">
        <ele>1892.4</ele>
        <time>2017-02-21T08:35:53Z</time>
      </trkpt>
      <trkpt lat="42.78592" lon="0.14208">
        <ele>1896.8</ele>
        <time>2017-02-21T08:35:58Z</time>
      </trkpt>
      <trkpt lat="42.78591" lon="0.14204">
        <ele>1898</ele>
        <time>2017-02-21T08:36:03Z</time>
      </trkpt>
      <trkpt lat="42.78591" lon="0.142">
        <ele>1896</ele>
        <time>2017-02-21T08:36:08Z</time>
      </trkpt>
      <trkpt lat="42.7859" lon="0.14197">
        <ele>1898.4</ele>
        <time>2017-02-21T08:36:13Z</time>
      </trkpt>
      <trkpt lat="42.78589" lon="0.14194">
        <ele>1901</ele>
        <time>2017-02-21T08:36:18Z</time>
      </trkpt>
      <trkpt lat="42.78588" lon="0.1419">
        <ele>1899.2</ele>
        <time>2017-02-21T08:36:23Z</time>
      </trkpt>
      <trkpt lat="42.78587" lon="0.14187">
        <ele>1899.4</ele>
        <time>2017-02-21T08:36:28Z</time>
      </trkpt>
      <trkpt lat="42.78586" lon="0.14184">
        <ele>1900.6</ele>
        <time>2017-02-21T08:36:33Z</time>
      </trkpt>
      <trkpt lat="42.78586" lon="0.14181">
        <ele>1903.6</ele>
        <time>2017-02-21T08:36:38Z</time>
      </trkpt>
      <trkpt lat="42.78585" lon="0.14177">
        <ele>1900.6</ele>
        <time>2017-02-21T08:36:43Z</time>
      </trkpt>
      <trkpt lat="42.78584" lon="0.14174">
        <ele>1902.4</ele>
        <time>2017-02-21T08:36:48Z</time>
      </trkpt>
      <trkpt lat="42.78584" lon="0.14171">
        <ele>1901.8</ele>
        <time>2017-02-21T08:36:53Z</time>
      </trkpt>
      <trkpt lat="42.78583" lon="0.14168">
        <ele>1904.8</ele>
        <time>2017-02-21T08:36:58Z</time>
      </trkpt>
      <trkpt lat="42.78583" lon="0.14165">
        <ele>1906.4</ele>
        <time>2017-02-21T08:37:03Z</time>
      </trkpt>
      <trkpt lat="42.78582" lon="0.14162">
        <ele>1905.2</ele>
        <time>2017-02-21T08:37:08Z</time>
      </trkpt>
      <trkpt lat="42.78582" lon="0.14159">
        <ele>1908.4</ele>
        <time>2017-02-21T08:37:13Z</time>
      </trkpt>
      <trkpt lat="42.78582" lon="0.14156">
        <ele>1907.8</ele>
        <time>2017-02-21T08:37:18Z</time>
      </trkpt>
      <trkpt lat="42.78582" lon="0.14152">
        <ele>1907</ele>
        <time>2017-02-21T08:37:23Z</time>
      </trkpt>
      <trkpt lat="42.78581" lon="0.14149">
        <ele>1911</ele>
        <time>2017-02-21T08:37:28Z</time>
      </trkpt>
      <trkpt lat="42.78581" lon="0.14145">
        <ele>1908.8</ele>
        <time>2017-02-21T08:37:33Z</time>
      </trkpt>
      <trkpt lat="42.7858" lon="0.14142">
        <ele>1910.6</ele>
        <time>2017-02-21T08:37:38Z</time>
      </trkpt>
      <trkpt lat="42.78579" lon="0.14139">
        <ele>1909.8</ele>
        <time>2017-02-21T08:37:43Z</time>
      </trkpt>
      <trkpt lat="42.78579" lon="0.14135">
        <ele>1910.8</ele>
        <time>2017-02-21T08:37:48Z</time>
      </trkpt>
      <trkpt lat="42.78578" lon="0.14132">
        <ele>1912.8</ele>
        <time>2017-02-21T08:37:53Z</time>
      </trkpt>
      <trkpt lat="42.78577" lon="0.14129">
        <ele>1913.2</ele>
        <time>2017-02-21T08:37:58Z</time>
      </trkpt>
      <trkpt lat="42.78577" lon="0.14125">
        <ele>1914.4</ele>
        <time>2017-02-21T08:38:03Z</time>
      </trkpt>
      <trkpt lat="42.78576" lon="0.14122">
        <ele>1914.6</ele>
        <time>2017-02-21T08:38:08Z</time>
      </trkpt>
      <trkpt lat="42.78575" lon="0.14119">
        <ele>1913.2</ele>
        <time>2017-02-21T08:38:13Z</time>
      </trkpt>
      <trkpt lat="42.78574" lon="0.14115">
        <ele>1916.4</ele>
        <time>2017-02-21T08:38:18Z</time>
      </trkpt>
      <trkpt lat="42.78573" lon="0.14112">
        <ele>1916.2</ele>
        <time>2017-02-21T08:38:23Z</time>
      </trkpt>
      <trkpt lat="42.78573" lon="0.14109">
        <ele>1917</ele>
        <time>2017-02-21T08:38:28Z</time>
      </trkpt>
      <trkpt lat="42.78572" lon="0.14105">
        <ele>1918.2</ele>
        <time>2017-02-21T08:38:33Z</time>
      </trkpt>
      <trkpt lat="42.78571" lon="0.14101">
        <ele>1919</ele>
        <time>2017-02-21T08:38:38Z</time>
      </trkpt>
      <trkpt lat="42.78571" lon="0.14099">
        <ele>1918.6</ele>
        <time>2017-02-21T08:38:43Z</time>
      </trkpt>
      <trkpt lat="42.7857" lon="0.14095">
        <ele>1920</ele>
        <time>2017-02-21T08:38:48Z</time>
      </trkpt>
      <trkpt lat="42.7857" lon="0.14091">
        <ele>1917.8</ele>
        <time>2017-02-21T08:38:53Z</time>
      </trkpt>
      <trkpt lat="42.78569" lon="0.14087">
        <ele>1918.8</ele>
        <time>2017-02-21T08:38:58Z</time>
      </trkpt>
      <trkpt lat="42.78568" lon="0.14084">
        <ele>1921.4</ele>
        <time>2017-02-21T08:39:03Z</time>
      </trkpt>
      <trkpt lat="42.78568" lon="0.1408">
        <ele>1919.6</ele>
        <time>2017-02-21T08:39:08Z</time>
      </trkpt>
      <trkpt lat="42.78567" lon="0.14077">
        <ele>1921</ele>
        <time>2017-02-21T08:39:13Z</time>
      </trkpt>
      <trkpt lat="42.78567" lon="0.14074">
        <ele>1923.6</ele>
        <time>2017-02-21T08:39:18Z</time>
      </trkpt>
      <trkpt lat="42.78567" lon="0.14071">
        <ele>1922.6</ele>
        <time>2017-02-21T08:39:23Z</time>
      </trkpt>
      <trkpt lat="42.78566" lon="0.14068">
        <ele>1925.4</ele>
        <time>2017-02-21T08:39:28Z</time>
      </trkpt>
      <trkpt lat="42.78566" lon="0.14065">
        <ele>1925.2</ele>
        <time>2017-02-21T08:39:33Z</time>
      </trkpt>
      <trkpt lat="42.78566" lon="0.14062">
        <ele>1928.6</ele>
        <time>2017-02-21T08:39:38Z</time>
      </trkpt>
      <trkpt lat="42.78566" lon="0.1406">
        <ele>1926.4</ele>
        <time>2017-02-21T08:39:43Z</time>
      </trkpt>
      <trkpt lat="42.78567" lon="0.14059">
        <ele>1927.8</ele>
        <time>2017-02-21T08:39:48Z</time>
      </trkpt>
      <trkpt lat="42.78567" lon="0.14058">
        <ele>1929.8</ele>
        <time>2017-02-21T08:39:53Z</time>
      </trkpt>
      <trkpt lat="42.78567" lon="0.14055">
        <ele>1930.6</ele>
        <time>2017-02-21T08:39:58Z</time>
      </trkpt>
      <trkpt lat="42.78566" lon="0.14053">
        <ele>1934.2</ele>
        <time>2017-02-21T08:40:03Z</time>
      </trkpt>
      <trkpt lat="42.78565" lon="0.1405">
        <ele>1938.2</ele>
        <time>2017-02-21T08:40:08Z</time>
      </trkpt>
      <trkpt lat="42.78564" lon="0.14047">
        <ele>1939.4</ele>
        <time>2017-02-21T08:40:13Z</time>
      </trkpt>
      <trkpt lat="42.78563" lon="0.14043">
        <ele>1937</ele>
        <time>2017-02-21T08:40:18Z</time>
      </trkpt>
      <trkpt lat="42.78562" lon="0.14039">
        <ele>1939.4</ele>
        <time>2017-02-21T08:40:23Z</time>
      </trkpt>
      <trkpt lat="42.78561" lon="0.14034">
        <ele>1938.8</ele>
        <time>2017-02-21T08:40:28Z</time>
      </trkpt>
      <trkpt lat="42.78559" lon="0.14028">
        <ele>1941.6</ele>
        <time>2017-02-21T08:40:33Z</time>
      </trkpt>
      <trkpt lat="42.78558" lon="0.14024">
        <ele>1942.2</ele>
        <time>2017-02-21T08:40:38Z</time>
      </trkpt>
      <trkpt lat="42.78557" lon="0.1402">
        <ele>1941.2</ele>
        <time>2017-02-21T08:40:43Z</time>
      </trkpt>
      <trkpt lat="42.78556" lon="0.14017">
        <ele>1942</ele>
        <time>2017-02-21T08:40:48Z</time>
      </trkpt>
      <trkpt lat="42.78556" lon="0.14014">
        <ele>1944.2</ele>
        <time>2017-02-21T08:40:53Z</time>
      </trkpt>
      <trkpt lat="42.78555" lon="0.1401">
        <ele>1942.2</ele>
        <time>2017-02-21T08:40:58Z</time>
      </trkpt>
      <trkpt lat="42.78555" lon="0.14006">
        <ele>1942.6</ele>
        <time>2017-02-21T08:41:03Z</time>
      </trkpt>
      <trkpt lat="42.78554" lon="0.14002">
        <ele>1942.2</ele>
        <time>2017-02-21T08:41:08Z</time>
      </trkpt>
      <trkpt lat="42.78553" lon="0.13998">
        <ele>1942.4</ele>
        <time>2017-02-21T08:41:13Z</time>
      </trkpt>
      <trkpt lat="42.78553" lon="0.13994">
        <ele>1944.4</ele>
        <time>2017-02-21T08:41:18Z</time>
      </trkpt>
      <trkpt lat="42.78552" lon="0.1399">
        <ele>1948.4</ele>
        <time>2017-02-21T08:41:23Z</time>
      </trkpt>
      <trkpt lat="42.78552" lon="0.13987">
        <ele>1946.2</ele>
        <time>2017-02-21T08:41:28Z</time>
      </trkpt>
      <trkpt lat="42.78551" lon="0.13984">
        <ele>1946</ele>
        <time>2017-02-21T08:41:33Z</time>
      </trkpt>
      <trkpt lat="42.78551" lon="0.13981">
        <ele>1946.4</ele>
        <time>2017-02-21T08:41:38Z</time>
      </trkpt>
      <trkpt lat="42.7855" lon="0.13977">
        <ele>1947.6</ele>
        <time>2017-02-21T08:41:43Z</time>
      </trkpt>
      <trkpt lat="42.7855" lon="0.13974">
        <ele>1946.8</ele>
        <time>2017-02-21T08:41:48Z</time>
      </trkpt>
      <trkpt lat="42.78549" lon="0.13971">
        <ele>1946.6</ele>
        <time>2017-02-21T08:41:53Z</time>
      </trkpt>
      <trkpt lat="42.78549" lon="0.13968">
        <ele>1947.4</ele>
        <time>2017-02-21T08:41:58Z</time>
      </trkpt>
      <trkpt lat="42.78549" lon="0.13964">
        <ele>1948.8</ele>
        <time>2017-02-21T08:42:03Z</time>
      </trkpt>
      <trkpt lat="42.78549" lon="0.1396">
        <ele>1949.2</ele>
        <time>2017-02-21T08:42:08Z</time>
      </trkpt>
      <trkpt lat="42.78548" lon="0.13957">
        <ele>1950.4</ele>
        <time>2017-02-21T08:42:13Z</time>
      </trkpt>
      <trkpt lat="42.78548" lon="0.13953">
        <ele>1949.8</ele>
        <time>2017-02-21T08:42:18Z</time>
      </trkpt>
      <trkpt lat="42.78548" lon="0.13949">
        <ele>1951.2</ele>
        <time>2017-02-21T08:42:23Z</time>
      </trkpt>
      <trkpt lat="42.78547" lon="0.13946">
        <ele>1952.4</ele>
        <time>2017-02-21T08:42:28Z</time>
      </trkpt>
      <trkpt lat="42.78546" lon="0.13942">
        <ele>1954</ele>
        <time>2017-02-21T08:42:33Z</time>
      </trkpt>
      <trkpt lat="42.78546" lon="0.13938">
        <ele>1952.8</ele>
        <time>2017-02-21T08:42:38Z</time>
      </trkpt>
      <trkpt lat="42.78546" lon="0.13935">
        <ele>1954.2</ele>
        <time>2017-02-21T08:42:43Z</time>
      </trkpt>
      <trkpt lat="42.78545" lon="0.13931">
        <ele>1954.6</ele>
        <time>2017-02-21T08:42:48Z</time>
      </trkpt>
      <trkpt lat="42.78545" lon="0.13927">
        <ele>1954.2</ele>
        <time>2017-02-21T08:42:53Z</time>
      </trkpt>
      <trkpt lat="42.78545" lon="0.13923">
        <ele>1953.6</ele>
        <time>2017-02-21T08:42:58Z</time>
      </trkpt>
      <trkpt lat="42.78544" lon="0.13919">
        <ele>1953.8</ele>
        <time>2017-02-21T08:43:03Z</time>
      </trkpt>
      <trkpt lat="42.78543" lon="0.13916">
        <ele>1954</ele>
        <time>2017-02-21T08:43:08Z</time>
      </trkpt>
      <trkpt lat="42.78543" lon="0.13912">
        <ele>1957.4</ele>
        <time>2017-02-21T08:43:13Z</time>
      </trkpt>
      <trkpt lat="42.78543" lon="0.13909">
        <ele>1958.8</ele>
        <time>2017-02-21T08:43:18Z</time>
      </trkpt>
      <trkpt lat="42.78542" lon="0.13907">
        <ele>1958.4</ele>
        <time>2017-02-21T08:43:23Z</time>
      </trkpt>
      <trkpt lat="42.78542" lon="0.13907">
        <ele>1959</ele>
        <time>2017-02-21T08:43:28Z</time>
      </trkpt>
      <trkpt lat="42.78542" lon="0.13907">
        <ele>1959.4</ele>
        <time>2017-02-21T08:43:33Z</time>
      </trkpt>
      <trkpt lat="42.78543" lon="0.13906">
        <ele>1959.6</ele>
        <time>2017-02-21T08:43:38Z</time>
      </trkpt>
      <trkpt lat="42.78543" lon="0.13906">
        <ele>1959.6</ele>
        <time>2017-02-21T08:43:43Z</time>
      </trkpt>
      <trkpt lat="42.78543" lon="0.13905">
        <ele>1959.6</ele>
        <time>2017-02-21T08:43:48Z</time>
      </trkpt>
      <trkpt lat="42.78543" lon="0.13905">
        <ele>1959.6</ele>
        <time>2017-02-21T08:43:53Z</time>
      </trkpt>
      <trkpt lat="42.78543" lon="0.13905">
        <ele>1959.8</ele>
        <time>2017-02-21T08:43:58Z</time>
      </trkpt>
      <trkpt lat="42.78543" lon="0.13905">
        <ele>1959.8</ele>
        <time>2017-02-21T08:44:03Z</time>
      </trkpt>
      <trkpt lat="42.78544" lon="0.13905">
        <ele>1959.8</ele>
        <time>2017-02-21T08:44:08Z</time>
      </trkpt>
      <trkpt lat="42.78544" lon="0.13905">
        <ele>1959.6</ele>
        <time>2017-02-21T08:44:13Z</time>
      </trkpt>
      <trkpt lat="42.78544" lon="0.13904">
        <ele>1959.6</ele>
        <time>2017-02-21T08:44:18Z</time>
      </trkpt>
      <trkpt lat="42.78544" lon="0.13904">
        <ele>1959.4</ele>
        <time>2017-02-21T08:44:23Z</time>
      </trkpt>
      <trkpt lat="42.78544" lon="0.13904">
        <ele>1959.4</ele>
        <time>2017-02-21T08:44:28Z</time>
      </trkpt>
      <trkpt lat="42.78544" lon="0.13904">
        <ele>1959.4</ele>
        <time>2017-02-21T08:44:33Z</time>
      </trkpt>
      <trkpt lat="42.78544" lon="0.13904">
        <ele>1959.2</ele>
        <time>2017-02-21T08:44:38Z</time>
      </trkpt>
      <trkpt lat="42.78545" lon="0.13903">
        <ele>1958.8</ele>
        <time>2017-02-21T08:44:43Z</time>
      </trkpt>
      <trkpt lat="42.78544" lon="0.13903">
        <ele>1958.2</ele>
        <time>2017-02-21T08:44:48Z</time>
      </trkpt>
      <trkpt lat="42.78544" lon="0.13903">
        <ele>1958</ele>
        <time>2017-02-21T08:44:53Z</time>
      </trkpt>
      <trkpt lat="42.78544" lon="0.13903">
        <ele>1957.8</ele>
        <time>2017-02-21T08:44:58Z</time>
      </trkpt>
      <trkpt lat="42.78544" lon="0.13903">
        <ele>1957.6</ele>
        <time>2017-02-21T08:45:03Z</time>
      </trkpt>
      <trkpt lat="42.78544" lon="0.13903">
        <ele>1957.4</ele>
        <time>2017-02-21T08:45:08Z</time>
      </trkpt>
      <trkpt lat="42.78544" lon="0.13903">
        <ele>1957.4</ele>
        <time>2017-02-21T08:45:13Z</time>
      </trkpt>
      <trkpt lat="42.78544" lon="0.13903">
        <ele>1957.4</ele>
        <time>2017-02-21T08:45:18Z</time>
      </trkpt>
      <trkpt lat="42.78544" lon="0.13903">
        <ele>1957.4</ele>
        <time>2017-02-21T08:45:23Z</time>
      </trkpt>
      <trkpt lat="42.78544" lon="0.13903">
        <ele>1957.4</ele>
        <time>2017-02-21T08:45:28Z</time>
      </trkpt>
      <trkpt lat="42.78544" lon="0.13903">
        <ele>1957.4</ele>
        <time>2017-02-21T08:45:33Z</time>
      </trkpt>
      <trkpt lat="42.78544" lon="0.13903">
        <ele>1957.4</ele>
        <time>2017-02-21T08:45:38Z</time>
      </trkpt>
      <trkpt lat="42.78544" lon="0.13903">
        <ele>1957.2</ele>
        <time>2017-02-21T08:45:43Z</time>
      </trkpt>
      <trkpt lat="42.78544" lon="0.13903">
        <ele>1957.2</ele>
        <time>2017-02-21T08:45:48Z</time>
      </trkpt>
      <trkpt lat="42.78544" lon="0.13903">
        <ele>1957.2</ele>
        <time>2017-02-21T08:45:53Z</time>
      </trkpt>
      <trkpt lat="42.78544" lon="0.13903">
        <ele>1957.2</ele>
        <time>2017-02-21T08:45:58Z</time>
      </trkpt>
      <trkpt lat="42.78542" lon="0.13898">
        <ele>1956.4</ele>
        <time>2017-02-21T08:46:03Z</time>
      </trkpt>
      <trkpt lat="42.7854" lon="0.13892">
        <ele>1957.2</ele>
        <time>2017-02-21T08:46:08Z</time>
      </trkpt>
      <trkpt lat="42.78539" lon="0.13888">
        <ele>1956.2</ele>
        <time>2017-02-21T08:46:13Z</time>
      </trkpt>
      <trkpt lat="42.78537" lon="0.13882">
        <ele>1959.6</ele>
        <time>2017-02-21T08:46:19Z</time>
      </trkpt>
      <trkpt lat="42.78536" lon="0.13877">
        <ele>1959.8</ele>
        <time>2017-02-21T08:46:24Z</time>
      </trkpt>
      <trkpt lat="42.78535" lon="0.13872">
        <ele>1958.6</ele>
        <time>2017-02-21T08:46:29Z</time>
      </trkpt>
      <trkpt lat="42.78534" lon="0.13868">
        <ele>1961.4</ele>
        <time>2017-02-21T08:46:34Z</time>
      </trkpt>
      <trkpt lat="42.78533" lon="0.13863">
        <ele>1961.8</ele>
        <time>2017-02-21T08:46:39Z</time>
      </trkpt>
      <trkpt lat="42.78532" lon="0.13859">
        <ele>1963.6</ele>
        <time>2017-02-21T08:46:44Z</time>
      </trkpt>
      <trkpt lat="42.78531" lon="0.13853">
        <ele>1965</ele>
        <time>2017-02-21T08:46:49Z</time>
      </trkpt>
      <trkpt lat="42.78529" lon="0.13847">
        <ele>1961</ele>
        <time>2017-02-21T08:46:54Z</time>
      </trkpt>
      <trkpt lat="42.78529" lon="0.13842">
        <ele>1962.4</ele>
        <time>2017-02-21T08:46:59Z</time>
      </trkpt>
      <trkpt lat="42.78527" lon="0.13837">
        <ele>1965.6</ele>
        <time>2017-02-21T08:47:04Z</time>
      </trkpt>
      <trkpt lat="42.78527" lon="0.13833">
        <ele>1965.2</ele>
        <time>2017-02-21T08:47:09Z</time>
      </trkpt>
      <trkpt lat="42.78526" lon="0.13828">
        <ele>1964.2</ele>
        <time>2017-02-21T08:47:14Z</time>
      </trkpt>
      <trkpt lat="42.78526" lon="0.13823">
        <ele>1965.4</ele>
        <time>2017-02-21T08:47:19Z</time>
      </trkpt>
      <trkpt lat="42.78525" lon="0.13814">
        <ele>1962</ele>
        <time>2017-02-21T08:47:24Z</time>
      </trkpt>
      <trkpt lat="42.78524" lon="0.13808">
        <ele>1965.4</ele>
        <time>2017-02-21T08:47:29Z</time>
      </trkpt>
      <trkpt lat="42.78523" lon="0.13802">
        <ele>1965.6</ele>
        <time>2017-02-21T08:47:34Z</time>
      </trkpt>
      <trkpt lat="42.78522" lon="0.13797">
        <ele>1966.6</ele>
        <time>2017-02-21T08:47:39Z</time>
      </trkpt>
      <trkpt lat="42.7852" lon="0.1379">
        <ele>1964.8</ele>
        <time>2017-02-21T08:47:44Z</time>
      </trkpt>
      <trkpt lat="42.7852" lon="0.13786">
        <ele>1966.2</ele>
        <time>2017-02-21T08:47:49Z</time>
      </trkpt>
      <trkpt lat="42.78519" lon="0.1378">
        <ele>1965.6</ele>
        <time>2017-02-21T08:47:54Z</time>
      </trkpt>
      <trkpt lat="42.78518" lon="0.13772">
        <ele>1967</ele>
        <time>2017-02-21T08:47:59Z</time>
      </trkpt>
      <trkpt lat="42.78517" lon="0.13765">
        <ele>1966</ele>
        <time>2017-02-21T08:48:04Z</time>
      </trkpt>
      <trkpt lat="42.78516" lon="0.1376">
        <ele>1968.8</ele>
        <time>2017-02-21T08:48:09Z</time>
      </trkpt>
      <trkpt lat="42.78514" lon="0.13753">
        <ele>1965.8</ele>
        <time>2017-02-21T08:48:14Z</time>
      </trkpt>
      <trkpt lat="42.78514" lon="0.13747">
        <ele>1967</ele>
        <time>2017-02-21T08:48:19Z</time>
      </trkpt>
      <trkpt lat="42.78513" lon="0.13741">
        <ele>1966.8</ele>
        <time>2017-02-21T08:48:24Z</time>
      </trkpt>
      <trkpt lat="42.78512" lon="0.13734">
        <ele>1970.2</ele>
        <time>2017-02-21T08:48:29Z</time>
      </trkpt>
      <trkpt lat="42.7851" lon="0.13727">
        <ele>1968.8</ele>
        <time>2017-02-21T08:48:34Z</time>
      </trkpt>
      <trkpt lat="42.78508" lon="0.13719">
        <ele>1968</ele>
        <time>2017-02-21T08:48:39Z</time>
      </trkpt>
      <trkpt lat="42.78506" lon="0.13714">
        <ele>1968.8</ele>
        <time>2017-02-21T08:48:44Z</time>
      </trkpt>
      <trkpt lat="42.78505" lon="0.13709">
        <ele>1969.6</ele>
        <time>2017-02-21T08:48:49Z</time>
      </trkpt>
      <trkpt lat="42.78504" lon="0.13703">
        <ele>1970.6</ele>
        <time>2017-02-21T08:48:54Z</time>
      </trkpt>
      <trkpt lat="42.78503" lon="0.13699">
        <ele>1969.4</ele>
        <time>2017-02-21T08:48:59Z</time>
      </trkpt>
      <trkpt lat="42.78503" lon="0.13694">
        <ele>1968.8</ele>
        <time>2017-02-21T08:49:04Z</time>
      </trkpt>
      <trkpt lat="42.78503" lon="0.1369">
        <ele>1969</ele>
        <time>2017-02-21T08:49:09Z</time>
      </trkpt>
      <trkpt lat="42.78503" lon="0.13685">
        <ele>1971.4</ele>
        <time>2017-02-21T08:49:14Z</time>
      </trkpt>
      <trkpt lat="42.78503" lon="0.1368">
        <ele>1971.6</ele>
        <time>2017-02-21T08:49:19Z</time>
      </trkpt>
      <trkpt lat="42.78504" lon="0.13676">
        <ele>1973.8</ele>
        <time>2017-02-21T08:49:24Z</time>
      </trkpt>
      <trkpt lat="42.78504" lon="0.13672">
        <ele>1974</ele>
        <time>2017-02-21T08:49:29Z</time>
      </trkpt>
      <trkpt lat="42.78505" lon="0.13666">
        <ele>1974.2</ele>
        <time>2017-02-21T08:49:34Z</time>
      </trkpt>
      <trkpt lat="42.78505" lon="0.1366">
        <ele>1972.4</ele>
        <time>2017-02-21T08:49:39Z</time>
      </trkpt>
      <trkpt lat="42.78505" lon="0.13654">
        <ele>1975.8</ele>
        <time>2017-02-21T08:49:44Z</time>
      </trkpt>
      <trkpt lat="42.78505" lon="0.13648">
        <ele>1973.6</ele>
        <time>2017-02-21T08:49:49Z</time>
      </trkpt>
      <trkpt lat="42.78505" lon="0.13643">
        <ele>1975.6</ele>
        <time>2017-02-21T08:49:54Z</time>
      </trkpt>
      <trkpt lat="42.78506" lon="0.13638">
        <ele>1975.8</ele>
        <time>2017-02-21T08:49:59Z</time>
      </trkpt>
      <trkpt lat="42.78507" lon="0.13632">
        <ele>1977.6</ele>
        <time>2017-02-21T08:50:04Z</time>
      </trkpt>
      <trkpt lat="42.78508" lon="0.13626">
        <ele>1976.4</ele>
        <time>2017-02-21T08:50:09Z</time>
      </trkpt>
      <trkpt lat="42.78509" lon="0.13621">
        <ele>1975.4</ele>
        <time>2017-02-21T08:50:14Z</time>
      </trkpt>
      <trkpt lat="42.7851" lon="0.13614">
        <ele>1977.2</ele>
        <time>2017-02-21T08:50:19Z</time>
      </trkpt>
      <trkpt lat="42.7851" lon="0.1361">
        <ele>1977</ele>
        <time>2017-02-21T08:50:24Z</time>
      </trkpt>
      <trkpt lat="42.78511" lon="0.13605">
        <ele>1979.2</ele>
        <time>2017-02-21T08:50:29Z</time>
      </trkpt>
      <trkpt lat="42.78511" lon="0.13599">
        <ele>1976</ele>
        <time>2017-02-21T08:50:34Z</time>
      </trkpt>
      <trkpt lat="42.7851" lon="0.13593">
        <ele>1978.4</ele>
        <time>2017-02-21T08:50:39Z</time>
      </trkpt>
      <trkpt lat="42.78509" lon="0.13589">
        <ele>1974.4</ele>
        <time>2017-02-21T08:50:44Z</time>
      </trkpt>
      <trkpt lat="42.78507" lon="0.13584">
        <ele>1977.2</ele>
        <time>2017-02-21T08:50:49Z</time>
      </trkpt>
      <trkpt lat="42.78505" lon="0.1358">
        <ele>1978</ele>
        <time>2017-02-21T08:50:54Z</time>
      </trkpt>
      <trkpt lat="42.78504" lon="0.13576">
        <ele>1978.4</ele>
        <time>2017-02-21T08:50:59Z</time>
      </trkpt>
      <trkpt lat="42.78502" lon="0.13572">
        <ele>1979.8</ele>
        <time>2017-02-21T08:51:04Z</time>
      </trkpt>
      <trkpt lat="42.785" lon="0.13569">
        <ele>1980.2</ele>
        <time>2017-02-21T08:51:09Z</time>
      </trkpt>
      <trkpt lat="42.78498" lon="0.13565">
        <ele>1979</ele>
        <time>2017-02-21T08:51:14Z</time>
      </trkpt>
      <trkpt lat="42.78496" lon="0.13561">
        <ele>1983.6</ele>
        <time>2017-02-21T08:51:19Z</time>
      </trkpt>
      <trkpt lat="42.78494" lon="0.13557">
        <ele>1981</ele>
        <time>2017-02-21T08:51:24Z</time>
      </trkpt>
      <trkpt lat="42.78492" lon="0.13553">
        <ele>1981.6</ele>
        <time>2017-02-21T08:51:29Z</time>
      </trkpt>
      <trkpt lat="42.78491" lon="0.13551">
        <ele>1979.8</ele>
        <time>2017-02-21T08:51:34Z</time>
      </trkpt>
      <trkpt lat="42.78491" lon="0.13551">
        <ele>1980.6</ele>
        <time>2017-02-21T08:51:39Z</time>
      </trkpt>
      <trkpt lat="42.78491" lon="0.13551">
        <ele>1981</ele>
        <time>2017-02-21T08:51:44Z</time>
      </trkpt>
      <trkpt lat="42.78491" lon="0.13551">
        <ele>1981.4</ele>
        <time>2017-02-21T08:51:49Z</time>
      </trkpt>
      <trkpt lat="42.78491" lon="0.13551">
        <ele>1981.6</ele>
        <time>2017-02-21T08:51:54Z</time>
      </trkpt>
      <trkpt lat="42.78491" lon="0.13551">
        <ele>1981.8</ele>
        <time>2017-02-21T08:51:59Z</time>
      </trkpt>
      <trkpt lat="42.78491" lon="0.13551">
        <ele>1982</ele>
        <time>2017-02-21T08:52:04Z</time>
      </trkpt>
      <trkpt lat="42.78491" lon="0.13551">
        <ele>1982</ele>
        <time>2017-02-21T08:52:09Z</time>
      </trkpt>
      <trkpt lat="42.78491" lon="0.13551">
        <ele>1982</ele>
        <time>2017-02-21T08:52:14Z</time>
      </trkpt>
      <trkpt lat="42.78491" lon="0.13551">
        <ele>1982</ele>
        <time>2017-02-21T08:52:19Z</time>
      </trkpt>
      <trkpt lat="42.78491" lon="0.13551">
        <ele>1982.2</ele>
        <time>2017-02-21T08:52:24Z</time>
      </trkpt>
      <trkpt lat="42.78491" lon="0.13551">
        <ele>1982.2</ele>
        <time>2017-02-21T08:52:29Z</time>
      </trkpt>
      <trkpt lat="42.78491" lon="0.13551">
        <ele>1982.2</ele>
        <time>2017-02-21T08:52:34Z</time>
      </trkpt>
      <trkpt lat="42.78491" lon="0.13551">
        <ele>1982.2</ele>
        <time>2017-02-21T08:52:39Z</time>
      </trkpt>
      <trkpt lat="42.7849" lon="0.13549">
        <ele>1985</ele>
        <time>2017-02-21T08:52:44Z</time>
      </trkpt>
      <trkpt lat="42.78488" lon="0.13546">
        <ele>1983.2</ele>
        <time>2017-02-21T08:52:49Z</time>
      </trkpt>
      <trkpt lat="42.78487" lon="0.13543">
        <ele>1982</ele>
        <time>2017-02-21T08:52:54Z</time>
      </trkpt>
      <trkpt lat="42.78485" lon="0.1354">
        <ele>1985.4</ele>
        <time>2017-02-21T08:52:59Z</time>
      </trkpt>
      <trkpt lat="42.78483" lon="0.13537">
        <ele>1988.4</ele>
        <time>2017-02-21T08:53:04Z</time>
      </trkpt>
      <trkpt lat="42.78481" lon="0.13533">
        <ele>1987.6</ele>
        <time>2017-02-21T08:53:10Z</time>
      </trkpt>
      <trkpt lat="42.7848" lon="0.1353">
        <ele>1987.6</ele>
        <time>2017-02-21T08:53:15Z</time>
      </trkpt>
      <trkpt lat="42.78478" lon="0.13526">
        <ele>1991.6</ele>
        <time>2017-02-21T08:53:20Z</time>
      </trkpt>
      <trkpt lat="42.78478" lon="0.13526">
        <ele>1988.4</ele>
        <time>2017-02-21T08:53:25Z</time>
      </trkpt>
      <trkpt lat="42.78478" lon="0.13526">
        <ele>1988.6</ele>
        <time>2017-02-21T08:53:30Z</time>
      </trkpt>
      <trkpt lat="42.78478" lon="0.13526">
        <ele>1988.8</ele>
        <time>2017-02-21T08:53:35Z</time>
      </trkpt>
      <trkpt lat="42.78476" lon="0.13524">
        <ele>1988.4</ele>
        <time>2017-02-21T08:53:40Z</time>
      </trkpt>
      <trkpt lat="42.78475" lon="0.13521">
        <ele>1989</ele>
        <time>2017-02-21T08:53:45Z</time>
      </trkpt>
      <trkpt lat="42.78475" lon="0.13521">
        <ele>1989.4</ele>
        <time>2017-02-21T08:53:50Z</time>
      </trkpt>
      <trkpt lat="42.78473" lon="0.13518">
        <ele>1987.6</ele>
        <time>2017-02-21T08:53:55Z</time>
      </trkpt>
      <trkpt lat="42.78472" lon="0.13515">
        <ele>1989.6</ele>
        <time>2017-02-21T08:54:00Z</time>
      </trkpt>
      <trkpt lat="42.7847" lon="0.13511">
        <ele>1990</ele>
        <time>2017-02-21T08:54:05Z</time>
      </trkpt>
      <trkpt lat="42.78468" lon="0.13508">
        <ele>1991</ele>
        <time>2017-02-21T08:54:10Z</time>
      </trkpt>
      <trkpt lat="42.78467" lon="0.13505">
        <ele>1995.4</ele>
        <time>2017-02-21T08:54:15Z</time>
      </trkpt>
      <trkpt lat="42.78465" lon="0.13502">
        <ele>1994.2</ele>
        <time>2017-02-21T08:54:20Z</time>
      </trkpt>
      <trkpt lat="42.78463" lon="0.13499">
        <ele>1995</ele>
        <time>2017-02-21T08:54:25Z</time>
      </trkpt>
      <trkpt lat="42.78462" lon="0.13496">
        <ele>1991.8</ele>
        <time>2017-02-21T08:54:30Z</time>
      </trkpt>
      <trkpt lat="42.7846" lon="0.13493">
        <ele>1995.6</ele>
        <time>2017-02-21T08:54:35Z</time>
      </trkpt>
      <trkpt lat="42.78459" lon="0.1349">
        <ele>1993.6</ele>
        <time>2017-02-21T08:54:40Z</time>
      </trkpt>
      <trkpt lat="42.78457" lon="0.13487">
        <ele>2001.4</ele>
        <time>2017-02-21T08:54:45Z</time>
      </trkpt>
      <trkpt lat="42.78456" lon="0.13483">
        <ele>1999</ele>
        <time>2017-02-21T08:54:50Z</time>
      </trkpt>
      <trkpt lat="42.78454" lon="0.1348">
        <ele>1998.6</ele>
        <time>2017-02-21T08:54:55Z</time>
      </trkpt>
      <trkpt lat="42.78453" lon="0.13477">
        <ele>2001.2</ele>
        <time>2017-02-21T08:55:00Z</time>
      </trkpt>
      <trkpt lat="42.78451" lon="0.13474">
        <ele>2000.8</ele>
        <time>2017-02-21T08:55:05Z</time>
      </trkpt>
      <trkpt lat="42.78449" lon="0.13472">
        <ele>2002.8</ele>
        <time>2017-02-21T08:55:10Z</time>
      </trkpt>
      <trkpt lat="42.78448" lon="0.13468">
        <ele>2001.6</ele>
        <time>2017-02-21T08:55:15Z</time>
      </trkpt>
      <trkpt lat="42.78447" lon="0.13465">
        <ele>2003.8</ele>
        <time>2017-02-21T08:55:20Z</time>
      </trkpt>
      <trkpt lat="42.78445" lon="0.13462">
        <ele>2006</ele>
        <time>2017-02-21T08:55:25Z</time>
      </trkpt>
      <trkpt lat="42.78444" lon="0.13459">
        <ele>2003.4</ele>
        <time>2017-02-21T08:55:30Z</time>
      </trkpt>
      <trkpt lat="42.78442" lon="0.13456">
        <ele>2007.2</ele>
        <time>2017-02-21T08:55:35Z</time>
      </trkpt>
      <trkpt lat="42.78441" lon="0.13453">
        <ele>2006.8</ele>
        <time>2017-02-21T08:55:40Z</time>
      </trkpt>
      <trkpt lat="42.78439" lon="0.1345">
        <ele>2007.4</ele>
        <time>2017-02-21T08:55:45Z</time>
      </trkpt>
      <trkpt lat="42.78438" lon="0.13447">
        <ele>2007.6</ele>
        <time>2017-02-21T08:55:50Z</time>
      </trkpt>
      <trkpt lat="42.78437" lon="0.13444">
        <ele>2010.2</ele>
        <time>2017-02-21T08:55:55Z</time>
      </trkpt>
      <trkpt lat="42.78435" lon="0.13441">
        <ele>2008</ele>
        <time>2017-02-21T08:56:00Z</time>
      </trkpt>
      <trkpt lat="42.78434" lon="0.13438">
        <ele>2006.8</ele>
        <time>2017-02-21T08:56:05Z</time>
      </trkpt>
      <trkpt lat="42.78432" lon="0.13435">
        <ele>2010.8</ele>
        <time>2017-02-21T08:56:10Z</time>
      </trkpt>
      <trkpt lat="42.78431" lon="0.13432">
        <ele>2011.6</ele>
        <time>2017-02-21T08:56:15Z</time>
      </trkpt>
      <trkpt lat="42.78429" lon="0.1343">
        <ele>2013.8</ele>
        <time>2017-02-21T08:56:20Z</time>
      </trkpt>
      <trkpt lat="42.78428" lon="0.13427">
        <ele>2007.8</ele>
        <time>2017-02-21T08:56:25Z</time>
      </trkpt>
      <trkpt lat="42.78427" lon="0.13425">
        <ele>2011.4</ele>
        <time>2017-02-21T08:56:30Z</time>
      </trkpt>
      <trkpt lat="42.78426" lon="0.13422">
        <ele>2010.8</ele>
        <time>2017-02-21T08:56:35Z</time>
      </trkpt>
      <trkpt lat="42.78425" lon="0.13419">
        <ele>2014</ele>
        <time>2017-02-21T08:56:41Z</time>
      </trkpt>
      <trkpt lat="42.78423" lon="0.13416">
        <ele>2015.6</ele>
        <time>2017-02-21T08:56:46Z</time>
      </trkpt>
      <trkpt lat="42.78422" lon="0.13413">
        <ele>2016</ele>
        <time>2017-02-21T08:56:51Z</time>
      </trkpt>
      <trkpt lat="42.7842" lon="0.1341">
        <ele>2015.2</ele>
        <time>2017-02-21T08:56:56Z</time>
      </trkpt>
      <trkpt lat="42.78419" lon="0.13407">
        <ele>2017.4</ele>
        <time>2017-02-21T08:57:01Z</time>
      </trkpt>
      <trkpt lat="42.78417" lon="0.13404">
        <ele>2018.4</ele>
        <time>2017-02-21T08:57:06Z</time>
      </trkpt>
      <trkpt lat="42.78416" lon="0.13401">
        <ele>2018.4</ele>
        <time>2017-02-21T08:57:11Z</time>
      </trkpt>
      <trkpt lat="42.78415" lon="0.13399">
        <ele>2019</ele>
        <time>2017-02-21T08:57:16Z</time>
      </trkpt>
      <trkpt lat="42.78414" lon="0.13396">
        <ele>2021.6</ele>
        <time>2017-02-21T08:57:21Z</time>
      </trkpt>
      <trkpt lat="42.78413" lon="0.13393">
        <ele>2022.2</ele>
        <time>2017-02-21T08:57:26Z</time>
      </trkpt>
      <trkpt lat="42.78411" lon="0.13391">
        <ele>2022.8</ele>
        <time>2017-02-21T08:57:31Z</time>
      </trkpt>
      <trkpt lat="42.7841" lon="0.13388">
        <ele>2023.2</ele>
        <time>2017-02-21T08:57:36Z</time>
      </trkpt>
      <trkpt lat="42.78409" lon="0.13385">
        <ele>2020</ele>
        <time>2017-02-21T08:57:41Z</time>
      </trkpt>
      <trkpt lat="42.78407" lon="0.13382">
        <ele>2022.6</ele>
        <time>2017-02-21T08:57:46Z</time>
      </trkpt>
      <trkpt lat="42.78406" lon="0.1338">
        <ele>2024.8</ele>
        <time>2017-02-21T08:57:51Z</time>
      </trkpt>
      <trkpt lat="42.78404" lon="0.13377">
        <ele>2024</ele>
        <time>2017-02-21T08:57:56Z</time>
      </trkpt>
      <trkpt lat="42.78403" lon="0.13375">
        <ele>2025.4</ele>
        <time>2017-02-21T08:58:01Z</time>
      </trkpt>
      <trkpt lat="42.78401" lon="0.13372">
        <ele>2025.2</ele>
        <time>2017-02-21T08:58:06Z</time>
      </trkpt>
      <trkpt lat="42.78399" lon="0.1337">
        <ele>2026</ele>
        <time>2017-02-21T08:58:11Z</time>
      </trkpt>
      <trkpt lat="42.78397" lon="0.13367">
        <ele>2027.4</ele>
        <time>2017-02-21T08:58:16Z</time>
      </trkpt>
      <trkpt lat="42.78396" lon="0.13365">
        <ele>2027.8</ele>
        <time>2017-02-21T08:58:21Z</time>
      </trkpt>
      <trkpt lat="42.78394" lon="0.13362">
        <ele>2027.2</ele>
        <time>2017-02-21T08:58:26Z</time>
      </trkpt>
      <trkpt lat="42.78392" lon="0.13359">
        <ele>2026.8</ele>
        <time>2017-02-21T08:58:31Z</time>
      </trkpt>
      <trkpt lat="42.78391" lon="0.13356">
        <ele>2033</ele>
        <time>2017-02-21T08:58:36Z</time>
      </trkpt>
      <trkpt lat="42.78389" lon="0.13353">
        <ele>2030.6</ele>
        <time>2017-02-21T08:58:41Z</time>
      </trkpt>
      <trkpt lat="42.78388" lon="0.13349">
        <ele>2031.6</ele>
        <time>2017-02-21T08:58:46Z</time>
      </trkpt>
      <trkpt lat="42.78387" lon="0.13345">
        <ele>2031.4</ele>
        <time>2017-02-21T08:58:51Z</time>
      </trkpt>
      <trkpt lat="42.78387" lon="0.13342">
        <ele>2031.6</ele>
        <time>2017-02-21T08:58:56Z</time>
      </trkpt>
      <trkpt lat="42.78386" lon="0.13338">
        <ele>2033.8</ele>
        <time>2017-02-21T08:59:01Z</time>
      </trkpt>
      <trkpt lat="42.78385" lon="0.13334">
        <ele>2035.8</ele>
        <time>2017-02-21T08:59:06Z</time>
      </trkpt>
      <trkpt lat="42.78384" lon="0.1333">
        <ele>2037.8</ele>
        <time>2017-02-21T08:59:11Z</time>
      </trkpt>
      <trkpt lat="42.78382" lon="0.13324">
        <ele>2036</ele>
        <time>2017-02-21T08:59:16Z</time>
      </trkpt>
      <trkpt lat="42.78381" lon="0.13321">
        <ele>2036.2</ele>
        <time>2017-02-21T08:59:21Z</time>
      </trkpt>
      <trkpt lat="42.78379" lon="0.13317">
        <ele>2037.2</ele>
        <time>2017-02-21T08:59:26Z</time>
      </trkpt>
      <trkpt lat="42.78377" lon="0.13314">
        <ele>2035.8</ele>
        <time>2017-02-21T08:59:31Z</time>
      </trkpt>
      <trkpt lat="42.78376" lon="0.1331">
        <ele>2035</ele>
        <time>2017-02-21T08:59:36Z</time>
      </trkpt>
      <trkpt lat="42.78374" lon="0.13307">
        <ele>2037</ele>
        <time>2017-02-21T08:59:41Z</time>
      </trkpt>
      <trkpt lat="42.78372" lon="0.13304">
        <ele>2038</ele>
        <time>2017-02-21T08:59:46Z</time>
      </trkpt>
      <trkpt lat="42.7837" lon="0.13301">
        <ele>2036.6</ele>
        <time>2017-02-21T08:59:51Z</time>
      </trkpt>
      <trkpt lat="42.78369" lon="0.13298">
        <ele>2038.6</ele>
        <time>2017-02-21T08:59:56Z</time>
      </trkpt>
      <trkpt lat="42.78367" lon="0.13294">
        <ele>2039.8</ele>
        <time>2017-02-21T09:00:01Z</time>
      </trkpt>
      <trkpt lat="42.78365" lon="0.13291">
        <ele>2038.2</ele>
        <time>2017-02-21T09:00:06Z</time>
      </trkpt>
      <trkpt lat="42.78363" lon="0.13288">
        <ele>2041.4</ele>
        <time>2017-02-21T09:00:11Z</time>
      </trkpt>
      <trkpt lat="42.78361" lon="0.13286">
        <ele>2042</ele>
        <time>2017-02-21T09:00:16Z</time>
      </trkpt>
      <trkpt lat="42.78359" lon="0.13284">
        <ele>2041.8</ele>
        <time>2017-02-21T09:00:21Z</time>
      </trkpt>
      <trkpt lat="42.78356" lon="0.13282">
        <ele>2042</ele>
        <time>2017-02-21T09:00:27Z</time>
      </trkpt>
      <trkpt lat="42.78354" lon="0.1328">
        <ele>2041.6</ele>
        <time>2017-02-21T09:00:32Z</time>
      </trkpt>
      <trkpt lat="42.78352" lon="0.13277">
        <ele>2043.4</ele>
        <time>2017-02-21T09:00:37Z</time>
      </trkpt>
      <trkpt lat="42.7835" lon="0.13275">
        <ele>2046.4</ele>
        <time>2017-02-21T09:00:42Z</time>
      </trkpt>
      <trkpt lat="42.78348" lon="0.13273">
        <ele>2043.8</ele>
        <time>2017-02-21T09:00:47Z</time>
      </trkpt>
      <trkpt lat="42.78345" lon="0.13271">
        <ele>2046.8</ele>
        <time>2017-02-21T09:00:52Z</time>
      </trkpt>
      <trkpt lat="42.78342" lon="0.13269">
        <ele>2046.6</ele>
        <time>2017-02-21T09:00:57Z</time>
      </trkpt>
      <trkpt lat="42.7834" lon="0.13267">
        <ele>2045.2</ele>
        <time>2017-02-21T09:01:02Z</time>
      </trkpt>
      <trkpt lat="42.78336" lon="0.13265">
        <ele>2045</ele>
        <time>2017-02-21T09:01:07Z</time>
      </trkpt>
      <trkpt lat="42.78333" lon="0.13263">
        <ele>2048</ele>
        <time>2017-02-21T09:01:12Z</time>
      </trkpt>
      <trkpt lat="42.7833" lon="0.13262">
        <ele>2049.6</ele>
        <time>2017-02-21T09:01:17Z</time>
      </trkpt>
      <trkpt lat="42.78326" lon="0.13261">
        <ele>2048.8</ele>
        <time>2017-02-21T09:01:22Z</time>
      </trkpt>
      <trkpt lat="42.78323" lon="0.13259">
        <ele>2050.8</ele>
        <time>2017-02-21T09:01:27Z</time>
      </trkpt>
      <trkpt lat="42.7832" lon="0.13257">
        <ele>2050.2</ele>
        <time>2017-02-21T09:01:32Z</time>
      </trkpt>
      <trkpt lat="42.78317" lon="0.13255">
        <ele>2050.4</ele>
        <time>2017-02-21T09:01:37Z</time>
      </trkpt>
      <trkpt lat="42.78315" lon="0.13253">
        <ele>2051.2</ele>
        <time>2017-02-21T09:01:42Z</time>
      </trkpt>
      <trkpt lat="42.78312" lon="0.13251">
        <ele>2052.6</ele>
        <time>2017-02-21T09:01:47Z</time>
      </trkpt>
      <trkpt lat="42.7831" lon="0.13248">
        <ele>2050.6</ele>
        <time>2017-02-21T09:01:52Z</time>
      </trkpt>
      <trkpt lat="42.78307" lon="0.13246">
        <ele>2051.2</ele>
        <time>2017-02-21T09:01:57Z</time>
      </trkpt>
      <trkpt lat="42.78305" lon="0.13244">
        <ele>2052.4</ele>
        <time>2017-02-21T09:02:02Z</time>
      </trkpt>
      <trkpt lat="42.78302" lon="0.13242">
        <ele>2052.8</ele>
        <time>2017-02-21T09:02:07Z</time>
      </trkpt>
      <trkpt lat="42.783" lon="0.13241">
        <ele>2057</ele>
        <time>2017-02-21T09:02:12Z</time>
      </trkpt>
      <trkpt lat="42.78298" lon="0.1324">
        <ele>2054.8</ele>
        <time>2017-02-21T09:02:17Z</time>
      </trkpt>
      <trkpt lat="42.78296" lon="0.1324">
        <ele>2055.4</ele>
        <time>2017-02-21T09:02:22Z</time>
      </trkpt>
      <trkpt lat="42.78293" lon="0.13238">
        <ele>2056.2</ele>
        <time>2017-02-21T09:02:27Z</time>
      </trkpt>
      <trkpt lat="42.78291" lon="0.13236">
        <ele>2057.2</ele>
        <time>2017-02-21T09:02:32Z</time>
      </trkpt>
      <trkpt lat="42.78288" lon="0.13234">
        <ele>2057.2</ele>
        <time>2017-02-21T09:02:37Z</time>
      </trkpt>
      <trkpt lat="42.78286" lon="0.13232">
        <ele>2060</ele>
        <time>2017-02-21T09:02:42Z</time>
      </trkpt>
      <trkpt lat="42.78283" lon="0.1323">
        <ele>2059.4</ele>
        <time>2017-02-21T09:02:47Z</time>
      </trkpt>
      <trkpt lat="42.78281" lon="0.13229">
        <ele>2059</ele>
        <time>2017-02-21T09:02:52Z</time>
      </trkpt>
      <trkpt lat="42.78279" lon="0.13227">
        <ele>2059.4</ele>
        <time>2017-02-21T09:02:57Z</time>
      </trkpt>
      <trkpt lat="42.78276" lon="0.13225">
        <ele>2062.4</ele>
        <time>2017-02-21T09:03:02Z</time>
      </trkpt>
      <trkpt lat="42.78274" lon="0.13224">
        <ele>2060.6</ele>
        <time>2017-02-21T09:03:07Z</time>
      </trkpt>
      <trkpt lat="42.78272" lon="0.13223">
        <ele>2063.4</ele>
        <time>2017-02-21T09:03:12Z</time>
      </trkpt>
      <trkpt lat="42.7827" lon="0.13222">
        <ele>2062.4</ele>
        <time>2017-02-21T09:03:17Z</time>
      </trkpt>
      <trkpt lat="42.78268" lon="0.13221">
        <ele>2063.8</ele>
        <time>2017-02-21T09:03:22Z</time>
      </trkpt>
      <trkpt lat="42.78266" lon="0.1322">
        <ele>2062.6</ele>
        <time>2017-02-21T09:03:27Z</time>
      </trkpt>
      <trkpt lat="42.78263" lon="0.13218">
        <ele>2064.4</ele>
        <time>2017-02-21T09:03:32Z</time>
      </trkpt>
      <trkpt lat="42.78261" lon="0.13217">
        <ele>2064</ele>
        <time>2017-02-21T09:03:37Z</time>
      </trkpt>
      <trkpt lat="42.78258" lon="0.13216">
        <ele>2066</ele>
        <time>2017-02-21T09:03:42Z</time>
      </trkpt>
      <trkpt lat="42.78256" lon="0.13215">
        <ele>2068</ele>
        <time>2017-02-21T09:03:47Z</time>
      </trkpt>
      <trkpt lat="42.78253" lon="0.13214">
        <ele>2064.6</ele>
        <time>2017-02-21T09:03:52Z</time>
      </trkpt>
      <trkpt lat="42.7825" lon="0.13213">
        <ele>2066</ele>
        <time>2017-02-21T09:03:57Z</time>
      </trkpt>
      <trkpt lat="42.78247" lon="0.13211">
        <ele>2070.8</ele>
        <time>2017-02-21T09:04:02Z</time>
      </trkpt>
      <trkpt lat="42.78244" lon="0.1321">
        <ele>2067.4</ele>
        <time>2017-02-21T09:04:07Z</time>
      </trkpt>
      <trkpt lat="42.78241" lon="0.13209">
        <ele>2067.2</ele>
        <time>2017-02-21T09:04:12Z</time>
      </trkpt>
      <trkpt lat="42.78238" lon="0.13208">
        <ele>2069</ele>
        <time>2017-02-21T09:04:17Z</time>
      </trkpt>
      <trkpt lat="42.78235" lon="0.13206">
        <ele>2071.2</ele>
        <time>2017-02-21T09:04:22Z</time>
      </trkpt>
      <trkpt lat="42.78232" lon="0.13205">
        <ele>2070.8</ele>
        <time>2017-02-21T09:04:27Z</time>
      </trkpt>
      <trkpt lat="42.7823" lon="0.13204">
        <ele>2069.6</ele>
        <time>2017-02-21T09:04:32Z</time>
      </trkpt>
      <trkpt lat="42.78227" lon="0.13203">
        <ele>2075</ele>
        <time>2017-02-21T09:04:37Z</time>
      </trkpt>
      <trkpt lat="42.78224" lon="0.13202">
        <ele>2074.6</ele>
        <time>2017-02-21T09:04:42Z</time>
      </trkpt>
      <trkpt lat="42.7822" lon="0.13201">
        <ele>2075.4</ele>
        <time>2017-02-21T09:04:47Z</time>
      </trkpt>
      <trkpt lat="42.78217" lon="0.132">
        <ele>2075.4</ele>
        <time>2017-02-21T09:04:52Z</time>
      </trkpt>
      <trkpt lat="42.78214" lon="0.13199">
        <ele>2075.2</ele>
        <time>2017-02-21T09:04:57Z</time>
      </trkpt>
      <trkpt lat="42.78211" lon="0.13198">
        <ele>2076.2</ele>
        <time>2017-02-21T09:05:02Z</time>
      </trkpt>
      <trkpt lat="42.78208" lon="0.13197">
        <ele>2076.6</ele>
        <time>2017-02-21T09:05:07Z</time>
      </trkpt>
      <trkpt lat="42.78204" lon="0.13196">
        <ele>2076.6</ele>
        <time>2017-02-21T09:05:12Z</time>
      </trkpt>
      <trkpt lat="42.78201" lon="0.13195">
        <ele>2076.2</ele>
        <time>2017-02-21T09:05:17Z</time>
      </trkpt>
      <trkpt lat="42.78198" lon="0.13194">
        <ele>2076.6</ele>
        <time>2017-02-21T09:05:22Z</time>
      </trkpt>
      <trkpt lat="42.78194" lon="0.13193">
        <ele>2078.8</ele>
        <time>2017-02-21T09:05:27Z</time>
      </trkpt>
      <trkpt lat="42.7819" lon="0.13192">
        <ele>2077.6</ele>
        <time>2017-02-21T09:05:32Z</time>
      </trkpt>
      <trkpt lat="42.78187" lon="0.13192">
        <ele>2076</ele>
        <time>2017-02-21T09:05:37Z</time>
      </trkpt>
      <trkpt lat="42.78185" lon="0.13192">
        <ele>2078.8</ele>
        <time>2017-02-21T09:05:42Z</time>
      </trkpt>
      <trkpt lat="42.78181" lon="0.13193">
        <ele>2081.4</ele>
        <time>2017-02-21T09:05:47Z</time>
      </trkpt>
      <trkpt lat="42.78178" lon="0.13193">
        <ele>2082.8</ele>
        <time>2017-02-21T09:05:52Z</time>
      </trkpt>
      <trkpt lat="42.78175" lon="0.13193">
        <ele>2084.8</ele>
        <time>2017-02-21T09:05:57Z</time>
      </trkpt>
      <trkpt lat="42.78172" lon="0.13193">
        <ele>2084.4</ele>
        <time>2017-02-21T09:06:02Z</time>
      </trkpt>
      <trkpt lat="42.78171" lon="0.13193">
        <ele>2086.2</ele>
        <time>2017-02-21T09:06:07Z</time>
      </trkpt>
      <trkpt lat="42.78171" lon="0.13193">
        <ele>2087.2</ele>
        <time>2017-02-21T09:06:12Z</time>
      </trkpt>
      <trkpt lat="42.7817" lon="0.13193">
        <ele>2088</ele>
        <time>2017-02-21T09:06:17Z</time>
      </trkpt>
      <trkpt lat="42.7817" lon="0.13193">
        <ele>2088.6</ele>
        <time>2017-02-21T09:06:22Z</time>
      </trkpt>
      <trkpt lat="42.7817" lon="0.13193">
        <ele>2089</ele>
        <time>2017-02-21T09:06:27Z</time>
      </trkpt>
      <trkpt lat="42.7817" lon="0.13193">
        <ele>2089.4</ele>
        <time>2017-02-21T09:06:32Z</time>
      </trkpt>
      <trkpt lat="42.7817" lon="0.13193">
        <ele>2089.4</ele>
        <time>2017-02-21T09:06:37Z</time>
      </trkpt>
      <trkpt lat="42.7817" lon="0.13193">
        <ele>2089.6</ele>
        <time>2017-02-21T09:06:42Z</time>
      </trkpt>
      <trkpt lat="42.7817" lon="0.13193">
        <ele>2089.8</ele>
        <time>2017-02-21T09:06:47Z</time>
      </trkpt>
      <trkpt lat="42.7817" lon="0.13193">
        <ele>2089.8</ele>
        <time>2017-02-21T09:06:52Z</time>
      </trkpt>
      <trkpt lat="42.7817" lon="0.13193">
        <ele>2089.8</ele>
        <time>2017-02-21T09:06:57Z</time>
      </trkpt>
      <trkpt lat="42.7817" lon="0.13193">
        <ele>2089.8</ele>
        <time>2017-02-21T09:07:02Z</time>
      </trkpt>
      <trkpt lat="42.78171" lon="0.13193">
        <ele>2089.8</ele>
        <time>2017-02-21T09:07:07Z</time>
      </trkpt>
      <trkpt lat="42.78171" lon="0.13193">
        <ele>2089.6</ele>
        <time>2017-02-21T09:07:12Z</time>
      </trkpt>
      <trkpt lat="42.78171" lon="0.13193">
        <ele>2089.6</ele>
        <time>2017-02-21T09:07:17Z</time>
      </trkpt>
      <trkpt lat="42.78171" lon="0.13193">
        <ele>2089.6</ele>
        <time>2017-02-21T09:07:23Z</time>
      </trkpt>
      <trkpt lat="42.78171" lon="0.13193">
        <ele>2089.6</ele>
        <time>2017-02-21T09:07:28Z</time>
      </trkpt>
      <trkpt lat="42.78171" lon="0.13193">
        <ele>2089.4</ele>
        <time>2017-02-21T09:07:33Z</time>
      </trkpt>
      <trkpt lat="42.78171" lon="0.13193">
        <ele>2089.4</ele>
        <time>2017-02-21T09:07:38Z</time>
      </trkpt>
      <trkpt lat="42.78171" lon="0.13193">
        <ele>2089.4</ele>
        <time>2017-02-21T09:07:43Z</time>
      </trkpt>
      <trkpt lat="42.78171" lon="0.13193">
        <ele>2089.4</ele>
        <time>2017-02-21T09:07:48Z</time>
      </trkpt>
      <trkpt lat="42.78171" lon="0.13193">
        <ele>2089.2</ele>
        <time>2017-02-21T09:07:53Z</time>
      </trkpt>
      <trkpt lat="42.78171" lon="0.13193">
        <ele>2089.2</ele>
        <time>2017-02-21T09:07:58Z</time>
      </trkpt>
      <trkpt lat="42.78171" lon="0.13193">
        <ele>2089.2</ele>
        <time>2017-02-21T09:08:03Z</time>
      </trkpt>
      <trkpt lat="42.78171" lon="0.13193">
        <ele>2089.2</ele>
        <time>2017-02-21T09:08:08Z</time>
      </trkpt>
      <trkpt lat="42.78171" lon="0.13193">
        <ele>2089.2</ele>
        <time>2017-02-21T09:08:13Z</time>
      </trkpt>
      <trkpt lat="42.78171" lon="0.13193">
        <ele>2089.2</ele>
        <time>2017-02-21T09:08:18Z</time>
      </trkpt>
      <trkpt lat="42.78171" lon="0.13193">
        <ele>2089</ele>
        <time>2017-02-21T09:08:23Z</time>
      </trkpt>
      <trkpt lat="42.7817" lon="0.13193">
        <ele>2089</ele>
        <time>2017-02-21T09:08:28Z</time>
      </trkpt>
      <trkpt lat="42.7817" lon="0.13193">
        <ele>2089</ele>
        <time>2017-02-21T09:08:33Z</time>
      </trkpt>
      <trkpt lat="42.7817" lon="0.13193">
        <ele>2088.8</ele>
        <time>2017-02-21T09:08:38Z</time>
      </trkpt>
      <trkpt lat="42.78171" lon="0.13194">
        <ele>2088.6</ele>
        <time>2017-02-21T09:08:43Z</time>
      </trkpt>
      <trkpt lat="42.78171" lon="0.13194">
        <ele>2088.4</ele>
        <time>2017-02-21T09:08:48Z</time>
      </trkpt>
      <trkpt lat="42.7817" lon="0.13194">
        <ele>2088</ele>
        <time>2017-02-21T09:08:53Z</time>
      </trkpt>
      <trkpt lat="42.7817" lon="0.13194">
        <ele>2087.6</ele>
        <time>2017-02-21T09:08:58Z</time>
      </trkpt>
      <trkpt lat="42.7817" lon="0.13194">
        <ele>2087.4</ele>
        <time>2017-02-21T09:09:03Z</time>
      </trkpt>
      <trkpt lat="42.7817" lon="0.13194">
        <ele>2087.2</ele>
        <time>2017-02-21T09:09:08Z</time>
      </trkpt>
      <trkpt lat="42.7817" lon="0.13194">
        <ele>2087</ele>
        <time>2017-02-21T09:09:13Z</time>
      </trkpt>
      <trkpt lat="42.7817" lon="0.13194">
        <ele>2087</ele>
        <time>2017-02-21T09:09:18Z</time>
      </trkpt>
      <trkpt lat="42.78169" lon="0.13194">
        <ele>2085.8</ele>
        <time>2017-02-21T09:09:23Z</time>
      </trkpt>
      <trkpt lat="42.78167" lon="0.13192">
        <ele>2087.6</ele>
        <time>2017-02-21T09:09:28Z</time>
      </trkpt>
      <trkpt lat="42.78165" lon="0.13189">
        <ele>2087.8</ele>
        <time>2017-02-21T09:09:33Z</time>
      </trkpt>
      <trkpt lat="42.78163" lon="0.13186">
        <ele>2087.8</ele>
        <time>2017-02-21T09:09:38Z</time>
      </trkpt>
      <trkpt lat="42.78161" lon="0.13183">
        <ele>2085.4</ele>
        <time>2017-02-21T09:09:43Z</time>
      </trkpt>
      <trkpt lat="42.7816" lon="0.13181">
        <ele>2084.4</ele>
        <time>2017-02-21T09:09:48Z</time>
      </trkpt>
      <trkpt lat="42.78159" lon="0.13179">
        <ele>2087</ele>
        <time>2017-02-21T09:09:53Z</time>
      </trkpt>
      <trkpt lat="42.78158" lon="0.13176">
        <ele>2085.4</ele>
        <time>2017-02-21T09:09:58Z</time>
      </trkpt>
      <trkpt lat="42.78156" lon="0.13173">
        <ele>2085</ele>
        <time>2017-02-21T09:10:03Z</time>
      </trkpt>
      <trkpt lat="42.78154" lon="0.13168">
        <ele>2083.6</ele>
        <time>2017-02-21T09:10:08Z</time>
      </trkpt>
      <trkpt lat="42.78152" lon="0.13164">
        <ele>2086</ele>
        <time>2017-02-21T09:10:13Z</time>
      </trkpt>
      <trkpt lat="42.7815" lon="0.13159">
        <ele>2085.6</ele>
        <time>2017-02-21T09:10:18Z</time>
      </trkpt>
      <trkpt lat="42.78149" lon="0.13154">
        <ele>2086.6</ele>
        <time>2017-02-21T09:10:23Z</time>
      </trkpt>
      <trkpt lat="42.78148" lon="0.1315">
        <ele>2089.2</ele>
        <time>2017-02-21T09:10:28Z</time>
      </trkpt>
      <trkpt lat="42.78146" lon="0.13148">
        <ele>2087</ele>
        <time>2017-02-21T09:10:33Z</time>
      </trkpt>
      <trkpt lat="42.78145" lon="0.13143">
        <ele>2088</ele>
        <time>2017-02-21T09:10:38Z</time>
      </trkpt>
      <trkpt lat="42.78143" lon="0.13138">
        <ele>2086.4</ele>
        <time>2017-02-21T09:10:43Z</time>
      </trkpt>
      <trkpt lat="42.78141" lon="0.13134">
        <ele>2090</ele>
        <time>2017-02-21T09:10:48Z</time>
      </trkpt>
      <trkpt lat="42.78139" lon="0.1313">
        <ele>2087</ele>
        <time>2017-02-21T09:10:53Z</time>
      </trkpt>
      <trkpt lat="42.78137" lon="0.13124">
        <ele>2091.4</ele>
        <time>2017-02-21T09:10:58Z</time>
      </trkpt>
      <trkpt lat="42.78136" lon="0.1312">
        <ele>2090.6</ele>
        <time>2017-02-21T09:11:03Z</time>
      </trkpt>
      <trkpt lat="42.78134" lon="0.13115">
        <ele>2091.2</ele>
        <time>2017-02-21T09:11:08Z</time>
      </trkpt>
      <trkpt lat="42.78131" lon="0.1311">
        <ele>2089.4</ele>
        <time>2017-02-21T09:11:13Z</time>
      </trkpt>
      <trkpt lat="42.78129" lon="0.13106">
        <ele>2092.4</ele>
        <time>2017-02-21T09:11:18Z</time>
      </trkpt>
      <trkpt lat="42.78126" lon="0.13101">
        <ele>2093.2</ele>
        <time>2017-02-21T09:11:23Z</time>
      </trkpt>
      <trkpt lat="42.78124" lon="0.13097">
        <ele>2092.2</ele>
        <time>2017-02-21T09:11:28Z</time>
      </trkpt>
      <trkpt lat="42.78122" lon="0.13093">
        <ele>2092</ele>
        <time>2017-02-21T09:11:33Z</time>
      </trkpt>
      <trkpt lat="42.7812" lon="0.13089">
        <ele>2093.2</ele>
        <time>2017-02-21T09:11:38Z</time>
      </trkpt>
      <trkpt lat="42.78117" lon="0.13086">
        <ele>2093.8</ele>
        <time>2017-02-21T09:11:43Z</time>
      </trkpt>
      <trkpt lat="42.78114" lon="0.13082">
        <ele>2091.2</ele>
        <time>2017-02-21T09:11:48Z</time>
      </trkpt>
      <trkpt lat="42.78112" lon="0.13079">
        <ele>2090.2</ele>
        <time>2017-02-21T09:11:53Z</time>
      </trkpt>
      <trkpt lat="42.78109" lon="0.13075">
        <ele>2094.4</ele>
        <time>2017-02-21T09:11:58Z</time>
      </trkpt>
      <trkpt lat="42.78107" lon="0.13072">
        <ele>2093.4</ele>
        <time>2017-02-21T09:12:03Z</time>
      </trkpt>
      <trkpt lat="42.78105" lon="0.13069">
        <ele>2094.8</ele>
        <time>2017-02-21T09:12:08Z</time>
      </trkpt>
      <trkpt lat="42.78103" lon="0.13064">
        <ele>2096.6</ele>
        <time>2017-02-21T09:12:13Z</time>
      </trkpt>
      <trkpt lat="42.78101" lon="0.1306">
        <ele>2096.6</ele>
        <time>2017-02-21T09:12:18Z</time>
      </trkpt>
      <trkpt lat="42.78098" lon="0.13055">
        <ele>2097.2</ele>
        <time>2017-02-21T09:12:23Z</time>
      </trkpt>
      <trkpt lat="42.78096" lon="0.1305">
        <ele>2095</ele>
        <time>2017-02-21T09:12:28Z</time>
      </trkpt>
      <trkpt lat="42.78094" lon="0.13046">
        <ele>2096.8</ele>
        <time>2017-02-21T09:12:33Z</time>
      </trkpt>
      <trkpt lat="42.78092" lon="0.13042">
        <ele>2096.8</ele>
        <time>2017-02-21T09:12:38Z</time>
      </trkpt>
      <trkpt lat="42.78091" lon="0.13038">
        <ele>2098.2</ele>
        <time>2017-02-21T09:12:43Z</time>
      </trkpt>
      <trkpt lat="42.78088" lon="0.13034">
        <ele>2101</ele>
        <time>2017-02-21T09:12:48Z</time>
      </trkpt>
      <trkpt lat="42.78085" lon="0.1303">
        <ele>2099.6</ele>
        <time>2017-02-21T09:12:53Z</time>
      </trkpt>
      <trkpt lat="42.78082" lon="0.13026">
        <ele>2098.6</ele>
        <time>2017-02-21T09:12:58Z</time>
      </trkpt>
      <trkpt lat="42.7808" lon="0.13021">
        <ele>2099.4</ele>
        <time>2017-02-21T09:13:03Z</time>
      </trkpt>
      <trkpt lat="42.78078" lon="0.13017">
        <ele>2101</ele>
        <time>2017-02-21T09:13:08Z</time>
      </trkpt>
      <trkpt lat="42.78075" lon="0.13013">
        <ele>2101</ele>
        <time>2017-02-21T09:13:13Z</time>
      </trkpt>
      <trkpt lat="42.78072" lon="0.13009">
        <ele>2102.2</ele>
        <time>2017-02-21T09:13:18Z</time>
      </trkpt>
      <trkpt lat="42.78069" lon="0.13006">
        <ele>2101</ele>
        <time>2017-02-21T09:13:23Z</time>
      </trkpt>
      <trkpt lat="42.78066" lon="0.13002">
        <ele>2100.4</ele>
        <time>2017-02-21T09:13:28Z</time>
      </trkpt>
      <trkpt lat="42.78063" lon="0.12999">
        <ele>2100.4</ele>
        <time>2017-02-21T09:13:33Z</time>
      </trkpt>
      <trkpt lat="42.7806" lon="0.12996">
        <ele>2105.2</ele>
        <time>2017-02-21T09:13:38Z</time>
      </trkpt>
      <trkpt lat="42.78057" lon="0.12993">
        <ele>2102</ele>
        <time>2017-02-21T09:13:43Z</time>
      </trkpt>
      <trkpt lat="42.78054" lon="0.12989">
        <ele>2105</ele>
        <time>2017-02-21T09:13:48Z</time>
      </trkpt>
      <trkpt lat="42.78051" lon="0.12985">
        <ele>2101.8</ele>
        <time>2017-02-21T09:13:53Z</time>
      </trkpt>
      <trkpt lat="42.78048" lon="0.12982">
        <ele>2101</ele>
        <time>2017-02-21T09:13:58Z</time>
      </trkpt>
      <trkpt lat="42.78045" lon="0.12978">
        <ele>2103.2</ele>
        <time>2017-02-21T09:14:03Z</time>
      </trkpt>
      <trkpt lat="42.78042" lon="0.12975">
        <ele>2107.2</ele>
        <time>2017-02-21T09:14:08Z</time>
      </trkpt>
      <trkpt lat="42.78039" lon="0.12973">
        <ele>2105.8</ele>
        <time>2017-02-21T09:14:13Z</time>
      </trkpt>
      <trkpt lat="42.78037" lon="0.12971">
        <ele>2107</ele>
        <time>2017-02-21T09:14:18Z</time>
      </trkpt>
      <trkpt lat="42.78035" lon="0.12969">
        <ele>2106</ele>
        <time>2017-02-21T09:14:23Z</time>
      </trkpt>
      <trkpt lat="42.78033" lon="0.12968">
        <ele>2105.8</ele>
        <time>2017-02-21T09:14:28Z</time>
      </trkpt>
      <trkpt lat="42.7803" lon="0.12966">
        <ele>2111</ele>
        <time>2017-02-21T09:14:33Z</time>
      </trkpt>
      <trkpt lat="42.78027" lon="0.12964">
        <ele>2110</ele>
        <time>2017-02-21T09:14:38Z</time>
      </trkpt>
      <trkpt lat="42.78024" lon="0.12963">
        <ele>2109</ele>
        <time>2017-02-21T09:14:43Z</time>
      </trkpt>
      <trkpt lat="42.78021" lon="0.12964">
        <ele>2109.8</ele>
        <time>2017-02-21T09:14:48Z</time>
      </trkpt>
      <trkpt lat="42.78018" lon="0.12963">
        <ele>2110</ele>
        <time>2017-02-21T09:14:53Z</time>
      </trkpt>
      <trkpt lat="42.78014" lon="0.12962">
        <ele>2112.2</ele>
        <time>2017-02-21T09:14:58Z</time>
      </trkpt>
      <trkpt lat="42.78011" lon="0.12961">
        <ele>2111.6</ele>
        <time>2017-02-21T09:15:03Z</time>
      </trkpt>
      <trkpt lat="42.78008" lon="0.1296">
        <ele>2110</ele>
        <time>2017-02-21T09:15:08Z</time>
      </trkpt>
      <trkpt lat="42.78005" lon="0.12958">
        <ele>2113</ele>
        <time>2017-02-21T09:15:13Z</time>
      </trkpt>
      <trkpt lat="42.78002" lon="0.12956">
        <ele>2114.4</ele>
        <time>2017-02-21T09:15:18Z</time>
      </trkpt>
      <trkpt lat="42.77999" lon="0.12955">
        <ele>2116.6</ele>
        <time>2017-02-21T09:15:23Z</time>
      </trkpt>
      <trkpt lat="42.77996" lon="0.12953">
        <ele>2117</ele>
        <time>2017-02-21T09:15:28Z</time>
      </trkpt>
      <trkpt lat="42.77993" lon="0.12952">
        <ele>2115.2</ele>
        <time>2017-02-21T09:15:33Z</time>
      </trkpt>
      <trkpt lat="42.7799" lon="0.12951">
        <ele>2117.4</ele>
        <time>2017-02-21T09:15:38Z</time>
      </trkpt>
      <trkpt lat="42.77987" lon="0.1295">
        <ele>2116.4</ele>
        <time>2017-02-21T09:15:43Z</time>
      </trkpt>
      <trkpt lat="42.77983" lon="0.12949">
        <ele>2116.8</ele>
        <time>2017-02-21T09:15:48Z</time>
      </trkpt>
      <trkpt lat="42.7798" lon="0.12948">
        <ele>2116.8</ele>
        <time>2017-02-21T09:15:53Z</time>
      </trkpt>
      <trkpt lat="42.77978" lon="0.12948">
        <ele>2118</ele>
        <time>2017-02-21T09:15:58Z</time>
      </trkpt>
      <trkpt lat="42.77978" lon="0.12948">
        <ele>2118.2</ele>
        <time>2017-02-21T09:16:03Z</time>
      </trkpt>
      <trkpt lat="42.77975" lon="0.12948">
        <ele>2121.6</ele>
        <time>2017-02-21T09:16:08Z</time>
      </trkpt>
      <trkpt lat="42.77973" lon="0.12948">
        <ele>2121.2</ele>
        <time>2017-02-21T09:16:13Z</time>
      </trkpt>
      <trkpt lat="42.77973" lon="0.12944">
        <ele>2123.2</ele>
        <time>2017-02-21T09:16:18Z</time>
      </trkpt>
      <trkpt lat="42.77973" lon="0.1294">
        <ele>2127.6</ele>
        <time>2017-02-21T09:16:23Z</time>
      </trkpt>
      <trkpt lat="42.77974" lon="0.12938">
        <ele>2124.8</ele>
        <time>2017-02-21T09:16:28Z</time>
      </trkpt>
      <trkpt lat="42.77975" lon="0.12935">
        <ele>2124.8</ele>
        <time>2017-02-21T09:16:33Z</time>
      </trkpt>
      <trkpt lat="42.77973" lon="0.12934">
        <ele>2123.8</ele>
        <time>2017-02-21T09:16:38Z</time>
      </trkpt>
      <trkpt lat="42.7797" lon="0.12934">
        <ele>2127.6</ele>
        <time>2017-02-21T09:16:43Z</time>
      </trkpt>
      <trkpt lat="42.77967" lon="0.12935">
        <ele>2127</ele>
        <time>2017-02-21T09:16:48Z</time>
      </trkpt>
      <trkpt lat="42.77964" lon="0.12936">
        <ele>2128.6</ele>
        <time>2017-02-21T09:16:53Z</time>
      </trkpt>
      <trkpt lat="42.77961" lon="0.12937">
        <ele>2130</ele>
        <time>2017-02-21T09:16:58Z</time>
      </trkpt>
      <trkpt lat="42.77959" lon="0.1294">
        <ele>2131</ele>
        <time>2017-02-21T09:17:03Z</time>
      </trkpt>
      <trkpt lat="42.77959" lon="0.12941">
        <ele>2132.6</ele>
        <time>2017-02-21T09:17:08Z</time>
      </trkpt>
      <trkpt lat="42.77958" lon="0.12941">
        <ele>2135.2</ele>
        <time>2017-02-21T09:17:13Z</time>
      </trkpt>
      <trkpt lat="42.77957" lon="0.12938">
        <ele>2133.6</ele>
        <time>2017-02-21T09:17:18Z</time>
      </trkpt>
      <trkpt lat="42.77956" lon="0.12936">
        <ele>2132.4</ele>
        <time>2017-02-21T09:17:23Z</time>
      </trkpt>
      <trkpt lat="42.77954" lon="0.12933">
        <ele>2130.2</ele>
        <time>2017-02-21T09:17:28Z</time>
      </trkpt>
      <trkpt lat="42.77952" lon="0.1293">
        <ele>2131.2</ele>
        <time>2017-02-21T09:17:33Z</time>
      </trkpt>
      <trkpt lat="42.77951" lon="0.12927">
        <ele>2130.4</ele>
        <time>2017-02-21T09:17:38Z</time>
      </trkpt>
      <trkpt lat="42.77949" lon="0.12925">
        <ele>2131</ele>
        <time>2017-02-21T09:17:43Z</time>
      </trkpt>
      <trkpt lat="42.77946" lon="0.12929">
        <ele>2130.4</ele>
        <time>2017-02-21T09:17:48Z</time>
      </trkpt>
      <trkpt lat="42.77945" lon="0.12933">
        <ele>2132.8</ele>
        <time>2017-02-21T09:17:53Z</time>
      </trkpt>
      <trkpt lat="42.77943" lon="0.12937">
        <ele>2130.6</ele>
        <time>2017-02-21T09:17:58Z</time>
      </trkpt>
      <trkpt lat="42.77941" lon="0.1294">
        <ele>2135.6</ele>
        <time>2017-02-21T09:18:03Z</time>
      </trkpt>
      <trkpt lat="42.77938" lon="0.12942">
        <ele>2136</ele>
        <time>2017-02-21T09:18:08Z</time>
      </trkpt>
      <trkpt lat="42.77935" lon="0.12941">
        <ele>2138.8</ele>
        <time>2017-02-21T09:18:13Z</time>
      </trkpt>
      <trkpt lat="42.77934" lon="0.12939">
        <ele>2141.8</ele>
        <time>2017-02-21T09:18:18Z</time>
      </trkpt>
      <trkpt lat="42.77934" lon="0.12935">
        <ele>2145.4</ele>
        <time>2017-02-21T09:18:23Z</time>
      </trkpt>
      <trkpt lat="42.77932" lon="0.12934">
        <ele>2146.4</ele>
        <time>2017-02-21T09:18:28Z</time>
      </trkpt>
      <trkpt lat="42.77929" lon="0.12934">
        <ele>2147.4</ele>
        <time>2017-02-21T09:18:33Z</time>
      </trkpt>
      <trkpt lat="42.77928" lon="0.12935">
        <ele>2148</ele>
        <time>2017-02-21T09:18:38Z</time>
      </trkpt>
      <trkpt lat="42.77929" lon="0.12935">
        <ele>2147.6</ele>
        <time>2017-02-21T09:18:43Z</time>
      </trkpt>
      <trkpt lat="42.77928" lon="0.12934">
        <ele>2147.4</ele>
        <time>2017-02-21T09:18:48Z</time>
      </trkpt>
      <trkpt lat="42.77928" lon="0.12934">
        <ele>2147</ele>
        <time>2017-02-21T09:18:53Z</time>
      </trkpt>
      <trkpt lat="42.77928" lon="0.12934">
        <ele>2146.8</ele>
        <time>2017-02-21T09:18:58Z</time>
      </trkpt>
      <trkpt lat="42.77927" lon="0.12934">
        <ele>2146.4</ele>
        <time>2017-02-21T09:19:03Z</time>
      </trkpt>
      <trkpt lat="42.77927" lon="0.12933">
        <ele>2146</ele>
        <time>2017-02-21T09:19:08Z</time>
      </trkpt>
      <trkpt lat="42.77928" lon="0.12934">
        <ele>2145.2</ele>
        <time>2017-02-21T09:19:13Z</time>
      </trkpt>
      <trkpt lat="42.77929" lon="0.12933">
        <ele>2144.8</ele>
        <time>2017-02-21T09:19:18Z</time>
      </trkpt>
      <trkpt lat="42.77929" lon="0.12933">
        <ele>2144.4</ele>
        <time>2017-02-21T09:19:23Z</time>
      </trkpt>
      <trkpt lat="42.77929" lon="0.12933">
        <ele>2144.2</ele>
        <time>2017-02-21T09:19:28Z</time>
      </trkpt>
      <trkpt lat="42.7793" lon="0.12933">
        <ele>2143.8</ele>
        <time>2017-02-21T09:19:33Z</time>
      </trkpt>
      <trkpt lat="42.7793" lon="0.12933">
        <ele>2143.6</ele>
        <time>2017-02-21T09:19:38Z</time>
      </trkpt>
      <trkpt lat="42.7793" lon="0.12933">
        <ele>2143</ele>
        <time>2017-02-21T09:19:43Z</time>
      </trkpt>
      <trkpt lat="42.7793" lon="0.12933">
        <ele>2142.8</ele>
        <time>2017-02-21T09:19:48Z</time>
      </trkpt>
      <trkpt lat="42.7793" lon="0.12933">
        <ele>2142.2</ele>
        <time>2017-02-21T09:19:53Z</time>
      </trkpt>
      <trkpt lat="42.7793" lon="0.12933">
        <ele>2141.8</ele>
        <time>2017-02-21T09:19:58Z</time>
      </trkpt>
      <trkpt lat="42.7793" lon="0.12933">
        <ele>2141.8</ele>
        <time>2017-02-21T09:20:03Z</time>
      </trkpt>
      <trkpt lat="42.77927" lon="0.12932">
        <ele>2143.6</ele>
        <time>2017-02-21T09:20:08Z</time>
      </trkpt>
      <trkpt lat="42.77924" lon="0.1293">
        <ele>2143.4</ele>
        <time>2017-02-21T09:20:13Z</time>
      </trkpt>
      <trkpt lat="42.77921" lon="0.12928">
        <ele>2141.6</ele>
        <time>2017-02-21T09:20:18Z</time>
      </trkpt>
      <trkpt lat="42.7792" lon="0.12927">
        <ele>2145.8</ele>
        <time>2017-02-21T09:20:23Z</time>
      </trkpt>
      <trkpt lat="42.77918" lon="0.12926">
        <ele>2142.8</ele>
        <time>2017-02-21T09:20:28Z</time>
      </trkpt>
      <trkpt lat="42.77917" lon="0.12925">
        <ele>2144.6</ele>
        <time>2017-02-21T09:20:33Z</time>
      </trkpt>
      <trkpt lat="42.77916" lon="0.12926">
        <ele>2143.4</ele>
        <time>2017-02-21T09:20:38Z</time>
      </trkpt>
      <trkpt lat="42.77913" lon="0.12924">
        <ele>2144.2</ele>
        <time>2017-02-21T09:20:43Z</time>
      </trkpt>
      <trkpt lat="42.7791" lon="0.12921">
        <ele>2145.4</ele>
        <time>2017-02-21T09:20:48Z</time>
      </trkpt>
      <trkpt lat="42.77907" lon="0.12918">
        <ele>2146</ele>
        <time>2017-02-21T09:20:53Z</time>
      </trkpt>
      <trkpt lat="42.77905" lon="0.12914">
        <ele>2148.8</ele>
        <time>2017-02-21T09:20:58Z</time>
      </trkpt>
      <trkpt lat="42.77902" lon="0.12911">
        <ele>2146</ele>
        <time>2017-02-21T09:21:03Z</time>
      </trkpt>
      <trkpt lat="42.779" lon="0.12909">
        <ele>2146</ele>
        <time>2017-02-21T09:21:08Z</time>
      </trkpt>
      <trkpt lat="42.77898" lon="0.12906">
        <ele>2148.4</ele>
        <time>2017-02-21T09:21:13Z</time>
      </trkpt>
      <trkpt lat="42.77895" lon="0.12904">
        <ele>2149.2</ele>
        <time>2017-02-21T09:21:18Z</time>
      </trkpt>
      <trkpt lat="42.77893" lon="0.12902">
        <ele>2150.4</ele>
        <time>2017-02-21T09:21:23Z</time>
      </trkpt>
      <trkpt lat="42.77889" lon="0.129">
        <ele>2146.8</ele>
        <time>2017-02-21T09:21:28Z</time>
      </trkpt>
      <trkpt lat="42.77886" lon="0.12899">
        <ele>2150</ele>
        <time>2017-02-21T09:21:33Z</time>
      </trkpt>
      <trkpt lat="42.77882" lon="0.12897">
        <ele>2149.4</ele>
        <time>2017-02-21T09:21:38Z</time>
      </trkpt>
      <trkpt lat="42.77878" lon="0.12896">
        <ele>2147.6</ele>
        <time>2017-02-21T09:21:43Z</time>
      </trkpt>
      <trkpt lat="42.77874" lon="0.12894">
        <ele>2148.8</ele>
        <time>2017-02-21T09:21:48Z</time>
      </trkpt>
      <trkpt lat="42.77871" lon="0.12893">
        <ele>2151</ele>
        <time>2017-02-21T09:21:53Z</time>
      </trkpt>
      <trkpt lat="42.77867" lon="0.12892">
        <ele>2149.2</ele>
        <time>2017-02-21T09:21:58Z</time>
      </trkpt>
      <trkpt lat="42.77864" lon="0.1289">
        <ele>2151.4</ele>
        <time>2017-02-21T09:22:03Z</time>
      </trkpt>
      <trkpt lat="42.77861" lon="0.12888">
        <ele>2152.2</ele>
        <time>2017-02-21T09:22:08Z</time>
      </trkpt>
      <trkpt lat="42.77857" lon="0.12886">
        <ele>2151.6</ele>
        <time>2017-02-21T09:22:13Z</time>
      </trkpt>
      <trkpt lat="42.77854" lon="0.12883">
        <ele>2150.8</ele>
        <time>2017-02-21T09:22:18Z</time>
      </trkpt>
      <trkpt lat="42.77851" lon="0.1288">
        <ele>2150.6</ele>
        <time>2017-02-21T09:22:23Z</time>
      </trkpt>
      <trkpt lat="42.77848" lon="0.12877">
        <ele>2153.2</ele>
        <time>2017-02-21T09:22:28Z</time>
      </trkpt>
      <trkpt lat="42.77844" lon="0.12874">
        <ele>2153.2</ele>
        <time>2017-02-21T09:22:33Z</time>
      </trkpt>
      <trkpt lat="42.77839" lon="0.12871">
        <ele>2152.2</ele>
        <time>2017-02-21T09:22:38Z</time>
      </trkpt>
      <trkpt lat="42.77836" lon="0.12869">
        <ele>2154</ele>
        <time>2017-02-21T09:22:43Z</time>
      </trkpt>
      <trkpt lat="42.77832" lon="0.12868">
        <ele>2153.6</ele>
        <time>2017-02-21T09:22:48Z</time>
      </trkpt>
      <trkpt lat="42.77829" lon="0.12867">
        <ele>2155.8</ele>
        <time>2017-02-21T09:22:53Z</time>
      </trkpt>
      <trkpt lat="42.77826" lon="0.12866">
        <ele>2153.4</ele>
        <time>2017-02-21T09:22:58Z</time>
      </trkpt>
      <trkpt lat="42.77823" lon="0.12865">
        <ele>2152</ele>
        <time>2017-02-21T09:23:03Z</time>
      </trkpt>
      <trkpt lat="42.7782" lon="0.12864">
        <ele>2155.8</ele>
        <time>2017-02-21T09:23:08Z</time>
      </trkpt>
      <trkpt lat="42.77817" lon="0.12864">
        <ele>2156.4</ele>
        <time>2017-02-21T09:23:13Z</time>
      </trkpt>
      <trkpt lat="42.77815" lon="0.12864">
        <ele>2157.2</ele>
        <time>2017-02-21T09:23:18Z</time>
      </trkpt>
      <trkpt lat="42.77812" lon="0.12864">
        <ele>2160</ele>
        <time>2017-02-21T09:23:23Z</time>
      </trkpt>
      <trkpt lat="42.77809" lon="0.12864">
        <ele>2157.2</ele>
        <time>2017-02-21T09:23:28Z</time>
      </trkpt>
      <trkpt lat="42.77805" lon="0.12865">
        <ele>2159.6</ele>
        <time>2017-02-21T09:23:34Z</time>
      </trkpt>
      <trkpt lat="42.77801" lon="0.12865">
        <ele>2156.6</ele>
        <time>2017-02-21T09:23:39Z</time>
      </trkpt>
      <trkpt lat="42.77798" lon="0.12866">
        <ele>2159.2</ele>
        <time>2017-02-21T09:23:44Z</time>
      </trkpt>
      <trkpt lat="42.77795" lon="0.12867">
        <ele>2160.4</ele>
        <time>2017-02-21T09:23:49Z</time>
      </trkpt>
      <trkpt lat="42.77793" lon="0.12868">
        <ele>2162.2</ele>
        <time>2017-02-21T09:23:54Z</time>
      </trkpt>
      <trkpt lat="42.77791" lon="0.12869">
        <ele>2163.2</ele>
        <time>2017-02-21T09:23:59Z</time>
      </trkpt>
      <trkpt lat="42.77788" lon="0.12871">
        <ele>2166.6</ele>
        <time>2017-02-21T09:24:04Z</time>
      </trkpt>
      <trkpt lat="42.77785" lon="0.12873">
        <ele>2165.2</ele>
        <time>2017-02-21T09:24:09Z</time>
      </trkpt>
      <trkpt lat="42.77782" lon="0.12875">
        <ele>2167.4</ele>
        <time>2017-02-21T09:24:14Z</time>
      </trkpt>
      <trkpt lat="42.77779" lon="0.12878">
        <ele>2170.4</ele>
        <time>2017-02-21T09:24:19Z</time>
      </trkpt>
      <trkpt lat="42.77776" lon="0.1288">
        <ele>2170.6</ele>
        <time>2017-02-21T09:24:24Z</time>
      </trkpt>
      <trkpt lat="42.77774" lon="0.12882">
        <ele>2167.6</ele>
        <time>2017-02-21T09:24:29Z</time>
      </trkpt>
      <trkpt lat="42.77771" lon="0.12884">
        <ele>2171.6</ele>
        <time>2017-02-21T09:24:34Z</time>
      </trkpt>
      <trkpt lat="42.77768" lon="0.12886">
        <ele>2173.4</ele>
        <time>2017-02-21T09:24:39Z</time>
      </trkpt>
      <trkpt lat="42.77766" lon="0.12887">
        <ele>2173</ele>
        <time>2017-02-21T09:24:44Z</time>
      </trkpt>
      <trkpt lat="42.77764" lon="0.12888">
        <ele>2171.8</ele>
        <time>2017-02-21T09:24:49Z</time>
      </trkpt>
      <trkpt lat="42.77761" lon="0.1289">
        <ele>2174</ele>
        <time>2017-02-21T09:24:54Z</time>
      </trkpt>
      <trkpt lat="42.77757" lon="0.12889">
        <ele>2171.8</ele>
        <time>2017-02-21T09:24:59Z</time>
      </trkpt>
      <trkpt lat="42.77755" lon="0.12886">
        <ele>2176.6</ele>
        <time>2017-02-21T09:25:04Z</time>
      </trkpt>
      <trkpt lat="42.77752" lon="0.12883">
        <ele>2176.2</ele>
        <time>2017-02-21T09:25:09Z</time>
      </trkpt>
      <trkpt lat="42.7775" lon="0.12879">
        <ele>2176.6</ele>
        <time>2017-02-21T09:25:14Z</time>
      </trkpt>
      <trkpt lat="42.77749" lon="0.12876">
        <ele>2176.6</ele>
        <time>2017-02-21T09:25:19Z</time>
      </trkpt>
      <trkpt lat="42.77747" lon="0.12873">
        <ele>2174</ele>
        <time>2017-02-21T09:25:24Z</time>
      </trkpt>
      <trkpt lat="42.77746" lon="0.1287">
        <ele>2177.4</ele>
        <time>2017-02-21T09:25:29Z</time>
      </trkpt>
      <trkpt lat="42.77746" lon="0.1287">
        <ele>2176.8</ele>
        <time>2017-02-21T09:25:34Z</time>
      </trkpt>
      <trkpt lat="42.77746" lon="0.1287">
        <ele>2176.2</ele>
        <time>2017-02-21T09:25:39Z</time>
      </trkpt>
      <trkpt lat="42.77746" lon="0.1287">
        <ele>2176</ele>
        <time>2017-02-21T09:25:44Z</time>
      </trkpt>
      <trkpt lat="42.77746" lon="0.1287">
        <ele>2175.8</ele>
        <time>2017-02-21T09:25:49Z</time>
      </trkpt>
      <trkpt lat="42.77746" lon="0.1287">
        <ele>2177</ele>
        <time>2017-02-21T09:25:54Z</time>
      </trkpt>
      <trkpt lat="42.77745" lon="0.12865">
        <ele>2175.8</ele>
        <time>2017-02-21T09:25:59Z</time>
      </trkpt>
      <trkpt lat="42.77744" lon="0.12861">
        <ele>2180.8</ele>
        <time>2017-02-21T09:26:04Z</time>
      </trkpt>
      <trkpt lat="42.77743" lon="0.12859">
        <ele>2173.4</ele>
        <time>2017-02-21T09:26:09Z</time>
      </trkpt>
      <trkpt lat="42.77743" lon="0.12858">
        <ele>2170.6</ele>
        <time>2017-02-21T09:26:14Z</time>
      </trkpt>
      <trkpt lat="42.77743" lon="0.12858">
        <ele>2172</ele>
        <time>2017-02-21T09:26:19Z</time>
      </trkpt>
      <trkpt lat="42.77743" lon="0.12858">
        <ele>2173</ele>
        <time>2017-02-21T09:26:25Z</time>
      </trkpt>
      <trkpt lat="42.77743" lon="0.12856">
        <ele>2176</ele>
        <time>2017-02-21T09:26:31Z</time>
      </trkpt>
      <trkpt lat="42.77743" lon="0.12852">
        <ele>2172.4</ele>
        <time>2017-02-21T09:26:36Z</time>
      </trkpt>
      <trkpt lat="42.77743" lon="0.12849">
        <ele>2174.6</ele>
        <time>2017-02-21T09:26:41Z</time>
      </trkpt>
      <trkpt lat="42.77742" lon="0.12846">
        <ele>2176.8</ele>
        <time>2017-02-21T09:26:46Z</time>
      </trkpt>
      <trkpt lat="42.77742" lon="0.12844">
        <ele>2177</ele>
        <time>2017-02-21T09:26:51Z</time>
      </trkpt>
      <trkpt lat="42.77741" lon="0.12842">
        <ele>2174.6</ele>
        <time>2017-02-21T09:26:56Z</time>
      </trkpt>
      <trkpt lat="42.7774" lon="0.12838">
        <ele>2178</ele>
        <time>2017-02-21T09:27:01Z</time>
      </trkpt>
      <trkpt lat="42.77739" lon="0.12836">
        <ele>2177.2</ele>
        <time>2017-02-21T09:27:06Z</time>
      </trkpt>
      <trkpt lat="42.77741" lon="0.12836">
        <ele>2176.6</ele>
        <time>2017-02-21T09:27:11Z</time>
      </trkpt>
      <trkpt lat="42.77743" lon="0.12836">
        <ele>2174.6</ele>
        <time>2017-02-21T09:27:16Z</time>
      </trkpt>
      <trkpt lat="42.77745" lon="0.12836">
        <ele>2176.6</ele>
        <time>2017-02-21T09:27:21Z</time>
      </trkpt>
      <trkpt lat="42.77748" lon="0.12836">
        <ele>2175.4</ele>
        <time>2017-02-21T09:27:26Z</time>
      </trkpt>
      <trkpt lat="42.7775" lon="0.12834">
        <ele>2177</ele>
        <time>2017-02-21T09:27:31Z</time>
      </trkpt>
      <trkpt lat="42.77752" lon="0.12833">
        <ele>2179</ele>
        <time>2017-02-21T09:27:36Z</time>
      </trkpt>
      <trkpt lat="42.77755" lon="0.12831">
        <ele>2179</ele>
        <time>2017-02-21T09:27:41Z</time>
      </trkpt>
      <trkpt lat="42.77757" lon="0.1283">
        <ele>2178</ele>
        <time>2017-02-21T09:27:46Z</time>
      </trkpt>
      <trkpt lat="42.77759" lon="0.12829">
        <ele>2179</ele>
        <time>2017-02-21T09:27:51Z</time>
      </trkpt>
      <trkpt lat="42.7776" lon="0.12826">
        <ele>2178.2</ele>
        <time>2017-02-21T09:27:56Z</time>
      </trkpt>
      <trkpt lat="42.7776" lon="0.12823">
        <ele>2182</ele>
        <time>2017-02-21T09:28:01Z</time>
      </trkpt>
      <trkpt lat="42.77759" lon="0.12819">
        <ele>2181.8</ele>
        <time>2017-02-21T09:28:06Z</time>
      </trkpt>
      <trkpt lat="42.77758" lon="0.12816">
        <ele>2182</ele>
        <time>2017-02-21T09:28:11Z</time>
      </trkpt>
      <trkpt lat="42.77758" lon="0.12813">
        <ele>2181.8</ele>
        <time>2017-02-21T09:28:16Z</time>
      </trkpt>
      <trkpt lat="42.77757" lon="0.12809">
        <ele>2184.8</ele>
        <time>2017-02-21T09:28:21Z</time>
      </trkpt>
      <trkpt lat="42.77756" lon="0.12806">
        <ele>2183.6</ele>
        <time>2017-02-21T09:28:26Z</time>
      </trkpt>
      <trkpt lat="42.77755" lon="0.12803">
        <ele>2186.4</ele>
        <time>2017-02-21T09:28:31Z</time>
      </trkpt>
      <trkpt lat="42.77753" lon="0.12801">
        <ele>2187.6</ele>
        <time>2017-02-21T09:28:36Z</time>
      </trkpt>
      <trkpt lat="42.77752" lon="0.12798">
        <ele>2184.4</ele>
        <time>2017-02-21T09:28:41Z</time>
      </trkpt>
      <trkpt lat="42.7775" lon="0.12795">
        <ele>2188</ele>
        <time>2017-02-21T09:28:46Z</time>
      </trkpt>
      <trkpt lat="42.77749" lon="0.12793">
        <ele>2189.8</ele>
        <time>2017-02-21T09:28:51Z</time>
      </trkpt>
      <trkpt lat="42.77748" lon="0.1279">
        <ele>2190.8</ele>
        <time>2017-02-21T09:28:56Z</time>
      </trkpt>
      <trkpt lat="42.77746" lon="0.12787">
        <ele>2192.8</ele>
        <time>2017-02-21T09:29:01Z</time>
      </trkpt>
      <trkpt lat="42.77745" lon="0.12784">
        <ele>2189.4</ele>
        <time>2017-02-21T09:29:06Z</time>
      </trkpt>
      <trkpt lat="42.77744" lon="0.12782">
        <ele>2191.4</ele>
        <time>2017-02-21T09:29:11Z</time>
      </trkpt>
      <trkpt lat="42.77743" lon="0.12779">
        <ele>2193.4</ele>
        <time>2017-02-21T09:29:16Z</time>
      </trkpt>
      <trkpt lat="42.77742" lon="0.12776">
        <ele>2193.2</ele>
        <time>2017-02-21T09:29:21Z</time>
      </trkpt>
      <trkpt lat="42.77741" lon="0.12771">
        <ele>2192.6</ele>
        <time>2017-02-21T09:29:26Z</time>
      </trkpt>
      <trkpt lat="42.7774" lon="0.12768">
        <ele>2193</ele>
        <time>2017-02-21T09:29:31Z</time>
      </trkpt>
      <trkpt lat="42.7774" lon="0.12763">
        <ele>2194.6</ele>
        <time>2017-02-21T09:29:36Z</time>
      </trkpt>
      <trkpt lat="42.77738" lon="0.12758">
        <ele>2196.2</ele>
        <time>2017-02-21T09:29:42Z</time>
      </trkpt>
      <trkpt lat="42.77737" lon="0.12754">
        <ele>2197.4</ele>
        <time>2017-02-21T09:29:47Z</time>
      </trkpt>
      <trkpt lat="42.77736" lon="0.12751">
        <ele>2194.4</ele>
        <time>2017-02-21T09:29:52Z</time>
      </trkpt>
      <trkpt lat="42.77736" lon="0.12748">
        <ele>2197.4</ele>
        <time>2017-02-21T09:29:57Z</time>
      </trkpt>
      <trkpt lat="42.77735" lon="0.12746">
        <ele>2198.4</ele>
        <time>2017-02-21T09:30:02Z</time>
      </trkpt>
      <trkpt lat="42.77735" lon="0.12742">
        <ele>2199</ele>
        <time>2017-02-21T09:30:07Z</time>
      </trkpt>
      <trkpt lat="42.77735" lon="0.12739">
        <ele>2199</ele>
        <time>2017-02-21T09:30:12Z</time>
      </trkpt>
      <trkpt lat="42.77734" lon="0.12737">
        <ele>2199.6</ele>
        <time>2017-02-21T09:30:17Z</time>
      </trkpt>
      <trkpt lat="42.77734" lon="0.12734">
        <ele>2201.8</ele>
        <time>2017-02-21T09:30:22Z</time>
      </trkpt>
      <trkpt lat="42.77734" lon="0.12731">
        <ele>2200.6</ele>
        <time>2017-02-21T09:30:27Z</time>
      </trkpt>
      <trkpt lat="42.77734" lon="0.12727">
        <ele>2202.8</ele>
        <time>2017-02-21T09:30:32Z</time>
      </trkpt>
      <trkpt lat="42.77733" lon="0.12723">
        <ele>2202.6</ele>
        <time>2017-02-21T09:30:37Z</time>
      </trkpt>
      <trkpt lat="42.77733" lon="0.12721">
        <ele>2205.2</ele>
        <time>2017-02-21T09:30:42Z</time>
      </trkpt>
      <trkpt lat="42.77732" lon="0.12717">
        <ele>2203.8</ele>
        <time>2017-02-21T09:30:47Z</time>
      </trkpt>
      <trkpt lat="42.77732" lon="0.12715">
        <ele>2205.6</ele>
        <time>2017-02-21T09:30:52Z</time>
      </trkpt>
      <trkpt lat="42.77734" lon="0.12714">
        <ele>2206.8</ele>
        <time>2017-02-21T09:30:57Z</time>
      </trkpt>
      <trkpt lat="42.77736" lon="0.12713">
        <ele>2205.2</ele>
        <time>2017-02-21T09:31:02Z</time>
      </trkpt>
      <trkpt lat="42.77739" lon="0.12713">
        <ele>2205.2</ele>
        <time>2017-02-21T09:31:07Z</time>
      </trkpt>
      <trkpt lat="42.77741" lon="0.12712">
        <ele>2207.2</ele>
        <time>2017-02-21T09:31:12Z</time>
      </trkpt>
      <trkpt lat="42.77743" lon="0.12711">
        <ele>2207</ele>
        <time>2017-02-21T09:31:17Z</time>
      </trkpt>
      <trkpt lat="42.77745" lon="0.12711">
        <ele>2207.2</ele>
        <time>2017-02-21T09:31:22Z</time>
      </trkpt>
      <trkpt lat="42.77748" lon="0.12711">
        <ele>2208.6</ele>
        <time>2017-02-21T09:31:27Z</time>
      </trkpt>
      <trkpt lat="42.77749" lon="0.1271">
        <ele>2209.4</ele>
        <time>2017-02-21T09:31:32Z</time>
      </trkpt>
      <trkpt lat="42.77751" lon="0.1271">
        <ele>2209.2</ele>
        <time>2017-02-21T09:31:37Z</time>
      </trkpt>
      <trkpt lat="42.77753" lon="0.12709">
        <ele>2209.8</ele>
        <time>2017-02-21T09:31:42Z</time>
      </trkpt>
      <trkpt lat="42.77755" lon="0.12707">
        <ele>2209</ele>
        <time>2017-02-21T09:31:47Z</time>
      </trkpt>
      <trkpt lat="42.77757" lon="0.12705">
        <ele>2209.2</ele>
        <time>2017-02-21T09:31:52Z</time>
      </trkpt>
      <trkpt lat="42.77757" lon="0.12702">
        <ele>2207.8</ele>
        <time>2017-02-21T09:31:57Z</time>
      </trkpt>
      <trkpt lat="42.77756" lon="0.12699">
        <ele>2212</ele>
        <time>2017-02-21T09:32:02Z</time>
      </trkpt>
      <trkpt lat="42.77755" lon="0.12697">
        <ele>2213.8</ele>
        <time>2017-02-21T09:32:07Z</time>
      </trkpt>
      <trkpt lat="42.77754" lon="0.12695">
        <ele>2213.2</ele>
        <time>2017-02-21T09:32:12Z</time>
      </trkpt>
      <trkpt lat="42.77753" lon="0.12693">
        <ele>2214.2</ele>
        <time>2017-02-21T09:32:17Z</time>
      </trkpt>
      <trkpt lat="42.77751" lon="0.1269">
        <ele>2214.4</ele>
        <time>2017-02-21T09:32:22Z</time>
      </trkpt>
      <trkpt lat="42.7775" lon="0.12688">
        <ele>2216.8</ele>
        <time>2017-02-21T09:32:27Z</time>
      </trkpt>
      <trkpt lat="42.77748" lon="0.12687">
        <ele>2216.8</ele>
        <time>2017-02-21T09:32:32Z</time>
      </trkpt>
      <trkpt lat="42.77747" lon="0.12685">
        <ele>2217.8</ele>
        <time>2017-02-21T09:32:37Z</time>
      </trkpt>
      <trkpt lat="42.77746" lon="0.12684">
        <ele>2218.4</ele>
        <time>2017-02-21T09:32:42Z</time>
      </trkpt>
      <trkpt lat="42.77745" lon="0.12682">
        <ele>2220</ele>
        <time>2017-02-21T09:32:47Z</time>
      </trkpt>
      <trkpt lat="42.77744" lon="0.1268">
        <ele>2219</ele>
        <time>2017-02-21T09:32:52Z</time>
      </trkpt>
      <trkpt lat="42.77743" lon="0.12678">
        <ele>2218.6</ele>
        <time>2017-02-21T09:32:57Z</time>
      </trkpt>
      <trkpt lat="42.77742" lon="0.12675">
        <ele>2219.4</ele>
        <time>2017-02-21T09:33:02Z</time>
      </trkpt>
      <trkpt lat="42.7774" lon="0.12673">
        <ele>2220.6</ele>
        <time>2017-02-21T09:33:07Z</time>
      </trkpt>
      <trkpt lat="42.77739" lon="0.12671">
        <ele>2223.2</ele>
        <time>2017-02-21T09:33:12Z</time>
      </trkpt>
      <trkpt lat="42.77738" lon="0.12668">
        <ele>2221.6</ele>
        <time>2017-02-21T09:33:17Z</time>
      </trkpt>
      <trkpt lat="42.77736" lon="0.12666">
        <ele>2224.4</ele>
        <time>2017-02-21T09:33:22Z</time>
      </trkpt>
      <trkpt lat="42.77735" lon="0.12663">
        <ele>2226</ele>
        <time>2017-02-21T09:33:27Z</time>
      </trkpt>
      <trkpt lat="42.77734" lon="0.12661">
        <ele>2226.8</ele>
        <time>2017-02-21T09:33:32Z</time>
      </trkpt>
      <trkpt lat="42.77732" lon="0.12658">
        <ele>2225.8</ele>
        <time>2017-02-21T09:33:37Z</time>
      </trkpt>
      <trkpt lat="42.77731" lon="0.12657">
        <ele>2225</ele>
        <time>2017-02-21T09:33:42Z</time>
      </trkpt>
      <trkpt lat="42.77729" lon="0.12656">
        <ele>2225</ele>
        <time>2017-02-21T09:33:47Z</time>
      </trkpt>
      <trkpt lat="42.77728" lon="0.12653">
        <ele>2228</ele>
        <time>2017-02-21T09:33:52Z</time>
      </trkpt>
      <trkpt lat="42.77726" lon="0.12651">
        <ele>2228.8</ele>
        <time>2017-02-21T09:33:57Z</time>
      </trkpt>
      <trkpt lat="42.77724" lon="0.12648">
        <ele>2229</ele>
        <time>2017-02-21T09:34:02Z</time>
      </trkpt>
      <trkpt lat="42.77722" lon="0.12646">
        <ele>2229.6</ele>
        <time>2017-02-21T09:34:07Z</time>
      </trkpt>
      <trkpt lat="42.7772" lon="0.12643">
        <ele>2230.2</ele>
        <time>2017-02-21T09:34:12Z</time>
      </trkpt>
      <trkpt lat="42.77718" lon="0.1264">
        <ele>2233.2</ele>
        <time>2017-02-21T09:34:17Z</time>
      </trkpt>
      <trkpt lat="42.77717" lon="0.12637">
        <ele>2233.4</ele>
        <time>2017-02-21T09:34:22Z</time>
      </trkpt>
      <trkpt lat="42.77717" lon="0.12633">
        <ele>2233</ele>
        <time>2017-02-21T09:34:27Z</time>
      </trkpt>
      <trkpt lat="42.77718" lon="0.12629">
        <ele>2234.4</ele>
        <time>2017-02-21T09:34:32Z</time>
      </trkpt>
      <trkpt lat="42.77721" lon="0.12627">
        <ele>2234</ele>
        <time>2017-02-21T09:34:37Z</time>
      </trkpt>
      <trkpt lat="42.77723" lon="0.12626">
        <ele>2234.8</ele>
        <time>2017-02-21T09:34:42Z</time>
      </trkpt>
      <trkpt lat="42.77726" lon="0.12625">
        <ele>2235.6</ele>
        <time>2017-02-21T09:34:47Z</time>
      </trkpt>
      <trkpt lat="42.77728" lon="0.12625">
        <ele>2234.6</ele>
        <time>2017-02-21T09:34:52Z</time>
      </trkpt>
      <trkpt lat="42.77729" lon="0.12625">
        <ele>2236.8</ele>
        <time>2017-02-21T09:34:57Z</time>
      </trkpt>
      <trkpt lat="42.77731" lon="0.12625">
        <ele>2234</ele>
        <time>2017-02-21T09:35:02Z</time>
      </trkpt>
      <trkpt lat="42.77733" lon="0.12625">
        <ele>2237</ele>
        <time>2017-02-21T09:35:07Z</time>
      </trkpt>
      <trkpt lat="42.77735" lon="0.12625">
        <ele>2236.4</ele>
        <time>2017-02-21T09:35:12Z</time>
      </trkpt>
      <trkpt lat="42.77737" lon="0.12625">
        <ele>2236.6</ele>
        <time>2017-02-21T09:35:17Z</time>
      </trkpt>
      <trkpt lat="42.77739" lon="0.12625">
        <ele>2237.6</ele>
        <time>2017-02-21T09:35:22Z</time>
      </trkpt>
      <trkpt lat="42.77741" lon="0.12624">
        <ele>2237.6</ele>
        <time>2017-02-21T09:35:27Z</time>
      </trkpt>
      <trkpt lat="42.77743" lon="0.12624">
        <ele>2239</ele>
        <time>2017-02-21T09:35:33Z</time>
      </trkpt>
      <trkpt lat="42.77745" lon="0.12623">
        <ele>2237.8</ele>
        <time>2017-02-21T09:35:38Z</time>
      </trkpt>
      <trkpt lat="42.77747" lon="0.12622">
        <ele>2238.4</ele>
        <time>2017-02-21T09:35:43Z</time>
      </trkpt>
      <trkpt lat="42.77749" lon="0.12622">
        <ele>2240.2</ele>
        <time>2017-02-21T09:35:48Z</time>
      </trkpt>
      <trkpt lat="42.77751" lon="0.12621">
        <ele>2241.6</ele>
        <time>2017-02-21T09:35:53Z</time>
      </trkpt>
      <trkpt lat="42.77753" lon="0.12619">
        <ele>2243.4</ele>
        <time>2017-02-21T09:35:58Z</time>
      </trkpt>
      <trkpt lat="42.77754" lon="0.12617">
        <ele>2245</ele>
        <time>2017-02-21T09:36:03Z</time>
      </trkpt>
      <trkpt lat="42.77754" lon="0.12614">
        <ele>2246.6</ele>
        <time>2017-02-21T09:36:08Z</time>
      </trkpt>
      <trkpt lat="42.77752" lon="0.12613">
        <ele>2246.6</ele>
        <time>2017-02-21T09:36:13Z</time>
      </trkpt>
      <trkpt lat="42.7775" lon="0.12611">
        <ele>2246.6</ele>
        <time>2017-02-21T09:36:18Z</time>
      </trkpt>
      <trkpt lat="42.7775" lon="0.12608">
        <ele>2246</ele>
        <time>2017-02-21T09:36:23Z</time>
      </trkpt>
      <trkpt lat="42.77749" lon="0.12605">
        <ele>2246</ele>
        <time>2017-02-21T09:36:28Z</time>
      </trkpt>
      <trkpt lat="42.77749" lon="0.12602">
        <ele>2249.2</ele>
        <time>2017-02-21T09:36:33Z</time>
      </trkpt>
      <trkpt lat="42.77749" lon="0.126">
        <ele>2250.4</ele>
        <time>2017-02-21T09:36:38Z</time>
      </trkpt>
      <trkpt lat="42.77751" lon="0.12598">
        <ele>2247.6</ele>
        <time>2017-02-21T09:36:43Z</time>
      </trkpt>
      <trkpt lat="42.77753" lon="0.12597">
        <ele>2250.4</ele>
        <time>2017-02-21T09:36:48Z</time>
      </trkpt>
      <trkpt lat="42.77754" lon="0.12595">
        <ele>2249.8</ele>
        <time>2017-02-21T09:36:53Z</time>
      </trkpt>
      <trkpt lat="42.77753" lon="0.12593">
        <ele>2249.4</ele>
        <time>2017-02-21T09:36:58Z</time>
      </trkpt>
      <trkpt lat="42.77751" lon="0.12592">
        <ele>2251.6</ele>
        <time>2017-02-21T09:37:03Z</time>
      </trkpt>
      <trkpt lat="42.77749" lon="0.12591">
        <ele>2252.6</ele>
        <time>2017-02-21T09:37:08Z</time>
      </trkpt>
      <trkpt lat="42.77747" lon="0.12589">
        <ele>2254.6</ele>
        <time>2017-02-21T09:37:13Z</time>
      </trkpt>
      <trkpt lat="42.77745" lon="0.12588">
        <ele>2252.2</ele>
        <time>2017-02-21T09:37:18Z</time>
      </trkpt>
      <trkpt lat="42.77744" lon="0.12585">
        <ele>2253.4</ele>
        <time>2017-02-21T09:37:23Z</time>
      </trkpt>
      <trkpt lat="42.77744" lon="0.12582">
        <ele>2254.2</ele>
        <time>2017-02-21T09:37:28Z</time>
      </trkpt>
      <trkpt lat="42.77743" lon="0.12579">
        <ele>2256.8</ele>
        <time>2017-02-21T09:37:33Z</time>
      </trkpt>
      <trkpt lat="42.7774" lon="0.12577">
        <ele>2257</ele>
        <time>2017-02-21T09:37:38Z</time>
      </trkpt>
      <trkpt lat="42.77739" lon="0.12574">
        <ele>2257.8</ele>
        <time>2017-02-21T09:37:43Z</time>
      </trkpt>
      <trkpt lat="42.77738" lon="0.12571">
        <ele>2259.2</ele>
        <time>2017-02-21T09:37:48Z</time>
      </trkpt>
      <trkpt lat="42.77737" lon="0.12568">
        <ele>2257.6</ele>
        <time>2017-02-21T09:37:53Z</time>
      </trkpt>
      <trkpt lat="42.77736" lon="0.12565">
        <ele>2260.8</ele>
        <time>2017-02-21T09:37:58Z</time>
      </trkpt>
      <trkpt lat="42.77734" lon="0.12563">
        <ele>2259.8</ele>
        <time>2017-02-21T09:38:03Z</time>
      </trkpt>
      <trkpt lat="42.77734" lon="0.12559">
        <ele>2260.2</ele>
        <time>2017-02-21T09:38:08Z</time>
      </trkpt>
      <trkpt lat="42.77733" lon="0.12556">
        <ele>2259.2</ele>
        <time>2017-02-21T09:38:13Z</time>
      </trkpt>
      <trkpt lat="42.77732" lon="0.12553">
        <ele>2259.6</ele>
        <time>2017-02-21T09:38:18Z</time>
      </trkpt>
      <trkpt lat="42.7773" lon="0.1255">
        <ele>2260.8</ele>
        <time>2017-02-21T09:38:23Z</time>
      </trkpt>
      <trkpt lat="42.7773" lon="0.12547">
        <ele>2263.6</ele>
        <time>2017-02-21T09:38:28Z</time>
      </trkpt>
      <trkpt lat="42.77729" lon="0.12542">
        <ele>2262.8</ele>
        <time>2017-02-21T09:38:33Z</time>
      </trkpt>
      <trkpt lat="42.77732" lon="0.12539">
        <ele>2264.8</ele>
        <time>2017-02-21T09:38:38Z</time>
      </trkpt>
      <trkpt lat="42.77735" lon="0.12539">
        <ele>2263.4</ele>
        <time>2017-02-21T09:38:43Z</time>
      </trkpt>
      <trkpt lat="42.77737" lon="0.12538">
        <ele>2266.4</ele>
        <time>2017-02-21T09:38:48Z</time>
      </trkpt>
      <trkpt lat="42.7774" lon="0.12538">
        <ele>2266.6</ele>
        <time>2017-02-21T09:38:53Z</time>
      </trkpt>
      <trkpt lat="42.77742" lon="0.12538">
        <ele>2265.2</ele>
        <time>2017-02-21T09:38:58Z</time>
      </trkpt>
      <trkpt lat="42.77744" lon="0.12538">
        <ele>2267.6</ele>
        <time>2017-02-21T09:39:03Z</time>
      </trkpt>
      <trkpt lat="42.77746" lon="0.12538">
        <ele>2268</ele>
        <time>2017-02-21T09:39:08Z</time>
      </trkpt>
      <trkpt lat="42.77749" lon="0.12537">
        <ele>2268.4</ele>
        <time>2017-02-21T09:39:13Z</time>
      </trkpt>
      <trkpt lat="42.7775" lon="0.12535">
        <ele>2267.8</ele>
        <time>2017-02-21T09:39:18Z</time>
      </trkpt>
      <trkpt lat="42.7775" lon="0.12532">
        <ele>2269.8</ele>
        <time>2017-02-21T09:39:23Z</time>
      </trkpt>
      <trkpt lat="42.7775" lon="0.12529">
        <ele>2268.4</ele>
        <time>2017-02-21T09:39:28Z</time>
      </trkpt>
      <trkpt lat="42.7775" lon="0.12526">
        <ele>2269.6</ele>
        <time>2017-02-21T09:39:33Z</time>
      </trkpt>
      <trkpt lat="42.7775" lon="0.12523">
        <ele>2270.4</ele>
        <time>2017-02-21T09:39:38Z</time>
      </trkpt>
      <trkpt lat="42.77751" lon="0.1252">
        <ele>2268.6</ele>
        <time>2017-02-21T09:39:43Z</time>
      </trkpt>
      <trkpt lat="42.77751" lon="0.12517">
        <ele>2272.4</ele>
        <time>2017-02-21T09:39:48Z</time>
      </trkpt>
      <trkpt lat="42.77751" lon="0.12514">
        <ele>2270.4</ele>
        <time>2017-02-21T09:39:53Z</time>
      </trkpt>
      <trkpt lat="42.77752" lon="0.12511">
        <ele>2269.6</ele>
        <time>2017-02-21T09:39:58Z</time>
      </trkpt>
      <trkpt lat="42.77752" lon="0.12508">
        <ele>2271.6</ele>
        <time>2017-02-21T09:40:03Z</time>
      </trkpt>
      <trkpt lat="42.77753" lon="0.12505">
        <ele>2273.6</ele>
        <time>2017-02-21T09:40:08Z</time>
      </trkpt>
      <trkpt lat="42.77754" lon="0.12502">
        <ele>2272.8</ele>
        <time>2017-02-21T09:40:13Z</time>
      </trkpt>
      <trkpt lat="42.77755" lon="0.12499">
        <ele>2272.4</ele>
        <time>2017-02-21T09:40:18Z</time>
      </trkpt>
      <trkpt lat="42.77756" lon="0.12496">
        <ele>2274.4</ele>
        <time>2017-02-21T09:40:23Z</time>
      </trkpt>
      <trkpt lat="42.77756" lon="0.12493">
        <ele>2274.8</ele>
        <time>2017-02-21T09:40:28Z</time>
      </trkpt>
      <trkpt lat="42.77757" lon="0.12489">
        <ele>2275.2</ele>
        <time>2017-02-21T09:40:33Z</time>
      </trkpt>
      <trkpt lat="42.77756" lon="0.12485">
        <ele>2275.8</ele>
        <time>2017-02-21T09:40:38Z</time>
      </trkpt>
      <trkpt lat="42.77755" lon="0.12483">
        <ele>2276.6</ele>
        <time>2017-02-21T09:40:43Z</time>
      </trkpt>
      <trkpt lat="42.77753" lon="0.1248">
        <ele>2277.6</ele>
        <time>2017-02-21T09:40:48Z</time>
      </trkpt>
      <trkpt lat="42.77751" lon="0.12479">
        <ele>2276.2</ele>
        <time>2017-02-21T09:40:53Z</time>
      </trkpt>
      <trkpt lat="42.77748" lon="0.12479">
        <ele>2280.2</ele>
        <time>2017-02-21T09:40:59Z</time>
      </trkpt>
      <trkpt lat="42.77747" lon="0.12479">
        <ele>2281.4</ele>
        <time>2017-02-21T09:41:04Z</time>
      </trkpt>
      <trkpt lat="42.77746" lon="0.12478">
        <ele>2283.2</ele>
        <time>2017-02-21T09:41:09Z</time>
      </trkpt>
      <trkpt lat="42.77745" lon="0.12478">
        <ele>2283.6</ele>
        <time>2017-02-21T09:41:14Z</time>
      </trkpt>
      <trkpt lat="42.77743" lon="0.12478">
        <ele>2283.2</ele>
        <time>2017-02-21T09:41:19Z</time>
      </trkpt>
      <trkpt lat="42.77741" lon="0.12479">
        <ele>2285</ele>
        <time>2017-02-21T09:41:24Z</time>
      </trkpt>
      <trkpt lat="42.77741" lon="0.12479">
        <ele>2285.8</ele>
        <time>2017-02-21T09:41:29Z</time>
      </trkpt>
      <trkpt lat="42.77738" lon="0.12478">
        <ele>2287.2</ele>
        <time>2017-02-21T09:41:34Z</time>
      </trkpt>
      <trkpt lat="42.77737" lon="0.12475">
        <ele>2287.4</ele>
        <time>2017-02-21T09:41:39Z</time>
      </trkpt>
      <trkpt lat="42.77737" lon="0.12471">
        <ele>2288.4</ele>
        <time>2017-02-21T09:41:44Z</time>
      </trkpt>
      <trkpt lat="42.77737" lon="0.12467">
        <ele>2288</ele>
        <time>2017-02-21T09:41:49Z</time>
      </trkpt>
      <trkpt lat="42.77736" lon="0.12464">
        <ele>2287.4</ele>
        <time>2017-02-21T09:41:54Z</time>
      </trkpt>
      <trkpt lat="42.77736" lon="0.1246">
        <ele>2288.2</ele>
        <time>2017-02-21T09:41:59Z</time>
      </trkpt>
      <trkpt lat="42.77736" lon="0.12457">
        <ele>2288.2</ele>
        <time>2017-02-21T09:42:04Z</time>
      </trkpt>
      <trkpt lat="42.77737" lon="0.12454">
        <ele>2286.6</ele>
        <time>2017-02-21T09:42:09Z</time>
      </trkpt>
      <trkpt lat="42.77737" lon="0.12452">
        <ele>2286.8</ele>
        <time>2017-02-21T09:42:14Z</time>
      </trkpt>
      <trkpt lat="42.77737" lon="0.12449">
        <ele>2288.2</ele>
        <time>2017-02-21T09:42:19Z</time>
      </trkpt>
      <trkpt lat="42.77737" lon="0.12447">
        <ele>2289.2</ele>
        <time>2017-02-21T09:42:24Z</time>
      </trkpt>
      <trkpt lat="42.77738" lon="0.12444">
        <ele>2292</ele>
        <time>2017-02-21T09:42:29Z</time>
      </trkpt>
      <trkpt lat="42.77739" lon="0.12443">
        <ele>2294.6</ele>
        <time>2017-02-21T09:42:34Z</time>
      </trkpt>
      <trkpt lat="42.7774" lon="0.12442">
        <ele>2292.2</ele>
        <time>2017-02-21T09:42:39Z</time>
      </trkpt>
      <trkpt lat="42.77742" lon="0.1244">
        <ele>2294</ele>
        <time>2017-02-21T09:42:44Z</time>
      </trkpt>
      <trkpt lat="42.77743" lon="0.12438">
        <ele>2296</ele>
        <time>2017-02-21T09:42:49Z</time>
      </trkpt>
      <trkpt lat="42.77745" lon="0.12436">
        <ele>2296.4</ele>
        <time>2017-02-21T09:42:54Z</time>
      </trkpt>
      <trkpt lat="42.77746" lon="0.12434">
        <ele>2296</ele>
        <time>2017-02-21T09:42:59Z</time>
      </trkpt>
      <trkpt lat="42.77747" lon="0.12432">
        <ele>2295.2</ele>
        <time>2017-02-21T09:43:04Z</time>
      </trkpt>
      <trkpt lat="42.77745" lon="0.12431">
        <ele>2296.6</ele>
        <time>2017-02-21T09:43:09Z</time>
      </trkpt>
      <trkpt lat="42.77743" lon="0.1243">
        <ele>2296.6</ele>
        <time>2017-02-21T09:43:14Z</time>
      </trkpt>
      <trkpt lat="42.77741" lon="0.12428">
        <ele>2295.6</ele>
        <time>2017-02-21T09:43:19Z</time>
      </trkpt>
      <trkpt lat="42.77737" lon="0.12427">
        <ele>2297.6</ele>
        <time>2017-02-21T09:43:24Z</time>
      </trkpt>
      <trkpt lat="42.77735" lon="0.12425">
        <ele>2295.8</ele>
        <time>2017-02-21T09:43:29Z</time>
      </trkpt>
      <trkpt lat="42.77734" lon="0.12423">
        <ele>2299</ele>
        <time>2017-02-21T09:43:34Z</time>
      </trkpt>
      <trkpt lat="42.77732" lon="0.12421">
        <ele>2301</ele>
        <time>2017-02-21T09:43:39Z</time>
      </trkpt>
      <trkpt lat="42.7773" lon="0.12419">
        <ele>2301.4</ele>
        <time>2017-02-21T09:43:44Z</time>
      </trkpt>
      <trkpt lat="42.7773" lon="0.12414">
        <ele>2304.2</ele>
        <time>2017-02-21T09:43:49Z</time>
      </trkpt>
      <trkpt lat="42.77728" lon="0.12411">
        <ele>2303.2</ele>
        <time>2017-02-21T09:43:54Z</time>
      </trkpt>
      <trkpt lat="42.77726" lon="0.12409">
        <ele>2303.6</ele>
        <time>2017-02-21T09:43:59Z</time>
      </trkpt>
      <trkpt lat="42.77724" lon="0.12408">
        <ele>2304.6</ele>
        <time>2017-02-21T09:44:04Z</time>
      </trkpt>
      <trkpt lat="42.77722" lon="0.12407">
        <ele>2304.2</ele>
        <time>2017-02-21T09:44:09Z</time>
      </trkpt>
      <trkpt lat="42.7772" lon="0.12405">
        <ele>2302.8</ele>
        <time>2017-02-21T09:44:14Z</time>
      </trkpt>
      <trkpt lat="42.77718" lon="0.12403">
        <ele>2306.6</ele>
        <time>2017-02-21T09:44:19Z</time>
      </trkpt>
      <trkpt lat="42.77718" lon="0.124">
        <ele>2306</ele>
        <time>2017-02-21T09:44:24Z</time>
      </trkpt>
      <trkpt lat="42.77717" lon="0.12397">
        <ele>2307.2</ele>
        <time>2017-02-21T09:44:29Z</time>
      </trkpt>
      <trkpt lat="42.77716" lon="0.12395">
        <ele>2308.8</ele>
        <time>2017-02-21T09:44:34Z</time>
      </trkpt>
      <trkpt lat="42.77715" lon="0.12393">
        <ele>2306.6</ele>
        <time>2017-02-21T09:44:39Z</time>
      </trkpt>
      <trkpt lat="42.77715" lon="0.1239">
        <ele>2305.8</ele>
        <time>2017-02-21T09:44:44Z</time>
      </trkpt>
      <trkpt lat="42.77714" lon="0.12387">
        <ele>2306.4</ele>
        <time>2017-02-21T09:44:49Z</time>
      </trkpt>
      <trkpt lat="42.77713" lon="0.12384">
        <ele>2305</ele>
        <time>2017-02-21T09:44:54Z</time>
      </trkpt>
      <trkpt lat="42.77713" lon="0.12381">
        <ele>2309.2</ele>
        <time>2017-02-21T09:44:59Z</time>
      </trkpt>
      <trkpt lat="42.77712" lon="0.12379">
        <ele>2308.8</ele>
        <time>2017-02-21T09:45:04Z</time>
      </trkpt>
      <trkpt lat="42.77712" lon="0.12377">
        <ele>2309</ele>
        <time>2017-02-21T09:45:09Z</time>
      </trkpt>
      <trkpt lat="42.77712" lon="0.12374">
        <ele>2311.6</ele>
        <time>2017-02-21T09:45:14Z</time>
      </trkpt>
      <trkpt lat="42.77712" lon="0.12372">
        <ele>2311.4</ele>
        <time>2017-02-21T09:45:19Z</time>
      </trkpt>
      <trkpt lat="42.77711" lon="0.12369">
        <ele>2313.6</ele>
        <time>2017-02-21T09:45:24Z</time>
      </trkpt>
      <trkpt lat="42.7771" lon="0.12366">
        <ele>2316.2</ele>
        <time>2017-02-21T09:45:29Z</time>
      </trkpt>
      <trkpt lat="42.7771" lon="0.12363">
        <ele>2314.6</ele>
        <time>2017-02-21T09:45:34Z</time>
      </trkpt>
      <trkpt lat="42.7771" lon="0.1236">
        <ele>2317.4</ele>
        <time>2017-02-21T09:45:39Z</time>
      </trkpt>
      <trkpt lat="42.7771" lon="0.12358">
        <ele>2318.2</ele>
        <time>2017-02-21T09:45:44Z</time>
      </trkpt>
      <trkpt lat="42.77709" lon="0.12355">
        <ele>2317.4</ele>
        <time>2017-02-21T09:45:49Z</time>
      </trkpt>
      <trkpt lat="42.77709" lon="0.12352">
        <ele>2315.8</ele>
        <time>2017-02-21T09:45:54Z</time>
      </trkpt>
      <trkpt lat="42.77708" lon="0.1235">
        <ele>2319.8</ele>
        <time>2017-02-21T09:45:59Z</time>
      </trkpt>
      <trkpt lat="42.77708" lon="0.12347">
        <ele>2321.4</ele>
        <time>2017-02-21T09:46:04Z</time>
      </trkpt>
      <trkpt lat="42.77707" lon="0.12344">
        <ele>2321.4</ele>
        <time>2017-02-21T09:46:09Z</time>
      </trkpt>
      <trkpt lat="42.77707" lon="0.12341">
        <ele>2322.8</ele>
        <time>2017-02-21T09:46:14Z</time>
      </trkpt>
      <trkpt lat="42.77707" lon="0.12339">
        <ele>2321.4</ele>
        <time>2017-02-21T09:46:19Z</time>
      </trkpt>
      <trkpt lat="42.77707" lon="0.12337">
        <ele>2321</ele>
        <time>2017-02-21T09:46:24Z</time>
      </trkpt>
      <trkpt lat="42.77707" lon="0.12334">
        <ele>2320.6</ele>
        <time>2017-02-21T09:46:29Z</time>
      </trkpt>
      <trkpt lat="42.77707" lon="0.12332">
        <ele>2324.4</ele>
        <time>2017-02-21T09:46:34Z</time>
      </trkpt>
      <trkpt lat="42.77707" lon="0.12329">
        <ele>2325.6</ele>
        <time>2017-02-21T09:46:39Z</time>
      </trkpt>
      <trkpt lat="42.77707" lon="0.12326">
        <ele>2324.4</ele>
        <time>2017-02-21T09:46:44Z</time>
      </trkpt>
      <trkpt lat="42.77706" lon="0.12323">
        <ele>2327.6</ele>
        <time>2017-02-21T09:46:49Z</time>
      </trkpt>
      <trkpt lat="42.77706" lon="0.12321">
        <ele>2325.8</ele>
        <time>2017-02-21T09:46:54Z</time>
      </trkpt>
      <trkpt lat="42.77705" lon="0.12318">
        <ele>2323.8</ele>
        <time>2017-02-21T09:46:59Z</time>
      </trkpt>
      <trkpt lat="42.77704" lon="0.12315">
        <ele>2325.2</ele>
        <time>2017-02-21T09:47:04Z</time>
      </trkpt>
      <trkpt lat="42.77704" lon="0.12312">
        <ele>2328</ele>
        <time>2017-02-21T09:47:09Z</time>
      </trkpt>
      <trkpt lat="42.77703" lon="0.12309">
        <ele>2329.6</ele>
        <time>2017-02-21T09:47:14Z</time>
      </trkpt>
      <trkpt lat="42.77702" lon="0.12306">
        <ele>2329</ele>
        <time>2017-02-21T09:47:19Z</time>
      </trkpt>
      <trkpt lat="42.77701" lon="0.12304">
        <ele>2330.8</ele>
        <time>2017-02-21T09:47:24Z</time>
      </trkpt>
      <trkpt lat="42.77701" lon="0.123">
        <ele>2330.4</ele>
        <time>2017-02-21T09:47:29Z</time>
      </trkpt>
      <trkpt lat="42.777" lon="0.12297">
        <ele>2330.6</ele>
        <time>2017-02-21T09:47:34Z</time>
      </trkpt>
      <trkpt lat="42.77699" lon="0.12294">
        <ele>2329.8</ele>
        <time>2017-02-21T09:47:39Z</time>
      </trkpt>
      <trkpt lat="42.77698" lon="0.12291">
        <ele>2333.6</ele>
        <time>2017-02-21T09:47:44Z</time>
      </trkpt>
      <trkpt lat="42.77697" lon="0.12289">
        <ele>2330.6</ele>
        <time>2017-02-21T09:47:49Z</time>
      </trkpt>
      <trkpt lat="42.77696" lon="0.12287">
        <ele>2332.8</ele>
        <time>2017-02-21T09:47:54Z</time>
      </trkpt>
      <trkpt lat="42.77695" lon="0.12285">
        <ele>2333.8</ele>
        <time>2017-02-21T09:47:59Z</time>
      </trkpt>
      <trkpt lat="42.77694" lon="0.12282">
        <ele>2333</ele>
        <time>2017-02-21T09:48:04Z</time>
      </trkpt>
      <trkpt lat="42.77693" lon="0.12279">
        <ele>2334.8</ele>
        <time>2017-02-21T09:48:09Z</time>
      </trkpt>
      <trkpt lat="42.77692" lon="0.12277">
        <ele>2333</ele>
        <time>2017-02-21T09:48:14Z</time>
      </trkpt>
      <trkpt lat="42.77692" lon="0.12275">
        <ele>2332.4</ele>
        <time>2017-02-21T09:48:19Z</time>
      </trkpt>
      <trkpt lat="42.77691" lon="0.12272">
        <ele>2336</ele>
        <time>2017-02-21T09:48:24Z</time>
      </trkpt>
      <trkpt lat="42.77691" lon="0.12268">
        <ele>2335.4</ele>
        <time>2017-02-21T09:48:29Z</time>
      </trkpt>
      <trkpt lat="42.7769" lon="0.12265">
        <ele>2340.4</ele>
        <time>2017-02-21T09:48:34Z</time>
      </trkpt>
      <trkpt lat="42.7769" lon="0.12263">
        <ele>2341.6</ele>
        <time>2017-02-21T09:48:39Z</time>
      </trkpt>
      <trkpt lat="42.7769" lon="0.1226">
        <ele>2340.2</ele>
        <time>2017-02-21T09:48:44Z</time>
      </trkpt>
      <trkpt lat="42.77689" lon="0.12257">
        <ele>2341.2</ele>
        <time>2017-02-21T09:48:49Z</time>
      </trkpt>
      <trkpt lat="42.77689" lon="0.12255">
        <ele>2342.8</ele>
        <time>2017-02-21T09:48:54Z</time>
      </trkpt>
      <trkpt lat="42.77689" lon="0.12254">
        <ele>2342.8</ele>
        <time>2017-02-21T09:48:59Z</time>
      </trkpt>
      <trkpt lat="42.77689" lon="0.12254">
        <ele>2342.6</ele>
        <time>2017-02-21T09:49:04Z</time>
      </trkpt>
      <trkpt lat="42.77689" lon="0.12254">
        <ele>2342.6</ele>
        <time>2017-02-21T09:49:09Z</time>
      </trkpt>
      <trkpt lat="42.77689" lon="0.12254">
        <ele>2342.4</ele>
        <time>2017-02-21T09:49:14Z</time>
      </trkpt>
      <trkpt lat="42.77689" lon="0.12254">
        <ele>2342.4</ele>
        <time>2017-02-21T09:49:20Z</time>
      </trkpt>
      <trkpt lat="42.77689" lon="0.12254">
        <ele>2342.4</ele>
        <time>2017-02-21T09:49:25Z</time>
      </trkpt>
      <trkpt lat="42.77689" lon="0.12254">
        <ele>2342.4</ele>
        <time>2017-02-21T09:49:30Z</time>
      </trkpt>
      <trkpt lat="42.77689" lon="0.12251">
        <ele>2346</ele>
        <time>2017-02-21T09:49:35Z</time>
      </trkpt>
      <trkpt lat="42.77688" lon="0.12248">
        <ele>2348</ele>
        <time>2017-02-21T09:49:40Z</time>
      </trkpt>
      <trkpt lat="42.77688" lon="0.12245">
        <ele>2345.2</ele>
        <time>2017-02-21T09:49:45Z</time>
      </trkpt>
      <trkpt lat="42.77687" lon="0.12241">
        <ele>2345.8</ele>
        <time>2017-02-21T09:49:50Z</time>
      </trkpt>
      <trkpt lat="42.77686" lon="0.12238">
        <ele>2344.8</ele>
        <time>2017-02-21T09:49:55Z</time>
      </trkpt>
      <trkpt lat="42.77686" lon="0.12235">
        <ele>2347.6</ele>
        <time>2017-02-21T09:50:00Z</time>
      </trkpt>
      <trkpt lat="42.77685" lon="0.12232">
        <ele>2347.2</ele>
        <time>2017-02-21T09:50:05Z</time>
      </trkpt>
      <trkpt lat="42.77685" lon="0.12228">
        <ele>2348.4</ele>
        <time>2017-02-21T09:50:10Z</time>
      </trkpt>
      <trkpt lat="42.77685" lon="0.12225">
        <ele>2348.6</ele>
        <time>2017-02-21T09:50:15Z</time>
      </trkpt>
      <trkpt lat="42.77684" lon="0.12222">
        <ele>2349.6</ele>
        <time>2017-02-21T09:50:20Z</time>
      </trkpt>
      <trkpt lat="42.77683" lon="0.12219">
        <ele>2349.6</ele>
        <time>2017-02-21T09:50:25Z</time>
      </trkpt>
      <trkpt lat="42.77683" lon="0.12216">
        <ele>2346.2</ele>
        <time>2017-02-21T09:50:30Z</time>
      </trkpt>
      <trkpt lat="42.77682" lon="0.12214">
        <ele>2349.4</ele>
        <time>2017-02-21T09:50:35Z</time>
      </trkpt>
      <trkpt lat="42.77682" lon="0.12211">
        <ele>2351</ele>
        <time>2017-02-21T09:50:40Z</time>
      </trkpt>
      <trkpt lat="42.77681" lon="0.12208">
        <ele>2351.6</ele>
        <time>2017-02-21T09:50:45Z</time>
      </trkpt>
      <trkpt lat="42.77681" lon="0.12205">
        <ele>2351.6</ele>
        <time>2017-02-21T09:50:50Z</time>
      </trkpt>
      <trkpt lat="42.7768" lon="0.12202">
        <ele>2351.4</ele>
        <time>2017-02-21T09:50:55Z</time>
      </trkpt>
      <trkpt lat="42.7768" lon="0.12199">
        <ele>2353.2</ele>
        <time>2017-02-21T09:51:00Z</time>
      </trkpt>
      <trkpt lat="42.7768" lon="0.12197">
        <ele>2354.2</ele>
        <time>2017-02-21T09:51:05Z</time>
      </trkpt>
      <trkpt lat="42.7768" lon="0.12194">
        <ele>2357.2</ele>
        <time>2017-02-21T09:51:10Z</time>
      </trkpt>
      <trkpt lat="42.77679" lon="0.12191">
        <ele>2359.8</ele>
        <time>2017-02-21T09:51:15Z</time>
      </trkpt>
      <trkpt lat="42.77679" lon="0.12187">
        <ele>2359.6</ele>
        <time>2017-02-21T09:51:20Z</time>
      </trkpt>
      <trkpt lat="42.77677" lon="0.12184">
        <ele>2359.8</ele>
        <time>2017-02-21T09:51:25Z</time>
      </trkpt>
      <trkpt lat="42.77676" lon="0.12183">
        <ele>2360</ele>
        <time>2017-02-21T09:51:30Z</time>
      </trkpt>
      <trkpt lat="42.77677" lon="0.12183">
        <ele>2359.6</ele>
        <time>2017-02-21T09:51:35Z</time>
      </trkpt>
      <trkpt lat="42.77677" lon="0.12183">
        <ele>2359.4</ele>
        <time>2017-02-21T09:51:40Z</time>
      </trkpt>
      <trkpt lat="42.77677" lon="0.12183">
        <ele>2359.2</ele>
        <time>2017-02-21T09:51:45Z</time>
      </trkpt>
      <trkpt lat="42.77677" lon="0.12183">
        <ele>2359</ele>
        <time>2017-02-21T09:51:50Z</time>
      </trkpt>
      <trkpt lat="42.77677" lon="0.12183">
        <ele>2359</ele>
        <time>2017-02-21T09:51:55Z</time>
      </trkpt>
      <trkpt lat="42.77677" lon="0.12183">
        <ele>2358.8</ele>
        <time>2017-02-21T09:52:00Z</time>
      </trkpt>
      <trkpt lat="42.77677" lon="0.12183">
        <ele>2358.8</ele>
        <time>2017-02-21T09:52:05Z</time>
      </trkpt>
      <trkpt lat="42.77677" lon="0.12183">
        <ele>2359.2</ele>
        <time>2017-02-21T09:52:10Z</time>
      </trkpt>
      <trkpt lat="42.77677" lon="0.12183">
        <ele>2359.2</ele>
        <time>2017-02-21T09:52:15Z</time>
      </trkpt>
      <trkpt lat="42.77677" lon="0.12183">
        <ele>2359.4</ele>
        <time>2017-02-21T09:52:20Z</time>
      </trkpt>
      <trkpt lat="42.77677" lon="0.12183">
        <ele>2359.6</ele>
        <time>2017-02-21T09:52:26Z</time>
      </trkpt>
      <trkpt lat="42.77677" lon="0.12183">
        <ele>2359.6</ele>
        <time>2017-02-21T09:52:31Z</time>
      </trkpt>
      <trkpt lat="42.77677" lon="0.12183">
        <ele>2359.6</ele>
        <time>2017-02-21T09:52:36Z</time>
      </trkpt>
      <trkpt lat="42.77677" lon="0.12183">
        <ele>2359.6</ele>
        <time>2017-02-21T09:52:41Z</time>
      </trkpt>
      <trkpt lat="42.77677" lon="0.12183">
        <ele>2359.6</ele>
        <time>2017-02-21T09:52:46Z</time>
      </trkpt>
      <trkpt lat="42.77677" lon="0.12183">
        <ele>2359.4</ele>
        <time>2017-02-21T09:52:51Z</time>
      </trkpt>
      <trkpt lat="42.77677" lon="0.12183">
        <ele>2359.4</ele>
        <time>2017-02-21T09:52:56Z</time>
      </trkpt>
      <trkpt lat="42.77677" lon="0.12183">
        <ele>2359.4</ele>
        <time>2017-02-21T09:53:01Z</time>
      </trkpt>
      <trkpt lat="42.77677" lon="0.12183">
        <ele>2359.4</ele>
        <time>2017-02-21T09:53:06Z</time>
      </trkpt>
      <trkpt lat="42.77677" lon="0.12183">
        <ele>2359.2</ele>
        <time>2017-02-21T09:53:11Z</time>
      </trkpt>
      <trkpt lat="42.77677" lon="0.12183">
        <ele>2359.2</ele>
        <time>2017-02-21T09:53:16Z</time>
      </trkpt>
      <trkpt lat="42.77677" lon="0.12183">
        <ele>2359.2</ele>
        <time>2017-02-21T09:53:21Z</time>
      </trkpt>
      <trkpt lat="42.77677" lon="0.12183">
        <ele>2359.2</ele>
        <time>2017-02-21T09:53:26Z</time>
      </trkpt>
      <trkpt lat="42.77677" lon="0.12183">
        <ele>2359.2</ele>
        <time>2017-02-21T09:53:31Z</time>
      </trkpt>
      <trkpt lat="42.77677" lon="0.12183">
        <ele>2359.2</ele>
        <time>2017-02-21T09:53:36Z</time>
      </trkpt>
      <trkpt lat="42.77677" lon="0.12183">
        <ele>2359.2</ele>
        <time>2017-02-21T09:53:41Z</time>
      </trkpt>
      <trkpt lat="42.77677" lon="0.12183">
        <ele>2359.2</ele>
        <time>2017-02-21T09:53:46Z</time>
      </trkpt>
      <trkpt lat="42.77677" lon="0.12183">
        <ele>2359.2</ele>
        <time>2017-02-21T09:53:51Z</time>
      </trkpt>
      <trkpt lat="42.77677" lon="0.12183">
        <ele>2359.2</ele>
        <time>2017-02-21T09:53:56Z</time>
      </trkpt>
      <trkpt lat="42.77677" lon="0.12183">
        <ele>2359.2</ele>
        <time>2017-02-21T09:54:01Z</time>
      </trkpt>
      <trkpt lat="42.77677" lon="0.12183">
        <ele>2359</ele>
        <time>2017-02-21T09:54:06Z</time>
      </trkpt>
      <trkpt lat="42.77677" lon="0.12183">
        <ele>2359</ele>
        <time>2017-02-21T09:54:11Z</time>
      </trkpt>
      <trkpt lat="42.77677" lon="0.12183">
        <ele>2359</ele>
        <time>2017-02-21T09:54:16Z</time>
      </trkpt>
      <trkpt lat="42.77677" lon="0.12183">
        <ele>2359</ele>
        <time>2017-02-21T09:54:21Z</time>
      </trkpt>
      <trkpt lat="42.77677" lon="0.12183">
        <ele>2359</ele>
        <time>2017-02-21T09:54:26Z</time>
      </trkpt>
      <trkpt lat="42.77677" lon="0.12183">
        <ele>2359</ele>
        <time>2017-02-21T09:54:31Z</time>
      </trkpt>
      <trkpt lat="42.77677" lon="0.12183">
        <ele>2359</ele>
        <time>2017-02-21T09:54:36Z</time>
      </trkpt>
      <trkpt lat="42.77677" lon="0.12183">
        <ele>2359</ele>
        <time>2017-02-21T09:54:41Z</time>
      </trkpt>
      <trkpt lat="42.77677" lon="0.12183">
        <ele>2359</ele>
        <time>2017-02-21T09:54:46Z</time>
      </trkpt>
      <trkpt lat="42.77677" lon="0.12183">
        <ele>2359</ele>
        <time>2017-02-21T09:54:51Z</time>
      </trkpt>
      <trkpt lat="42.77677" lon="0.12183">
        <ele>2359</ele>
        <time>2017-02-21T09:54:56Z</time>
      </trkpt>
      <trkpt lat="42.77677" lon="0.12183">
        <ele>2359</ele>
        <time>2017-02-21T09:55:01Z</time>
      </trkpt>
      <trkpt lat="42.77677" lon="0.12183">
        <ele>2359</ele>
        <time>2017-02-21T09:55:06Z</time>
      </trkpt>
      <trkpt lat="42.77677" lon="0.12183">
        <ele>2359</ele>
        <time>2017-02-21T09:55:11Z</time>
      </trkpt>
      <trkpt lat="42.77677" lon="0.12183">
        <ele>2359</ele>
        <time>2017-02-21T09:55:16Z</time>
      </trkpt>
      <trkpt lat="42.77677" lon="0.12183">
        <ele>2359</ele>
        <time>2017-02-21T09:55:21Z</time>
      </trkpt>
      <trkpt lat="42.77677" lon="0.12183">
        <ele>2359</ele>
        <time>2017-02-21T09:55:26Z</time>
      </trkpt>
      <trkpt lat="42.77677" lon="0.12183">
        <ele>2359</ele>
        <time>2017-02-21T09:55:31Z</time>
      </trkpt>
      <trkpt lat="42.77677" lon="0.12183">
        <ele>2359</ele>
        <time>2017-02-21T09:55:37Z</time>
      </trkpt>
      <trkpt lat="42.77677" lon="0.12183">
        <ele>2359</ele>
        <time>2017-02-21T09:55:42Z</time>
      </trkpt>
      <trkpt lat="42.77677" lon="0.12183">
        <ele>2359</ele>
        <time>2017-02-21T09:55:47Z</time>
      </trkpt>
      <trkpt lat="42.77677" lon="0.12183">
        <ele>2359</ele>
        <time>2017-02-21T09:55:52Z</time>
      </trkpt>
      <trkpt lat="42.77677" lon="0.12183">
        <ele>2359</ele>
        <time>2017-02-21T09:55:57Z</time>
      </trkpt>
      <trkpt lat="42.77677" lon="0.12183">
        <ele>2359</ele>
        <time>2017-02-21T09:56:02Z</time>
      </trkpt>
      <trkpt lat="42.77677" lon="0.12183">
        <ele>2359</ele>
        <time>2017-02-21T09:56:07Z</time>
      </trkpt>
      <trkpt lat="42.77677" lon="0.12183">
        <ele>2359</ele>
        <time>2017-02-21T09:56:12Z</time>
      </trkpt>
      <trkpt lat="42.77677" lon="0.12183">
        <ele>2359</ele>
        <time>2017-02-21T09:56:17Z</time>
      </trkpt>
      <trkpt lat="42.77677" lon="0.12183">
        <ele>2359</ele>
        <time>2017-02-21T09:56:22Z</time>
      </trkpt>
      <trkpt lat="42.77677" lon="0.12183">
        <ele>2359</ele>
        <time>2017-02-21T09:56:27Z</time>
      </trkpt>
      <trkpt lat="42.77677" lon="0.12183">
        <ele>2359</ele>
        <time>2017-02-21T09:56:32Z</time>
      </trkpt>
      <trkpt lat="42.77677" lon="0.12183">
        <ele>2359</ele>
        <time>2017-02-21T09:56:37Z</time>
      </trkpt>
      <trkpt lat="42.77677" lon="0.12183">
        <ele>2359</ele>
        <time>2017-02-21T09:56:42Z</time>
      </trkpt>
      <trkpt lat="42.77677" lon="0.12183">
        <ele>2359</ele>
        <time>2017-02-21T09:56:47Z</time>
      </trkpt>
      <trkpt lat="42.77677" lon="0.12183">
        <ele>2359</ele>
        <time>2017-02-21T09:56:52Z</time>
      </trkpt>
      <trkpt lat="42.77677" lon="0.12183">
        <ele>2359</ele>
        <time>2017-02-21T09:56:57Z</time>
      </trkpt>
      <trkpt lat="42.77677" lon="0.12183">
        <ele>2359</ele>
        <time>2017-02-21T09:57:02Z</time>
      </trkpt>
      <trkpt lat="42.77677" lon="0.12183">
        <ele>2359</ele>
        <time>2017-02-21T09:57:07Z</time>
      </trkpt>
      <trkpt lat="42.77677" lon="0.12183">
        <ele>2359</ele>
        <time>2017-02-21T09:57:12Z</time>
      </trkpt>
      <trkpt lat="42.77677" lon="0.12183">
        <ele>2359</ele>
        <time>2017-02-21T09:57:17Z</time>
      </trkpt>
      <trkpt lat="42.77677" lon="0.12183">
        <ele>2359</ele>
        <time>2017-02-21T09:57:22Z</time>
      </trkpt>
      <trkpt lat="42.77677" lon="0.12183">
        <ele>2359</ele>
        <time>2017-02-21T09:57:27Z</time>
      </trkpt>
      <trkpt lat="42.77677" lon="0.12183">
        <ele>2359</ele>
        <time>2017-02-21T09:57:32Z</time>
      </trkpt>
      <trkpt lat="42.77677" lon="0.12183">
        <ele>2359</ele>
        <time>2017-02-21T09:57:37Z</time>
      </trkpt>
      <trkpt lat="42.77677" lon="0.12183">
        <ele>2359</ele>
        <time>2017-02-21T09:57:42Z</time>
      </trkpt>
      <trkpt lat="42.77677" lon="0.12183">
        <ele>2359</ele>
        <time>2017-02-21T09:57:47Z</time>
      </trkpt>
      <trkpt lat="42.77677" lon="0.12183">
        <ele>2359</ele>
        <time>2017-02-21T09:57:52Z</time>
      </trkpt>
      <trkpt lat="42.77677" lon="0.12185">
        <ele>2354.6</ele>
        <time>2017-02-21T09:57:57Z</time>
      </trkpt>
      <trkpt lat="42.77678" lon="0.12187">
        <ele>2357.8</ele>
        <time>2017-02-21T09:58:02Z</time>
      </trkpt>
      <trkpt lat="42.77678" lon="0.12187">
        <ele>2358</ele>
        <time>2017-02-21T09:58:07Z</time>
      </trkpt>
      <trkpt lat="42.77678" lon="0.12187">
        <ele>2358.2</ele>
        <time>2017-02-21T09:58:12Z</time>
      </trkpt>
      <trkpt lat="42.77678" lon="0.12187">
        <ele>2358.2</ele>
        <time>2017-02-21T09:58:17Z</time>
      </trkpt>
      <trkpt lat="42.77677" lon="0.12185">
        <ele>2359.6</ele>
        <time>2017-02-21T09:58:22Z</time>
      </trkpt>
      <trkpt lat="42.77677" lon="0.12185">
        <ele>2359.4</ele>
        <time>2017-02-21T09:58:27Z</time>
      </trkpt>
      <trkpt lat="42.77677" lon="0.12185">
        <ele>2359.2</ele>
        <time>2017-02-21T09:58:32Z</time>
      </trkpt>
      <trkpt lat="42.77677" lon="0.12185">
        <ele>2359</ele>
        <time>2017-02-21T09:58:37Z</time>
      </trkpt>
      <trkpt lat="42.77677" lon="0.12185">
        <ele>2359</ele>
        <time>2017-02-21T09:58:42Z</time>
      </trkpt>
      <trkpt lat="42.77677" lon="0.12185">
        <ele>2358.8</ele>
        <time>2017-02-21T09:58:47Z</time>
      </trkpt>
      <trkpt lat="42.77677" lon="0.12185">
        <ele>2358.8</ele>
        <time>2017-02-21T09:58:52Z</time>
      </trkpt>
      <trkpt lat="42.77677" lon="0.12185">
        <ele>2358.8</ele>
        <time>2017-02-21T09:58:57Z</time>
      </trkpt>
      <trkpt lat="42.77677" lon="0.12185">
        <ele>2358.8</ele>
        <time>2017-02-21T09:59:02Z</time>
      </trkpt>
      <trkpt lat="42.77677" lon="0.12185">
        <ele>2358.8</ele>
        <time>2017-02-21T09:59:07Z</time>
      </trkpt>
      <trkpt lat="42.77677" lon="0.12184">
        <ele>2358.8</ele>
        <time>2017-02-21T09:59:12Z</time>
      </trkpt>
      <trkpt lat="42.77676" lon="0.12182">
        <ele>2358.6</ele>
        <time>2017-02-21T09:59:17Z</time>
      </trkpt>
      <trkpt lat="42.77675" lon="0.12179">
        <ele>2358.2</ele>
        <time>2017-02-21T09:59:22Z</time>
      </trkpt>
      <trkpt lat="42.77674" lon="0.12176">
        <ele>2359.4</ele>
        <time>2017-02-21T09:59:27Z</time>
      </trkpt>
      <trkpt lat="42.77673" lon="0.12173">
        <ele>2360.2</ele>
        <time>2017-02-21T09:59:32Z</time>
      </trkpt>
      <trkpt lat="42.77672" lon="0.1217">
        <ele>2363.4</ele>
        <time>2017-02-21T09:59:37Z</time>
      </trkpt>
      <trkpt lat="42.77671" lon="0.12167">
        <ele>2361.2</ele>
        <time>2017-02-21T09:59:42Z</time>
      </trkpt>
      <trkpt lat="42.77671" lon="0.12166">
        <ele>2361.6</ele>
        <time>2017-02-21T09:59:47Z</time>
      </trkpt>
      <trkpt lat="42.7767" lon="0.12164">
        <ele>2362.8</ele>
        <time>2017-02-21T09:59:52Z</time>
      </trkpt>
      <trkpt lat="42.77669" lon="0.12161">
        <ele>2362.4</ele>
        <time>2017-02-21T09:59:57Z</time>
      </trkpt>
      <trkpt lat="42.77668" lon="0.12158">
        <ele>2363</ele>
        <time>2017-02-21T10:00:02Z</time>
      </trkpt>
      <trkpt lat="42.77667" lon="0.12154">
        <ele>2364.6</ele>
        <time>2017-02-21T10:00:07Z</time>
      </trkpt>
      <trkpt lat="42.77666" lon="0.1215">
        <ele>2366</ele>
        <time>2017-02-21T10:00:12Z</time>
      </trkpt>
      <trkpt lat="42.77665" lon="0.12147">
        <ele>2364.8</ele>
        <time>2017-02-21T10:00:17Z</time>
      </trkpt>
      <trkpt lat="42.77664" lon="0.12144">
        <ele>2365</ele>
        <time>2017-02-21T10:00:22Z</time>
      </trkpt>
      <trkpt lat="42.77664" lon="0.12141">
        <ele>2368.8</ele>
        <time>2017-02-21T10:00:27Z</time>
      </trkpt>
      <trkpt lat="42.77663" lon="0.12138">
        <ele>2367.6</ele>
        <time>2017-02-21T10:00:32Z</time>
      </trkpt>
      <trkpt lat="42.77662" lon="0.12134">
        <ele>2371.4</ele>
        <time>2017-02-21T10:00:37Z</time>
      </trkpt>
      <trkpt lat="42.77662" lon="0.12131">
        <ele>2370.6</ele>
        <time>2017-02-21T10:00:42Z</time>
      </trkpt>
      <trkpt lat="42.77661" lon="0.12129">
        <ele>2371</ele>
        <time>2017-02-21T10:00:47Z</time>
      </trkpt>
      <trkpt lat="42.7766" lon="0.12125">
        <ele>2372.2</ele>
        <time>2017-02-21T10:00:52Z</time>
      </trkpt>
      <trkpt lat="42.7766" lon="0.12122">
        <ele>2371.6</ele>
        <time>2017-02-21T10:00:57Z</time>
      </trkpt>
      <trkpt lat="42.77659" lon="0.1212">
        <ele>2372</ele>
        <time>2017-02-21T10:01:02Z</time>
      </trkpt>
      <trkpt lat="42.77658" lon="0.12117">
        <ele>2372.2</ele>
        <time>2017-02-21T10:01:07Z</time>
      </trkpt>
      <trkpt lat="42.77658" lon="0.12115">
        <ele>2370.6</ele>
        <time>2017-02-21T10:01:12Z</time>
      </trkpt>
      <trkpt lat="42.77657" lon="0.12112">
        <ele>2372.2</ele>
        <time>2017-02-21T10:01:17Z</time>
      </trkpt>
      <trkpt lat="42.77656" lon="0.12109">
        <ele>2374.6</ele>
        <time>2017-02-21T10:01:22Z</time>
      </trkpt>
      <trkpt lat="42.77656" lon="0.12107">
        <ele>2373.6</ele>
        <time>2017-02-21T10:01:27Z</time>
      </trkpt>
      <trkpt lat="42.77655" lon="0.12104">
        <ele>2374.6</ele>
        <time>2017-02-21T10:01:32Z</time>
      </trkpt>
      <trkpt lat="42.77654" lon="0.12102">
        <ele>2374.6</ele>
        <time>2017-02-21T10:01:37Z</time>
      </trkpt>
      <trkpt lat="42.77654" lon="0.12099">
        <ele>2373.2</ele>
        <time>2017-02-21T10:01:42Z</time>
      </trkpt>
      <trkpt lat="42.77653" lon="0.12096">
        <ele>2375.2</ele>
        <time>2017-02-21T10:01:47Z</time>
      </trkpt>
      <trkpt lat="42.77652" lon="0.12093">
        <ele>2377.8</ele>
        <time>2017-02-21T10:01:52Z</time>
      </trkpt>
      <trkpt lat="42.77651" lon="0.1209">
        <ele>2374.4</ele>
        <time>2017-02-21T10:01:57Z</time>
      </trkpt>
      <trkpt lat="42.77651" lon="0.12087">
        <ele>2376</ele>
        <time>2017-02-21T10:02:02Z</time>
      </trkpt>
      <trkpt lat="42.7765" lon="0.12084">
        <ele>2378.6</ele>
        <time>2017-02-21T10:02:07Z</time>
      </trkpt>
      <trkpt lat="42.77649" lon="0.12082">
        <ele>2378</ele>
        <time>2017-02-21T10:02:12Z</time>
      </trkpt>
      <trkpt lat="42.77648" lon="0.12079">
        <ele>2379.2</ele>
        <time>2017-02-21T10:02:17Z</time>
      </trkpt>
      <trkpt lat="42.77647" lon="0.12077">
        <ele>2380.2</ele>
        <time>2017-02-21T10:02:22Z</time>
      </trkpt>
      <trkpt lat="42.77647" lon="0.12074">
        <ele>2382.2</ele>
        <time>2017-02-21T10:02:27Z</time>
      </trkpt>
      <trkpt lat="42.77646" lon="0.12072">
        <ele>2382.6</ele>
        <time>2017-02-21T10:02:32Z</time>
      </trkpt>
      <trkpt lat="42.77645" lon="0.1207">
        <ele>2380</ele>
        <time>2017-02-21T10:02:37Z</time>
      </trkpt>
      <trkpt lat="42.77644" lon="0.12068">
        <ele>2382.8</ele>
        <time>2017-02-21T10:02:42Z</time>
      </trkpt>
      <trkpt lat="42.77643" lon="0.12065">
        <ele>2383.4</ele>
        <time>2017-02-21T10:02:47Z</time>
      </trkpt>
      <trkpt lat="42.77643" lon="0.12063">
        <ele>2382.2</ele>
        <time>2017-02-21T10:02:52Z</time>
      </trkpt>
      <trkpt lat="42.77642" lon="0.12061">
        <ele>2386.8</ele>
        <time>2017-02-21T10:02:57Z</time>
      </trkpt>
      <trkpt lat="42.77641" lon="0.12059">
        <ele>2386.2</ele>
        <time>2017-02-21T10:03:02Z</time>
      </trkpt>
      <trkpt lat="42.7764" lon="0.12056">
        <ele>2386.2</ele>
        <time>2017-02-21T10:03:07Z</time>
      </trkpt>
      <trkpt lat="42.7764" lon="0.12054">
        <ele>2386.6</ele>
        <time>2017-02-21T10:03:12Z</time>
      </trkpt>
      <trkpt lat="42.77639" lon="0.12051">
        <ele>2390</ele>
        <time>2017-02-21T10:03:17Z</time>
      </trkpt>
      <trkpt lat="42.77638" lon="0.1205">
        <ele>2390.4</ele>
        <time>2017-02-21T10:03:22Z</time>
      </trkpt>
      <trkpt lat="42.77637" lon="0.12048">
        <ele>2389.2</ele>
        <time>2017-02-21T10:03:27Z</time>
      </trkpt>
      <trkpt lat="42.77636" lon="0.12045">
        <ele>2390.2</ele>
        <time>2017-02-21T10:03:33Z</time>
      </trkpt>
      <trkpt lat="42.77635" lon="0.12042">
        <ele>2391.8</ele>
        <time>2017-02-21T10:03:39Z</time>
      </trkpt>
      <trkpt lat="42.77633" lon="0.1204">
        <ele>2388.4</ele>
        <time>2017-02-21T10:03:44Z</time>
      </trkpt>
      <trkpt lat="42.77632" lon="0.12038">
        <ele>2387.8</ele>
        <time>2017-02-21T10:03:49Z</time>
      </trkpt>
      <trkpt lat="42.77631" lon="0.12036">
        <ele>2389</ele>
        <time>2017-02-21T10:03:54Z</time>
      </trkpt>
      <trkpt lat="42.7763" lon="0.12034">
        <ele>2395.8</ele>
        <time>2017-02-21T10:03:59Z</time>
      </trkpt>
      <trkpt lat="42.77629" lon="0.12031">
        <ele>2392</ele>
        <time>2017-02-21T10:04:04Z</time>
      </trkpt>
      <trkpt lat="42.77628" lon="0.12029">
        <ele>2392.6</ele>
        <time>2017-02-21T10:04:09Z</time>
      </trkpt>
      <trkpt lat="42.77627" lon="0.12027">
        <ele>2392.8</ele>
        <time>2017-02-21T10:04:14Z</time>
      </trkpt>
      <trkpt lat="42.77626" lon="0.12025">
        <ele>2398.4</ele>
        <time>2017-02-21T10:04:19Z</time>
      </trkpt>
      <trkpt lat="42.77625" lon="0.12023">
        <ele>2398.6</ele>
        <time>2017-02-21T10:04:24Z</time>
      </trkpt>
      <trkpt lat="42.77623" lon="0.12022">
        <ele>2397.2</ele>
        <time>2017-02-21T10:04:29Z</time>
      </trkpt>
      <trkpt lat="42.77622" lon="0.1202">
        <ele>2396.4</ele>
        <time>2017-02-21T10:04:34Z</time>
      </trkpt>
      <trkpt lat="42.7762" lon="0.12018">
        <ele>2394</ele>
        <time>2017-02-21T10:04:39Z</time>
      </trkpt>
      <trkpt lat="42.77619" lon="0.12017">
        <ele>2396.4</ele>
        <time>2017-02-21T10:04:44Z</time>
      </trkpt>
      <trkpt lat="42.77617" lon="0.12015">
        <ele>2395.6</ele>
        <time>2017-02-21T10:04:49Z</time>
      </trkpt>
      <trkpt lat="42.77615" lon="0.12013">
        <ele>2399.2</ele>
        <time>2017-02-21T10:04:54Z</time>
      </trkpt>
      <trkpt lat="42.77613" lon="0.12011">
        <ele>2399.4</ele>
        <time>2017-02-21T10:04:59Z</time>
      </trkpt>
      <trkpt lat="42.77612" lon="0.1201">
        <ele>2399.2</ele>
        <time>2017-02-21T10:05:04Z</time>
      </trkpt>
      <trkpt lat="42.7761" lon="0.12009">
        <ele>2398</ele>
        <time>2017-02-21T10:05:09Z</time>
      </trkpt>
      <trkpt lat="42.77608" lon="0.12007">
        <ele>2398.8</ele>
        <time>2017-02-21T10:05:14Z</time>
      </trkpt>
      <trkpt lat="42.77607" lon="0.12006">
        <ele>2396.8</ele>
        <time>2017-02-21T10:05:19Z</time>
      </trkpt>
      <trkpt lat="42.77605" lon="0.12005">
        <ele>2397</ele>
        <time>2017-02-21T10:05:24Z</time>
      </trkpt>
      <trkpt lat="42.77603" lon="0.12003">
        <ele>2400.6</ele>
        <time>2017-02-21T10:05:29Z</time>
      </trkpt>
      <trkpt lat="42.77601" lon="0.12002">
        <ele>2400.4</ele>
        <time>2017-02-21T10:05:34Z</time>
      </trkpt>
      <trkpt lat="42.776" lon="0.12001">
        <ele>2404</ele>
        <time>2017-02-21T10:05:39Z</time>
      </trkpt>
      <trkpt lat="42.77598" lon="0.12">
        <ele>2404</ele>
        <time>2017-02-21T10:05:44Z</time>
      </trkpt>
      <trkpt lat="42.77596" lon="0.11999">
        <ele>2403.4</ele>
        <time>2017-02-21T10:05:49Z</time>
      </trkpt>
      <trkpt lat="42.77595" lon="0.11998">
        <ele>2403.6</ele>
        <time>2017-02-21T10:05:54Z</time>
      </trkpt>
      <trkpt lat="42.77593" lon="0.11997">
        <ele>2403.2</ele>
        <time>2017-02-21T10:05:59Z</time>
      </trkpt>
      <trkpt lat="42.77591" lon="0.11996">
        <ele>2403</ele>
        <time>2017-02-21T10:06:04Z</time>
      </trkpt>
      <trkpt lat="42.77589" lon="0.11994">
        <ele>2406.6</ele>
        <time>2017-02-21T10:06:09Z</time>
      </trkpt>
      <trkpt lat="42.77588" lon="0.11993">
        <ele>2407.6</ele>
        <time>2017-02-21T10:06:14Z</time>
      </trkpt>
      <trkpt lat="42.77586" lon="0.11992">
        <ele>2408.6</ele>
        <time>2017-02-21T10:06:19Z</time>
      </trkpt>
      <trkpt lat="42.77584" lon="0.11991">
        <ele>2408.6</ele>
        <time>2017-02-21T10:06:24Z</time>
      </trkpt>
      <trkpt lat="42.77582" lon="0.11989">
        <ele>2409.6</ele>
        <time>2017-02-21T10:06:29Z</time>
      </trkpt>
      <trkpt lat="42.77579" lon="0.11988">
        <ele>2408.8</ele>
        <time>2017-02-21T10:06:34Z</time>
      </trkpt>
      <trkpt lat="42.77577" lon="0.11987">
        <ele>2411.2</ele>
        <time>2017-02-21T10:06:39Z</time>
      </trkpt>
      <trkpt lat="42.77575" lon="0.11985">
        <ele>2408.6</ele>
        <time>2017-02-21T10:06:44Z</time>
      </trkpt>
      <trkpt lat="42.77573" lon="0.11984">
        <ele>2412.2</ele>
        <time>2017-02-21T10:06:49Z</time>
      </trkpt>
      <trkpt lat="42.77571" lon="0.11983">
        <ele>2409.6</ele>
        <time>2017-02-21T10:06:54Z</time>
      </trkpt>
      <trkpt lat="42.7757" lon="0.11982">
        <ele>2411.6</ele>
        <time>2017-02-21T10:06:59Z</time>
      </trkpt>
      <trkpt lat="42.77571" lon="0.11981">
        <ele>2412.4</ele>
        <time>2017-02-21T10:07:04Z</time>
      </trkpt>
      <trkpt lat="42.77572" lon="0.11979">
        <ele>2413.2</ele>
        <time>2017-02-21T10:07:09Z</time>
      </trkpt>
      <trkpt lat="42.77572" lon="0.11979">
        <ele>2413.4</ele>
        <time>2017-02-21T10:07:14Z</time>
      </trkpt>
      <trkpt lat="42.77573" lon="0.11979">
        <ele>2414.8</ele>
        <time>2017-02-21T10:07:19Z</time>
      </trkpt>
      <trkpt lat="42.77573" lon="0.11977">
        <ele>2412</ele>
        <time>2017-02-21T10:07:24Z</time>
      </trkpt>
      <trkpt lat="42.77572" lon="0.11975">
        <ele>2413.8</ele>
        <time>2017-02-21T10:07:29Z</time>
      </trkpt>
      <trkpt lat="42.77572" lon="0.11975">
        <ele>2413.4</ele>
        <time>2017-02-21T10:07:34Z</time>
      </trkpt>
      <trkpt lat="42.77572" lon="0.11975">
        <ele>2412.8</ele>
        <time>2017-02-21T10:07:39Z</time>
      </trkpt>
      <trkpt lat="42.77571" lon="0.11974">
        <ele>2414.2</ele>
        <time>2017-02-21T10:07:44Z</time>
      </trkpt>
      <trkpt lat="42.77569" lon="0.11973">
        <ele>2415.4</ele>
        <time>2017-02-21T10:07:49Z</time>
      </trkpt>
      <trkpt lat="42.77567" lon="0.11972">
        <ele>2413.8</ele>
        <time>2017-02-21T10:07:54Z</time>
      </trkpt>
      <trkpt lat="42.77566" lon="0.11972">
        <ele>2414.2</ele>
        <time>2017-02-21T10:07:59Z</time>
      </trkpt>
      <trkpt lat="42.77566" lon="0.11972">
        <ele>2414.6</ele>
        <time>2017-02-21T10:08:04Z</time>
      </trkpt>
      <trkpt lat="42.77566" lon="0.1197">
        <ele>2412.2</ele>
        <time>2017-02-21T10:08:09Z</time>
      </trkpt>
      <trkpt lat="42.77566" lon="0.1197">
        <ele>2412.4</ele>
        <time>2017-02-21T10:08:14Z</time>
      </trkpt>
      <trkpt lat="42.77566" lon="0.1197">
        <ele>2412.6</ele>
        <time>2017-02-21T10:08:19Z</time>
      </trkpt>
      <trkpt lat="42.77566" lon="0.1197">
        <ele>2412.6</ele>
        <time>2017-02-21T10:08:24Z</time>
      </trkpt>
      <trkpt lat="42.77566" lon="0.11969">
        <ele>2411.8</ele>
        <time>2017-02-21T10:08:29Z</time>
      </trkpt>
      <trkpt lat="42.77567" lon="0.11966">
        <ele>2410.6</ele>
        <time>2017-02-21T10:08:34Z</time>
      </trkpt>
      <trkpt lat="42.77568" lon="0.11964">
        <ele>2410.2</ele>
        <time>2017-02-21T10:08:39Z</time>
      </trkpt>
      <trkpt lat="42.77569" lon="0.11962">
        <ele>2411</ele>
        <time>2017-02-21T10:08:44Z</time>
      </trkpt>
      <trkpt lat="42.7757" lon="0.11961">
        <ele>2411.4</ele>
        <time>2017-02-21T10:08:49Z</time>
      </trkpt>
      <trkpt lat="42.77571" lon="0.11959">
        <ele>2411.6</ele>
        <time>2017-02-21T10:08:54Z</time>
      </trkpt>
      <trkpt lat="42.77572" lon="0.11957">
        <ele>2411.4</ele>
        <time>2017-02-21T10:08:59Z</time>
      </trkpt>
      <trkpt lat="42.77574" lon="0.11955">
        <ele>2413</ele>
        <time>2017-02-21T10:09:04Z</time>
      </trkpt>
      <trkpt lat="42.77576" lon="0.11953">
        <ele>2415.4</ele>
        <time>2017-02-21T10:09:09Z</time>
      </trkpt>
      <trkpt lat="42.77577" lon="0.11951">
        <ele>2417</ele>
        <time>2017-02-21T10:09:14Z</time>
      </trkpt>
      <trkpt lat="42.77579" lon="0.1195">
        <ele>2418</ele>
        <time>2017-02-21T10:09:19Z</time>
      </trkpt>
      <trkpt lat="42.77581" lon="0.11948">
        <ele>2419.4</ele>
        <time>2017-02-21T10:09:24Z</time>
      </trkpt>
      <trkpt lat="42.77581" lon="0.11948">
        <ele>2419</ele>
        <time>2017-02-21T10:09:29Z</time>
      </trkpt>
      <trkpt lat="42.77581" lon="0.11948">
        <ele>2416.6</ele>
        <time>2017-02-21T10:09:34Z</time>
      </trkpt>
      <trkpt lat="42.77582" lon="0.11947">
        <ele>2417.2</ele>
        <time>2017-02-21T10:09:39Z</time>
      </trkpt>
      <trkpt lat="42.77582" lon="0.11945">
        <ele>2417.4</ele>
        <time>2017-02-21T10:09:44Z</time>
      </trkpt>
      <trkpt lat="42.77582" lon="0.11945">
        <ele>2418</ele>
        <time>2017-02-21T10:09:49Z</time>
      </trkpt>
      <trkpt lat="42.77582" lon="0.11945">
        <ele>2418.6</ele>
        <time>2017-02-21T10:09:54Z</time>
      </trkpt>
      <trkpt lat="42.77582" lon="0.11945">
        <ele>2418.8</ele>
        <time>2017-02-21T10:09:59Z</time>
      </trkpt>
      <trkpt lat="42.77581" lon="0.11945">
        <ele>2420.2</ele>
        <time>2017-02-21T10:10:04Z</time>
      </trkpt>
      <trkpt lat="42.77579" lon="0.11944">
        <ele>2419.4</ele>
        <time>2017-02-21T10:10:09Z</time>
      </trkpt>
      <trkpt lat="42.77576" lon="0.11942">
        <ele>2420</ele>
        <time>2017-02-21T10:10:15Z</time>
      </trkpt>
      <trkpt lat="42.77573" lon="0.11941">
        <ele>2420.4</ele>
        <time>2017-02-21T10:10:21Z</time>
      </trkpt>
      <trkpt lat="42.77571" lon="0.11941">
        <ele>2423.6</ele>
        <time>2017-02-21T10:10:26Z</time>
      </trkpt>
      <trkpt lat="42.7757" lon="0.11941">
        <ele>2426.2</ele>
        <time>2017-02-21T10:10:31Z</time>
      </trkpt>
      <trkpt lat="42.77571" lon="0.1194">
        <ele>2425.8</ele>
        <time>2017-02-21T10:10:36Z</time>
      </trkpt>
      <trkpt lat="42.77571" lon="0.11939">
        <ele>2424.4</ele>
        <time>2017-02-21T10:10:41Z</time>
      </trkpt>
      <trkpt lat="42.77571" lon="0.11939">
        <ele>2424.8</ele>
        <time>2017-02-21T10:10:46Z</time>
      </trkpt>
      <trkpt lat="42.77571" lon="0.11939">
        <ele>2425.2</ele>
        <time>2017-02-21T10:10:51Z</time>
      </trkpt>
      <trkpt lat="42.77571" lon="0.11939">
        <ele>2425.4</ele>
        <time>2017-02-21T10:10:56Z</time>
      </trkpt>
      <trkpt lat="42.77571" lon="0.11939">
        <ele>2424.6</ele>
        <time>2017-02-21T10:11:01Z</time>
      </trkpt>
      <trkpt lat="42.77573" lon="0.11936">
        <ele>2427</ele>
        <time>2017-02-21T10:11:06Z</time>
      </trkpt>
      <trkpt lat="42.77574" lon="0.11935">
        <ele>2428.4</ele>
        <time>2017-02-21T10:11:11Z</time>
      </trkpt>
      <trkpt lat="42.77575" lon="0.11934">
        <ele>2432.4</ele>
        <time>2017-02-21T10:11:16Z</time>
      </trkpt>
      <trkpt lat="42.77577" lon="0.11932">
        <ele>2432.6</ele>
        <time>2017-02-21T10:11:21Z</time>
      </trkpt>
      <trkpt lat="42.77578" lon="0.1193">
        <ele>2435.2</ele>
        <time>2017-02-21T10:11:26Z</time>
      </trkpt>
      <trkpt lat="42.77579" lon="0.11928">
        <ele>2434</ele>
        <time>2017-02-21T10:11:31Z</time>
      </trkpt>
      <trkpt lat="42.77581" lon="0.11926">
        <ele>2434.6</ele>
        <time>2017-02-21T10:11:36Z</time>
      </trkpt>
      <trkpt lat="42.77583" lon="0.11923">
        <ele>2438.8</ele>
        <time>2017-02-21T10:11:41Z</time>
      </trkpt>
      <trkpt lat="42.77585" lon="0.11922">
        <ele>2435.4</ele>
        <time>2017-02-21T10:11:46Z</time>
      </trkpt>
      <trkpt lat="42.77585" lon="0.1192">
        <ele>2434.2</ele>
        <time>2017-02-21T10:11:51Z</time>
      </trkpt>
      <trkpt lat="42.77585" lon="0.11919">
        <ele>2435</ele>
        <time>2017-02-21T10:11:56Z</time>
      </trkpt>
      <trkpt lat="42.77585" lon="0.11919">
        <ele>2435.6</ele>
        <time>2017-02-21T10:12:01Z</time>
      </trkpt>
      <trkpt lat="42.77585" lon="0.11919">
        <ele>2435.8</ele>
        <time>2017-02-21T10:12:06Z</time>
      </trkpt>
      <trkpt lat="42.77585" lon="0.11919">
        <ele>2436.2</ele>
        <time>2017-02-21T10:12:11Z</time>
      </trkpt>
      <trkpt lat="42.77584" lon="0.11919">
        <ele>2438.2</ele>
        <time>2017-02-21T10:12:16Z</time>
      </trkpt>
      <trkpt lat="42.77581" lon="0.11918">
        <ele>2436.2</ele>
        <time>2017-02-21T10:12:21Z</time>
      </trkpt>
      <trkpt lat="42.77579" lon="0.11917">
        <ele>2439.2</ele>
        <time>2017-02-21T10:12:26Z</time>
      </trkpt>
      <trkpt lat="42.77577" lon="0.11916">
        <ele>2439</ele>
        <time>2017-02-21T10:12:31Z</time>
      </trkpt>
      <trkpt lat="42.77574" lon="0.11915">
        <ele>2438.8</ele>
        <time>2017-02-21T10:12:36Z</time>
      </trkpt>
      <trkpt lat="42.77574" lon="0.11915">
        <ele>2437.4</ele>
        <time>2017-02-21T10:12:41Z</time>
      </trkpt>
      <trkpt lat="42.77575" lon="0.11914">
        <ele>2440.4</ele>
        <time>2017-02-21T10:12:46Z</time>
      </trkpt>
      <trkpt lat="42.77575" lon="0.11914">
        <ele>2440.6</ele>
        <time>2017-02-21T10:12:51Z</time>
      </trkpt>
      <trkpt lat="42.77575" lon="0.11914">
        <ele>2441</ele>
        <time>2017-02-21T10:12:56Z</time>
      </trkpt>
      <trkpt lat="42.77575" lon="0.11913">
        <ele>2440</ele>
        <time>2017-02-21T10:13:01Z</time>
      </trkpt>
      <trkpt lat="42.77576" lon="0.11911">
        <ele>2440.6</ele>
        <time>2017-02-21T10:13:06Z</time>
      </trkpt>
      <trkpt lat="42.77577" lon="0.1191">
        <ele>2445.2</ele>
        <time>2017-02-21T10:13:11Z</time>
      </trkpt>
      <trkpt lat="42.77578" lon="0.11909">
        <ele>2442.6</ele>
        <time>2017-02-21T10:13:16Z</time>
      </trkpt>
      <trkpt lat="42.7758" lon="0.11907">
        <ele>2446.2</ele>
        <time>2017-02-21T10:13:21Z</time>
      </trkpt>
      <trkpt lat="42.77582" lon="0.11905">
        <ele>2444.4</ele>
        <time>2017-02-21T10:13:26Z</time>
      </trkpt>
      <trkpt lat="42.77584" lon="0.11904">
        <ele>2447</ele>
        <time>2017-02-21T10:13:31Z</time>
      </trkpt>
      <trkpt lat="42.77585" lon="0.11902">
        <ele>2448.2</ele>
        <time>2017-02-21T10:13:36Z</time>
      </trkpt>
      <trkpt lat="42.77588" lon="0.119">
        <ele>2446.8</ele>
        <time>2017-02-21T10:13:42Z</time>
      </trkpt>
      <trkpt lat="42.77588" lon="0.11899">
        <ele>2450.2</ele>
        <time>2017-02-21T10:13:48Z</time>
      </trkpt>
      <trkpt lat="42.77587" lon="0.11897">
        <ele>2450.2</ele>
        <time>2017-02-21T10:13:53Z</time>
      </trkpt>
      <trkpt lat="42.77587" lon="0.11897">
        <ele>2450.2</ele>
        <time>2017-02-21T10:13:58Z</time>
      </trkpt>
      <trkpt lat="42.77587" lon="0.11897">
        <ele>2450.2</ele>
        <time>2017-02-21T10:14:03Z</time>
      </trkpt>
      <trkpt lat="42.77587" lon="0.11897">
        <ele>2450.2</ele>
        <time>2017-02-21T10:14:08Z</time>
      </trkpt>
      <trkpt lat="42.77586" lon="0.11897">
        <ele>2450.4</ele>
        <time>2017-02-21T10:14:13Z</time>
      </trkpt>
      <trkpt lat="42.77584" lon="0.11895">
        <ele>2451.8</ele>
        <time>2017-02-21T10:14:18Z</time>
      </trkpt>
      <trkpt lat="42.77582" lon="0.11894">
        <ele>2452.6</ele>
        <time>2017-02-21T10:14:23Z</time>
      </trkpt>
      <trkpt lat="42.77581" lon="0.11892">
        <ele>2452.2</ele>
        <time>2017-02-21T10:14:28Z</time>
      </trkpt>
      <trkpt lat="42.77578" lon="0.11891">
        <ele>2451.2</ele>
        <time>2017-02-21T10:14:33Z</time>
      </trkpt>
      <trkpt lat="42.77576" lon="0.1189">
        <ele>2457.8</ele>
        <time>2017-02-21T10:14:38Z</time>
      </trkpt>
      <trkpt lat="42.77576" lon="0.11889">
        <ele>2457.6</ele>
        <time>2017-02-21T10:14:43Z</time>
      </trkpt>
      <trkpt lat="42.77578" lon="0.11888">
        <ele>2457.6</ele>
        <time>2017-02-21T10:14:48Z</time>
      </trkpt>
      <trkpt lat="42.77578" lon="0.11888">
        <ele>2457.2</ele>
        <time>2017-02-21T10:14:53Z</time>
      </trkpt>
      <trkpt lat="42.77579" lon="0.11887">
        <ele>2453.6</ele>
        <time>2017-02-21T10:14:58Z</time>
      </trkpt>
      <trkpt lat="42.77581" lon="0.11885">
        <ele>2457</ele>
        <time>2017-02-21T10:15:03Z</time>
      </trkpt>
      <trkpt lat="42.77582" lon="0.11883">
        <ele>2458.6</ele>
        <time>2017-02-21T10:15:08Z</time>
      </trkpt>
      <trkpt lat="42.77584" lon="0.11882">
        <ele>2458.6</ele>
        <time>2017-02-21T10:15:13Z</time>
      </trkpt>
      <trkpt lat="42.77584" lon="0.11881">
        <ele>2457.8</ele>
        <time>2017-02-21T10:15:18Z</time>
      </trkpt>
      <trkpt lat="42.77584" lon="0.11881">
        <ele>2457.6</ele>
        <time>2017-02-21T10:15:23Z</time>
      </trkpt>
      <trkpt lat="42.77583" lon="0.1188">
        <ele>2459</ele>
        <time>2017-02-21T10:15:28Z</time>
      </trkpt>
      <trkpt lat="42.77583" lon="0.1188">
        <ele>2458.8</ele>
        <time>2017-02-21T10:15:33Z</time>
      </trkpt>
      <trkpt lat="42.77583" lon="0.1188">
        <ele>2458.8</ele>
        <time>2017-02-21T10:15:38Z</time>
      </trkpt>
      <trkpt lat="42.77583" lon="0.1188">
        <ele>2458.6</ele>
        <time>2017-02-21T10:15:43Z</time>
      </trkpt>
      <trkpt lat="42.77582" lon="0.1188">
        <ele>2457.2</ele>
        <time>2017-02-21T10:15:48Z</time>
      </trkpt>
      <trkpt lat="42.7758" lon="0.11879">
        <ele>2458.6</ele>
        <time>2017-02-21T10:15:53Z</time>
      </trkpt>
      <trkpt lat="42.77577" lon="0.11878">
        <ele>2459.8</ele>
        <time>2017-02-21T10:15:58Z</time>
      </trkpt>
      <trkpt lat="42.77575" lon="0.11877">
        <ele>2461</ele>
        <time>2017-02-21T10:16:03Z</time>
      </trkpt>
      <trkpt lat="42.77572" lon="0.11876">
        <ele>2459.2</ele>
        <time>2017-02-21T10:16:08Z</time>
      </trkpt>
      <trkpt lat="42.77569" lon="0.11875">
        <ele>2461.4</ele>
        <time>2017-02-21T10:16:13Z</time>
      </trkpt>
      <trkpt lat="42.77566" lon="0.11874">
        <ele>2463.6</ele>
        <time>2017-02-21T10:16:18Z</time>
      </trkpt>
      <trkpt lat="42.77563" lon="0.11873">
        <ele>2464.2</ele>
        <time>2017-02-21T10:16:23Z</time>
      </trkpt>
      <trkpt lat="42.77561" lon="0.11872">
        <ele>2464.6</ele>
        <time>2017-02-21T10:16:28Z</time>
      </trkpt>
      <trkpt lat="42.77558" lon="0.11871">
        <ele>2464.8</ele>
        <time>2017-02-21T10:16:33Z</time>
      </trkpt>
      <trkpt lat="42.77556" lon="0.1187">
        <ele>2467</ele>
        <time>2017-02-21T10:16:38Z</time>
      </trkpt>
      <trkpt lat="42.77554" lon="0.11869">
        <ele>2466.4</ele>
        <time>2017-02-21T10:16:43Z</time>
      </trkpt>
      <trkpt lat="42.77552" lon="0.11867">
        <ele>2469.2</ele>
        <time>2017-02-21T10:16:48Z</time>
      </trkpt>
      <trkpt lat="42.7755" lon="0.11866">
        <ele>2469</ele>
        <time>2017-02-21T10:16:53Z</time>
      </trkpt>
      <trkpt lat="42.77548" lon="0.11863">
        <ele>2469.6</ele>
        <time>2017-02-21T10:16:58Z</time>
      </trkpt>
      <trkpt lat="42.77548" lon="0.11862">
        <ele>2470.2</ele>
        <time>2017-02-21T10:17:03Z</time>
      </trkpt>
      <trkpt lat="42.77549" lon="0.1186">
        <ele>2470.8</ele>
        <time>2017-02-21T10:17:08Z</time>
      </trkpt>
      <trkpt lat="42.77551" lon="0.11858">
        <ele>2469.6</ele>
        <time>2017-02-21T10:17:13Z</time>
      </trkpt>
      <trkpt lat="42.77552" lon="0.11856">
        <ele>2470.6</ele>
        <time>2017-02-21T10:17:18Z</time>
      </trkpt>
      <trkpt lat="42.77554" lon="0.11855">
        <ele>2470.2</ele>
        <time>2017-02-21T10:17:23Z</time>
      </trkpt>
      <trkpt lat="42.77555" lon="0.11853">
        <ele>2471</ele>
        <time>2017-02-21T10:17:28Z</time>
      </trkpt>
      <trkpt lat="42.77555" lon="0.11852">
        <ele>2473.2</ele>
        <time>2017-02-21T10:17:33Z</time>
      </trkpt>
      <trkpt lat="42.77554" lon="0.11851">
        <ele>2473.4</ele>
        <time>2017-02-21T10:17:38Z</time>
      </trkpt>
      <trkpt lat="42.77554" lon="0.11851">
        <ele>2473.6</ele>
        <time>2017-02-21T10:17:43Z</time>
      </trkpt>
      <trkpt lat="42.77555" lon="0.11851">
        <ele>2473.8</ele>
        <time>2017-02-21T10:17:48Z</time>
      </trkpt>
      <trkpt lat="42.77555" lon="0.11851">
        <ele>2473.8</ele>
        <time>2017-02-21T10:17:53Z</time>
      </trkpt>
      <trkpt lat="42.77553" lon="0.1185">
        <ele>2472</ele>
        <time>2017-02-21T10:17:58Z</time>
      </trkpt>
      <trkpt lat="42.77551" lon="0.11849">
        <ele>2476</ele>
        <time>2017-02-21T10:18:03Z</time>
      </trkpt>
      <trkpt lat="42.77549" lon="0.11847">
        <ele>2474.2</ele>
        <time>2017-02-21T10:18:08Z</time>
      </trkpt>
      <trkpt lat="42.77547" lon="0.11846">
        <ele>2475.4</ele>
        <time>2017-02-21T10:18:13Z</time>
      </trkpt>
      <trkpt lat="42.77545" lon="0.11845">
        <ele>2473.6</ele>
        <time>2017-02-21T10:18:18Z</time>
      </trkpt>
      <trkpt lat="42.77546" lon="0.11842">
        <ele>2473</ele>
        <time>2017-02-21T10:18:23Z</time>
      </trkpt>
      <trkpt lat="42.77548" lon="0.11841">
        <ele>2472.2</ele>
        <time>2017-02-21T10:18:28Z</time>
      </trkpt>
      <trkpt lat="42.77549" lon="0.1184">
        <ele>2475.2</ele>
        <time>2017-02-21T10:18:33Z</time>
      </trkpt>
      <trkpt lat="42.7755" lon="0.11839">
        <ele>2474.4</ele>
        <time>2017-02-21T10:18:38Z</time>
      </trkpt>
      <trkpt lat="42.77552" lon="0.11837">
        <ele>2478.2</ele>
        <time>2017-02-21T10:18:43Z</time>
      </trkpt>
      <trkpt lat="42.77554" lon="0.11835">
        <ele>2478.8</ele>
        <time>2017-02-21T10:18:48Z</time>
      </trkpt>
      <trkpt lat="42.77553" lon="0.11834">
        <ele>2479.8</ele>
        <time>2017-02-21T10:18:53Z</time>
      </trkpt>
      <trkpt lat="42.77551" lon="0.11832">
        <ele>2479</ele>
        <time>2017-02-21T10:18:58Z</time>
      </trkpt>
      <trkpt lat="42.77549" lon="0.11831">
        <ele>2481.6</ele>
        <time>2017-02-21T10:19:03Z</time>
      </trkpt>
      <trkpt lat="42.7755" lon="0.11831">
        <ele>2482.2</ele>
        <time>2017-02-21T10:19:08Z</time>
      </trkpt>
      <trkpt lat="42.7755" lon="0.1183">
        <ele>2485.4</ele>
        <time>2017-02-21T10:19:13Z</time>
      </trkpt>
      <trkpt lat="42.77551" lon="0.11829">
        <ele>2483.2</ele>
        <time>2017-02-21T10:19:18Z</time>
      </trkpt>
      <trkpt lat="42.77552" lon="0.11829">
        <ele>2483.2</ele>
        <time>2017-02-21T10:19:23Z</time>
      </trkpt>
      <trkpt lat="42.77551" lon="0.11829">
        <ele>2483.2</ele>
        <time>2017-02-21T10:19:28Z</time>
      </trkpt>
      <trkpt lat="42.77551" lon="0.11829">
        <ele>2483.2</ele>
        <time>2017-02-21T10:19:33Z</time>
      </trkpt>
      <trkpt lat="42.77551" lon="0.11829">
        <ele>2483.2</ele>
        <time>2017-02-21T10:19:38Z</time>
      </trkpt>
      <trkpt lat="42.77553" lon="0.11828">
        <ele>2482.8</ele>
        <time>2017-02-21T10:19:43Z</time>
      </trkpt>
      <trkpt lat="42.77555" lon="0.11826">
        <ele>2481.8</ele>
        <time>2017-02-21T10:19:48Z</time>
      </trkpt>
      <trkpt lat="42.77557" lon="0.11825">
        <ele>2483.4</ele>
        <time>2017-02-21T10:19:53Z</time>
      </trkpt>
      <trkpt lat="42.77559" lon="0.11823">
        <ele>2485.4</ele>
        <time>2017-02-21T10:19:58Z</time>
      </trkpt>
      <trkpt lat="42.77561" lon="0.11822">
        <ele>2485.4</ele>
        <time>2017-02-21T10:20:03Z</time>
      </trkpt>
      <trkpt lat="42.7756" lon="0.11821">
        <ele>2484.2</ele>
        <time>2017-02-21T10:20:08Z</time>
      </trkpt>
      <trkpt lat="42.77558" lon="0.11819">
        <ele>2488.6</ele>
        <time>2017-02-21T10:20:13Z</time>
      </trkpt>
      <trkpt lat="42.77557" lon="0.11819">
        <ele>2487.6</ele>
        <time>2017-02-21T10:20:18Z</time>
      </trkpt>
      <trkpt lat="42.77557" lon="0.11819">
        <ele>2487.6</ele>
        <time>2017-02-21T10:20:23Z</time>
      </trkpt>
      <trkpt lat="42.77557" lon="0.11819">
        <ele>2487.4</ele>
        <time>2017-02-21T10:20:28Z</time>
      </trkpt>
      <trkpt lat="42.77558" lon="0.11819">
        <ele>2487.2</ele>
        <time>2017-02-21T10:20:33Z</time>
      </trkpt>
      <trkpt lat="42.77558" lon="0.11818">
        <ele>2486.8</ele>
        <time>2017-02-21T10:20:38Z</time>
      </trkpt>
      <trkpt lat="42.77556" lon="0.11816">
        <ele>2488.2</ele>
        <time>2017-02-21T10:20:43Z</time>
      </trkpt>
      <trkpt lat="42.77554" lon="0.11815">
        <ele>2490.2</ele>
        <time>2017-02-21T10:20:48Z</time>
      </trkpt>
      <trkpt lat="42.77552" lon="0.11813">
        <ele>2488</ele>
        <time>2017-02-21T10:20:53Z</time>
      </trkpt>
      <trkpt lat="42.77549" lon="0.11811">
        <ele>2488.8</ele>
        <time>2017-02-21T10:20:58Z</time>
      </trkpt>
      <trkpt lat="42.77546" lon="0.11809">
        <ele>2488.8</ele>
        <time>2017-02-21T10:21:03Z</time>
      </trkpt>
      <trkpt lat="42.77544" lon="0.11806">
        <ele>2488.8</ele>
        <time>2017-02-21T10:21:08Z</time>
      </trkpt>
      <trkpt lat="42.77543" lon="0.11804">
        <ele>2494.8</ele>
        <time>2017-02-21T10:21:13Z</time>
      </trkpt>
      <trkpt lat="42.77542" lon="0.11801">
        <ele>2491.6</ele>
        <time>2017-02-21T10:21:18Z</time>
      </trkpt>
      <trkpt lat="42.77543" lon="0.118">
        <ele>2492.2</ele>
        <time>2017-02-21T10:21:23Z</time>
      </trkpt>
      <trkpt lat="42.77544" lon="0.118">
        <ele>2491.2</ele>
        <time>2017-02-21T10:21:28Z</time>
      </trkpt>
      <trkpt lat="42.77545" lon="0.11799">
        <ele>2490.4</ele>
        <time>2017-02-21T10:21:33Z</time>
      </trkpt>
      <trkpt lat="42.77545" lon="0.11799">
        <ele>2492</ele>
        <time>2017-02-21T10:21:38Z</time>
      </trkpt>
      <trkpt lat="42.77545" lon="0.11799">
        <ele>2493</ele>
        <time>2017-02-21T10:21:43Z</time>
      </trkpt>
      <trkpt lat="42.77545" lon="0.11798">
        <ele>2492.6</ele>
        <time>2017-02-21T10:21:48Z</time>
      </trkpt>
      <trkpt lat="42.77545" lon="0.11798">
        <ele>2494</ele>
        <time>2017-02-21T10:21:53Z</time>
      </trkpt>
      <trkpt lat="42.77545" lon="0.11795">
        <ele>2496.2</ele>
        <time>2017-02-21T10:21:58Z</time>
      </trkpt>
      <trkpt lat="42.77546" lon="0.11792">
        <ele>2501.6</ele>
        <time>2017-02-21T10:22:03Z</time>
      </trkpt>
      <trkpt lat="42.77546" lon="0.1179">
        <ele>2503.2</ele>
        <time>2017-02-21T10:22:08Z</time>
      </trkpt>
      <trkpt lat="42.77546" lon="0.11787">
        <ele>2501</ele>
        <time>2017-02-21T10:22:13Z</time>
      </trkpt>
      <trkpt lat="42.77547" lon="0.11786">
        <ele>2501.4</ele>
        <time>2017-02-21T10:22:18Z</time>
      </trkpt>
      <trkpt lat="42.77547" lon="0.11786">
        <ele>2500.6</ele>
        <time>2017-02-21T10:22:23Z</time>
      </trkpt>
      <trkpt lat="42.77547" lon="0.11783">
        <ele>2505</ele>
        <time>2017-02-21T10:22:28Z</time>
      </trkpt>
      <trkpt lat="42.77548" lon="0.1178">
        <ele>2505.2</ele>
        <time>2017-02-21T10:22:33Z</time>
      </trkpt>
      <trkpt lat="42.77549" lon="0.11777">
        <ele>2507</ele>
        <time>2017-02-21T10:22:38Z</time>
      </trkpt>
      <trkpt lat="42.77549" lon="0.11777">
        <ele>2506.2</ele>
        <time>2017-02-21T10:22:43Z</time>
      </trkpt>
      <trkpt lat="42.77549" lon="0.11777">
        <ele>2505.6</ele>
        <time>2017-02-21T10:22:48Z</time>
      </trkpt>
      <trkpt lat="42.77549" lon="0.11777">
        <ele>2505.2</ele>
        <time>2017-02-21T10:22:53Z</time>
      </trkpt>
      <trkpt lat="42.77549" lon="0.11776">
        <ele>2505</ele>
        <time>2017-02-21T10:22:58Z</time>
      </trkpt>
      <trkpt lat="42.77549" lon="0.11776">
        <ele>2504.8</ele>
        <time>2017-02-21T10:23:03Z</time>
      </trkpt>
      <trkpt lat="42.77549" lon="0.11776">
        <ele>2504.6</ele>
        <time>2017-02-21T10:23:08Z</time>
      </trkpt>
      <trkpt lat="42.77549" lon="0.11776">
        <ele>2504.4</ele>
        <time>2017-02-21T10:23:13Z</time>
      </trkpt>
      <trkpt lat="42.77549" lon="0.11776">
        <ele>2504.4</ele>
        <time>2017-02-21T10:23:18Z</time>
      </trkpt>
      <trkpt lat="42.77549" lon="0.11776">
        <ele>2504.2</ele>
        <time>2017-02-21T10:23:23Z</time>
      </trkpt>
      <trkpt lat="42.77549" lon="0.11776">
        <ele>2504.2</ele>
        <time>2017-02-21T10:23:28Z</time>
      </trkpt>
      <trkpt lat="42.77549" lon="0.11774">
        <ele>2503.6</ele>
        <time>2017-02-21T10:23:33Z</time>
      </trkpt>
      <trkpt lat="42.77549" lon="0.11773">
        <ele>2504.2</ele>
        <time>2017-02-21T10:23:38Z</time>
      </trkpt>
      <trkpt lat="42.7755" lon="0.11772">
        <ele>2505.2</ele>
        <time>2017-02-21T10:23:43Z</time>
      </trkpt>
      <trkpt lat="42.7755" lon="0.1177">
        <ele>2507.4</ele>
        <time>2017-02-21T10:23:48Z</time>
      </trkpt>
      <trkpt lat="42.7755" lon="0.1177">
        <ele>2506.8</ele>
        <time>2017-02-21T10:23:53Z</time>
      </trkpt>
      <trkpt lat="42.7755" lon="0.1177">
        <ele>2506.4</ele>
        <time>2017-02-21T10:23:58Z</time>
      </trkpt>
      <trkpt lat="42.7755" lon="0.1177">
        <ele>2506</ele>
        <time>2017-02-21T10:24:03Z</time>
      </trkpt>
      <trkpt lat="42.7755" lon="0.11769">
        <ele>2505.8</ele>
        <time>2017-02-21T10:24:08Z</time>
      </trkpt>
      <trkpt lat="42.7755" lon="0.11769">
        <ele>2505.6</ele>
        <time>2017-02-21T10:24:13Z</time>
      </trkpt>
      <trkpt lat="42.7755" lon="0.11769">
        <ele>2505.4</ele>
        <time>2017-02-21T10:24:18Z</time>
      </trkpt>
      <trkpt lat="42.7755" lon="0.11769">
        <ele>2504.4</ele>
        <time>2017-02-21T10:24:23Z</time>
      </trkpt>
      <trkpt lat="42.7755" lon="0.11768">
        <ele>2504.8</ele>
        <time>2017-02-21T10:24:28Z</time>
      </trkpt>
      <trkpt lat="42.7755" lon="0.11767">
        <ele>2505.2</ele>
        <time>2017-02-21T10:24:33Z</time>
      </trkpt>
      <trkpt lat="42.7755" lon="0.11766">
        <ele>2505.4</ele>
        <time>2017-02-21T10:24:38Z</time>
      </trkpt>
      <trkpt lat="42.7755" lon="0.11766">
        <ele>2505.4</ele>
        <time>2017-02-21T10:24:43Z</time>
      </trkpt>
      <trkpt lat="42.7755" lon="0.11766">
        <ele>2505.6</ele>
        <time>2017-02-21T10:24:48Z</time>
      </trkpt>
      <trkpt lat="42.7755" lon="0.11764">
        <ele>2506.6</ele>
        <time>2017-02-21T10:24:53Z</time>
      </trkpt>
      <trkpt lat="42.77551" lon="0.11762">
        <ele>2508.8</ele>
        <time>2017-02-21T10:24:58Z</time>
      </trkpt>
      <trkpt lat="42.77552" lon="0.11759">
        <ele>2508.2</ele>
        <time>2017-02-21T10:25:03Z</time>
      </trkpt>
      <trkpt lat="42.77553" lon="0.11756">
        <ele>2509.8</ele>
        <time>2017-02-21T10:25:08Z</time>
      </trkpt>
      <trkpt lat="42.77554" lon="0.11754">
        <ele>2509.2</ele>
        <time>2017-02-21T10:25:13Z</time>
      </trkpt>
      <trkpt lat="42.77555" lon="0.11752">
        <ele>2508.8</ele>
        <time>2017-02-21T10:25:18Z</time>
      </trkpt>
      <trkpt lat="42.77556" lon="0.1175">
        <ele>2510.4</ele>
        <time>2017-02-21T10:25:23Z</time>
      </trkpt>
      <trkpt lat="42.77557" lon="0.11747">
        <ele>2508.4</ele>
        <time>2017-02-21T10:25:28Z</time>
      </trkpt>
      <trkpt lat="42.77557" lon="0.11746">
        <ele>2508.6</ele>
        <time>2017-02-21T10:25:33Z</time>
      </trkpt>
      <trkpt lat="42.77557" lon="0.11746">
        <ele>2508.8</ele>
        <time>2017-02-21T10:25:38Z</time>
      </trkpt>
      <trkpt lat="42.77558" lon="0.11745">
        <ele>2508.8</ele>
        <time>2017-02-21T10:25:43Z</time>
      </trkpt>
      <trkpt lat="42.77558" lon="0.11744">
        <ele>2509</ele>
        <time>2017-02-21T10:25:49Z</time>
      </trkpt>
      <trkpt lat="42.77559" lon="0.11742">
        <ele>2512</ele>
        <time>2017-02-21T10:25:55Z</time>
      </trkpt>
      <trkpt lat="42.77559" lon="0.11742">
        <ele>2511.2</ele>
        <time>2017-02-21T10:26:00Z</time>
      </trkpt>
      <trkpt lat="42.77559" lon="0.11742">
        <ele>2510.6</ele>
        <time>2017-02-21T10:26:05Z</time>
      </trkpt>
      <trkpt lat="42.77559" lon="0.11742">
        <ele>2510.2</ele>
        <time>2017-02-21T10:26:10Z</time>
      </trkpt>
      <trkpt lat="42.77559" lon="0.11741">
        <ele>2510.2</ele>
        <time>2017-02-21T10:26:15Z</time>
      </trkpt>
      <trkpt lat="42.77559" lon="0.11739">
        <ele>2511.4</ele>
        <time>2017-02-21T10:26:20Z</time>
      </trkpt>
      <trkpt lat="42.77559" lon="0.11739">
        <ele>2511</ele>
        <time>2017-02-21T10:26:25Z</time>
      </trkpt>
      <trkpt lat="42.77559" lon="0.11738">
        <ele>2510.6</ele>
        <time>2017-02-21T10:26:30Z</time>
      </trkpt>
      <trkpt lat="42.7756" lon="0.11737">
        <ele>2510.4</ele>
        <time>2017-02-21T10:26:35Z</time>
      </trkpt>
      <trkpt lat="42.7756" lon="0.11737">
        <ele>2510.4</ele>
        <time>2017-02-21T10:26:40Z</time>
      </trkpt>
      <trkpt lat="42.7756" lon="0.11736">
        <ele>2510.2</ele>
        <time>2017-02-21T10:26:45Z</time>
      </trkpt>
      <trkpt lat="42.7756" lon="0.11735">
        <ele>2510.2</ele>
        <time>2017-02-21T10:26:50Z</time>
      </trkpt>
      <trkpt lat="42.7756" lon="0.11733">
        <ele>2511.8</ele>
        <time>2017-02-21T10:26:55Z</time>
      </trkpt>
      <trkpt lat="42.77561" lon="0.11732">
        <ele>2511</ele>
        <time>2017-02-21T10:27:00Z</time>
      </trkpt>
      <trkpt lat="42.77561" lon="0.11731">
        <ele>2510.8</ele>
        <time>2017-02-21T10:27:05Z</time>
      </trkpt>
      <trkpt lat="42.77561" lon="0.11731">
        <ele>2510.6</ele>
        <time>2017-02-21T10:27:10Z</time>
      </trkpt>
      <trkpt lat="42.77561" lon="0.11731">
        <ele>2510.4</ele>
        <time>2017-02-21T10:27:15Z</time>
      </trkpt>
      <trkpt lat="42.77561" lon="0.11731">
        <ele>2510.4</ele>
        <time>2017-02-21T10:27:20Z</time>
      </trkpt>
      <trkpt lat="42.7756" lon="0.1173">
        <ele>2512.6</ele>
        <time>2017-02-21T10:27:25Z</time>
      </trkpt>
      <trkpt lat="42.7756" lon="0.1173">
        <ele>2511.8</ele>
        <time>2017-02-21T10:27:30Z</time>
      </trkpt>
      <trkpt lat="42.7756" lon="0.1173">
        <ele>2511.2</ele>
        <time>2017-02-21T10:27:35Z</time>
      </trkpt>
      <trkpt lat="42.7756" lon="0.1173">
        <ele>2510.8</ele>
        <time>2017-02-21T10:27:40Z</time>
      </trkpt>
      <trkpt lat="42.77559" lon="0.11728">
        <ele>2510.6</ele>
        <time>2017-02-21T10:27:45Z</time>
      </trkpt>
      <trkpt lat="42.77559" lon="0.11729">
        <ele>2510.4</ele>
        <time>2017-02-21T10:27:50Z</time>
      </trkpt>
      <trkpt lat="42.77559" lon="0.11729">
        <ele>2510.2</ele>
        <time>2017-02-21T10:27:55Z</time>
      </trkpt>
      <trkpt lat="42.77559" lon="0.11729">
        <ele>2510</ele>
        <time>2017-02-21T10:28:00Z</time>
      </trkpt>
      <trkpt lat="42.77559" lon="0.11729">
        <ele>2510</ele>
        <time>2017-02-21T10:28:05Z</time>
      </trkpt>
      <trkpt lat="42.7756" lon="0.11729">
        <ele>2512.6</ele>
        <time>2017-02-21T10:28:10Z</time>
      </trkpt>
      <trkpt lat="42.77559" lon="0.11727">
        <ele>2510.8</ele>
        <time>2017-02-21T10:28:15Z</time>
      </trkpt>
      <trkpt lat="42.77558" lon="0.11724">
        <ele>2508.4</ele>
        <time>2017-02-21T10:28:20Z</time>
      </trkpt>
      <trkpt lat="42.77556" lon="0.11718">
        <ele>2508.6</ele>
        <time>2017-02-21T10:28:25Z</time>
      </trkpt>
      <trkpt lat="42.77552" lon="0.11707">
        <ele>2508.8</ele>
        <time>2017-02-21T10:28:30Z</time>
      </trkpt>
      <trkpt lat="42.7755" lon="0.117">
        <ele>2506.2</ele>
        <time>2017-02-21T10:28:35Z</time>
      </trkpt>
      <trkpt lat="42.77549" lon="0.11696">
        <ele>2510.2</ele>
        <time>2017-02-21T10:28:40Z</time>
      </trkpt>
      <trkpt lat="42.77548" lon="0.11693">
        <ele>2505.4</ele>
        <time>2017-02-21T10:28:45Z</time>
      </trkpt>
      <trkpt lat="42.77543" lon="0.11682">
        <ele>2506.8</ele>
        <time>2017-02-21T10:28:50Z</time>
      </trkpt>
      <trkpt lat="42.77542" lon="0.11678">
        <ele>2506.4</ele>
        <time>2017-02-21T10:28:55Z</time>
      </trkpt>
      <trkpt lat="42.77542" lon="0.11678">
        <ele>2505.6</ele>
        <time>2017-02-21T10:29:00Z</time>
      </trkpt>
      <trkpt lat="42.77542" lon="0.11678">
        <ele>2505</ele>
        <time>2017-02-21T10:29:05Z</time>
      </trkpt>
      <trkpt lat="42.77539" lon="0.11671">
        <ele>2507</ele>
        <time>2017-02-21T10:29:11Z</time>
      </trkpt>
      <trkpt lat="42.77533" lon="0.1166">
        <ele>2500.6</ele>
        <time>2017-02-21T10:29:16Z</time>
      </trkpt>
      <trkpt lat="42.77533" lon="0.11657">
        <ele>2501.6</ele>
        <time>2017-02-21T10:29:21Z</time>
      </trkpt>
      <trkpt lat="42.77532" lon="0.11656">
        <ele>2498.8</ele>
        <time>2017-02-21T10:29:26Z</time>
      </trkpt>
      <trkpt lat="42.77532" lon="0.11656">
        <ele>2499</ele>
        <time>2017-02-21T10:29:31Z</time>
      </trkpt>
      <trkpt lat="42.77531" lon="0.11655">
        <ele>2499.2</ele>
        <time>2017-02-21T10:29:36Z</time>
      </trkpt>
      <trkpt lat="42.77523" lon="0.11646">
        <ele>2496.8</ele>
        <time>2017-02-21T10:29:41Z</time>
      </trkpt>
      <trkpt lat="42.77513" lon="0.11637">
        <ele>2492.2</ele>
        <time>2017-02-21T10:29:46Z</time>
      </trkpt>
      <trkpt lat="42.77506" lon="0.11631">
        <ele>2492</ele>
        <time>2017-02-21T10:29:51Z</time>
      </trkpt>
      <trkpt lat="42.77499" lon="0.11621">
        <ele>2491</ele>
        <time>2017-02-21T10:29:56Z</time>
      </trkpt>
      <trkpt lat="42.77488" lon="0.11609">
        <ele>2491.2</ele>
        <time>2017-02-21T10:30:01Z</time>
      </trkpt>
      <trkpt lat="42.77477" lon="0.11597">
        <ele>2486.6</ele>
        <time>2017-02-21T10:30:06Z</time>
      </trkpt>
      <trkpt lat="42.77478" lon="0.11596">
        <ele>2486</ele>
        <time>2017-02-21T10:30:11Z</time>
      </trkpt>
      <trkpt lat="42.77479" lon="0.11596">
        <ele>2485.4</ele>
        <time>2017-02-21T10:30:16Z</time>
      </trkpt>
      <trkpt lat="42.77479" lon="0.11596">
        <ele>2484.4</ele>
        <time>2017-02-21T10:30:21Z</time>
      </trkpt>
      <trkpt lat="42.7748" lon="0.11597">
        <ele>2483.6</ele>
        <time>2017-02-21T10:30:26Z</time>
      </trkpt>
      <trkpt lat="42.77481" lon="0.11597">
        <ele>2482.6</ele>
        <time>2017-02-21T10:30:31Z</time>
      </trkpt>
      <trkpt lat="42.77481" lon="0.11596">
        <ele>2481.6</ele>
        <time>2017-02-21T10:30:36Z</time>
      </trkpt>
      <trkpt lat="42.77481" lon="0.11596">
        <ele>2481.2</ele>
        <time>2017-02-21T10:30:41Z</time>
      </trkpt>
      <trkpt lat="42.77481" lon="0.11595">
        <ele>2481.2</ele>
        <time>2017-02-21T10:30:46Z</time>
      </trkpt>
      <trkpt lat="42.77481" lon="0.11595">
        <ele>2481</ele>
        <time>2017-02-21T10:30:51Z</time>
      </trkpt>
      <trkpt lat="42.77481" lon="0.11595">
        <ele>2481</ele>
        <time>2017-02-21T10:30:56Z</time>
      </trkpt>
      <trkpt lat="42.77481" lon="0.11595">
        <ele>2480.8</ele>
        <time>2017-02-21T10:31:01Z</time>
      </trkpt>
      <trkpt lat="42.77481" lon="0.11595">
        <ele>2480.8</ele>
        <time>2017-02-21T10:31:06Z</time>
      </trkpt>
      <trkpt lat="42.7748" lon="0.11595">
        <ele>2480.8</ele>
        <time>2017-02-21T10:31:11Z</time>
      </trkpt>
      <trkpt lat="42.7748" lon="0.11595">
        <ele>2480.6</ele>
        <time>2017-02-21T10:31:16Z</time>
      </trkpt>
      <trkpt lat="42.7748" lon="0.11595">
        <ele>2480.6</ele>
        <time>2017-02-21T10:31:21Z</time>
      </trkpt>
      <trkpt lat="42.7748" lon="0.11595">
        <ele>2480.6</ele>
        <time>2017-02-21T10:31:26Z</time>
      </trkpt>
      <trkpt lat="42.7748" lon="0.11595">
        <ele>2480.6</ele>
        <time>2017-02-21T10:31:31Z</time>
      </trkpt>
      <trkpt lat="42.77479" lon="0.11597">
        <ele>2480.4</ele>
        <time>2017-02-21T10:31:36Z</time>
      </trkpt>
      <trkpt lat="42.77479" lon="0.11598">
        <ele>2480.8</ele>
        <time>2017-02-21T10:31:41Z</time>
      </trkpt>
      <trkpt lat="42.77479" lon="0.11598">
        <ele>2481.2</ele>
        <time>2017-02-21T10:31:46Z</time>
      </trkpt>
      <trkpt lat="42.77479" lon="0.11598">
        <ele>2481.4</ele>
        <time>2017-02-21T10:31:51Z</time>
      </trkpt>
      <trkpt lat="42.77479" lon="0.11598">
        <ele>2481.6</ele>
        <time>2017-02-21T10:31:56Z</time>
      </trkpt>
      <trkpt lat="42.77476" lon="0.11596">
        <ele>2484.2</ele>
        <time>2017-02-21T10:32:02Z</time>
      </trkpt>
      <trkpt lat="42.77475" lon="0.11594">
        <ele>2482</ele>
        <time>2017-02-21T10:32:07Z</time>
      </trkpt>
      <trkpt lat="42.77473" lon="0.11592">
        <ele>2482.2</ele>
        <time>2017-02-21T10:32:12Z</time>
      </trkpt>
      <trkpt lat="42.77471" lon="0.11591">
        <ele>2481.2</ele>
        <time>2017-02-21T10:32:17Z</time>
      </trkpt>
      <trkpt lat="42.77469" lon="0.11589">
        <ele>2484.8</ele>
        <time>2017-02-21T10:32:22Z</time>
      </trkpt>
      <trkpt lat="42.77468" lon="0.11588">
        <ele>2483.2</ele>
        <time>2017-02-21T10:32:27Z</time>
      </trkpt>
      <trkpt lat="42.77467" lon="0.11586">
        <ele>2483.8</ele>
        <time>2017-02-21T10:32:32Z</time>
      </trkpt>
      <trkpt lat="42.77465" lon="0.11584">
        <ele>2485.2</ele>
        <time>2017-02-21T10:32:37Z</time>
      </trkpt>
      <trkpt lat="42.77463" lon="0.11581">
        <ele>2483</ele>
        <time>2017-02-21T10:32:42Z</time>
      </trkpt>
      <trkpt lat="42.77462" lon="0.11578">
        <ele>2491.2</ele>
        <time>2017-02-21T10:32:47Z</time>
      </trkpt>
      <trkpt lat="42.77461" lon="0.11576">
        <ele>2490.6</ele>
        <time>2017-02-21T10:32:52Z</time>
      </trkpt>
      <trkpt lat="42.7746" lon="0.11574">
        <ele>2490.4</ele>
        <time>2017-02-21T10:32:57Z</time>
      </trkpt>
      <trkpt lat="42.77459" lon="0.11572">
        <ele>2491.4</ele>
        <time>2017-02-21T10:33:02Z</time>
      </trkpt>
      <trkpt lat="42.77458" lon="0.11571">
        <ele>2489.8</ele>
        <time>2017-02-21T10:33:07Z</time>
      </trkpt>
      <trkpt lat="42.77456" lon="0.11569">
        <ele>2487.4</ele>
        <time>2017-02-21T10:33:12Z</time>
      </trkpt>
      <trkpt lat="42.77455" lon="0.11566">
        <ele>2490.2</ele>
        <time>2017-02-21T10:33:17Z</time>
      </trkpt>
      <trkpt lat="42.77453" lon="0.11564">
        <ele>2491.4</ele>
        <time>2017-02-21T10:33:22Z</time>
      </trkpt>
      <trkpt lat="42.77453" lon="0.11563">
        <ele>2490.4</ele>
        <time>2017-02-21T10:33:27Z</time>
      </trkpt>
      <trkpt lat="42.77454" lon="0.11561">
        <ele>2489.6</ele>
        <time>2017-02-21T10:33:32Z</time>
      </trkpt>
      <trkpt lat="42.77456" lon="0.1156">
        <ele>2489.8</ele>
        <time>2017-02-21T10:33:37Z</time>
      </trkpt>
      <trkpt lat="42.77457" lon="0.11558">
        <ele>2490.2</ele>
        <time>2017-02-21T10:33:42Z</time>
      </trkpt>
      <trkpt lat="42.77459" lon="0.11556">
        <ele>2488.6</ele>
        <time>2017-02-21T10:33:47Z</time>
      </trkpt>
      <trkpt lat="42.77461" lon="0.11555">
        <ele>2488.8</ele>
        <time>2017-02-21T10:33:52Z</time>
      </trkpt>
      <trkpt lat="42.77463" lon="0.11553">
        <ele>2488.4</ele>
        <time>2017-02-21T10:33:57Z</time>
      </trkpt>
      <trkpt lat="42.77465" lon="0.11552">
        <ele>2490.8</ele>
        <time>2017-02-21T10:34:02Z</time>
      </trkpt>
      <trkpt lat="42.77466" lon="0.1155">
        <ele>2490.6</ele>
        <time>2017-02-21T10:34:07Z</time>
      </trkpt>
      <trkpt lat="42.77468" lon="0.11549">
        <ele>2491.4</ele>
        <time>2017-02-21T10:34:12Z</time>
      </trkpt>
      <trkpt lat="42.7747" lon="0.11547">
        <ele>2490.2</ele>
        <time>2017-02-21T10:34:17Z</time>
      </trkpt>
      <trkpt lat="42.77472" lon="0.11546">
        <ele>2490.2</ele>
        <time>2017-02-21T10:34:22Z</time>
      </trkpt>
      <trkpt lat="42.77473" lon="0.11544">
        <ele>2490.4</ele>
        <time>2017-02-21T10:34:27Z</time>
      </trkpt>
      <trkpt lat="42.77475" lon="0.11543">
        <ele>2492.8</ele>
        <time>2017-02-21T10:34:32Z</time>
      </trkpt>
      <trkpt lat="42.77477" lon="0.11542">
        <ele>2496.8</ele>
        <time>2017-02-21T10:34:37Z</time>
      </trkpt>
      <trkpt lat="42.77478" lon="0.1154">
        <ele>2495</ele>
        <time>2017-02-21T10:34:42Z</time>
      </trkpt>
      <trkpt lat="42.7748" lon="0.11539">
        <ele>2495.2</ele>
        <time>2017-02-21T10:34:47Z</time>
      </trkpt>
      <trkpt lat="42.77481" lon="0.11539">
        <ele>2498</ele>
        <time>2017-02-21T10:34:52Z</time>
      </trkpt>
      <trkpt lat="42.7748" lon="0.11538">
        <ele>2497.4</ele>
        <time>2017-02-21T10:34:57Z</time>
      </trkpt>
      <trkpt lat="42.77479" lon="0.11537">
        <ele>2499.4</ele>
        <time>2017-02-21T10:35:02Z</time>
      </trkpt>
      <trkpt lat="42.77479" lon="0.11537">
        <ele>2499.4</ele>
        <time>2017-02-21T10:35:07Z</time>
      </trkpt>
      <trkpt lat="42.77479" lon="0.11537">
        <ele>2499.4</ele>
        <time>2017-02-21T10:35:12Z</time>
      </trkpt>
      <trkpt lat="42.77479" lon="0.11536">
        <ele>2499.4</ele>
        <time>2017-02-21T10:35:17Z</time>
      </trkpt>
      <trkpt lat="42.77478" lon="0.11535">
        <ele>2500</ele>
        <time>2017-02-21T10:35:22Z</time>
      </trkpt>
      <trkpt lat="42.77476" lon="0.11535">
        <ele>2501</ele>
        <time>2017-02-21T10:35:27Z</time>
      </trkpt>
      <trkpt lat="42.77476" lon="0.11535">
        <ele>2502.8</ele>
        <time>2017-02-21T10:35:32Z</time>
      </trkpt>
      <trkpt lat="42.77475" lon="0.11533">
        <ele>2504</ele>
        <time>2017-02-21T10:35:37Z</time>
      </trkpt>
      <trkpt lat="42.77473" lon="0.11531">
        <ele>2506.6</ele>
        <time>2017-02-21T10:35:43Z</time>
      </trkpt>
      <trkpt lat="42.77474" lon="0.11527">
        <ele>2509.6</ele>
        <time>2017-02-21T10:35:48Z</time>
      </trkpt>
      <trkpt lat="42.77475" lon="0.11525">
        <ele>2510.8</ele>
        <time>2017-02-21T10:35:53Z</time>
      </trkpt>
      <trkpt lat="42.77476" lon="0.11522">
        <ele>2509.4</ele>
        <time>2017-02-21T10:35:58Z</time>
      </trkpt>
      <trkpt lat="42.77477" lon="0.11521">
        <ele>2509.4</ele>
        <time>2017-02-21T10:36:03Z</time>
      </trkpt>
      <trkpt lat="42.77479" lon="0.11518">
        <ele>2509.6</ele>
        <time>2017-02-21T10:36:08Z</time>
      </trkpt>
      <trkpt lat="42.77481" lon="0.11516">
        <ele>2507.4</ele>
        <time>2017-02-21T10:36:13Z</time>
      </trkpt>
      <trkpt lat="42.77484" lon="0.11514">
        <ele>2509.2</ele>
        <time>2017-02-21T10:36:18Z</time>
      </trkpt>
      <trkpt lat="42.77486" lon="0.11513">
        <ele>2511.8</ele>
        <time>2017-02-21T10:36:23Z</time>
      </trkpt>
      <trkpt lat="42.77487" lon="0.11511">
        <ele>2510.2</ele>
        <time>2017-02-21T10:36:28Z</time>
      </trkpt>
      <trkpt lat="42.77489" lon="0.1151">
        <ele>2508.8</ele>
        <time>2017-02-21T10:36:33Z</time>
      </trkpt>
      <trkpt lat="42.77491" lon="0.11509">
        <ele>2508.4</ele>
        <time>2017-02-21T10:36:38Z</time>
      </trkpt>
      <trkpt lat="42.77492" lon="0.11508">
        <ele>2507.4</ele>
        <time>2017-02-21T10:36:43Z</time>
      </trkpt>
      <trkpt lat="42.77494" lon="0.11507">
        <ele>2507.4</ele>
        <time>2017-02-21T10:36:48Z</time>
      </trkpt>
      <trkpt lat="42.77495" lon="0.11506">
        <ele>2510.8</ele>
        <time>2017-02-21T10:36:53Z</time>
      </trkpt>
      <trkpt lat="42.77497" lon="0.11505">
        <ele>2511.2</ele>
        <time>2017-02-21T10:36:58Z</time>
      </trkpt>
      <trkpt lat="42.77499" lon="0.11504">
        <ele>2510.8</ele>
        <time>2017-02-21T10:37:03Z</time>
      </trkpt>
      <trkpt lat="42.775" lon="0.11504">
        <ele>2513.2</ele>
        <time>2017-02-21T10:37:08Z</time>
      </trkpt>
      <trkpt lat="42.77502" lon="0.11504">
        <ele>2513.4</ele>
        <time>2017-02-21T10:37:13Z</time>
      </trkpt>
      <trkpt lat="42.77501" lon="0.11502">
        <ele>2516</ele>
        <time>2017-02-21T10:37:18Z</time>
      </trkpt>
      <trkpt lat="42.77501" lon="0.11502">
        <ele>2518.2</ele>
        <time>2017-02-21T10:37:23Z</time>
      </trkpt>
      <trkpt lat="42.77501" lon="0.11502">
        <ele>2516.4</ele>
        <time>2017-02-21T10:37:28Z</time>
      </trkpt>
      <trkpt lat="42.775" lon="0.11499">
        <ele>2518.2</ele>
        <time>2017-02-21T10:37:33Z</time>
      </trkpt>
      <trkpt lat="42.775" lon="0.11497">
        <ele>2516.6</ele>
        <time>2017-02-21T10:37:38Z</time>
      </trkpt>
      <trkpt lat="42.77499" lon="0.11496">
        <ele>2516</ele>
        <time>2017-02-21T10:37:43Z</time>
      </trkpt>
      <trkpt lat="42.77498" lon="0.11494">
        <ele>2517</ele>
        <time>2017-02-21T10:37:48Z</time>
      </trkpt>
      <trkpt lat="42.77497" lon="0.11491">
        <ele>2519.4</ele>
        <time>2017-02-21T10:37:53Z</time>
      </trkpt>
      <trkpt lat="42.77495" lon="0.11489">
        <ele>2520.4</ele>
        <time>2017-02-21T10:37:58Z</time>
      </trkpt>
      <trkpt lat="42.77494" lon="0.11487">
        <ele>2519.2</ele>
        <time>2017-02-21T10:38:03Z</time>
      </trkpt>
      <trkpt lat="42.77493" lon="0.11484">
        <ele>2521.4</ele>
        <time>2017-02-21T10:38:08Z</time>
      </trkpt>
      <trkpt lat="42.77492" lon="0.11482">
        <ele>2519.6</ele>
        <time>2017-02-21T10:38:13Z</time>
      </trkpt>
      <trkpt lat="42.77491" lon="0.11479">
        <ele>2522.4</ele>
        <time>2017-02-21T10:38:18Z</time>
      </trkpt>
      <trkpt lat="42.7749" lon="0.11476">
        <ele>2524</ele>
        <time>2017-02-21T10:38:23Z</time>
      </trkpt>
      <trkpt lat="42.77489" lon="0.11473">
        <ele>2523.8</ele>
        <time>2017-02-21T10:38:28Z</time>
      </trkpt>
      <trkpt lat="42.77488" lon="0.11471">
        <ele>2524.4</ele>
        <time>2017-02-21T10:38:33Z</time>
      </trkpt>
      <trkpt lat="42.77487" lon="0.11468">
        <ele>2521.4</ele>
        <time>2017-02-21T10:38:38Z</time>
      </trkpt>
      <trkpt lat="42.77487" lon="0.11466">
        <ele>2522.4</ele>
        <time>2017-02-21T10:38:43Z</time>
      </trkpt>
      <trkpt lat="42.77489" lon="0.11464">
        <ele>2522.4</ele>
        <time>2017-02-21T10:38:48Z</time>
      </trkpt>
      <trkpt lat="42.77491" lon="0.11462">
        <ele>2525.4</ele>
        <time>2017-02-21T10:38:53Z</time>
      </trkpt>
      <trkpt lat="42.77493" lon="0.11461">
        <ele>2525</ele>
        <time>2017-02-21T10:38:58Z</time>
      </trkpt>
      <trkpt lat="42.77494" lon="0.11459">
        <ele>2530.8</ele>
        <time>2017-02-21T10:39:03Z</time>
      </trkpt>
      <trkpt lat="42.77496" lon="0.11458">
        <ele>2526.4</ele>
        <time>2017-02-21T10:39:08Z</time>
      </trkpt>
      <trkpt lat="42.77498" lon="0.11457">
        <ele>2524.8</ele>
        <time>2017-02-21T10:39:13Z</time>
      </trkpt>
      <trkpt lat="42.775" lon="0.11455">
        <ele>2527.4</ele>
        <time>2017-02-21T10:39:18Z</time>
      </trkpt>
      <trkpt lat="42.77502" lon="0.11454">
        <ele>2527.8</ele>
        <time>2017-02-21T10:39:23Z</time>
      </trkpt>
      <trkpt lat="42.77503" lon="0.11454">
        <ele>2530.2</ele>
        <time>2017-02-21T10:39:28Z</time>
      </trkpt>
      <trkpt lat="42.77505" lon="0.11453">
        <ele>2530.6</ele>
        <time>2017-02-21T10:39:33Z</time>
      </trkpt>
      <trkpt lat="42.77507" lon="0.11452">
        <ele>2529</ele>
        <time>2017-02-21T10:39:38Z</time>
      </trkpt>
      <trkpt lat="42.77509" lon="0.11451">
        <ele>2527.4</ele>
        <time>2017-02-21T10:39:43Z</time>
      </trkpt>
      <trkpt lat="42.7751" lon="0.1145">
        <ele>2531.4</ele>
        <time>2017-02-21T10:39:48Z</time>
      </trkpt>
      <trkpt lat="42.77512" lon="0.11449">
        <ele>2530.6</ele>
        <time>2017-02-21T10:39:53Z</time>
      </trkpt>
      <trkpt lat="42.77514" lon="0.11449">
        <ele>2532.8</ele>
        <time>2017-02-21T10:39:58Z</time>
      </trkpt>
      <trkpt lat="42.77516" lon="0.11448">
        <ele>2534</ele>
        <time>2017-02-21T10:40:03Z</time>
      </trkpt>
      <trkpt lat="42.77518" lon="0.11447">
        <ele>2534.6</ele>
        <time>2017-02-21T10:40:08Z</time>
      </trkpt>
      <trkpt lat="42.77519" lon="0.11447">
        <ele>2536.4</ele>
        <time>2017-02-21T10:40:13Z</time>
      </trkpt>
      <trkpt lat="42.77521" lon="0.11446">
        <ele>2536.2</ele>
        <time>2017-02-21T10:40:18Z</time>
      </trkpt>
      <trkpt lat="42.77523" lon="0.11447">
        <ele>2534.8</ele>
        <time>2017-02-21T10:40:23Z</time>
      </trkpt>
      <trkpt lat="42.77522" lon="0.11445">
        <ele>2536.4</ele>
        <time>2017-02-21T10:40:28Z</time>
      </trkpt>
      <trkpt lat="42.77521" lon="0.11443">
        <ele>2536.8</ele>
        <time>2017-02-21T10:40:33Z</time>
      </trkpt>
      <trkpt lat="42.77521" lon="0.11441">
        <ele>2536.6</ele>
        <time>2017-02-21T10:40:38Z</time>
      </trkpt>
      <trkpt lat="42.77521" lon="0.11441">
        <ele>2536.6</ele>
        <time>2017-02-21T10:40:43Z</time>
      </trkpt>
      <trkpt lat="42.7752" lon="0.11439">
        <ele>2538.2</ele>
        <time>2017-02-21T10:40:48Z</time>
      </trkpt>
      <trkpt lat="42.77519" lon="0.11436">
        <ele>2538</ele>
        <time>2017-02-21T10:40:53Z</time>
      </trkpt>
      <trkpt lat="42.77519" lon="0.11433">
        <ele>2540.6</ele>
        <time>2017-02-21T10:40:58Z</time>
      </trkpt>
      <trkpt lat="42.77518" lon="0.1143">
        <ele>2540.4</ele>
        <time>2017-02-21T10:41:03Z</time>
      </trkpt>
      <trkpt lat="42.77518" lon="0.11428">
        <ele>2541.6</ele>
        <time>2017-02-21T10:41:08Z</time>
      </trkpt>
      <trkpt lat="42.77519" lon="0.11426">
        <ele>2543.4</ele>
        <time>2017-02-21T10:41:13Z</time>
      </trkpt>
      <trkpt lat="42.77519" lon="0.11423">
        <ele>2544.4</ele>
        <time>2017-02-21T10:41:18Z</time>
      </trkpt>
      <trkpt lat="42.77518" lon="0.1142">
        <ele>2541.4</ele>
        <time>2017-02-21T10:41:23Z</time>
      </trkpt>
      <trkpt lat="42.77518" lon="0.11418">
        <ele>2544.2</ele>
        <time>2017-02-21T10:41:28Z</time>
      </trkpt>
      <trkpt lat="42.77518" lon="0.11416">
        <ele>2544.8</ele>
        <time>2017-02-21T10:41:33Z</time>
      </trkpt>
      <trkpt lat="42.77517" lon="0.11412">
        <ele>2546</ele>
        <time>2017-02-21T10:41:38Z</time>
      </trkpt>
      <trkpt lat="42.77517" lon="0.11409">
        <ele>2545</ele>
        <time>2017-02-21T10:41:43Z</time>
      </trkpt>
      <trkpt lat="42.77517" lon="0.11405">
        <ele>2542.8</ele>
        <time>2017-02-21T10:41:48Z</time>
      </trkpt>
      <trkpt lat="42.77516" lon="0.11404">
        <ele>2544.2</ele>
        <time>2017-02-21T10:41:53Z</time>
      </trkpt>
      <trkpt lat="42.77515" lon="0.11402">
        <ele>2546.6</ele>
        <time>2017-02-21T10:41:58Z</time>
      </trkpt>
      <trkpt lat="42.77514" lon="0.11399">
        <ele>2549.6</ele>
        <time>2017-02-21T10:42:03Z</time>
      </trkpt>
      <trkpt lat="42.77513" lon="0.11396">
        <ele>2547.2</ele>
        <time>2017-02-21T10:42:08Z</time>
      </trkpt>
      <trkpt lat="42.77512" lon="0.11393">
        <ele>2547.8</ele>
        <time>2017-02-21T10:42:13Z</time>
      </trkpt>
      <trkpt lat="42.77512" lon="0.11393">
        <ele>2548.6</ele>
        <time>2017-02-21T10:42:18Z</time>
      </trkpt>
      <trkpt lat="42.77512" lon="0.11393">
        <ele>2549</ele>
        <time>2017-02-21T10:42:23Z</time>
      </trkpt>
      <trkpt lat="42.77512" lon="0.11388">
        <ele>2553</ele>
        <time>2017-02-21T10:42:28Z</time>
      </trkpt>
      <trkpt lat="42.77512" lon="0.11388">
        <ele>2553.2</ele>
        <time>2017-02-21T10:42:33Z</time>
      </trkpt>
      <trkpt lat="42.77512" lon="0.11384">
        <ele>2554.2</ele>
        <time>2017-02-21T10:42:38Z</time>
      </trkpt>
      <trkpt lat="42.77511" lon="0.11382">
        <ele>2554.6</ele>
        <time>2017-02-21T10:42:43Z</time>
      </trkpt>
      <trkpt lat="42.7751" lon="0.1138">
        <ele>2557</ele>
        <time>2017-02-21T10:42:48Z</time>
      </trkpt>
      <trkpt lat="42.77511" lon="0.11378">
        <ele>2558</ele>
        <time>2017-02-21T10:42:53Z</time>
      </trkpt>
      <trkpt lat="42.77513" lon="0.11376">
        <ele>2559.4</ele>
        <time>2017-02-21T10:42:58Z</time>
      </trkpt>
      <trkpt lat="42.77515" lon="0.11375">
        <ele>2559.2</ele>
        <time>2017-02-21T10:43:03Z</time>
      </trkpt>
      <trkpt lat="42.77516" lon="0.11373">
        <ele>2561.2</ele>
        <time>2017-02-21T10:43:08Z</time>
      </trkpt>
      <trkpt lat="42.77518" lon="0.11371">
        <ele>2560.8</ele>
        <time>2017-02-21T10:43:13Z</time>
      </trkpt>
      <trkpt lat="42.7752" lon="0.11369">
        <ele>2560.4</ele>
        <time>2017-02-21T10:43:18Z</time>
      </trkpt>
      <trkpt lat="42.77522" lon="0.11367">
        <ele>2561.2</ele>
        <time>2017-02-21T10:43:23Z</time>
      </trkpt>
      <trkpt lat="42.77524" lon="0.11365">
        <ele>2563.6</ele>
        <time>2017-02-21T10:43:28Z</time>
      </trkpt>
      <trkpt lat="42.77526" lon="0.11364">
        <ele>2561</ele>
        <time>2017-02-21T10:43:33Z</time>
      </trkpt>
      <trkpt lat="42.77527" lon="0.11363">
        <ele>2562.6</ele>
        <time>2017-02-21T10:43:38Z</time>
      </trkpt>
      <trkpt lat="42.77529" lon="0.11362">
        <ele>2564.2</ele>
        <time>2017-02-21T10:43:43Z</time>
      </trkpt>
      <trkpt lat="42.7753" lon="0.11361">
        <ele>2562.6</ele>
        <time>2017-02-21T10:43:48Z</time>
      </trkpt>
      <trkpt lat="42.77532" lon="0.1136">
        <ele>2561.8</ele>
        <time>2017-02-21T10:43:53Z</time>
      </trkpt>
      <trkpt lat="42.77533" lon="0.11359">
        <ele>2560.4</ele>
        <time>2017-02-21T10:43:58Z</time>
      </trkpt>
      <trkpt lat="42.77535" lon="0.11358">
        <ele>2561.2</ele>
        <time>2017-02-21T10:44:03Z</time>
      </trkpt>
      <trkpt lat="42.77536" lon="0.11357">
        <ele>2561.4</ele>
        <time>2017-02-21T10:44:08Z</time>
      </trkpt>
      <trkpt lat="42.77538" lon="0.11357">
        <ele>2560.4</ele>
        <time>2017-02-21T10:44:13Z</time>
      </trkpt>
      <trkpt lat="42.77538" lon="0.11357">
        <ele>2561.6</ele>
        <time>2017-02-21T10:44:18Z</time>
      </trkpt>
      <trkpt lat="42.77537" lon="0.11355">
        <ele>2563.6</ele>
        <time>2017-02-21T10:44:23Z</time>
      </trkpt>
      <trkpt lat="42.77536" lon="0.11352">
        <ele>2562</ele>
        <time>2017-02-21T10:44:28Z</time>
      </trkpt>
      <trkpt lat="42.77535" lon="0.1135">
        <ele>2563.8</ele>
        <time>2017-02-21T10:44:33Z</time>
      </trkpt>
      <trkpt lat="42.77535" lon="0.11347">
        <ele>2566.6</ele>
        <time>2017-02-21T10:44:38Z</time>
      </trkpt>
      <trkpt lat="42.77534" lon="0.11345">
        <ele>2564.8</ele>
        <time>2017-02-21T10:44:43Z</time>
      </trkpt>
      <trkpt lat="42.77534" lon="0.11342">
        <ele>2567</ele>
        <time>2017-02-21T10:44:48Z</time>
      </trkpt>
      <trkpt lat="42.77533" lon="0.11341">
        <ele>2568.2</ele>
        <time>2017-02-21T10:44:53Z</time>
      </trkpt>
      <trkpt lat="42.77533" lon="0.11341">
        <ele>2568</ele>
        <time>2017-02-21T10:44:58Z</time>
      </trkpt>
      <trkpt lat="42.77532" lon="0.11341">
        <ele>2566.8</ele>
        <time>2017-02-21T10:45:03Z</time>
      </trkpt>
      <trkpt lat="42.77531" lon="0.11339">
        <ele>2567.4</ele>
        <time>2017-02-21T10:45:08Z</time>
      </trkpt>
      <trkpt lat="42.77529" lon="0.11336">
        <ele>2570</ele>
        <time>2017-02-21T10:45:13Z</time>
      </trkpt>
      <trkpt lat="42.77527" lon="0.11333">
        <ele>2568.6</ele>
        <time>2017-02-21T10:45:18Z</time>
      </trkpt>
      <trkpt lat="42.77525" lon="0.1133">
        <ele>2570.8</ele>
        <time>2017-02-21T10:45:23Z</time>
      </trkpt>
      <trkpt lat="42.77527" lon="0.11327">
        <ele>2569.8</ele>
        <time>2017-02-21T10:45:28Z</time>
      </trkpt>
      <trkpt lat="42.7753" lon="0.11325">
        <ele>2569.4</ele>
        <time>2017-02-21T10:45:34Z</time>
      </trkpt>
      <trkpt lat="42.77532" lon="0.11324">
        <ele>2570.8</ele>
        <time>2017-02-21T10:45:39Z</time>
      </trkpt>
      <trkpt lat="42.77532" lon="0.11324">
        <ele>2570.6</ele>
        <time>2017-02-21T10:45:44Z</time>
      </trkpt>
      <trkpt lat="42.77532" lon="0.11324">
        <ele>2570.4</ele>
        <time>2017-02-21T10:45:49Z</time>
      </trkpt>
      <trkpt lat="42.77534" lon="0.11323">
        <ele>2569.8</ele>
        <time>2017-02-21T10:45:54Z</time>
      </trkpt>
      <trkpt lat="42.77536" lon="0.11323">
        <ele>2572.4</ele>
        <time>2017-02-21T10:45:59Z</time>
      </trkpt>
      <trkpt lat="42.77538" lon="0.11323">
        <ele>2571.2</ele>
        <time>2017-02-21T10:46:04Z</time>
      </trkpt>
      <trkpt lat="42.7754" lon="0.11323">
        <ele>2573.4</ele>
        <time>2017-02-21T10:46:09Z</time>
      </trkpt>
      <trkpt lat="42.77542" lon="0.11324">
        <ele>2574.8</ele>
        <time>2017-02-21T10:46:14Z</time>
      </trkpt>
      <trkpt lat="42.77544" lon="0.11324">
        <ele>2574.4</ele>
        <time>2017-02-21T10:46:19Z</time>
      </trkpt>
      <trkpt lat="42.77546" lon="0.11325">
        <ele>2574</ele>
        <time>2017-02-21T10:46:24Z</time>
      </trkpt>
      <trkpt lat="42.77545" lon="0.11324">
        <ele>2575.8</ele>
        <time>2017-02-21T10:46:29Z</time>
      </trkpt>
      <trkpt lat="42.77545" lon="0.11322">
        <ele>2572.6</ele>
        <time>2017-02-21T10:46:34Z</time>
      </trkpt>
      <trkpt lat="42.77545" lon="0.11322">
        <ele>2573</ele>
        <time>2017-02-21T10:46:39Z</time>
      </trkpt>
      <trkpt lat="42.77545" lon="0.11322">
        <ele>2573.2</ele>
        <time>2017-02-21T10:46:44Z</time>
      </trkpt>
      <trkpt lat="42.77545" lon="0.11322">
        <ele>2574.4</ele>
        <time>2017-02-21T10:46:49Z</time>
      </trkpt>
      <trkpt lat="42.77545" lon="0.11319">
        <ele>2577</ele>
        <time>2017-02-21T10:46:54Z</time>
      </trkpt>
      <trkpt lat="42.77544" lon="0.11316">
        <ele>2576.4</ele>
        <time>2017-02-21T10:46:59Z</time>
      </trkpt>
      <trkpt lat="42.77544" lon="0.11313">
        <ele>2576.6</ele>
        <time>2017-02-21T10:47:04Z</time>
      </trkpt>
      <trkpt lat="42.77542" lon="0.1131">
        <ele>2573.6</ele>
        <time>2017-02-21T10:47:09Z</time>
      </trkpt>
      <trkpt lat="42.77541" lon="0.11308">
        <ele>2575.2</ele>
        <time>2017-02-21T10:47:14Z</time>
      </trkpt>
      <trkpt lat="42.77539" lon="0.11306">
        <ele>2577.8</ele>
        <time>2017-02-21T10:47:19Z</time>
      </trkpt>
      <trkpt lat="42.77537" lon="0.11303">
        <ele>2580.4</ele>
        <time>2017-02-21T10:47:24Z</time>
      </trkpt>
      <trkpt lat="42.77536" lon="0.113">
        <ele>2579</ele>
        <time>2017-02-21T10:47:29Z</time>
      </trkpt>
      <trkpt lat="42.77535" lon="0.11299">
        <ele>2577.8</ele>
        <time>2017-02-21T10:47:34Z</time>
      </trkpt>
      <trkpt lat="42.77537" lon="0.11298">
        <ele>2582.8</ele>
        <time>2017-02-21T10:47:39Z</time>
      </trkpt>
      <trkpt lat="42.77537" lon="0.11298">
        <ele>2582.6</ele>
        <time>2017-02-21T10:47:44Z</time>
      </trkpt>
      <trkpt lat="42.77537" lon="0.11298">
        <ele>2582.6</ele>
        <time>2017-02-21T10:47:49Z</time>
      </trkpt>
      <trkpt lat="42.77537" lon="0.11297">
        <ele>2582.6</ele>
        <time>2017-02-21T10:47:54Z</time>
      </trkpt>
      <trkpt lat="42.7754" lon="0.11296">
        <ele>2585.4</ele>
        <time>2017-02-21T10:47:59Z</time>
      </trkpt>
      <trkpt lat="42.77543" lon="0.11295">
        <ele>2581.8</ele>
        <time>2017-02-21T10:48:04Z</time>
      </trkpt>
      <trkpt lat="42.77546" lon="0.11294">
        <ele>2585.8</ele>
        <time>2017-02-21T10:48:09Z</time>
      </trkpt>
      <trkpt lat="42.77548" lon="0.11294">
        <ele>2584.8</ele>
        <time>2017-02-21T10:48:14Z</time>
      </trkpt>
      <trkpt lat="42.77546" lon="0.11292">
        <ele>2583.8</ele>
        <time>2017-02-21T10:48:19Z</time>
      </trkpt>
      <trkpt lat="42.77545" lon="0.11289">
        <ele>2584.4</ele>
        <time>2017-02-21T10:48:24Z</time>
      </trkpt>
      <trkpt lat="42.77544" lon="0.11288">
        <ele>2586.2</ele>
        <time>2017-02-21T10:48:29Z</time>
      </trkpt>
      <trkpt lat="42.77545" lon="0.1129">
        <ele>2585.8</ele>
        <time>2017-02-21T10:48:34Z</time>
      </trkpt>
      <trkpt lat="42.77546" lon="0.11293">
        <ele>2589.8</ele>
        <time>2017-02-21T10:48:39Z</time>
      </trkpt>
      <trkpt lat="42.77545" lon="0.11294">
        <ele>2590.8</ele>
        <time>2017-02-21T10:48:44Z</time>
      </trkpt>
      <trkpt lat="42.77545" lon="0.11294">
        <ele>2589.6</ele>
        <time>2017-02-21T10:48:49Z</time>
      </trkpt>
      <trkpt lat="42.77545" lon="0.11295">
        <ele>2588.6</ele>
        <time>2017-02-21T10:48:54Z</time>
      </trkpt>
      <trkpt lat="42.77546" lon="0.11296">
        <ele>2588</ele>
        <time>2017-02-21T10:48:59Z</time>
      </trkpt>
      <trkpt lat="42.77547" lon="0.11296">
        <ele>2587.8</ele>
        <time>2017-02-21T10:49:04Z</time>
      </trkpt>
      <trkpt lat="42.77547" lon="0.11296">
        <ele>2587.6</ele>
        <time>2017-02-21T10:49:09Z</time>
      </trkpt>
      <trkpt lat="42.77547" lon="0.11296">
        <ele>2587.4</ele>
        <time>2017-02-21T10:49:14Z</time>
      </trkpt>
      <trkpt lat="42.77548" lon="0.11296">
        <ele>2587.4</ele>
        <time>2017-02-21T10:49:19Z</time>
      </trkpt>
      <trkpt lat="42.77548" lon="0.11296">
        <ele>2587.4</ele>
        <time>2017-02-21T10:49:24Z</time>
      </trkpt>
      <trkpt lat="42.77548" lon="0.11295">
        <ele>2587.4</ele>
        <time>2017-02-21T10:49:29Z</time>
      </trkpt>
      <trkpt lat="42.77548" lon="0.11295">
        <ele>2587.6</ele>
        <time>2017-02-21T10:49:34Z</time>
      </trkpt>
      <trkpt lat="42.77548" lon="0.11295">
        <ele>2587.6</ele>
        <time>2017-02-21T10:49:39Z</time>
      </trkpt>
      <trkpt lat="42.77548" lon="0.11295">
        <ele>2587.6</ele>
        <time>2017-02-21T10:49:44Z</time>
      </trkpt>
      <trkpt lat="42.77548" lon="0.11295">
        <ele>2587.6</ele>
        <time>2017-02-21T10:49:49Z</time>
      </trkpt>
      <trkpt lat="42.77548" lon="0.11295">
        <ele>2587.6</ele>
        <time>2017-02-21T10:49:54Z</time>
      </trkpt>
      <trkpt lat="42.77548" lon="0.11294">
        <ele>2587.4</ele>
        <time>2017-02-21T10:49:59Z</time>
      </trkpt>
      <trkpt lat="42.77548" lon="0.11294">
        <ele>2587.4</ele>
        <time>2017-02-21T10:50:04Z</time>
      </trkpt>
      <trkpt lat="42.77547" lon="0.11294">
        <ele>2587.4</ele>
        <time>2017-02-21T10:50:09Z</time>
      </trkpt>
      <trkpt lat="42.77547" lon="0.11294">
        <ele>2588.8</ele>
        <time>2017-02-21T10:50:14Z</time>
      </trkpt>
      <trkpt lat="42.77547" lon="0.11294">
        <ele>2588.4</ele>
        <time>2017-02-21T10:50:19Z</time>
      </trkpt>
      <trkpt lat="42.77547" lon="0.11294">
        <ele>2588</ele>
        <time>2017-02-21T10:50:24Z</time>
      </trkpt>
      <trkpt lat="42.77547" lon="0.11295">
        <ele>2587.6</ele>
        <time>2017-02-21T10:50:29Z</time>
      </trkpt>
      <trkpt lat="42.77547" lon="0.11295">
        <ele>2587.4</ele>
        <time>2017-02-21T10:50:34Z</time>
      </trkpt>
      <trkpt lat="42.77547" lon="0.11295">
        <ele>2587.2</ele>
        <time>2017-02-21T10:50:39Z</time>
      </trkpt>
      <trkpt lat="42.77547" lon="0.11295">
        <ele>2587</ele>
        <time>2017-02-21T10:50:44Z</time>
      </trkpt>
      <trkpt lat="42.77547" lon="0.11295">
        <ele>2587</ele>
        <time>2017-02-21T10:50:49Z</time>
      </trkpt>
      <trkpt lat="42.77547" lon="0.11295">
        <ele>2586.8</ele>
        <time>2017-02-21T10:50:54Z</time>
      </trkpt>
      <trkpt lat="42.77546" lon="0.11295">
        <ele>2586.8</ele>
        <time>2017-02-21T10:50:59Z</time>
      </trkpt>
      <trkpt lat="42.77546" lon="0.11295">
        <ele>2586.8</ele>
        <time>2017-02-21T10:51:04Z</time>
      </trkpt>
      <trkpt lat="42.77547" lon="0.11295">
        <ele>2586.8</ele>
        <time>2017-02-21T10:51:09Z</time>
      </trkpt>
      <trkpt lat="42.77547" lon="0.11295">
        <ele>2586.8</ele>
        <time>2017-02-21T10:51:14Z</time>
      </trkpt>
      <trkpt lat="42.77547" lon="0.11295">
        <ele>2586.6</ele>
        <time>2017-02-21T10:51:19Z</time>
      </trkpt>
      <trkpt lat="42.77547" lon="0.11295">
        <ele>2586.6</ele>
        <time>2017-02-21T10:51:24Z</time>
      </trkpt>
      <trkpt lat="42.77547" lon="0.11295">
        <ele>2586.6</ele>
        <time>2017-02-21T10:51:29Z</time>
      </trkpt>
      <trkpt lat="42.77547" lon="0.11295">
        <ele>2586.6</ele>
        <time>2017-02-21T10:51:34Z</time>
      </trkpt>
      <trkpt lat="42.77547" lon="0.11294">
        <ele>2586.6</ele>
        <time>2017-02-21T10:51:39Z</time>
      </trkpt>
      <trkpt lat="42.77546" lon="0.11293">
        <ele>2586.6</ele>
        <time>2017-02-21T10:51:44Z</time>
      </trkpt>
      <trkpt lat="42.77546" lon="0.11293">
        <ele>2586.4</ele>
        <time>2017-02-21T10:51:49Z</time>
      </trkpt>
      <trkpt lat="42.77546" lon="0.11295">
        <ele>2586.2</ele>
        <time>2017-02-21T10:51:54Z</time>
      </trkpt>
      <trkpt lat="42.77546" lon="0.11295">
        <ele>2586</ele>
        <time>2017-02-21T10:51:59Z</time>
      </trkpt>
      <trkpt lat="42.77546" lon="0.11295">
        <ele>2586</ele>
        <time>2017-02-21T10:52:04Z</time>
      </trkpt>
      <trkpt lat="42.77546" lon="0.11295">
        <ele>2585.8</ele>
        <time>2017-02-21T10:52:09Z</time>
      </trkpt>
      <trkpt lat="42.77546" lon="0.11296">
        <ele>2585.8</ele>
        <time>2017-02-21T10:52:14Z</time>
      </trkpt>
      <trkpt lat="42.77546" lon="0.11296">
        <ele>2585.8</ele>
        <time>2017-02-21T10:52:19Z</time>
      </trkpt>
      <trkpt lat="42.77546" lon="0.11296">
        <ele>2585.8</ele>
        <time>2017-02-21T10:52:24Z</time>
      </trkpt>
      <trkpt lat="42.77546" lon="0.11296">
        <ele>2585.6</ele>
        <time>2017-02-21T10:52:29Z</time>
      </trkpt>
      <trkpt lat="42.77546" lon="0.11296">
        <ele>2585.6</ele>
        <time>2017-02-21T10:52:34Z</time>
      </trkpt>
      <trkpt lat="42.77546" lon="0.11296">
        <ele>2585.6</ele>
        <time>2017-02-21T10:52:39Z</time>
      </trkpt>
      <trkpt lat="42.77546" lon="0.11296">
        <ele>2585.6</ele>
        <time>2017-02-21T10:52:44Z</time>
      </trkpt>
      <trkpt lat="42.77546" lon="0.11296">
        <ele>2585.4</ele>
        <time>2017-02-21T10:52:49Z</time>
      </trkpt>
      <trkpt lat="42.77546" lon="0.11296">
        <ele>2585.4</ele>
        <time>2017-02-21T10:52:54Z</time>
      </trkpt>
      <trkpt lat="42.77546" lon="0.11296">
        <ele>2585.2</ele>
        <time>2017-02-21T10:52:59Z</time>
      </trkpt>
      <trkpt lat="42.77546" lon="0.11296">
        <ele>2585</ele>
        <time>2017-02-21T10:53:04Z</time>
      </trkpt>
      <trkpt lat="42.77546" lon="0.11296">
        <ele>2585</ele>
        <time>2017-02-21T10:53:09Z</time>
      </trkpt>
      <trkpt lat="42.77546" lon="0.11296">
        <ele>2585.4</ele>
        <time>2017-02-21T10:53:14Z</time>
      </trkpt>
      <trkpt lat="42.77546" lon="0.11296">
        <ele>2585</ele>
        <time>2017-02-21T10:53:19Z</time>
      </trkpt>
      <trkpt lat="42.77546" lon="0.11296">
        <ele>2584.8</ele>
        <time>2017-02-21T10:53:24Z</time>
      </trkpt>
      <trkpt lat="42.77546" lon="0.11296">
        <ele>2584.6</ele>
        <time>2017-02-21T10:53:29Z</time>
      </trkpt>
      <trkpt lat="42.77546" lon="0.11296">
        <ele>2584.6</ele>
        <time>2017-02-21T10:53:34Z</time>
      </trkpt>
      <trkpt lat="42.77546" lon="0.11294">
        <ele>2584.4</ele>
        <time>2017-02-21T10:53:39Z</time>
      </trkpt>
      <trkpt lat="42.77546" lon="0.11294">
        <ele>2584.4</ele>
        <time>2017-02-21T10:53:44Z</time>
      </trkpt>
      <trkpt lat="42.77545" lon="0.11293">
        <ele>2583</ele>
        <time>2017-02-21T10:53:49Z</time>
      </trkpt>
      <trkpt lat="42.77545" lon="0.11291">
        <ele>2583</ele>
        <time>2017-02-21T10:53:54Z</time>
      </trkpt>
      <trkpt lat="42.77543" lon="0.11289">
        <ele>2586.6</ele>
        <time>2017-02-21T10:53:59Z</time>
      </trkpt>
      <trkpt lat="42.77542" lon="0.11287">
        <ele>2587</ele>
        <time>2017-02-21T10:54:04Z</time>
      </trkpt>
      <trkpt lat="42.77541" lon="0.11286">
        <ele>2586.6</ele>
        <time>2017-02-21T10:54:09Z</time>
      </trkpt>
      <trkpt lat="42.77539" lon="0.11284">
        <ele>2586</ele>
        <time>2017-02-21T10:54:14Z</time>
      </trkpt>
      <trkpt lat="42.77537" lon="0.11282">
        <ele>2586.4</ele>
        <time>2017-02-21T10:54:19Z</time>
      </trkpt>
      <trkpt lat="42.77536" lon="0.11281">
        <ele>2585.6</ele>
        <time>2017-02-21T10:54:24Z</time>
      </trkpt>
      <trkpt lat="42.77534" lon="0.1128">
        <ele>2584.2</ele>
        <time>2017-02-21T10:54:29Z</time>
      </trkpt>
      <trkpt lat="42.77532" lon="0.11278">
        <ele>2587.4</ele>
        <time>2017-02-21T10:54:34Z</time>
      </trkpt>
      <trkpt lat="42.7753" lon="0.11277">
        <ele>2594</ele>
        <time>2017-02-21T10:54:39Z</time>
      </trkpt>
      <trkpt lat="42.77529" lon="0.11275">
        <ele>2593.2</ele>
        <time>2017-02-21T10:54:44Z</time>
      </trkpt>
      <trkpt lat="42.77528" lon="0.11275">
        <ele>2593</ele>
        <time>2017-02-21T10:54:49Z</time>
      </trkpt>
      <trkpt lat="42.77528" lon="0.11275">
        <ele>2592.4</ele>
        <time>2017-02-21T10:54:54Z</time>
      </trkpt>
      <trkpt lat="42.77527" lon="0.11274">
        <ele>2593.6</ele>
        <time>2017-02-21T10:54:59Z</time>
      </trkpt>
      <trkpt lat="42.77527" lon="0.11274">
        <ele>2593</ele>
        <time>2017-02-21T10:55:04Z</time>
      </trkpt>
      <trkpt lat="42.77527" lon="0.11274">
        <ele>2593.8</ele>
        <time>2017-02-21T10:55:09Z</time>
      </trkpt>
      <trkpt lat="42.77527" lon="0.11274">
        <ele>2593.2</ele>
        <time>2017-02-21T10:55:14Z</time>
      </trkpt>
      <trkpt lat="42.77527" lon="0.11274">
        <ele>2592.8</ele>
        <time>2017-02-21T10:55:19Z</time>
      </trkpt>
      <trkpt lat="42.77527" lon="0.11274">
        <ele>2592.6</ele>
        <time>2017-02-21T10:55:24Z</time>
      </trkpt>
      <trkpt lat="42.77527" lon="0.11273">
        <ele>2592.6</ele>
        <time>2017-02-21T10:55:29Z</time>
      </trkpt>
      <trkpt lat="42.77527" lon="0.11269">
        <ele>2594.2</ele>
        <time>2017-02-21T10:55:34Z</time>
      </trkpt>
      <trkpt lat="42.7753" lon="0.11264">
        <ele>2595.4</ele>
        <time>2017-02-21T10:55:39Z</time>
      </trkpt>
      <trkpt lat="42.77531" lon="0.1126">
        <ele>2591.8</ele>
        <time>2017-02-21T10:55:44Z</time>
      </trkpt>
      <trkpt lat="42.77533" lon="0.11256">
        <ele>2593.4</ele>
        <time>2017-02-21T10:55:49Z</time>
      </trkpt>
      <trkpt lat="42.77534" lon="0.11253">
        <ele>2594.4</ele>
        <time>2017-02-21T10:55:54Z</time>
      </trkpt>
      <trkpt lat="42.77536" lon="0.11249">
        <ele>2594.6</ele>
        <time>2017-02-21T10:55:59Z</time>
      </trkpt>
      <trkpt lat="42.77538" lon="0.11245">
        <ele>2596.2</ele>
        <time>2017-02-21T10:56:04Z</time>
      </trkpt>
      <trkpt lat="42.77539" lon="0.11242">
        <ele>2595.6</ele>
        <time>2017-02-21T10:56:09Z</time>
      </trkpt>
      <trkpt lat="42.77541" lon="0.11238">
        <ele>2598.2</ele>
        <time>2017-02-21T10:56:14Z</time>
      </trkpt>
      <trkpt lat="42.77542" lon="0.11234">
        <ele>2598.4</ele>
        <time>2017-02-21T10:56:19Z</time>
      </trkpt>
      <trkpt lat="42.77543" lon="0.1123">
        <ele>2598</ele>
        <time>2017-02-21T10:56:24Z</time>
      </trkpt>
      <trkpt lat="42.77544" lon="0.11227">
        <ele>2598.6</ele>
        <time>2017-02-21T10:56:29Z</time>
      </trkpt>
      <trkpt lat="42.77545" lon="0.11224">
        <ele>2600.6</ele>
        <time>2017-02-21T10:56:34Z</time>
      </trkpt>
      <trkpt lat="42.77544" lon="0.1122">
        <ele>2603</ele>
        <time>2017-02-21T10:56:39Z</time>
      </trkpt>
      <trkpt lat="42.77543" lon="0.11219">
        <ele>2604.2</ele>
        <time>2017-02-21T10:56:44Z</time>
      </trkpt>
      <trkpt lat="42.77541" lon="0.11216">
        <ele>2603.2</ele>
        <time>2017-02-21T10:56:49Z</time>
      </trkpt>
      <trkpt lat="42.77539" lon="0.11214">
        <ele>2602.2</ele>
        <time>2017-02-21T10:56:54Z</time>
      </trkpt>
      <trkpt lat="42.77539" lon="0.11214">
        <ele>2602.6</ele>
        <time>2017-02-21T10:56:59Z</time>
      </trkpt>
      <trkpt lat="42.77539" lon="0.11214">
        <ele>2602.8</ele>
        <time>2017-02-21T10:57:04Z</time>
      </trkpt>
      <trkpt lat="42.77539" lon="0.11214">
        <ele>2603</ele>
        <time>2017-02-21T10:57:09Z</time>
      </trkpt>
      <trkpt lat="42.77539" lon="0.11214">
        <ele>2603.2</ele>
        <time>2017-02-21T10:57:14Z</time>
      </trkpt>
      <trkpt lat="42.77539" lon="0.11213">
        <ele>2603.2</ele>
        <time>2017-02-21T10:57:19Z</time>
      </trkpt>
      <trkpt lat="42.7754" lon="0.11213">
        <ele>2603.6</ele>
        <time>2017-02-21T10:57:24Z</time>
      </trkpt>
      <trkpt lat="42.7754" lon="0.11213">
        <ele>2603.4</ele>
        <time>2017-02-21T10:57:29Z</time>
      </trkpt>
      <trkpt lat="42.7754" lon="0.11213">
        <ele>2603.4</ele>
        <time>2017-02-21T10:57:34Z</time>
      </trkpt>
      <trkpt lat="42.7754" lon="0.11213">
        <ele>2603.4</ele>
        <time>2017-02-21T10:57:39Z</time>
      </trkpt>
      <trkpt lat="42.7754" lon="0.11213">
        <ele>2603.4</ele>
        <time>2017-02-21T10:57:44Z</time>
      </trkpt>
      <trkpt lat="42.7754" lon="0.11213">
        <ele>2603.2</ele>
        <time>2017-02-21T10:57:49Z</time>
      </trkpt>
      <trkpt lat="42.77539" lon="0.11212">
        <ele>2605.4</ele>
        <time>2017-02-21T10:57:54Z</time>
      </trkpt>
      <trkpt lat="42.77537" lon="0.11207">
        <ele>2605</ele>
        <time>2017-02-21T10:57:59Z</time>
      </trkpt>
      <trkpt lat="42.77535" lon="0.11204">
        <ele>2605.6</ele>
        <time>2017-02-21T10:58:04Z</time>
      </trkpt>
      <trkpt lat="42.77533" lon="0.11201">
        <ele>2603.6</ele>
        <time>2017-02-21T10:58:09Z</time>
      </trkpt>
      <trkpt lat="42.77531" lon="0.11198">
        <ele>2607.2</ele>
        <time>2017-02-21T10:58:14Z</time>
      </trkpt>
      <trkpt lat="42.77529" lon="0.11195">
        <ele>2606</ele>
        <time>2017-02-21T10:58:19Z</time>
      </trkpt>
      <trkpt lat="42.77527" lon="0.11193">
        <ele>2606.4</ele>
        <time>2017-02-21T10:58:24Z</time>
      </trkpt>
      <trkpt lat="42.77525" lon="0.11195">
        <ele>2607.2</ele>
        <time>2017-02-21T10:58:29Z</time>
      </trkpt>
      <trkpt lat="42.77524" lon="0.11198">
        <ele>2608.8</ele>
        <time>2017-02-21T10:58:34Z</time>
      </trkpt>
      <trkpt lat="42.77522" lon="0.112">
        <ele>2610.4</ele>
        <time>2017-02-21T10:58:39Z</time>
      </trkpt>
      <trkpt lat="42.77519" lon="0.11203">
        <ele>2609.4</ele>
        <time>2017-02-21T10:58:44Z</time>
      </trkpt>
      <trkpt lat="42.77518" lon="0.11205">
        <ele>2610.4</ele>
        <time>2017-02-21T10:58:49Z</time>
      </trkpt>
      <trkpt lat="42.77516" lon="0.11207">
        <ele>2612.2</ele>
        <time>2017-02-21T10:58:54Z</time>
      </trkpt>
      <trkpt lat="42.77516" lon="0.11207">
        <ele>2612.2</ele>
        <time>2017-02-21T10:58:59Z</time>
      </trkpt>
      <trkpt lat="42.77514" lon="0.11207">
        <ele>2614.2</ele>
        <time>2017-02-21T10:59:04Z</time>
      </trkpt>
      <trkpt lat="42.77512" lon="0.11206">
        <ele>2613.8</ele>
        <time>2017-02-21T10:59:09Z</time>
      </trkpt>
      <trkpt lat="42.7751" lon="0.11204">
        <ele>2613.6</ele>
        <time>2017-02-21T10:59:14Z</time>
      </trkpt>
      <trkpt lat="42.77509" lon="0.11202">
        <ele>2615.6</ele>
        <time>2017-02-21T10:59:19Z</time>
      </trkpt>
      <trkpt lat="42.77508" lon="0.11199">
        <ele>2614.8</ele>
        <time>2017-02-21T10:59:24Z</time>
      </trkpt>
      <trkpt lat="42.77506" lon="0.11197">
        <ele>2615</ele>
        <time>2017-02-21T10:59:29Z</time>
      </trkpt>
      <trkpt lat="42.77504" lon="0.11195">
        <ele>2617</ele>
        <time>2017-02-21T10:59:34Z</time>
      </trkpt>
      <trkpt lat="42.77502" lon="0.11197">
        <ele>2618</ele>
        <time>2017-02-21T10:59:39Z</time>
      </trkpt>
      <trkpt lat="42.77501" lon="0.112">
        <ele>2616.6</ele>
        <time>2017-02-21T10:59:44Z</time>
      </trkpt>
      <trkpt lat="42.77499" lon="0.11202">
        <ele>2620.2</ele>
        <time>2017-02-21T10:59:49Z</time>
      </trkpt>
      <trkpt lat="42.77498" lon="0.11204">
        <ele>2621.2</ele>
        <time>2017-02-21T10:59:54Z</time>
      </trkpt>
      <trkpt lat="42.77496" lon="0.11206">
        <ele>2622</ele>
        <time>2017-02-21T10:59:59Z</time>
      </trkpt>
      <trkpt lat="42.77495" lon="0.11208">
        <ele>2623.2</ele>
        <time>2017-02-21T11:00:04Z</time>
      </trkpt>
      <trkpt lat="42.77493" lon="0.11206">
        <ele>2623.6</ele>
        <time>2017-02-21T11:00:09Z</time>
      </trkpt>
      <trkpt lat="42.77491" lon="0.11204">
        <ele>2624</ele>
        <time>2017-02-21T11:00:14Z</time>
      </trkpt>
      <trkpt lat="42.7749" lon="0.11203">
        <ele>2625.8</ele>
        <time>2017-02-21T11:00:19Z</time>
      </trkpt>
      <trkpt lat="42.77488" lon="0.112">
        <ele>2624.8</ele>
        <time>2017-02-21T11:00:24Z</time>
      </trkpt>
      <trkpt lat="42.77487" lon="0.11197">
        <ele>2624.6</ele>
        <time>2017-02-21T11:00:29Z</time>
      </trkpt>
      <trkpt lat="42.77485" lon="0.11195">
        <ele>2625</ele>
        <time>2017-02-21T11:00:34Z</time>
      </trkpt>
      <trkpt lat="42.77483" lon="0.11193">
        <ele>2625.6</ele>
        <time>2017-02-21T11:00:39Z</time>
      </trkpt>
      <trkpt lat="42.77483" lon="0.11192">
        <ele>2625.6</ele>
        <time>2017-02-21T11:00:44Z</time>
      </trkpt>
      <trkpt lat="42.77482" lon="0.11191">
        <ele>2627</ele>
        <time>2017-02-21T11:00:49Z</time>
      </trkpt>
      <trkpt lat="42.77481" lon="0.11191">
        <ele>2625</ele>
        <time>2017-02-21T11:00:54Z</time>
      </trkpt>
      <trkpt lat="42.77481" lon="0.11194">
        <ele>2623.6</ele>
        <time>2017-02-21T11:00:59Z</time>
      </trkpt>
      <trkpt lat="42.77481" lon="0.11194">
        <ele>2625.4</ele>
        <time>2017-02-21T11:01:04Z</time>
      </trkpt>
      <trkpt lat="42.7748" lon="0.11198">
        <ele>2625</ele>
        <time>2017-02-21T11:01:09Z</time>
      </trkpt>
      <trkpt lat="42.77479" lon="0.11198">
        <ele>2627</ele>
        <time>2017-02-21T11:01:14Z</time>
      </trkpt>
      <trkpt lat="42.77477" lon="0.11196">
        <ele>2627.6</ele>
        <time>2017-02-21T11:01:19Z</time>
      </trkpt>
      <trkpt lat="42.77475" lon="0.11193">
        <ele>2628</ele>
        <time>2017-02-21T11:01:24Z</time>
      </trkpt>
      <trkpt lat="42.77473" lon="0.11191">
        <ele>2630</ele>
        <time>2017-02-21T11:01:29Z</time>
      </trkpt>
      <trkpt lat="42.77471" lon="0.11189">
        <ele>2630.4</ele>
        <time>2017-02-21T11:01:34Z</time>
      </trkpt>
      <trkpt lat="42.7747" lon="0.11186">
        <ele>2632.8</ele>
        <time>2017-02-21T11:01:39Z</time>
      </trkpt>
      <trkpt lat="42.77468" lon="0.11184">
        <ele>2633</ele>
        <time>2017-02-21T11:01:44Z</time>
      </trkpt>
      <trkpt lat="42.77466" lon="0.11181">
        <ele>2631</ele>
        <time>2017-02-21T11:01:49Z</time>
      </trkpt>
      <trkpt lat="42.77465" lon="0.11178">
        <ele>2630.4</ele>
        <time>2017-02-21T11:01:54Z</time>
      </trkpt>
      <trkpt lat="42.77464" lon="0.11175">
        <ele>2630</ele>
        <time>2017-02-21T11:01:59Z</time>
      </trkpt>
      <trkpt lat="42.77462" lon="0.11172">
        <ele>2633.6</ele>
        <time>2017-02-21T11:02:04Z</time>
      </trkpt>
      <trkpt lat="42.77461" lon="0.11169">
        <ele>2630.6</ele>
        <time>2017-02-21T11:02:09Z</time>
      </trkpt>
      <trkpt lat="42.77461" lon="0.11168">
        <ele>2631</ele>
        <time>2017-02-21T11:02:14Z</time>
      </trkpt>
      <trkpt lat="42.7746" lon="0.11166">
        <ele>2633.4</ele>
        <time>2017-02-21T11:02:19Z</time>
      </trkpt>
      <trkpt lat="42.77459" lon="0.11168">
        <ele>2633.8</ele>
        <time>2017-02-21T11:02:24Z</time>
      </trkpt>
      <trkpt lat="42.77459" lon="0.1117">
        <ele>2632.6</ele>
        <time>2017-02-21T11:02:29Z</time>
      </trkpt>
      <trkpt lat="42.77458" lon="0.11172">
        <ele>2632.8</ele>
        <time>2017-02-21T11:02:34Z</time>
      </trkpt>
      <trkpt lat="42.77457" lon="0.11175">
        <ele>2634.2</ele>
        <time>2017-02-21T11:02:39Z</time>
      </trkpt>
      <trkpt lat="42.77457" lon="0.11178">
        <ele>2635.8</ele>
        <time>2017-02-21T11:02:44Z</time>
      </trkpt>
      <trkpt lat="42.77457" lon="0.11181">
        <ele>2633.2</ele>
        <time>2017-02-21T11:02:49Z</time>
      </trkpt>
      <trkpt lat="42.77455" lon="0.11184">
        <ele>2635.6</ele>
        <time>2017-02-21T11:02:54Z</time>
      </trkpt>
      <trkpt lat="42.77453" lon="0.11187">
        <ele>2635.8</ele>
        <time>2017-02-21T11:02:59Z</time>
      </trkpt>
      <trkpt lat="42.77452" lon="0.11189">
        <ele>2634.4</ele>
        <time>2017-02-21T11:03:04Z</time>
      </trkpt>
      <trkpt lat="42.77451" lon="0.11192">
        <ele>2635.6</ele>
        <time>2017-02-21T11:03:09Z</time>
      </trkpt>
      <trkpt lat="42.77451" lon="0.11194">
        <ele>2637.4</ele>
        <time>2017-02-21T11:03:14Z</time>
      </trkpt>
      <trkpt lat="42.77452" lon="0.11194">
        <ele>2638.8</ele>
        <time>2017-02-21T11:03:19Z</time>
      </trkpt>
      <trkpt lat="42.77452" lon="0.11194">
        <ele>2638.6</ele>
        <time>2017-02-21T11:03:24Z</time>
      </trkpt>
      <trkpt lat="42.77452" lon="0.11195">
        <ele>2637.6</ele>
        <time>2017-02-21T11:03:29Z</time>
      </trkpt>
      <trkpt lat="42.77451" lon="0.11197">
        <ele>2638.6</ele>
        <time>2017-02-21T11:03:34Z</time>
      </trkpt>
      <trkpt lat="42.77449" lon="0.112">
        <ele>2641.6</ele>
        <time>2017-02-21T11:03:39Z</time>
      </trkpt>
      <trkpt lat="42.77448" lon="0.11201">
        <ele>2642.8</ele>
        <time>2017-02-21T11:03:44Z</time>
      </trkpt>
      <trkpt lat="42.77446" lon="0.11199">
        <ele>2640.4</ele>
        <time>2017-02-21T11:03:49Z</time>
      </trkpt>
      <trkpt lat="42.77445" lon="0.11197">
        <ele>2640.2</ele>
        <time>2017-02-21T11:03:54Z</time>
      </trkpt>
      <trkpt lat="42.77444" lon="0.11194">
        <ele>2639.6</ele>
        <time>2017-02-21T11:03:59Z</time>
      </trkpt>
      <trkpt lat="42.77443" lon="0.11193">
        <ele>2638.6</ele>
        <time>2017-02-21T11:04:04Z</time>
      </trkpt>
      <trkpt lat="42.77442" lon="0.11192">
        <ele>2639.4</ele>
        <time>2017-02-21T11:04:10Z</time>
      </trkpt>
      <trkpt lat="42.77442" lon="0.11192">
        <ele>2640</ele>
        <time>2017-02-21T11:04:15Z</time>
      </trkpt>
      <trkpt lat="42.77442" lon="0.1119">
        <ele>2640.6</ele>
        <time>2017-02-21T11:04:20Z</time>
      </trkpt>
      <trkpt lat="42.77441" lon="0.11188">
        <ele>2641.4</ele>
        <time>2017-02-21T11:04:25Z</time>
      </trkpt>
      <trkpt lat="42.7744" lon="0.11185">
        <ele>2644.6</ele>
        <time>2017-02-21T11:04:30Z</time>
      </trkpt>
      <trkpt lat="42.77438" lon="0.11182">
        <ele>2643.4</ele>
        <time>2017-02-21T11:04:35Z</time>
      </trkpt>
      <trkpt lat="42.77437" lon="0.1118">
        <ele>2648.4</ele>
        <time>2017-02-21T11:04:40Z</time>
      </trkpt>
      <trkpt lat="42.77437" lon="0.11178">
        <ele>2646.4</ele>
        <time>2017-02-21T11:04:45Z</time>
      </trkpt>
      <trkpt lat="42.77436" lon="0.11176">
        <ele>2646</ele>
        <time>2017-02-21T11:04:50Z</time>
      </trkpt>
      <trkpt lat="42.77435" lon="0.11175">
        <ele>2647.4</ele>
        <time>2017-02-21T11:04:55Z</time>
      </trkpt>
      <trkpt lat="42.77435" lon="0.11173">
        <ele>2645.8</ele>
        <time>2017-02-21T11:05:00Z</time>
      </trkpt>
      <trkpt lat="42.77434" lon="0.11172">
        <ele>2646.2</ele>
        <time>2017-02-21T11:05:05Z</time>
      </trkpt>
      <trkpt lat="42.77433" lon="0.11169">
        <ele>2650.6</ele>
        <time>2017-02-21T11:05:10Z</time>
      </trkpt>
      <trkpt lat="42.77433" lon="0.11168">
        <ele>2646.8</ele>
        <time>2017-02-21T11:05:15Z</time>
      </trkpt>
      <trkpt lat="42.77432" lon="0.11166">
        <ele>2647.4</ele>
        <time>2017-02-21T11:05:20Z</time>
      </trkpt>
      <trkpt lat="42.77432" lon="0.11165">
        <ele>2648</ele>
        <time>2017-02-21T11:05:25Z</time>
      </trkpt>
      <trkpt lat="42.77431" lon="0.11163">
        <ele>2648.6</ele>
        <time>2017-02-21T11:05:30Z</time>
      </trkpt>
      <trkpt lat="42.77431" lon="0.11162">
        <ele>2649.6</ele>
        <time>2017-02-21T11:05:35Z</time>
      </trkpt>
      <trkpt lat="42.77431" lon="0.11162">
        <ele>2650</ele>
        <time>2017-02-21T11:05:40Z</time>
      </trkpt>
      <trkpt lat="42.7743" lon="0.11159">
        <ele>2650.2</ele>
        <time>2017-02-21T11:05:45Z</time>
      </trkpt>
      <trkpt lat="42.77429" lon="0.11157">
        <ele>2651.8</ele>
        <time>2017-02-21T11:05:50Z</time>
      </trkpt>
      <trkpt lat="42.77428" lon="0.11156">
        <ele>2653.8</ele>
        <time>2017-02-21T11:05:55Z</time>
      </trkpt>
      <trkpt lat="42.77427" lon="0.11154">
        <ele>2652</ele>
        <time>2017-02-21T11:06:00Z</time>
      </trkpt>
      <trkpt lat="42.77427" lon="0.11152">
        <ele>2656.2</ele>
        <time>2017-02-21T11:06:05Z</time>
      </trkpt>
      <trkpt lat="42.77425" lon="0.1115">
        <ele>2654</ele>
        <time>2017-02-21T11:06:10Z</time>
      </trkpt>
      <trkpt lat="42.77424" lon="0.11148">
        <ele>2653.6</ele>
        <time>2017-02-21T11:06:15Z</time>
      </trkpt>
      <trkpt lat="42.77423" lon="0.11146">
        <ele>2658.2</ele>
        <time>2017-02-21T11:06:20Z</time>
      </trkpt>
      <trkpt lat="42.77421" lon="0.11144">
        <ele>2657.2</ele>
        <time>2017-02-21T11:06:25Z</time>
      </trkpt>
      <trkpt lat="42.7742" lon="0.11141">
        <ele>2654.8</ele>
        <time>2017-02-21T11:06:30Z</time>
      </trkpt>
      <trkpt lat="42.77418" lon="0.11139">
        <ele>2658.6</ele>
        <time>2017-02-21T11:06:35Z</time>
      </trkpt>
      <trkpt lat="42.77417" lon="0.11137">
        <ele>2657</ele>
        <time>2017-02-21T11:06:40Z</time>
      </trkpt>
      <trkpt lat="42.77416" lon="0.11135">
        <ele>2657.8</ele>
        <time>2017-02-21T11:06:45Z</time>
      </trkpt>
      <trkpt lat="42.77415" lon="0.11134">
        <ele>2657.4</ele>
        <time>2017-02-21T11:06:50Z</time>
      </trkpt>
      <trkpt lat="42.77415" lon="0.11134">
        <ele>2657.4</ele>
        <time>2017-02-21T11:06:55Z</time>
      </trkpt>
      <trkpt lat="42.77414" lon="0.11135">
        <ele>2657.4</ele>
        <time>2017-02-21T11:07:00Z</time>
      </trkpt>
      <trkpt lat="42.77412" lon="0.11136">
        <ele>2658.8</ele>
        <time>2017-02-21T11:07:05Z</time>
      </trkpt>
      <trkpt lat="42.77411" lon="0.11138">
        <ele>2658.4</ele>
        <time>2017-02-21T11:07:10Z</time>
      </trkpt>
      <trkpt lat="42.7741" lon="0.11139">
        <ele>2660.4</ele>
        <time>2017-02-21T11:07:15Z</time>
      </trkpt>
      <trkpt lat="42.77409" lon="0.11141">
        <ele>2658</ele>
        <time>2017-02-21T11:07:20Z</time>
      </trkpt>
      <trkpt lat="42.77408" lon="0.11143">
        <ele>2659.8</ele>
        <time>2017-02-21T11:07:26Z</time>
      </trkpt>
      <trkpt lat="42.77407" lon="0.11144">
        <ele>2661.6</ele>
        <time>2017-02-21T11:07:31Z</time>
      </trkpt>
      <trkpt lat="42.77407" lon="0.11144">
        <ele>2660.4</ele>
        <time>2017-02-21T11:07:36Z</time>
      </trkpt>
      <trkpt lat="42.77405" lon="0.11147">
        <ele>2659</ele>
        <time>2017-02-21T11:07:41Z</time>
      </trkpt>
      <trkpt lat="42.77404" lon="0.11148">
        <ele>2662.4</ele>
        <time>2017-02-21T11:07:46Z</time>
      </trkpt>
      <trkpt lat="42.77403" lon="0.1115">
        <ele>2664.6</ele>
        <time>2017-02-21T11:07:51Z</time>
      </trkpt>
      <trkpt lat="42.77401" lon="0.11152">
        <ele>2662</ele>
        <time>2017-02-21T11:07:56Z</time>
      </trkpt>
      <trkpt lat="42.774" lon="0.11154">
        <ele>2663.6</ele>
        <time>2017-02-21T11:08:01Z</time>
      </trkpt>
      <trkpt lat="42.774" lon="0.11156">
        <ele>2665.4</ele>
        <time>2017-02-21T11:08:06Z</time>
      </trkpt>
      <trkpt lat="42.77399" lon="0.11159">
        <ele>2668.4</ele>
        <time>2017-02-21T11:08:11Z</time>
      </trkpt>
      <trkpt lat="42.77397" lon="0.11161">
        <ele>2666.4</ele>
        <time>2017-02-21T11:08:16Z</time>
      </trkpt>
      <trkpt lat="42.77396" lon="0.11164">
        <ele>2668.6</ele>
        <time>2017-02-21T11:08:21Z</time>
      </trkpt>
      <trkpt lat="42.77395" lon="0.11165">
        <ele>2670.2</ele>
        <time>2017-02-21T11:08:26Z</time>
      </trkpt>
      <trkpt lat="42.77393" lon="0.11168">
        <ele>2669</ele>
        <time>2017-02-21T11:08:31Z</time>
      </trkpt>
      <trkpt lat="42.77392" lon="0.1117">
        <ele>2665.2</ele>
        <time>2017-02-21T11:08:36Z</time>
      </trkpt>
      <trkpt lat="42.7739" lon="0.11172">
        <ele>2667.4</ele>
        <time>2017-02-21T11:08:41Z</time>
      </trkpt>
      <trkpt lat="42.77389" lon="0.11174">
        <ele>2665.6</ele>
        <time>2017-02-21T11:08:46Z</time>
      </trkpt>
      <trkpt lat="42.77388" lon="0.11177">
        <ele>2669.2</ele>
        <time>2017-02-21T11:08:51Z</time>
      </trkpt>
      <trkpt lat="42.77386" lon="0.11179">
        <ele>2670.2</ele>
        <time>2017-02-21T11:08:56Z</time>
      </trkpt>
      <trkpt lat="42.77385" lon="0.11181">
        <ele>2667</ele>
        <time>2017-02-21T11:09:01Z</time>
      </trkpt>
      <trkpt lat="42.77383" lon="0.11183">
        <ele>2667.2</ele>
        <time>2017-02-21T11:09:06Z</time>
      </trkpt>
      <trkpt lat="42.77382" lon="0.11182">
        <ele>2667.4</ele>
        <time>2017-02-21T11:09:11Z</time>
      </trkpt>
      <trkpt lat="42.77381" lon="0.11179">
        <ele>2668.2</ele>
        <time>2017-02-21T11:09:16Z</time>
      </trkpt>
      <trkpt lat="42.77381" lon="0.11176">
        <ele>2667.8</ele>
        <time>2017-02-21T11:09:21Z</time>
      </trkpt>
      <trkpt lat="42.7738" lon="0.11173">
        <ele>2671.8</ele>
        <time>2017-02-21T11:09:26Z</time>
      </trkpt>
      <trkpt lat="42.77379" lon="0.1117">
        <ele>2669.6</ele>
        <time>2017-02-21T11:09:31Z</time>
      </trkpt>
      <trkpt lat="42.77379" lon="0.11168">
        <ele>2671</ele>
        <time>2017-02-21T11:09:36Z</time>
      </trkpt>
      <trkpt lat="42.77378" lon="0.11165">
        <ele>2673</ele>
        <time>2017-02-21T11:09:41Z</time>
      </trkpt>
      <trkpt lat="42.77377" lon="0.11163">
        <ele>2672.4</ele>
        <time>2017-02-21T11:09:46Z</time>
      </trkpt>
      <trkpt lat="42.77377" lon="0.11162">
        <ele>2672.8</ele>
        <time>2017-02-21T11:09:51Z</time>
      </trkpt>
      <trkpt lat="42.77376" lon="0.11159">
        <ele>2672.8</ele>
        <time>2017-02-21T11:09:56Z</time>
      </trkpt>
      <trkpt lat="42.77376" lon="0.11155">
        <ele>2674.6</ele>
        <time>2017-02-21T11:10:01Z</time>
      </trkpt>
      <trkpt lat="42.77375" lon="0.11152">
        <ele>2674.8</ele>
        <time>2017-02-21T11:10:06Z</time>
      </trkpt>
      <trkpt lat="42.77374" lon="0.1115">
        <ele>2678</ele>
        <time>2017-02-21T11:10:11Z</time>
      </trkpt>
      <trkpt lat="42.77373" lon="0.11147">
        <ele>2677.4</ele>
        <time>2017-02-21T11:10:16Z</time>
      </trkpt>
      <trkpt lat="42.77372" lon="0.11146">
        <ele>2677.8</ele>
        <time>2017-02-21T11:10:21Z</time>
      </trkpt>
      <trkpt lat="42.77372" lon="0.11144">
        <ele>2677</ele>
        <time>2017-02-21T11:10:26Z</time>
      </trkpt>
      <trkpt lat="42.77371" lon="0.11141">
        <ele>2675.8</ele>
        <time>2017-02-21T11:10:31Z</time>
      </trkpt>
      <trkpt lat="42.77369" lon="0.11138">
        <ele>2676.2</ele>
        <time>2017-02-21T11:10:36Z</time>
      </trkpt>
      <trkpt lat="42.77368" lon="0.11136">
        <ele>2676</ele>
        <time>2017-02-21T11:10:41Z</time>
      </trkpt>
      <trkpt lat="42.77367" lon="0.11134">
        <ele>2675.2</ele>
        <time>2017-02-21T11:10:46Z</time>
      </trkpt>
      <trkpt lat="42.77366" lon="0.1113">
        <ele>2677.8</ele>
        <time>2017-02-21T11:10:52Z</time>
      </trkpt>
      <trkpt lat="42.77365" lon="0.11128">
        <ele>2681.4</ele>
        <time>2017-02-21T11:10:57Z</time>
      </trkpt>
      <trkpt lat="42.77364" lon="0.11125">
        <ele>2683.4</ele>
        <time>2017-02-21T11:11:02Z</time>
      </trkpt>
      <trkpt lat="42.77363" lon="0.11123">
        <ele>2683</ele>
        <time>2017-02-21T11:11:07Z</time>
      </trkpt>
      <trkpt lat="42.77362" lon="0.11121">
        <ele>2685</ele>
        <time>2017-02-21T11:11:12Z</time>
      </trkpt>
      <trkpt lat="42.77361" lon="0.11119">
        <ele>2682</ele>
        <time>2017-02-21T11:11:17Z</time>
      </trkpt>
      <trkpt lat="42.7736" lon="0.11117">
        <ele>2679.6</ele>
        <time>2017-02-21T11:11:22Z</time>
      </trkpt>
      <trkpt lat="42.77358" lon="0.11115">
        <ele>2681.4</ele>
        <time>2017-02-21T11:11:27Z</time>
      </trkpt>
      <trkpt lat="42.77356" lon="0.11113">
        <ele>2681.2</ele>
        <time>2017-02-21T11:11:32Z</time>
      </trkpt>
      <trkpt lat="42.77355" lon="0.1111">
        <ele>2685.2</ele>
        <time>2017-02-21T11:11:37Z</time>
      </trkpt>
      <trkpt lat="42.77354" lon="0.11108">
        <ele>2685.2</ele>
        <time>2017-02-21T11:11:42Z</time>
      </trkpt>
      <trkpt lat="42.77353" lon="0.11106">
        <ele>2685.8</ele>
        <time>2017-02-21T11:11:47Z</time>
      </trkpt>
      <trkpt lat="42.77352" lon="0.11104">
        <ele>2685</ele>
        <time>2017-02-21T11:11:52Z</time>
      </trkpt>
      <trkpt lat="42.7735" lon="0.11102">
        <ele>2684.8</ele>
        <time>2017-02-21T11:11:57Z</time>
      </trkpt>
      <trkpt lat="42.77348" lon="0.111">
        <ele>2686.4</ele>
        <time>2017-02-21T11:12:02Z</time>
      </trkpt>
      <trkpt lat="42.77347" lon="0.11098">
        <ele>2688.2</ele>
        <time>2017-02-21T11:12:07Z</time>
      </trkpt>
      <trkpt lat="42.77346" lon="0.11098">
        <ele>2688.6</ele>
        <time>2017-02-21T11:12:12Z</time>
      </trkpt>
      <trkpt lat="42.77344" lon="0.11097">
        <ele>2688.8</ele>
        <time>2017-02-21T11:12:17Z</time>
      </trkpt>
      <trkpt lat="42.77344" lon="0.111">
        <ele>2687</ele>
        <time>2017-02-21T11:12:22Z</time>
      </trkpt>
      <trkpt lat="42.77345" lon="0.11103">
        <ele>2692.8</ele>
        <time>2017-02-21T11:12:27Z</time>
      </trkpt>
      <trkpt lat="42.77345" lon="0.11106">
        <ele>2691.4</ele>
        <time>2017-02-21T11:12:32Z</time>
      </trkpt>
      <trkpt lat="42.77345" lon="0.11108">
        <ele>2693.8</ele>
        <time>2017-02-21T11:12:37Z</time>
      </trkpt>
      <trkpt lat="42.77344" lon="0.1111">
        <ele>2695.4</ele>
        <time>2017-02-21T11:12:42Z</time>
      </trkpt>
      <trkpt lat="42.77343" lon="0.11112">
        <ele>2690.2</ele>
        <time>2017-02-21T11:12:47Z</time>
      </trkpt>
      <trkpt lat="42.77343" lon="0.11114">
        <ele>2690.8</ele>
        <time>2017-02-21T11:12:52Z</time>
      </trkpt>
      <trkpt lat="42.77342" lon="0.11116">
        <ele>2691.6</ele>
        <time>2017-02-21T11:12:57Z</time>
      </trkpt>
      <trkpt lat="42.77342" lon="0.11119">
        <ele>2693.8</ele>
        <time>2017-02-21T11:13:02Z</time>
      </trkpt>
      <trkpt lat="42.77341" lon="0.11121">
        <ele>2695.4</ele>
        <time>2017-02-21T11:13:07Z</time>
      </trkpt>
      <trkpt lat="42.7734" lon="0.11124">
        <ele>2696</ele>
        <time>2017-02-21T11:13:12Z</time>
      </trkpt>
      <trkpt lat="42.7734" lon="0.11126">
        <ele>2696.4</ele>
        <time>2017-02-21T11:13:17Z</time>
      </trkpt>
      <trkpt lat="42.7734" lon="0.11128">
        <ele>2696.2</ele>
        <time>2017-02-21T11:13:22Z</time>
      </trkpt>
      <trkpt lat="42.7734" lon="0.11128">
        <ele>2696</ele>
        <time>2017-02-21T11:13:27Z</time>
      </trkpt>
      <trkpt lat="42.77339" lon="0.11128">
        <ele>2697.2</ele>
        <time>2017-02-21T11:13:32Z</time>
      </trkpt>
      <trkpt lat="42.77339" lon="0.11129">
        <ele>2696.6</ele>
        <time>2017-02-21T11:13:37Z</time>
      </trkpt>
      <trkpt lat="42.77338" lon="0.1113">
        <ele>2697.8</ele>
        <time>2017-02-21T11:13:42Z</time>
      </trkpt>
      <trkpt lat="42.77337" lon="0.11127">
        <ele>2696.8</ele>
        <time>2017-02-21T11:13:47Z</time>
      </trkpt>
      <trkpt lat="42.77336" lon="0.11125">
        <ele>2699</ele>
        <time>2017-02-21T11:13:52Z</time>
      </trkpt>
      <trkpt lat="42.77335" lon="0.11123">
        <ele>2695.2</ele>
        <time>2017-02-21T11:13:57Z</time>
      </trkpt>
      <trkpt lat="42.77334" lon="0.11121">
        <ele>2695.8</ele>
        <time>2017-02-21T11:14:02Z</time>
      </trkpt>
      <trkpt lat="42.77333" lon="0.11121">
        <ele>2696.4</ele>
        <time>2017-02-21T11:14:07Z</time>
      </trkpt>
      <trkpt lat="42.77333" lon="0.1112">
        <ele>2696.8</ele>
        <time>2017-02-21T11:14:12Z</time>
      </trkpt>
      <trkpt lat="42.77333" lon="0.1112">
        <ele>2697.2</ele>
        <time>2017-02-21T11:14:17Z</time>
      </trkpt>
      <trkpt lat="42.77332" lon="0.1112">
        <ele>2697.4</ele>
        <time>2017-02-21T11:14:22Z</time>
      </trkpt>
      <trkpt lat="42.77332" lon="0.11118">
        <ele>2698.4</ele>
        <time>2017-02-21T11:14:27Z</time>
      </trkpt>
      <trkpt lat="42.77332" lon="0.11118">
        <ele>2698.4</ele>
        <time>2017-02-21T11:14:32Z</time>
      </trkpt>
      <trkpt lat="42.77331" lon="0.11118">
        <ele>2698.2</ele>
        <time>2017-02-21T11:14:37Z</time>
      </trkpt>
      <trkpt lat="42.7733" lon="0.11116">
        <ele>2698.8</ele>
        <time>2017-02-21T11:14:42Z</time>
      </trkpt>
      <trkpt lat="42.77329" lon="0.11115">
        <ele>2698.6</ele>
        <time>2017-02-21T11:14:47Z</time>
      </trkpt>
      <trkpt lat="42.77327" lon="0.11112">
        <ele>2703.8</ele>
        <time>2017-02-21T11:14:52Z</time>
      </trkpt>
      <trkpt lat="42.77327" lon="0.11113">
        <ele>2700.2</ele>
        <time>2017-02-21T11:14:57Z</time>
      </trkpt>
      <trkpt lat="42.77327" lon="0.11113">
        <ele>2700</ele>
        <time>2017-02-21T11:15:02Z</time>
      </trkpt>
      <trkpt lat="42.77327" lon="0.11113">
        <ele>2699.8</ele>
        <time>2017-02-21T11:15:07Z</time>
      </trkpt>
      <trkpt lat="42.77327" lon="0.11113">
        <ele>2699.8</ele>
        <time>2017-02-21T11:15:12Z</time>
      </trkpt>
      <trkpt lat="42.77327" lon="0.11113">
        <ele>2699.6</ele>
        <time>2017-02-21T11:15:17Z</time>
      </trkpt>
      <trkpt lat="42.77327" lon="0.11112">
        <ele>2699.6</ele>
        <time>2017-02-21T11:15:22Z</time>
      </trkpt>
      <trkpt lat="42.77327" lon="0.11112">
        <ele>2699.6</ele>
        <time>2017-02-21T11:15:27Z</time>
      </trkpt>
      <trkpt lat="42.77327" lon="0.11112">
        <ele>2699.4</ele>
        <time>2017-02-21T11:15:32Z</time>
      </trkpt>
      <trkpt lat="42.77327" lon="0.11112">
        <ele>2699.4</ele>
        <time>2017-02-21T11:15:37Z</time>
      </trkpt>
      <trkpt lat="42.77327" lon="0.11111">
        <ele>2699.4</ele>
        <time>2017-02-21T11:15:42Z</time>
      </trkpt>
      <trkpt lat="42.77327" lon="0.11111">
        <ele>2699.4</ele>
        <time>2017-02-21T11:15:47Z</time>
      </trkpt>
      <trkpt lat="42.77327" lon="0.11111">
        <ele>2699.4</ele>
        <time>2017-02-21T11:15:52Z</time>
      </trkpt>
      <trkpt lat="42.77327" lon="0.11111">
        <ele>2699.4</ele>
        <time>2017-02-21T11:15:57Z</time>
      </trkpt>
      <trkpt lat="42.77327" lon="0.11112">
        <ele>2699.4</ele>
        <time>2017-02-21T11:16:02Z</time>
      </trkpt>
      <trkpt lat="42.77327" lon="0.11112">
        <ele>2699.4</ele>
        <time>2017-02-21T11:16:07Z</time>
      </trkpt>
      <trkpt lat="42.77327" lon="0.11112">
        <ele>2699.4</ele>
        <time>2017-02-21T11:16:12Z</time>
      </trkpt>
      <trkpt lat="42.77327" lon="0.11112">
        <ele>2699.4</ele>
        <time>2017-02-21T11:16:17Z</time>
      </trkpt>
      <trkpt lat="42.77327" lon="0.11112">
        <ele>2699.4</ele>
        <time>2017-02-21T11:16:22Z</time>
      </trkpt>
      <trkpt lat="42.77327" lon="0.11112">
        <ele>2699.4</ele>
        <time>2017-02-21T11:16:27Z</time>
      </trkpt>
      <trkpt lat="42.77327" lon="0.11112">
        <ele>2699.4</ele>
        <time>2017-02-21T11:16:32Z</time>
      </trkpt>
      <trkpt lat="42.77327" lon="0.11112">
        <ele>2699.4</ele>
        <time>2017-02-21T11:16:37Z</time>
      </trkpt>
      <trkpt lat="42.77327" lon="0.11112">
        <ele>2699.4</ele>
        <time>2017-02-21T11:16:42Z</time>
      </trkpt>
      <trkpt lat="42.77327" lon="0.11112">
        <ele>2699.4</ele>
        <time>2017-02-21T11:16:47Z</time>
      </trkpt>
      <trkpt lat="42.77327" lon="0.11112">
        <ele>2699.4</ele>
        <time>2017-02-21T11:16:52Z</time>
      </trkpt>
      <trkpt lat="42.77327" lon="0.11112">
        <ele>2699.4</ele>
        <time>2017-02-21T11:16:57Z</time>
      </trkpt>
      <trkpt lat="42.77327" lon="0.11111">
        <ele>2699.4</ele>
        <time>2017-02-21T11:17:02Z</time>
      </trkpt>
      <trkpt lat="42.77327" lon="0.11111">
        <ele>2699.4</ele>
        <time>2017-02-21T11:17:07Z</time>
      </trkpt>
      <trkpt lat="42.77326" lon="0.1111">
        <ele>2699.4</ele>
        <time>2017-02-21T11:17:12Z</time>
      </trkpt>
      <trkpt lat="42.77326" lon="0.1111">
        <ele>2699.4</ele>
        <time>2017-02-21T11:17:17Z</time>
      </trkpt>
      <trkpt lat="42.77326" lon="0.1111">
        <ele>2699.4</ele>
        <time>2017-02-21T11:17:22Z</time>
      </trkpt>
      <trkpt lat="42.77326" lon="0.1111">
        <ele>2699.4</ele>
        <time>2017-02-21T11:17:27Z</time>
      </trkpt>
      <trkpt lat="42.77326" lon="0.1111">
        <ele>2699.4</ele>
        <time>2017-02-21T11:17:32Z</time>
      </trkpt>
      <trkpt lat="42.77326" lon="0.1111">
        <ele>2699.4</ele>
        <time>2017-02-21T11:17:37Z</time>
      </trkpt>
      <trkpt lat="42.77326" lon="0.11109">
        <ele>2699.4</ele>
        <time>2017-02-21T11:17:42Z</time>
      </trkpt>
      <trkpt lat="42.77326" lon="0.1111">
        <ele>2699.4</ele>
        <time>2017-02-21T11:17:47Z</time>
      </trkpt>
      <trkpt lat="42.77326" lon="0.1111">
        <ele>2699.4</ele>
        <time>2017-02-21T11:17:52Z</time>
      </trkpt>
      <trkpt lat="42.77326" lon="0.11109">
        <ele>2699.4</ele>
        <time>2017-02-21T11:17:57Z</time>
      </trkpt>
      <trkpt lat="42.77326" lon="0.11109">
        <ele>2699.6</ele>
        <time>2017-02-21T11:18:02Z</time>
      </trkpt>
      <trkpt lat="42.77327" lon="0.11109">
        <ele>2699.8</ele>
        <time>2017-02-21T11:18:07Z</time>
      </trkpt>
      <trkpt lat="42.77327" lon="0.11109">
        <ele>2699.8</ele>
        <time>2017-02-21T11:18:12Z</time>
      </trkpt>
      <trkpt lat="42.77327" lon="0.11109">
        <ele>2700</ele>
        <time>2017-02-21T11:18:17Z</time>
      </trkpt>
      <trkpt lat="42.77327" lon="0.11109">
        <ele>2700</ele>
        <time>2017-02-21T11:18:22Z</time>
      </trkpt>
      <trkpt lat="42.77326" lon="0.11108">
        <ele>2701.4</ele>
        <time>2017-02-21T11:18:27Z</time>
      </trkpt>
      <trkpt lat="42.77325" lon="0.11107">
        <ele>2700.4</ele>
        <time>2017-02-21T11:18:32Z</time>
      </trkpt>
      <trkpt lat="42.77325" lon="0.11107">
        <ele>2700.6</ele>
        <time>2017-02-21T11:18:37Z</time>
      </trkpt>
      <trkpt lat="42.77325" lon="0.11107">
        <ele>2700.8</ele>
        <time>2017-02-21T11:18:43Z</time>
      </trkpt>
      <trkpt lat="42.77325" lon="0.11106">
        <ele>2701.2</ele>
        <time>2017-02-21T11:18:49Z</time>
      </trkpt>
      <trkpt lat="42.77324" lon="0.11105">
        <ele>2701.2</ele>
        <time>2017-02-21T11:18:54Z</time>
      </trkpt>
      <trkpt lat="42.77324" lon="0.11106">
        <ele>2701.4</ele>
        <time>2017-02-21T11:18:59Z</time>
      </trkpt>
      <trkpt lat="42.77324" lon="0.11106">
        <ele>2701.4</ele>
        <time>2017-02-21T11:19:04Z</time>
      </trkpt>
      <trkpt lat="42.77324" lon="0.11106">
        <ele>2701.4</ele>
        <time>2017-02-21T11:19:09Z</time>
      </trkpt>
      <trkpt lat="42.77324" lon="0.11106">
        <ele>2701.4</ele>
        <time>2017-02-21T11:19:14Z</time>
      </trkpt>
      <trkpt lat="42.77324" lon="0.11106">
        <ele>2701.4</ele>
        <time>2017-02-21T11:19:19Z</time>
      </trkpt>
      <trkpt lat="42.77324" lon="0.11106">
        <ele>2701.2</ele>
        <time>2017-02-21T11:19:24Z</time>
      </trkpt>
      <trkpt lat="42.77324" lon="0.11106">
        <ele>2700.8</ele>
        <time>2017-02-21T11:19:29Z</time>
      </trkpt>
      <trkpt lat="42.77323" lon="0.11106">
        <ele>2699</ele>
        <time>2017-02-21T11:19:34Z</time>
      </trkpt>
      <trkpt lat="42.77323" lon="0.11106">
        <ele>2699.8</ele>
        <time>2017-02-21T11:19:39Z</time>
      </trkpt>
      <trkpt lat="42.77322" lon="0.11106">
        <ele>2700.8</ele>
        <time>2017-02-21T11:19:44Z</time>
      </trkpt>
      <trkpt lat="42.77321" lon="0.11105">
        <ele>2700.6</ele>
        <time>2017-02-21T11:19:49Z</time>
      </trkpt>
      <trkpt lat="42.7732" lon="0.11104">
        <ele>2700.2</ele>
        <time>2017-02-21T11:19:54Z</time>
      </trkpt>
      <trkpt lat="42.77318" lon="0.11103">
        <ele>2699.8</ele>
        <time>2017-02-21T11:19:59Z</time>
      </trkpt>
      <trkpt lat="42.77317" lon="0.11104">
        <ele>2701.6</ele>
        <time>2017-02-21T11:20:04Z</time>
      </trkpt>
      <trkpt lat="42.77317" lon="0.11106">
        <ele>2702.6</ele>
        <time>2017-02-21T11:20:09Z</time>
      </trkpt>
      <trkpt lat="42.77317" lon="0.11109">
        <ele>2703.6</ele>
        <time>2017-02-21T11:20:14Z</time>
      </trkpt>
      <trkpt lat="42.77317" lon="0.11112">
        <ele>2703.4</ele>
        <time>2017-02-21T11:20:19Z</time>
      </trkpt>
      <trkpt lat="42.77318" lon="0.11116">
        <ele>2703.6</ele>
        <time>2017-02-21T11:20:24Z</time>
      </trkpt>
      <trkpt lat="42.77318" lon="0.11118">
        <ele>2707.8</ele>
        <time>2017-02-21T11:20:29Z</time>
      </trkpt>
      <trkpt lat="42.77318" lon="0.11122">
        <ele>2708</ele>
        <time>2017-02-21T11:20:34Z</time>
      </trkpt>
      <trkpt lat="42.77318" lon="0.11124">
        <ele>2711.6</ele>
        <time>2017-02-21T11:20:39Z</time>
      </trkpt>
      <trkpt lat="42.77317" lon="0.11127">
        <ele>2709.2</ele>
        <time>2017-02-21T11:20:44Z</time>
      </trkpt>
      <trkpt lat="42.77316" lon="0.11129">
        <ele>2706.4</ele>
        <time>2017-02-21T11:20:49Z</time>
      </trkpt>
      <trkpt lat="42.77316" lon="0.11133">
        <ele>2712</ele>
        <time>2017-02-21T11:20:54Z</time>
      </trkpt>
      <trkpt lat="42.77316" lon="0.11135">
        <ele>2709.6</ele>
        <time>2017-02-21T11:20:59Z</time>
      </trkpt>
      <trkpt lat="42.77315" lon="0.11137">
        <ele>2708.8</ele>
        <time>2017-02-21T11:21:04Z</time>
      </trkpt>
      <trkpt lat="42.77315" lon="0.1114">
        <ele>2708.8</ele>
        <time>2017-02-21T11:21:09Z</time>
      </trkpt>
      <trkpt lat="42.77314" lon="0.1114">
        <ele>2709.6</ele>
        <time>2017-02-21T11:21:14Z</time>
      </trkpt>
      <trkpt lat="42.77314" lon="0.1114">
        <ele>2710.2</ele>
        <time>2017-02-21T11:21:19Z</time>
      </trkpt>
      <trkpt lat="42.77314" lon="0.1114">
        <ele>2711.2</ele>
        <time>2017-02-21T11:21:24Z</time>
      </trkpt>
      <trkpt lat="42.77312" lon="0.11138">
        <ele>2711</ele>
        <time>2017-02-21T11:21:29Z</time>
      </trkpt>
      <trkpt lat="42.77311" lon="0.11138">
        <ele>2709.2</ele>
        <time>2017-02-21T11:21:34Z</time>
      </trkpt>
      <trkpt lat="42.7731" lon="0.11137">
        <ele>2706.8</ele>
        <time>2017-02-21T11:21:39Z</time>
      </trkpt>
      <trkpt lat="42.77309" lon="0.11135">
        <ele>2710.2</ele>
        <time>2017-02-21T11:21:44Z</time>
      </trkpt>
      <trkpt lat="42.77307" lon="0.11133">
        <ele>2706.6</ele>
        <time>2017-02-21T11:21:49Z</time>
      </trkpt>
      <trkpt lat="42.77306" lon="0.11131">
        <ele>2711</ele>
        <time>2017-02-21T11:21:54Z</time>
      </trkpt>
      <trkpt lat="42.77306" lon="0.1113">
        <ele>2712</ele>
        <time>2017-02-21T11:21:59Z</time>
      </trkpt>
      <trkpt lat="42.77304" lon="0.11129">
        <ele>2712</ele>
        <time>2017-02-21T11:22:04Z</time>
      </trkpt>
      <trkpt lat="42.77303" lon="0.11129">
        <ele>2715</ele>
        <time>2017-02-21T11:22:09Z</time>
      </trkpt>
      <trkpt lat="42.77302" lon="0.11128">
        <ele>2714.8</ele>
        <time>2017-02-21T11:22:14Z</time>
      </trkpt>
      <trkpt lat="42.773" lon="0.11126">
        <ele>2715.2</ele>
        <time>2017-02-21T11:22:19Z</time>
      </trkpt>
      <trkpt lat="42.77299" lon="0.11126">
        <ele>2715</ele>
        <time>2017-02-21T11:22:24Z</time>
      </trkpt>
      <trkpt lat="42.77299" lon="0.11126">
        <ele>2715.4</ele>
        <time>2017-02-21T11:22:29Z</time>
      </trkpt>
      <trkpt lat="42.77299" lon="0.11126">
        <ele>2715.4</ele>
        <time>2017-02-21T11:22:34Z</time>
      </trkpt>
      <trkpt lat="42.77298" lon="0.11125">
        <ele>2714.8</ele>
        <time>2017-02-21T11:22:39Z</time>
      </trkpt>
      <trkpt lat="42.77296" lon="0.11123">
        <ele>2716</ele>
        <time>2017-02-21T11:22:44Z</time>
      </trkpt>
      <trkpt lat="42.77294" lon="0.11122">
        <ele>2716.6</ele>
        <time>2017-02-21T11:22:49Z</time>
      </trkpt>
      <trkpt lat="42.77292" lon="0.11121">
        <ele>2716.4</ele>
        <time>2017-02-21T11:22:54Z</time>
      </trkpt>
      <trkpt lat="42.77291" lon="0.1112">
        <ele>2718.4</ele>
        <time>2017-02-21T11:22:59Z</time>
      </trkpt>
      <trkpt lat="42.77289" lon="0.11119">
        <ele>2718.6</ele>
        <time>2017-02-21T11:23:04Z</time>
      </trkpt>
      <trkpt lat="42.77288" lon="0.11119">
        <ele>2719.4</ele>
        <time>2017-02-21T11:23:09Z</time>
      </trkpt>
      <trkpt lat="42.77287" lon="0.11118">
        <ele>2719.6</ele>
        <time>2017-02-21T11:23:14Z</time>
      </trkpt>
      <trkpt lat="42.77285" lon="0.11117">
        <ele>2719.8</ele>
        <time>2017-02-21T11:23:19Z</time>
      </trkpt>
      <trkpt lat="42.77283" lon="0.11116">
        <ele>2718</ele>
        <time>2017-02-21T11:23:24Z</time>
      </trkpt>
      <trkpt lat="42.77282" lon="0.11115">
        <ele>2719</ele>
        <time>2017-02-21T11:23:29Z</time>
      </trkpt>
      <trkpt lat="42.7728" lon="0.11115">
        <ele>2721</ele>
        <time>2017-02-21T11:23:34Z</time>
      </trkpt>
      <trkpt lat="42.77278" lon="0.11114">
        <ele>2720.8</ele>
        <time>2017-02-21T11:23:39Z</time>
      </trkpt>
      <trkpt lat="42.77276" lon="0.11113">
        <ele>2719.2</ele>
        <time>2017-02-21T11:23:44Z</time>
      </trkpt>
      <trkpt lat="42.77274" lon="0.11113">
        <ele>2721.4</ele>
        <time>2017-02-21T11:23:49Z</time>
      </trkpt>
      <trkpt lat="42.77272" lon="0.11113">
        <ele>2722.4</ele>
        <time>2017-02-21T11:23:54Z</time>
      </trkpt>
      <trkpt lat="42.7727" lon="0.11112">
        <ele>2725</ele>
        <time>2017-02-21T11:23:59Z</time>
      </trkpt>
      <trkpt lat="42.77268" lon="0.11112">
        <ele>2725</ele>
        <time>2017-02-21T11:24:04Z</time>
      </trkpt>
      <trkpt lat="42.77266" lon="0.11112">
        <ele>2723.8</ele>
        <time>2017-02-21T11:24:09Z</time>
      </trkpt>
      <trkpt lat="42.77266" lon="0.11112">
        <ele>2726.6</ele>
        <time>2017-02-21T11:24:14Z</time>
      </trkpt>
      <trkpt lat="42.77266" lon="0.11112">
        <ele>2726.4</ele>
        <time>2017-02-21T11:24:19Z</time>
      </trkpt>
      <trkpt lat="42.77266" lon="0.11112">
        <ele>2726.4</ele>
        <time>2017-02-21T11:24:24Z</time>
      </trkpt>
      <trkpt lat="42.77265" lon="0.11112">
        <ele>2726.4</ele>
        <time>2017-02-21T11:24:29Z</time>
      </trkpt>
      <trkpt lat="42.77265" lon="0.11113">
        <ele>2727</ele>
        <time>2017-02-21T11:24:34Z</time>
      </trkpt>
      <trkpt lat="42.77266" lon="0.11115">
        <ele>2723.4</ele>
        <time>2017-02-21T11:24:39Z</time>
      </trkpt>
      <trkpt lat="42.77266" lon="0.11116">
        <ele>2725.4</ele>
        <time>2017-02-21T11:24:44Z</time>
      </trkpt>
      <trkpt lat="42.77267" lon="0.11118">
        <ele>2727.4</ele>
        <time>2017-02-21T11:24:49Z</time>
      </trkpt>
      <trkpt lat="42.77268" lon="0.11121">
        <ele>2727.8</ele>
        <time>2017-02-21T11:24:54Z</time>
      </trkpt>
      <trkpt lat="42.7727" lon="0.11124">
        <ele>2731</ele>
        <time>2017-02-21T11:24:59Z</time>
      </trkpt>
      <trkpt lat="42.77271" lon="0.11127">
        <ele>2729.6</ele>
        <time>2017-02-21T11:25:04Z</time>
      </trkpt>
      <trkpt lat="42.77272" lon="0.11129">
        <ele>2730.2</ele>
        <time>2017-02-21T11:25:09Z</time>
      </trkpt>
      <trkpt lat="42.77273" lon="0.11132">
        <ele>2732</ele>
        <time>2017-02-21T11:25:14Z</time>
      </trkpt>
      <trkpt lat="42.77274" lon="0.11135">
        <ele>2730.6</ele>
        <time>2017-02-21T11:25:19Z</time>
      </trkpt>
      <trkpt lat="42.77274" lon="0.11137">
        <ele>2729.4</ele>
        <time>2017-02-21T11:25:24Z</time>
      </trkpt>
      <trkpt lat="42.77275" lon="0.1114">
        <ele>2733.2</ele>
        <time>2017-02-21T11:25:29Z</time>
      </trkpt>
      <trkpt lat="42.77275" lon="0.11143">
        <ele>2730.2</ele>
        <time>2017-02-21T11:25:34Z</time>
      </trkpt>
      <trkpt lat="42.77275" lon="0.11146">
        <ele>2728.6</ele>
        <time>2017-02-21T11:25:39Z</time>
      </trkpt>
      <trkpt lat="42.77274" lon="0.11146">
        <ele>2731</ele>
        <time>2017-02-21T11:25:44Z</time>
      </trkpt>
      <trkpt lat="42.77272" lon="0.11145">
        <ele>2731.6</ele>
        <time>2017-02-21T11:25:49Z</time>
      </trkpt>
      <trkpt lat="42.7727" lon="0.11143">
        <ele>2731.4</ele>
        <time>2017-02-21T11:25:54Z</time>
      </trkpt>
      <trkpt lat="42.77267" lon="0.11142">
        <ele>2732.8</ele>
        <time>2017-02-21T11:25:59Z</time>
      </trkpt>
      <trkpt lat="42.77265" lon="0.11141">
        <ele>2732.2</ele>
        <time>2017-02-21T11:26:04Z</time>
      </trkpt>
      <trkpt lat="42.77263" lon="0.1114">
        <ele>2733.4</ele>
        <time>2017-02-21T11:26:09Z</time>
      </trkpt>
      <trkpt lat="42.77261" lon="0.1114">
        <ele>2733.6</ele>
        <time>2017-02-21T11:26:14Z</time>
      </trkpt>
      <trkpt lat="42.77259" lon="0.11139">
        <ele>2733.8</ele>
        <time>2017-02-21T11:26:19Z</time>
      </trkpt>
      <trkpt lat="42.77257" lon="0.11139">
        <ele>2734.2</ele>
        <time>2017-02-21T11:26:24Z</time>
      </trkpt>
      <trkpt lat="42.77255" lon="0.11139">
        <ele>2734.2</ele>
        <time>2017-02-21T11:26:29Z</time>
      </trkpt>
      <trkpt lat="42.77252" lon="0.11138">
        <ele>2735.8</ele>
        <time>2017-02-21T11:26:34Z</time>
      </trkpt>
      <trkpt lat="42.7725" lon="0.11138">
        <ele>2735.4</ele>
        <time>2017-02-21T11:26:39Z</time>
      </trkpt>
      <trkpt lat="42.77248" lon="0.11137">
        <ele>2740.4</ele>
        <time>2017-02-21T11:26:44Z</time>
      </trkpt>
      <trkpt lat="42.77249" lon="0.11139">
        <ele>2740.2</ele>
        <time>2017-02-21T11:26:49Z</time>
      </trkpt>
      <trkpt lat="42.7725" lon="0.11142">
        <ele>2738.2</ele>
        <time>2017-02-21T11:26:54Z</time>
      </trkpt>
      <trkpt lat="42.77252" lon="0.11145">
        <ele>2739.8</ele>
        <time>2017-02-21T11:26:59Z</time>
      </trkpt>
      <trkpt lat="42.77253" lon="0.11147">
        <ele>2743.4</ele>
        <time>2017-02-21T11:27:04Z</time>
      </trkpt>
      <trkpt lat="42.77255" lon="0.1115">
        <ele>2741.4</ele>
        <time>2017-02-21T11:27:09Z</time>
      </trkpt>
      <trkpt lat="42.77256" lon="0.11153">
        <ele>2741.4</ele>
        <time>2017-02-21T11:27:14Z</time>
      </trkpt>
      <trkpt lat="42.77257" lon="0.11155">
        <ele>2740.4</ele>
        <time>2017-02-21T11:27:19Z</time>
      </trkpt>
      <trkpt lat="42.77258" lon="0.11158">
        <ele>2741.2</ele>
        <time>2017-02-21T11:27:24Z</time>
      </trkpt>
      <trkpt lat="42.77259" lon="0.1116">
        <ele>2741</ele>
        <time>2017-02-21T11:27:29Z</time>
      </trkpt>
      <trkpt lat="42.7726" lon="0.11162">
        <ele>2742.2</ele>
        <time>2017-02-21T11:27:34Z</time>
      </trkpt>
      <trkpt lat="42.7726" lon="0.11165">
        <ele>2743.2</ele>
        <time>2017-02-21T11:27:39Z</time>
      </trkpt>
      <trkpt lat="42.77261" lon="0.11167">
        <ele>2746.2</ele>
        <time>2017-02-21T11:27:44Z</time>
      </trkpt>
      <trkpt lat="42.77261" lon="0.1117">
        <ele>2744.8</ele>
        <time>2017-02-21T11:27:49Z</time>
      </trkpt>
      <trkpt lat="42.77262" lon="0.11171">
        <ele>2746.6</ele>
        <time>2017-02-21T11:27:54Z</time>
      </trkpt>
      <trkpt lat="42.77262" lon="0.11174">
        <ele>2749.4</ele>
        <time>2017-02-21T11:27:59Z</time>
      </trkpt>
      <trkpt lat="42.77262" lon="0.11176">
        <ele>2750.2</ele>
        <time>2017-02-21T11:28:04Z</time>
      </trkpt>
      <trkpt lat="42.77262" lon="0.11179">
        <ele>2748.4</ele>
        <time>2017-02-21T11:28:09Z</time>
      </trkpt>
      <trkpt lat="42.7726" lon="0.1118">
        <ele>2752.2</ele>
        <time>2017-02-21T11:28:15Z</time>
      </trkpt>
      <trkpt lat="42.77259" lon="0.1118">
        <ele>2751.6</ele>
        <time>2017-02-21T11:28:21Z</time>
      </trkpt>
      <trkpt lat="42.77259" lon="0.1118">
        <ele>2750.8</ele>
        <time>2017-02-21T11:28:26Z</time>
      </trkpt>
      <trkpt lat="42.77259" lon="0.1118">
        <ele>2750.2</ele>
        <time>2017-02-21T11:28:31Z</time>
      </trkpt>
      <trkpt lat="42.77258" lon="0.1118">
        <ele>2749.6</ele>
        <time>2017-02-21T11:28:36Z</time>
      </trkpt>
      <trkpt lat="42.77256" lon="0.11178">
        <ele>2749</ele>
        <time>2017-02-21T11:28:41Z</time>
      </trkpt>
      <trkpt lat="42.77255" lon="0.11177">
        <ele>2748.8</ele>
        <time>2017-02-21T11:28:46Z</time>
      </trkpt>
      <trkpt lat="42.77253" lon="0.11175">
        <ele>2750.4</ele>
        <time>2017-02-21T11:28:51Z</time>
      </trkpt>
      <trkpt lat="42.77251" lon="0.11174">
        <ele>2752</ele>
        <time>2017-02-21T11:28:56Z</time>
      </trkpt>
      <trkpt lat="42.77249" lon="0.11173">
        <ele>2752.2</ele>
        <time>2017-02-21T11:29:01Z</time>
      </trkpt>
      <trkpt lat="42.77248" lon="0.11172">
        <ele>2747.6</ele>
        <time>2017-02-21T11:29:06Z</time>
      </trkpt>
      <trkpt lat="42.77246" lon="0.11172">
        <ele>2750.4</ele>
        <time>2017-02-21T11:29:11Z</time>
      </trkpt>
      <trkpt lat="42.77244" lon="0.11171">
        <ele>2751.2</ele>
        <time>2017-02-21T11:29:16Z</time>
      </trkpt>
      <trkpt lat="42.77242" lon="0.11171">
        <ele>2751.2</ele>
        <time>2017-02-21T11:29:21Z</time>
      </trkpt>
      <trkpt lat="42.77241" lon="0.11171">
        <ele>2751.6</ele>
        <time>2017-02-21T11:29:26Z</time>
      </trkpt>
      <trkpt lat="42.77241" lon="0.1117">
        <ele>2750.2</ele>
        <time>2017-02-21T11:29:31Z</time>
      </trkpt>
      <trkpt lat="42.77238" lon="0.11169">
        <ele>2750.4</ele>
        <time>2017-02-21T11:29:36Z</time>
      </trkpt>
      <trkpt lat="42.77236" lon="0.11169">
        <ele>2749.2</ele>
        <time>2017-02-21T11:29:41Z</time>
      </trkpt>
      <trkpt lat="42.77235" lon="0.11168">
        <ele>2750.4</ele>
        <time>2017-02-21T11:29:46Z</time>
      </trkpt>
      <trkpt lat="42.77233" lon="0.11167">
        <ele>2749</ele>
        <time>2017-02-21T11:29:51Z</time>
      </trkpt>
      <trkpt lat="42.77231" lon="0.11167">
        <ele>2750.6</ele>
        <time>2017-02-21T11:29:56Z</time>
      </trkpt>
      <trkpt lat="42.77229" lon="0.11166">
        <ele>2755</ele>
        <time>2017-02-21T11:30:01Z</time>
      </trkpt>
      <trkpt lat="42.77227" lon="0.11165">
        <ele>2752.2</ele>
        <time>2017-02-21T11:30:06Z</time>
      </trkpt>
      <trkpt lat="42.77227" lon="0.11166">
        <ele>2752.8</ele>
        <time>2017-02-21T11:30:11Z</time>
      </trkpt>
      <trkpt lat="42.77227" lon="0.11166">
        <ele>2753.8</ele>
        <time>2017-02-21T11:30:16Z</time>
      </trkpt>
      <trkpt lat="42.77227" lon="0.11166">
        <ele>2754.6</ele>
        <time>2017-02-21T11:30:21Z</time>
      </trkpt>
      <trkpt lat="42.77227" lon="0.11166">
        <ele>2755</ele>
        <time>2017-02-21T11:30:26Z</time>
      </trkpt>
      <trkpt lat="42.77228" lon="0.11167">
        <ele>2756.6</ele>
        <time>2017-02-21T11:30:31Z</time>
      </trkpt>
      <trkpt lat="42.7723" lon="0.11169">
        <ele>2756.4</ele>
        <time>2017-02-21T11:30:36Z</time>
      </trkpt>
      <trkpt lat="42.77231" lon="0.1117">
        <ele>2757.2</ele>
        <time>2017-02-21T11:30:41Z</time>
      </trkpt>
      <trkpt lat="42.77231" lon="0.1117">
        <ele>2757.2</ele>
        <time>2017-02-21T11:30:46Z</time>
      </trkpt>
      <trkpt lat="42.77231" lon="0.1117">
        <ele>2757.4</ele>
        <time>2017-02-21T11:30:51Z</time>
      </trkpt>
      <trkpt lat="42.77232" lon="0.11173">
        <ele>2759</ele>
        <time>2017-02-21T11:30:56Z</time>
      </trkpt>
      <trkpt lat="42.77233" lon="0.11175">
        <ele>2761.2</ele>
        <time>2017-02-21T11:31:01Z</time>
      </trkpt>
      <trkpt lat="42.77233" lon="0.11178">
        <ele>2759</ele>
        <time>2017-02-21T11:31:06Z</time>
      </trkpt>
      <trkpt lat="42.77234" lon="0.1118">
        <ele>2761.4</ele>
        <time>2017-02-21T11:31:11Z</time>
      </trkpt>
      <trkpt lat="42.77235" lon="0.11184">
        <ele>2762.6</ele>
        <time>2017-02-21T11:31:16Z</time>
      </trkpt>
      <trkpt lat="42.77235" lon="0.11187">
        <ele>2761</ele>
        <time>2017-02-21T11:31:21Z</time>
      </trkpt>
      <trkpt lat="42.77235" lon="0.1119">
        <ele>2763.2</ele>
        <time>2017-02-21T11:31:27Z</time>
      </trkpt>
      <trkpt lat="42.77235" lon="0.11193">
        <ele>2763.4</ele>
        <time>2017-02-21T11:31:32Z</time>
      </trkpt>
      <trkpt lat="42.77234" lon="0.11194">
        <ele>2765.2</ele>
        <time>2017-02-21T11:31:37Z</time>
      </trkpt>
      <trkpt lat="42.77232" lon="0.11192">
        <ele>2765.6</ele>
        <time>2017-02-21T11:31:42Z</time>
      </trkpt>
      <trkpt lat="42.7723" lon="0.11191">
        <ele>2760</ele>
        <time>2017-02-21T11:31:47Z</time>
      </trkpt>
      <trkpt lat="42.77229" lon="0.1119">
        <ele>2757.6</ele>
        <time>2017-02-21T11:31:52Z</time>
      </trkpt>
      <trkpt lat="42.77227" lon="0.11189">
        <ele>2759</ele>
        <time>2017-02-21T11:31:57Z</time>
      </trkpt>
      <trkpt lat="42.77225" lon="0.11188">
        <ele>2762.6</ele>
        <time>2017-02-21T11:32:02Z</time>
      </trkpt>
      <trkpt lat="42.77224" lon="0.11188">
        <ele>2763.4</ele>
        <time>2017-02-21T11:32:07Z</time>
      </trkpt>
      <trkpt lat="42.77222" lon="0.11187">
        <ele>2764.8</ele>
        <time>2017-02-21T11:32:12Z</time>
      </trkpt>
      <trkpt lat="42.7722" lon="0.11187">
        <ele>2763.6</ele>
        <time>2017-02-21T11:32:17Z</time>
      </trkpt>
      <trkpt lat="42.77218" lon="0.11187">
        <ele>2765.4</ele>
        <time>2017-02-21T11:32:22Z</time>
      </trkpt>
      <trkpt lat="42.77216" lon="0.11186">
        <ele>2771.2</ele>
        <time>2017-02-21T11:32:27Z</time>
      </trkpt>
      <trkpt lat="42.77214" lon="0.11186">
        <ele>2771.6</ele>
        <time>2017-02-21T11:32:32Z</time>
      </trkpt>
      <trkpt lat="42.77213" lon="0.11186">
        <ele>2772</ele>
        <time>2017-02-21T11:32:37Z</time>
      </trkpt>
      <trkpt lat="42.77211" lon="0.11185">
        <ele>2769.2</ele>
        <time>2017-02-21T11:32:42Z</time>
      </trkpt>
      <trkpt lat="42.77209" lon="0.11185">
        <ele>2768.6</ele>
        <time>2017-02-21T11:32:47Z</time>
      </trkpt>
      <trkpt lat="42.77207" lon="0.11184">
        <ele>2771</ele>
        <time>2017-02-21T11:32:52Z</time>
      </trkpt>
      <trkpt lat="42.77206" lon="0.11185">
        <ele>2774.2</ele>
        <time>2017-02-21T11:32:57Z</time>
      </trkpt>
      <trkpt lat="42.77206" lon="0.11185">
        <ele>2773.4</ele>
        <time>2017-02-21T11:33:02Z</time>
      </trkpt>
      <trkpt lat="42.77206" lon="0.11185">
        <ele>2772.8</ele>
        <time>2017-02-21T11:33:07Z</time>
      </trkpt>
      <trkpt lat="42.77206" lon="0.11185">
        <ele>2772.4</ele>
        <time>2017-02-21T11:33:12Z</time>
      </trkpt>
      <trkpt lat="42.77207" lon="0.11187">
        <ele>2772.6</ele>
        <time>2017-02-21T11:33:17Z</time>
      </trkpt>
      <trkpt lat="42.77208" lon="0.11189">
        <ele>2773</ele>
        <time>2017-02-21T11:33:22Z</time>
      </trkpt>
      <trkpt lat="42.77209" lon="0.11192">
        <ele>2774.4</ele>
        <time>2017-02-21T11:33:27Z</time>
      </trkpt>
      <trkpt lat="42.7721" lon="0.11195">
        <ele>2773.6</ele>
        <time>2017-02-21T11:33:32Z</time>
      </trkpt>
      <trkpt lat="42.7721" lon="0.11198">
        <ele>2768</ele>
        <time>2017-02-21T11:33:37Z</time>
      </trkpt>
      <trkpt lat="42.77211" lon="0.112">
        <ele>2771.2</ele>
        <time>2017-02-21T11:33:42Z</time>
      </trkpt>
      <trkpt lat="42.77211" lon="0.11202">
        <ele>2772</ele>
        <time>2017-02-21T11:33:47Z</time>
      </trkpt>
      <trkpt lat="42.77211" lon="0.11204">
        <ele>2774.8</ele>
        <time>2017-02-21T11:33:52Z</time>
      </trkpt>
      <trkpt lat="42.77212" lon="0.11207">
        <ele>2772.8</ele>
        <time>2017-02-21T11:33:57Z</time>
      </trkpt>
      <trkpt lat="42.77211" lon="0.11209">
        <ele>2774.2</ele>
        <time>2017-02-21T11:34:02Z</time>
      </trkpt>
      <trkpt lat="42.77211" lon="0.11212">
        <ele>2777.2</ele>
        <time>2017-02-21T11:34:07Z</time>
      </trkpt>
      <trkpt lat="42.77211" lon="0.11214">
        <ele>2776.8</ele>
        <time>2017-02-21T11:34:12Z</time>
      </trkpt>
      <trkpt lat="42.77211" lon="0.11216">
        <ele>2775.2</ele>
        <time>2017-02-21T11:34:17Z</time>
      </trkpt>
      <trkpt lat="42.77209" lon="0.11218">
        <ele>2778.6</ele>
        <time>2017-02-21T11:34:22Z</time>
      </trkpt>
      <trkpt lat="42.77209" lon="0.11218">
        <ele>2778.2</ele>
        <time>2017-02-21T11:34:27Z</time>
      </trkpt>
      <trkpt lat="42.77209" lon="0.11218">
        <ele>2778</ele>
        <time>2017-02-21T11:34:32Z</time>
      </trkpt>
      <trkpt lat="42.77209" lon="0.11217">
        <ele>2778</ele>
        <time>2017-02-21T11:34:37Z</time>
      </trkpt>
      <trkpt lat="42.77209" lon="0.11217">
        <ele>2777.8</ele>
        <time>2017-02-21T11:34:42Z</time>
      </trkpt>
      <trkpt lat="42.77209" lon="0.11217">
        <ele>2778</ele>
        <time>2017-02-21T11:34:47Z</time>
      </trkpt>
      <trkpt lat="42.77209" lon="0.11217">
        <ele>2778</ele>
        <time>2017-02-21T11:34:52Z</time>
      </trkpt>
      <trkpt lat="42.77209" lon="0.11217">
        <ele>2778</ele>
        <time>2017-02-21T11:34:57Z</time>
      </trkpt>
      <trkpt lat="42.77208" lon="0.11218">
        <ele>2777.6</ele>
        <time>2017-02-21T11:35:02Z</time>
      </trkpt>
      <trkpt lat="42.77207" lon="0.11218">
        <ele>2779.6</ele>
        <time>2017-02-21T11:35:07Z</time>
      </trkpt>
      <trkpt lat="42.77206" lon="0.11216">
        <ele>2779.4</ele>
        <time>2017-02-21T11:35:12Z</time>
      </trkpt>
      <trkpt lat="42.77204" lon="0.11216">
        <ele>2777</ele>
        <time>2017-02-21T11:35:17Z</time>
      </trkpt>
      <trkpt lat="42.77202" lon="0.11215">
        <ele>2777.6</ele>
        <time>2017-02-21T11:35:22Z</time>
      </trkpt>
      <trkpt lat="42.772" lon="0.11214">
        <ele>2781.6</ele>
        <time>2017-02-21T11:35:27Z</time>
      </trkpt>
      <trkpt lat="42.77199" lon="0.11213">
        <ele>2779.8</ele>
        <time>2017-02-21T11:35:32Z</time>
      </trkpt>
      <trkpt lat="42.77197" lon="0.11212">
        <ele>2784</ele>
        <time>2017-02-21T11:35:37Z</time>
      </trkpt>
      <trkpt lat="42.77196" lon="0.1121">
        <ele>2783.6</ele>
        <time>2017-02-21T11:35:42Z</time>
      </trkpt>
      <trkpt lat="42.77194" lon="0.11208">
        <ele>2783.2</ele>
        <time>2017-02-21T11:35:47Z</time>
      </trkpt>
      <trkpt lat="42.77192" lon="0.11207">
        <ele>2786.6</ele>
        <time>2017-02-21T11:35:52Z</time>
      </trkpt>
      <trkpt lat="42.7719" lon="0.11206">
        <ele>2785.8</ele>
        <time>2017-02-21T11:35:57Z</time>
      </trkpt>
      <trkpt lat="42.77188" lon="0.11205">
        <ele>2785.8</ele>
        <time>2017-02-21T11:36:02Z</time>
      </trkpt>
      <trkpt lat="42.77188" lon="0.11205">
        <ele>2785.2</ele>
        <time>2017-02-21T11:36:07Z</time>
      </trkpt>
      <trkpt lat="42.77188" lon="0.11205">
        <ele>2784.8</ele>
        <time>2017-02-21T11:36:12Z</time>
      </trkpt>
      <trkpt lat="42.77188" lon="0.11205">
        <ele>2784.6</ele>
        <time>2017-02-21T11:36:17Z</time>
      </trkpt>
      <trkpt lat="42.77188" lon="0.11205">
        <ele>2784.4</ele>
        <time>2017-02-21T11:36:22Z</time>
      </trkpt>
      <trkpt lat="42.77188" lon="0.11205">
        <ele>2784.2</ele>
        <time>2017-02-21T11:36:27Z</time>
      </trkpt>
      <trkpt lat="42.77187" lon="0.11204">
        <ele>2784.4</ele>
        <time>2017-02-21T11:36:32Z</time>
      </trkpt>
      <trkpt lat="42.77186" lon="0.11203">
        <ele>2784.2</ele>
        <time>2017-02-21T11:36:37Z</time>
      </trkpt>
      <trkpt lat="42.77184" lon="0.11201">
        <ele>2785</ele>
        <time>2017-02-21T11:36:42Z</time>
      </trkpt>
      <trkpt lat="42.77183" lon="0.11201">
        <ele>2784.4</ele>
        <time>2017-02-21T11:36:47Z</time>
      </trkpt>
      <trkpt lat="42.77183" lon="0.11201">
        <ele>2784.2</ele>
        <time>2017-02-21T11:36:52Z</time>
      </trkpt>
      <trkpt lat="42.77183" lon="0.11201">
        <ele>2784.2</ele>
        <time>2017-02-21T11:36:57Z</time>
      </trkpt>
      <trkpt lat="42.77183" lon="0.11201">
        <ele>2784</ele>
        <time>2017-02-21T11:37:02Z</time>
      </trkpt>
      <trkpt lat="42.77182" lon="0.112">
        <ele>2784</ele>
        <time>2017-02-21T11:37:07Z</time>
      </trkpt>
      <trkpt lat="42.77181" lon="0.11199">
        <ele>2785</ele>
        <time>2017-02-21T11:37:12Z</time>
      </trkpt>
      <trkpt lat="42.77181" lon="0.11199">
        <ele>2784.6</ele>
        <time>2017-02-21T11:37:17Z</time>
      </trkpt>
      <trkpt lat="42.77181" lon="0.11199">
        <ele>2784.4</ele>
        <time>2017-02-21T11:37:22Z</time>
      </trkpt>
      <trkpt lat="42.77181" lon="0.11199">
        <ele>2784.2</ele>
        <time>2017-02-21T11:37:27Z</time>
      </trkpt>
      <trkpt lat="42.77181" lon="0.11199">
        <ele>2784</ele>
        <time>2017-02-21T11:37:32Z</time>
      </trkpt>
      <trkpt lat="42.77181" lon="0.11199">
        <ele>2783.8</ele>
        <time>2017-02-21T11:37:37Z</time>
      </trkpt>
      <trkpt lat="42.77181" lon="0.11199">
        <ele>2783.6</ele>
        <time>2017-02-21T11:37:42Z</time>
      </trkpt>
      <trkpt lat="42.7718" lon="0.11199">
        <ele>2785.6</ele>
        <time>2017-02-21T11:37:47Z</time>
      </trkpt>
      <trkpt lat="42.77177" lon="0.11197">
        <ele>2785.8</ele>
        <time>2017-02-21T11:37:52Z</time>
      </trkpt>
      <trkpt lat="42.77175" lon="0.11197">
        <ele>2786.4</ele>
        <time>2017-02-21T11:37:57Z</time>
      </trkpt>
      <trkpt lat="42.77173" lon="0.11195">
        <ele>2785.6</ele>
        <time>2017-02-21T11:38:02Z</time>
      </trkpt>
      <trkpt lat="42.77171" lon="0.11195">
        <ele>2784.6</ele>
        <time>2017-02-21T11:38:07Z</time>
      </trkpt>
      <trkpt lat="42.7717" lon="0.11194">
        <ele>2789.2</ele>
        <time>2017-02-21T11:38:12Z</time>
      </trkpt>
      <trkpt lat="42.77169" lon="0.11195">
        <ele>2786.8</ele>
        <time>2017-02-21T11:38:17Z</time>
      </trkpt>
      <trkpt lat="42.7717" lon="0.11197">
        <ele>2789.8</ele>
        <time>2017-02-21T11:38:22Z</time>
      </trkpt>
      <trkpt lat="42.77171" lon="0.11199">
        <ele>2793.2</ele>
        <time>2017-02-21T11:38:27Z</time>
      </trkpt>
      <trkpt lat="42.77171" lon="0.11199">
        <ele>2790.4</ele>
        <time>2017-02-21T11:38:32Z</time>
      </trkpt>
      <trkpt lat="42.7717" lon="0.112">
        <ele>2789.6</ele>
        <time>2017-02-21T11:38:37Z</time>
      </trkpt>
      <trkpt lat="42.7717" lon="0.112">
        <ele>2788.8</ele>
        <time>2017-02-21T11:38:42Z</time>
      </trkpt>
      <trkpt lat="42.7717" lon="0.112">
        <ele>2788.2</ele>
        <time>2017-02-21T11:38:47Z</time>
      </trkpt>
      <trkpt lat="42.7717" lon="0.112">
        <ele>2788</ele>
        <time>2017-02-21T11:38:52Z</time>
      </trkpt>
      <trkpt lat="42.77168" lon="0.112">
        <ele>2790.6</ele>
        <time>2017-02-21T11:38:57Z</time>
      </trkpt>
      <trkpt lat="42.77167" lon="0.112">
        <ele>2787.6</ele>
        <time>2017-02-21T11:39:02Z</time>
      </trkpt>
      <trkpt lat="42.77166" lon="0.11201">
        <ele>2784.8</ele>
        <time>2017-02-21T11:39:07Z</time>
      </trkpt>
      <trkpt lat="42.77166" lon="0.11201">
        <ele>2786</ele>
        <time>2017-02-21T11:39:12Z</time>
      </trkpt>
      <trkpt lat="42.77166" lon="0.11201">
        <ele>2786.8</ele>
        <time>2017-02-21T11:39:17Z</time>
      </trkpt>
      <trkpt lat="42.77166" lon="0.11201">
        <ele>2787.4</ele>
        <time>2017-02-21T11:39:22Z</time>
      </trkpt>
      <trkpt lat="42.77166" lon="0.11201">
        <ele>2787.8</ele>
        <time>2017-02-21T11:39:27Z</time>
      </trkpt>
      <trkpt lat="42.77166" lon="0.11201">
        <ele>2788.2</ele>
        <time>2017-02-21T11:39:32Z</time>
      </trkpt>
      <trkpt lat="42.77166" lon="0.11201">
        <ele>2788.4</ele>
        <time>2017-02-21T11:39:37Z</time>
      </trkpt>
      <trkpt lat="42.77166" lon="0.11201">
        <ele>2788.6</ele>
        <time>2017-02-21T11:39:42Z</time>
      </trkpt>
      <trkpt lat="42.77166" lon="0.11201">
        <ele>2788.6</ele>
        <time>2017-02-21T11:39:47Z</time>
      </trkpt>
      <trkpt lat="42.77166" lon="0.11201">
        <ele>2788.8</ele>
        <time>2017-02-21T11:39:52Z</time>
      </trkpt>
      <trkpt lat="42.77166" lon="0.11201">
        <ele>2788.8</ele>
        <time>2017-02-21T11:39:57Z</time>
      </trkpt>
      <trkpt lat="42.77166" lon="0.11201">
        <ele>2789</ele>
        <time>2017-02-21T11:40:02Z</time>
      </trkpt>
      <trkpt lat="42.77166" lon="0.11201">
        <ele>2789</ele>
        <time>2017-02-21T11:40:07Z</time>
      </trkpt>
      <trkpt lat="42.77166" lon="0.11201">
        <ele>2789</ele>
        <time>2017-02-21T11:40:12Z</time>
      </trkpt>
      <trkpt lat="42.77166" lon="0.11201">
        <ele>2789</ele>
        <time>2017-02-21T11:40:17Z</time>
      </trkpt>
      <trkpt lat="42.77166" lon="0.11203">
        <ele>2790.8</ele>
        <time>2017-02-21T11:40:22Z</time>
      </trkpt>
      <trkpt lat="42.77166" lon="0.11205">
        <ele>2793.4</ele>
        <time>2017-02-21T11:40:27Z</time>
      </trkpt>
      <trkpt lat="42.77167" lon="0.11207">
        <ele>2792.6</ele>
        <time>2017-02-21T11:40:32Z</time>
      </trkpt>
      <trkpt lat="42.77167" lon="0.1121">
        <ele>2793</ele>
        <time>2017-02-21T11:40:37Z</time>
      </trkpt>
      <trkpt lat="42.77167" lon="0.11212">
        <ele>2790.4</ele>
        <time>2017-02-21T11:40:42Z</time>
      </trkpt>
      <trkpt lat="42.77167" lon="0.11214">
        <ele>2792</ele>
        <time>2017-02-21T11:40:47Z</time>
      </trkpt>
      <trkpt lat="42.77167" lon="0.11214">
        <ele>2792.8</ele>
        <time>2017-02-21T11:40:52Z</time>
      </trkpt>
      <trkpt lat="42.77167" lon="0.11214">
        <ele>2793.4</ele>
        <time>2017-02-21T11:40:57Z</time>
      </trkpt>
      <trkpt lat="42.77167" lon="0.11214">
        <ele>2793.8</ele>
        <time>2017-02-21T11:41:02Z</time>
      </trkpt>
      <trkpt lat="42.77168" lon="0.11214">
        <ele>2794</ele>
        <time>2017-02-21T11:41:07Z</time>
      </trkpt>
      <trkpt lat="42.77168" lon="0.11215">
        <ele>2794.2</ele>
        <time>2017-02-21T11:41:12Z</time>
      </trkpt>
      <trkpt lat="42.77168" lon="0.11215">
        <ele>2794.4</ele>
        <time>2017-02-21T11:41:17Z</time>
      </trkpt>
      <trkpt lat="42.77168" lon="0.11215">
        <ele>2794.4</ele>
        <time>2017-02-21T11:41:22Z</time>
      </trkpt>
      <trkpt lat="42.77168" lon="0.11215">
        <ele>2794.4</ele>
        <time>2017-02-21T11:41:27Z</time>
      </trkpt>
      <trkpt lat="42.77168" lon="0.11215">
        <ele>2794.6</ele>
        <time>2017-02-21T11:41:32Z</time>
      </trkpt>
      <trkpt lat="42.77168" lon="0.11215">
        <ele>2794.6</ele>
        <time>2017-02-21T11:41:37Z</time>
      </trkpt>
      <trkpt lat="42.77168" lon="0.11215">
        <ele>2794.6</ele>
        <time>2017-02-21T11:41:42Z</time>
      </trkpt>
      <trkpt lat="42.77168" lon="0.11215">
        <ele>2794.6</ele>
        <time>2017-02-21T11:41:47Z</time>
      </trkpt>
      <trkpt lat="42.77168" lon="0.11215">
        <ele>2794.6</ele>
        <time>2017-02-21T11:41:52Z</time>
      </trkpt>
      <trkpt lat="42.77168" lon="0.11215">
        <ele>2794.6</ele>
        <time>2017-02-21T11:41:57Z</time>
      </trkpt>
      <trkpt lat="42.77169" lon="0.11215">
        <ele>2794.6</ele>
        <time>2017-02-21T11:42:02Z</time>
      </trkpt>
      <trkpt lat="42.77169" lon="0.11215">
        <ele>2794.6</ele>
        <time>2017-02-21T11:42:07Z</time>
      </trkpt>
      <trkpt lat="42.77169" lon="0.11215">
        <ele>2794.6</ele>
        <time>2017-02-21T11:42:12Z</time>
      </trkpt>
      <trkpt lat="42.77169" lon="0.11215">
        <ele>2794.6</ele>
        <time>2017-02-21T11:42:17Z</time>
      </trkpt>
      <trkpt lat="42.77169" lon="0.11215">
        <ele>2794.6</ele>
        <time>2017-02-21T11:42:22Z</time>
      </trkpt>
      <trkpt lat="42.77169" lon="0.11215">
        <ele>2794.6</ele>
        <time>2017-02-21T11:42:27Z</time>
      </trkpt>
      <trkpt lat="42.77169" lon="0.11215">
        <ele>2794.6</ele>
        <time>2017-02-21T11:42:32Z</time>
      </trkpt>
      <trkpt lat="42.77169" lon="0.11215">
        <ele>2794.6</ele>
        <time>2017-02-21T11:42:37Z</time>
      </trkpt>
      <trkpt lat="42.77169" lon="0.11215">
        <ele>2794.6</ele>
        <time>2017-02-21T11:42:42Z</time>
      </trkpt>
      <trkpt lat="42.77169" lon="0.11215">
        <ele>2794.6</ele>
        <time>2017-02-21T11:42:47Z</time>
      </trkpt>
      <trkpt lat="42.77169" lon="0.11215">
        <ele>2794.4</ele>
        <time>2017-02-21T11:42:52Z</time>
      </trkpt>
      <trkpt lat="42.77169" lon="0.11215">
        <ele>2794.4</ele>
        <time>2017-02-21T11:42:57Z</time>
      </trkpt>
      <trkpt lat="42.77169" lon="0.11215">
        <ele>2794.4</ele>
        <time>2017-02-21T11:43:02Z</time>
      </trkpt>
      <trkpt lat="42.77169" lon="0.11215">
        <ele>2794.4</ele>
        <time>2017-02-21T11:43:07Z</time>
      </trkpt>
      <trkpt lat="42.77168" lon="0.11215">
        <ele>2794.2</ele>
        <time>2017-02-21T11:43:12Z</time>
      </trkpt>
      <trkpt lat="42.77168" lon="0.11215">
        <ele>2794.2</ele>
        <time>2017-02-21T11:43:17Z</time>
      </trkpt>
      <trkpt lat="42.77168" lon="0.11215">
        <ele>2794.2</ele>
        <time>2017-02-21T11:43:22Z</time>
      </trkpt>
      <trkpt lat="42.77168" lon="0.11215">
        <ele>2794.2</ele>
        <time>2017-02-21T11:43:27Z</time>
      </trkpt>
      <trkpt lat="42.77168" lon="0.11215">
        <ele>2794.2</ele>
        <time>2017-02-21T11:43:32Z</time>
      </trkpt>
      <trkpt lat="42.77168" lon="0.11215">
        <ele>2794.2</ele>
        <time>2017-02-21T11:43:37Z</time>
      </trkpt>
      <trkpt lat="42.77168" lon="0.11215">
        <ele>2794.2</ele>
        <time>2017-02-21T11:43:42Z</time>
      </trkpt>
      <trkpt lat="42.77168" lon="0.11215">
        <ele>2794</ele>
        <time>2017-02-21T11:43:47Z</time>
      </trkpt>
      <trkpt lat="42.77168" lon="0.11215">
        <ele>2794</ele>
        <time>2017-02-21T11:43:52Z</time>
      </trkpt>
      <trkpt lat="42.77168" lon="0.11215">
        <ele>2794</ele>
        <time>2017-02-21T11:43:57Z</time>
      </trkpt>
      <trkpt lat="42.77168" lon="0.11215">
        <ele>2794</ele>
        <time>2017-02-21T11:44:02Z</time>
      </trkpt>
      <trkpt lat="42.77168" lon="0.11215">
        <ele>2794</ele>
        <time>2017-02-21T11:44:07Z</time>
      </trkpt>
      <trkpt lat="42.77168" lon="0.11215">
        <ele>2794</ele>
        <time>2017-02-21T11:44:13Z</time>
      </trkpt>
      <trkpt lat="42.77168" lon="0.11215">
        <ele>2793.8</ele>
        <time>2017-02-21T11:44:19Z</time>
      </trkpt>
      <trkpt lat="42.77168" lon="0.11216">
        <ele>2793.8</ele>
        <time>2017-02-21T11:44:25Z</time>
      </trkpt>
      <trkpt lat="42.77168" lon="0.11216">
        <ele>2793.8</ele>
        <time>2017-02-21T11:44:30Z</time>
      </trkpt>
      <trkpt lat="42.77168" lon="0.11216">
        <ele>2793.6</ele>
        <time>2017-02-21T11:44:35Z</time>
      </trkpt>
      <trkpt lat="42.77168" lon="0.11215">
        <ele>2793.6</ele>
        <time>2017-02-21T11:44:40Z</time>
      </trkpt>
      <trkpt lat="42.77168" lon="0.11215">
        <ele>2793.4</ele>
        <time>2017-02-21T11:44:45Z</time>
      </trkpt>
      <trkpt lat="42.77168" lon="0.11215">
        <ele>2793.4</ele>
        <time>2017-02-21T11:44:50Z</time>
      </trkpt>
      <trkpt lat="42.77168" lon="0.11216">
        <ele>2793.4</ele>
        <time>2017-02-21T11:44:55Z</time>
      </trkpt>
      <trkpt lat="42.77168" lon="0.11217">
        <ele>2793.4</ele>
        <time>2017-02-21T11:45:00Z</time>
      </trkpt>
      <trkpt lat="42.77168" lon="0.11217">
        <ele>2793.4</ele>
        <time>2017-02-21T11:45:05Z</time>
      </trkpt>
      <trkpt lat="42.77168" lon="0.11217">
        <ele>2793.6</ele>
        <time>2017-02-21T11:45:10Z</time>
      </trkpt>
      <trkpt lat="42.77169" lon="0.11217">
        <ele>2793.6</ele>
        <time>2017-02-21T11:45:15Z</time>
      </trkpt>
      <trkpt lat="42.77168" lon="0.11217">
        <ele>2796</ele>
        <time>2017-02-21T11:45:20Z</time>
      </trkpt>
      <trkpt lat="42.77169" lon="0.11217">
        <ele>2795.2</ele>
        <time>2017-02-21T11:45:25Z</time>
      </trkpt>
      <trkpt lat="42.77169" lon="0.11217">
        <ele>2794.8</ele>
        <time>2017-02-21T11:45:30Z</time>
      </trkpt>
      <trkpt lat="42.77169" lon="0.11217">
        <ele>2794.6</ele>
        <time>2017-02-21T11:45:35Z</time>
      </trkpt>
      <trkpt lat="42.77169" lon="0.11217">
        <ele>2794.4</ele>
        <time>2017-02-21T11:45:40Z</time>
      </trkpt>
      <trkpt lat="42.77169" lon="0.11217">
        <ele>2794.2</ele>
        <time>2017-02-21T11:45:45Z</time>
      </trkpt>
      <trkpt lat="42.77169" lon="0.11217">
        <ele>2794.2</ele>
        <time>2017-02-21T11:45:50Z</time>
      </trkpt>
      <trkpt lat="42.77169" lon="0.11217">
        <ele>2794</ele>
        <time>2017-02-21T11:45:55Z</time>
      </trkpt>
      <trkpt lat="42.77169" lon="0.11217">
        <ele>2794</ele>
        <time>2017-02-21T11:46:00Z</time>
      </trkpt>
      <trkpt lat="42.77169" lon="0.11217">
        <ele>2794</ele>
        <time>2017-02-21T11:46:05Z</time>
      </trkpt>
      <trkpt lat="42.77169" lon="0.11217">
        <ele>2794</ele>
        <time>2017-02-21T11:46:10Z</time>
      </trkpt>
      <trkpt lat="42.77169" lon="0.11217">
        <ele>2793.8</ele>
        <time>2017-02-21T11:46:15Z</time>
      </trkpt>
      <trkpt lat="42.77169" lon="0.11217">
        <ele>2793.8</ele>
        <time>2017-02-21T11:46:20Z</time>
      </trkpt>
      <trkpt lat="42.77169" lon="0.11217">
        <ele>2793.8</ele>
        <time>2017-02-21T11:46:25Z</time>
      </trkpt>
      <trkpt lat="42.77169" lon="0.11217">
        <ele>2793.8</ele>
        <time>2017-02-21T11:46:30Z</time>
      </trkpt>
      <trkpt lat="42.77169" lon="0.11217">
        <ele>2793.8</ele>
        <time>2017-02-21T11:46:35Z</time>
      </trkpt>
      <trkpt lat="42.77169" lon="0.11217">
        <ele>2793.8</ele>
        <time>2017-02-21T11:46:40Z</time>
      </trkpt>
      <trkpt lat="42.77169" lon="0.11217">
        <ele>2793.8</ele>
        <time>2017-02-21T11:46:45Z</time>
      </trkpt>
      <trkpt lat="42.77169" lon="0.11218">
        <ele>2793.8</ele>
        <time>2017-02-21T11:46:50Z</time>
      </trkpt>
      <trkpt lat="42.77169" lon="0.11218">
        <ele>2793.8</ele>
        <time>2017-02-21T11:46:55Z</time>
      </trkpt>
      <trkpt lat="42.77169" lon="0.11218">
        <ele>2793.8</ele>
        <time>2017-02-21T11:47:00Z</time>
      </trkpt>
      <trkpt lat="42.77169" lon="0.11218">
        <ele>2793.8</ele>
        <time>2017-02-21T11:47:05Z</time>
      </trkpt>
      <trkpt lat="42.77169" lon="0.11218">
        <ele>2793.8</ele>
        <time>2017-02-21T11:47:10Z</time>
      </trkpt>
      <trkpt lat="42.77169" lon="0.11218">
        <ele>2793.8</ele>
        <time>2017-02-21T11:47:15Z</time>
      </trkpt>
      <trkpt lat="42.77169" lon="0.11218">
        <ele>2793.8</ele>
        <time>2017-02-21T11:47:20Z</time>
      </trkpt>
      <trkpt lat="42.77169" lon="0.11218">
        <ele>2793.8</ele>
        <time>2017-02-21T11:47:25Z</time>
      </trkpt>
      <trkpt lat="42.77169" lon="0.11218">
        <ele>2794</ele>
        <time>2017-02-21T11:47:30Z</time>
      </trkpt>
      <trkpt lat="42.77169" lon="0.11218">
        <ele>2794</ele>
        <time>2017-02-21T11:47:36Z</time>
      </trkpt>
      <trkpt lat="42.77168" lon="0.11218">
        <ele>2794</ele>
        <time>2017-02-21T11:47:41Z</time>
      </trkpt>
      <trkpt lat="42.77168" lon="0.11218">
        <ele>2794</ele>
        <time>2017-02-21T11:47:46Z</time>
      </trkpt>
      <trkpt lat="42.77168" lon="0.11218">
        <ele>2794</ele>
        <time>2017-02-21T11:47:51Z</time>
      </trkpt>
      <trkpt lat="42.77168" lon="0.11218">
        <ele>2794</ele>
        <time>2017-02-21T11:47:56Z</time>
      </trkpt>
      <trkpt lat="42.77168" lon="0.11218">
        <ele>2794</ele>
        <time>2017-02-21T11:48:01Z</time>
      </trkpt>
      <trkpt lat="42.77168" lon="0.11218">
        <ele>2794</ele>
        <time>2017-02-21T11:48:06Z</time>
      </trkpt>
      <trkpt lat="42.77168" lon="0.11218">
        <ele>2794</ele>
        <time>2017-02-21T11:48:11Z</time>
      </trkpt>
      <trkpt lat="42.77168" lon="0.11219">
        <ele>2794</ele>
        <time>2017-02-21T11:48:16Z</time>
      </trkpt>
      <trkpt lat="42.77168" lon="0.11219">
        <ele>2794.2</ele>
        <time>2017-02-21T11:48:21Z</time>
      </trkpt>
      <trkpt lat="42.77168" lon="0.11219">
        <ele>2794.2</ele>
        <time>2017-02-21T11:48:26Z</time>
      </trkpt>
      <trkpt lat="42.77168" lon="0.11219">
        <ele>2794.2</ele>
        <time>2017-02-21T11:48:31Z</time>
      </trkpt>
      <trkpt lat="42.77168" lon="0.11219">
        <ele>2794.4</ele>
        <time>2017-02-21T11:48:36Z</time>
      </trkpt>
      <trkpt lat="42.77168" lon="0.11219">
        <ele>2794.4</ele>
        <time>2017-02-21T11:48:41Z</time>
      </trkpt>
      <trkpt lat="42.77168" lon="0.11219">
        <ele>2794.4</ele>
        <time>2017-02-21T11:48:46Z</time>
      </trkpt>
      <trkpt lat="42.77168" lon="0.11218">
        <ele>2794.4</ele>
        <time>2017-02-21T11:48:51Z</time>
      </trkpt>
      <trkpt lat="42.77168" lon="0.11218">
        <ele>2794.4</ele>
        <time>2017-02-21T11:48:56Z</time>
      </trkpt>
      <trkpt lat="42.77168" lon="0.11218">
        <ele>2794.4</ele>
        <time>2017-02-21T11:49:01Z</time>
      </trkpt>
      <trkpt lat="42.77168" lon="0.11218">
        <ele>2794.4</ele>
        <time>2017-02-21T11:49:06Z</time>
      </trkpt>
      <trkpt lat="42.77168" lon="0.11218">
        <ele>2794.6</ele>
        <time>2017-02-21T11:49:11Z</time>
      </trkpt>
      <trkpt lat="42.77168" lon="0.11218">
        <ele>2794.6</ele>
        <time>2017-02-21T11:49:16Z</time>
      </trkpt>
      <trkpt lat="42.77168" lon="0.11218">
        <ele>2794.6</ele>
        <time>2017-02-21T11:49:21Z</time>
      </trkpt>
      <trkpt lat="42.77168" lon="0.11218">
        <ele>2794.6</ele>
        <time>2017-02-21T11:49:26Z</time>
      </trkpt>
      <trkpt lat="42.77168" lon="0.11218">
        <ele>2794.6</ele>
        <time>2017-02-21T11:49:31Z</time>
      </trkpt>
      <trkpt lat="42.77168" lon="0.11218">
        <ele>2794.6</ele>
        <time>2017-02-21T11:49:36Z</time>
      </trkpt>
      <trkpt lat="42.77168" lon="0.11218">
        <ele>2794.6</ele>
        <time>2017-02-21T11:49:41Z</time>
      </trkpt>
      <trkpt lat="42.77168" lon="0.11218">
        <ele>2794.6</ele>
        <time>2017-02-21T11:49:46Z</time>
      </trkpt>
      <trkpt lat="42.77168" lon="0.11218">
        <ele>2794.6</ele>
        <time>2017-02-21T11:49:51Z</time>
      </trkpt>
      <trkpt lat="42.77168" lon="0.11218">
        <ele>2794.6</ele>
        <time>2017-02-21T11:49:56Z</time>
      </trkpt>
      <trkpt lat="42.77168" lon="0.11218">
        <ele>2794.6</ele>
        <time>2017-02-21T11:50:01Z</time>
      </trkpt>
      <trkpt lat="42.77168" lon="0.11218">
        <ele>2794.6</ele>
        <time>2017-02-21T11:50:06Z</time>
      </trkpt>
      <trkpt lat="42.77168" lon="0.11218">
        <ele>2794.8</ele>
        <time>2017-02-21T11:50:11Z</time>
      </trkpt>
      <trkpt lat="42.77168" lon="0.11218">
        <ele>2794.8</ele>
        <time>2017-02-21T11:50:16Z</time>
      </trkpt>
      <trkpt lat="42.77168" lon="0.11218">
        <ele>2794.8</ele>
        <time>2017-02-21T11:50:21Z</time>
      </trkpt>
      <trkpt lat="42.77168" lon="0.11218">
        <ele>2794.8</ele>
        <time>2017-02-21T11:50:26Z</time>
      </trkpt>
      <trkpt lat="42.77168" lon="0.11218">
        <ele>2794.8</ele>
        <time>2017-02-21T11:50:31Z</time>
      </trkpt>
      <trkpt lat="42.77168" lon="0.11218">
        <ele>2794.8</ele>
        <time>2017-02-21T11:50:36Z</time>
      </trkpt>
      <trkpt lat="42.77168" lon="0.11218">
        <ele>2794.8</ele>
        <time>2017-02-21T11:50:41Z</time>
      </trkpt>
      <trkpt lat="42.77168" lon="0.11218">
        <ele>2794.8</ele>
        <time>2017-02-21T11:50:47Z</time>
      </trkpt>
      <trkpt lat="42.77168" lon="0.11218">
        <ele>2794.8</ele>
        <time>2017-02-21T11:50:52Z</time>
      </trkpt>
      <trkpt lat="42.77168" lon="0.11218">
        <ele>2794.8</ele>
        <time>2017-02-21T11:50:57Z</time>
      </trkpt>
      <trkpt lat="42.77168" lon="0.11218">
        <ele>2794.8</ele>
        <time>2017-02-21T11:51:02Z</time>
      </trkpt>
      <trkpt lat="42.77168" lon="0.11218">
        <ele>2794.8</ele>
        <time>2017-02-21T11:51:07Z</time>
      </trkpt>
      <trkpt lat="42.77168" lon="0.11218">
        <ele>2794.8</ele>
        <time>2017-02-21T11:51:12Z</time>
      </trkpt>
      <trkpt lat="42.77168" lon="0.11218">
        <ele>2794.8</ele>
        <time>2017-02-21T11:51:17Z</time>
      </trkpt>
      <trkpt lat="42.77168" lon="0.11218">
        <ele>2794.8</ele>
        <time>2017-02-21T11:51:22Z</time>
      </trkpt>
      <trkpt lat="42.77168" lon="0.11218">
        <ele>2794.8</ele>
        <time>2017-02-21T11:51:27Z</time>
      </trkpt>
      <trkpt lat="42.77168" lon="0.11218">
        <ele>2794.8</ele>
        <time>2017-02-21T11:51:32Z</time>
      </trkpt>
      <trkpt lat="42.77168" lon="0.11218">
        <ele>2794.8</ele>
        <time>2017-02-21T11:51:37Z</time>
      </trkpt>
      <trkpt lat="42.77168" lon="0.11218">
        <ele>2794.8</ele>
        <time>2017-02-21T11:51:42Z</time>
      </trkpt>
      <trkpt lat="42.77168" lon="0.11218">
        <ele>2794.8</ele>
        <time>2017-02-21T11:51:47Z</time>
      </trkpt>
      <trkpt lat="42.77168" lon="0.11218">
        <ele>2794.8</ele>
        <time>2017-02-21T11:51:52Z</time>
      </trkpt>
      <trkpt lat="42.77168" lon="0.11218">
        <ele>2794.8</ele>
        <time>2017-02-21T11:51:57Z</time>
      </trkpt>
      <trkpt lat="42.77168" lon="0.11218">
        <ele>2794.8</ele>
        <time>2017-02-21T11:52:02Z</time>
      </trkpt>
      <trkpt lat="42.77168" lon="0.11218">
        <ele>2794.8</ele>
        <time>2017-02-21T11:52:07Z</time>
      </trkpt>
      <trkpt lat="42.77168" lon="0.11217">
        <ele>2794.8</ele>
        <time>2017-02-21T11:52:12Z</time>
      </trkpt>
      <trkpt lat="42.77168" lon="0.11217">
        <ele>2794.8</ele>
        <time>2017-02-21T11:52:17Z</time>
      </trkpt>
      <trkpt lat="42.77168" lon="0.11217">
        <ele>2794.8</ele>
        <time>2017-02-21T11:52:22Z</time>
      </trkpt>
      <trkpt lat="42.77168" lon="0.11217">
        <ele>2794.8</ele>
        <time>2017-02-21T11:52:27Z</time>
      </trkpt>
      <trkpt lat="42.77168" lon="0.11217">
        <ele>2794.8</ele>
        <time>2017-02-21T11:52:32Z</time>
      </trkpt>
      <trkpt lat="42.77168" lon="0.11217">
        <ele>2794.8</ele>
        <time>2017-02-21T11:52:37Z</time>
      </trkpt>
      <trkpt lat="42.77168" lon="0.11217">
        <ele>2794.8</ele>
        <time>2017-02-21T11:52:42Z</time>
      </trkpt>
      <trkpt lat="42.77168" lon="0.11217">
        <ele>2794.8</ele>
        <time>2017-02-21T11:52:47Z</time>
      </trkpt>
      <trkpt lat="42.77168" lon="0.11217">
        <ele>2794.8</ele>
        <time>2017-02-21T11:52:52Z</time>
      </trkpt>
      <trkpt lat="42.77168" lon="0.11217">
        <ele>2794.8</ele>
        <time>2017-02-21T11:52:57Z</time>
      </trkpt>
      <trkpt lat="42.77168" lon="0.11217">
        <ele>2794.8</ele>
        <time>2017-02-21T11:53:02Z</time>
      </trkpt>
      <trkpt lat="42.77168" lon="0.11217">
        <ele>2794.8</ele>
        <time>2017-02-21T11:53:07Z</time>
      </trkpt>
      <trkpt lat="42.77168" lon="0.11217">
        <ele>2794.8</ele>
        <time>2017-02-21T11:53:12Z</time>
      </trkpt>
      <trkpt lat="42.77168" lon="0.11217">
        <ele>2794.8</ele>
        <time>2017-02-21T11:53:17Z</time>
      </trkpt>
      <trkpt lat="42.77168" lon="0.11217">
        <ele>2794.8</ele>
        <time>2017-02-21T11:53:22Z</time>
      </trkpt>
      <trkpt lat="42.77168" lon="0.11217">
        <ele>2794.8</ele>
        <time>2017-02-21T11:53:27Z</time>
      </trkpt>
      <trkpt lat="42.77168" lon="0.11217">
        <ele>2794.8</ele>
        <time>2017-02-21T11:53:32Z</time>
      </trkpt>
      <trkpt lat="42.77168" lon="0.11217">
        <ele>2794.8</ele>
        <time>2017-02-21T11:53:37Z</time>
      </trkpt>
      <trkpt lat="42.77168" lon="0.11217">
        <ele>2794.8</ele>
        <time>2017-02-21T11:53:42Z</time>
      </trkpt>
      <trkpt lat="42.77168" lon="0.11217">
        <ele>2794.8</ele>
        <time>2017-02-21T11:53:47Z</time>
      </trkpt>
      <trkpt lat="42.77168" lon="0.11217">
        <ele>2794.8</ele>
        <time>2017-02-21T11:53:52Z</time>
      </trkpt>
      <trkpt lat="42.77168" lon="0.11217">
        <ele>2794.8</ele>
        <time>2017-02-21T11:53:57Z</time>
      </trkpt>
      <trkpt lat="42.77168" lon="0.11217">
        <ele>2794.8</ele>
        <time>2017-02-21T11:54:02Z</time>
      </trkpt>
      <trkpt lat="42.77168" lon="0.11217">
        <ele>2794.8</ele>
        <time>2017-02-21T11:54:07Z</time>
      </trkpt>
      <trkpt lat="42.77168" lon="0.11217">
        <ele>2794.8</ele>
        <time>2017-02-21T11:54:12Z</time>
      </trkpt>
      <trkpt lat="42.77168" lon="0.11217">
        <ele>2794.8</ele>
        <time>2017-02-21T11:54:17Z</time>
      </trkpt>
      <trkpt lat="42.77168" lon="0.11217">
        <ele>2794.8</ele>
        <time>2017-02-21T11:54:22Z</time>
      </trkpt>
      <trkpt lat="42.77168" lon="0.11217">
        <ele>2794.8</ele>
        <time>2017-02-21T11:54:27Z</time>
      </trkpt>
      <trkpt lat="42.77168" lon="0.11217">
        <ele>2794.8</ele>
        <time>2017-02-21T11:54:32Z</time>
      </trkpt>
      <trkpt lat="42.77168" lon="0.11217">
        <ele>2794.8</ele>
        <time>2017-02-21T11:54:37Z</time>
      </trkpt>
      <trkpt lat="42.77168" lon="0.11217">
        <ele>2794.8</ele>
        <time>2017-02-21T11:54:42Z</time>
      </trkpt>
      <trkpt lat="42.77168" lon="0.11217">
        <ele>2794.8</ele>
        <time>2017-02-21T11:54:47Z</time>
      </trkpt>
      <trkpt lat="42.77168" lon="0.11217">
        <ele>2794.8</ele>
        <time>2017-02-21T11:54:52Z</time>
      </trkpt>
      <trkpt lat="42.77168" lon="0.11217">
        <ele>2794.8</ele>
        <time>2017-02-21T11:54:57Z</time>
      </trkpt>
      <trkpt lat="42.77168" lon="0.11217">
        <ele>2794.8</ele>
        <time>2017-02-21T11:55:02Z</time>
      </trkpt>
      <trkpt lat="42.77168" lon="0.11217">
        <ele>2794.8</ele>
        <time>2017-02-21T11:55:07Z</time>
      </trkpt>
      <trkpt lat="42.77168" lon="0.11217">
        <ele>2794.8</ele>
        <time>2017-02-21T11:55:12Z</time>
      </trkpt>
      <trkpt lat="42.77168" lon="0.11217">
        <ele>2794.8</ele>
        <time>2017-02-21T11:55:17Z</time>
      </trkpt>
      <trkpt lat="42.77168" lon="0.11217">
        <ele>2794.8</ele>
        <time>2017-02-21T11:55:22Z</time>
      </trkpt>
      <trkpt lat="42.77168" lon="0.11217">
        <ele>2794.8</ele>
        <time>2017-02-21T11:55:27Z</time>
      </trkpt>
      <trkpt lat="42.77168" lon="0.11217">
        <ele>2794.8</ele>
        <time>2017-02-21T11:55:32Z</time>
      </trkpt>
      <trkpt lat="42.77168" lon="0.11217">
        <ele>2794.8</ele>
        <time>2017-02-21T11:55:37Z</time>
      </trkpt>
      <trkpt lat="42.77168" lon="0.11217">
        <ele>2794.8</ele>
        <time>2017-02-21T11:55:42Z</time>
      </trkpt>
      <trkpt lat="42.77168" lon="0.11217">
        <ele>2794.8</ele>
        <time>2017-02-21T11:55:47Z</time>
      </trkpt>
      <trkpt lat="42.77168" lon="0.11217">
        <ele>2794.8</ele>
        <time>2017-02-21T11:55:52Z</time>
      </trkpt>
      <trkpt lat="42.77168" lon="0.11217">
        <ele>2794.8</ele>
        <time>2017-02-21T11:55:57Z</time>
      </trkpt>
      <trkpt lat="42.77168" lon="0.11217">
        <ele>2794.8</ele>
        <time>2017-02-21T11:56:02Z</time>
      </trkpt>
      <trkpt lat="42.77168" lon="0.11217">
        <ele>2794.8</ele>
        <time>2017-02-21T11:56:07Z</time>
      </trkpt>
      <trkpt lat="42.77168" lon="0.11217">
        <ele>2794.8</ele>
        <time>2017-02-21T11:56:12Z</time>
      </trkpt>
      <trkpt lat="42.77168" lon="0.11217">
        <ele>2794.8</ele>
        <time>2017-02-21T11:56:17Z</time>
      </trkpt>
      <trkpt lat="42.77168" lon="0.11217">
        <ele>2794.8</ele>
        <time>2017-02-21T11:56:22Z</time>
      </trkpt>
      <trkpt lat="42.77168" lon="0.11217">
        <ele>2794.8</ele>
        <time>2017-02-21T11:56:27Z</time>
      </trkpt>
      <trkpt lat="42.77168" lon="0.11217">
        <ele>2794.8</ele>
        <time>2017-02-21T11:56:32Z</time>
      </trkpt>
      <trkpt lat="42.77168" lon="0.11217">
        <ele>2794.8</ele>
        <time>2017-02-21T11:56:37Z</time>
      </trkpt>
      <trkpt lat="42.77168" lon="0.11217">
        <ele>2794.8</ele>
        <time>2017-02-21T11:56:42Z</time>
      </trkpt>
      <trkpt lat="42.77168" lon="0.11217">
        <ele>2794.8</ele>
        <time>2017-02-21T11:56:47Z</time>
      </trkpt>
      <trkpt lat="42.77168" lon="0.11217">
        <ele>2794.8</ele>
        <time>2017-02-21T11:56:52Z</time>
      </trkpt>
      <trkpt lat="42.77168" lon="0.11217">
        <ele>2794.8</ele>
        <time>2017-02-21T11:56:57Z</time>
      </trkpt>
      <trkpt lat="42.77168" lon="0.11217">
        <ele>2794.8</ele>
        <time>2017-02-21T11:57:02Z</time>
      </trkpt>
      <trkpt lat="42.77168" lon="0.11217">
        <ele>2794.8</ele>
        <time>2017-02-21T11:57:07Z</time>
      </trkpt>
      <trkpt lat="42.77168" lon="0.11217">
        <ele>2794.8</ele>
        <time>2017-02-21T11:57:12Z</time>
      </trkpt>
      <trkpt lat="42.77168" lon="0.11217">
        <ele>2794.8</ele>
        <time>2017-02-21T11:57:17Z</time>
      </trkpt>
      <trkpt lat="42.77168" lon="0.11217">
        <ele>2794.8</ele>
        <time>2017-02-21T11:57:22Z</time>
      </trkpt>
      <trkpt lat="42.77168" lon="0.11217">
        <ele>2794.8</ele>
        <time>2017-02-21T11:57:27Z</time>
      </trkpt>
      <trkpt lat="42.77168" lon="0.11217">
        <ele>2794.8</ele>
        <time>2017-02-21T11:57:32Z</time>
      </trkpt>
      <trkpt lat="42.77168" lon="0.11217">
        <ele>2794.8</ele>
        <time>2017-02-21T11:57:37Z</time>
      </trkpt>
      <trkpt lat="42.77168" lon="0.11217">
        <ele>2794.8</ele>
        <time>2017-02-21T11:57:42Z</time>
      </trkpt>
      <trkpt lat="42.77168" lon="0.11217">
        <ele>2794.6</ele>
        <time>2017-02-21T11:57:47Z</time>
      </trkpt>
      <trkpt lat="42.77168" lon="0.11217">
        <ele>2794.6</ele>
        <time>2017-02-21T11:57:53Z</time>
      </trkpt>
      <trkpt lat="42.77168" lon="0.11217">
        <ele>2794.6</ele>
        <time>2017-02-21T11:57:59Z</time>
      </trkpt>
      <trkpt lat="42.77168" lon="0.11217">
        <ele>2794.6</ele>
        <time>2017-02-21T11:58:04Z</time>
      </trkpt>
      <trkpt lat="42.77168" lon="0.11217">
        <ele>2794.6</ele>
        <time>2017-02-21T11:58:09Z</time>
      </trkpt>
      <trkpt lat="42.77168" lon="0.11217">
        <ele>2794.6</ele>
        <time>2017-02-21T11:58:14Z</time>
      </trkpt>
      <trkpt lat="42.77168" lon="0.11217">
        <ele>2794.6</ele>
        <time>2017-02-21T11:58:19Z</time>
      </trkpt>
      <trkpt lat="42.77168" lon="0.11217">
        <ele>2794.6</ele>
        <time>2017-02-21T11:58:24Z</time>
      </trkpt>
      <trkpt lat="42.77168" lon="0.11217">
        <ele>2794.6</ele>
        <time>2017-02-21T11:58:29Z</time>
      </trkpt>
      <trkpt lat="42.77168" lon="0.11217">
        <ele>2794.6</ele>
        <time>2017-02-21T11:58:34Z</time>
      </trkpt>
      <trkpt lat="42.77168" lon="0.11217">
        <ele>2794.6</ele>
        <time>2017-02-21T11:58:39Z</time>
      </trkpt>
      <trkpt lat="42.77168" lon="0.11217">
        <ele>2794.6</ele>
        <time>2017-02-21T11:58:44Z</time>
      </trkpt>
      <trkpt lat="42.77168" lon="0.11217">
        <ele>2794.6</ele>
        <time>2017-02-21T11:58:49Z</time>
      </trkpt>
      <trkpt lat="42.77168" lon="0.11217">
        <ele>2794.6</ele>
        <time>2017-02-21T11:58:54Z</time>
      </trkpt>
      <trkpt lat="42.77168" lon="0.11217">
        <ele>2794.6</ele>
        <time>2017-02-21T11:58:59Z</time>
      </trkpt>
      <trkpt lat="42.77168" lon="0.11217">
        <ele>2794.6</ele>
        <time>2017-02-21T11:59:04Z</time>
      </trkpt>
      <trkpt lat="42.77168" lon="0.11217">
        <ele>2794.6</ele>
        <time>2017-02-21T11:59:09Z</time>
      </trkpt>
      <trkpt lat="42.77168" lon="0.11217">
        <ele>2794.6</ele>
        <time>2017-02-21T11:59:14Z</time>
      </trkpt>
      <trkpt lat="42.77168" lon="0.11217">
        <ele>2794.6</ele>
        <time>2017-02-21T11:59:19Z</time>
      </trkpt>
      <trkpt lat="42.77168" lon="0.11217">
        <ele>2794.6</ele>
        <time>2017-02-21T11:59:24Z</time>
      </trkpt>
      <trkpt lat="42.77168" lon="0.11217">
        <ele>2794.6</ele>
        <time>2017-02-21T11:59:29Z</time>
      </trkpt>
      <trkpt lat="42.77168" lon="0.11217">
        <ele>2794.6</ele>
        <time>2017-02-21T11:59:34Z</time>
      </trkpt>
      <trkpt lat="42.77168" lon="0.11217">
        <ele>2794.6</ele>
        <time>2017-02-21T11:59:39Z</time>
      </trkpt>
      <trkpt lat="42.77168" lon="0.11217">
        <ele>2794.6</ele>
        <time>2017-02-21T11:59:44Z</time>
      </trkpt>
      <trkpt lat="42.77168" lon="0.11217">
        <ele>2794.6</ele>
        <time>2017-02-21T11:59:49Z</time>
      </trkpt>
      <trkpt lat="42.77168" lon="0.11217">
        <ele>2794.6</ele>
        <time>2017-02-21T11:59:54Z</time>
      </trkpt>
      <trkpt lat="42.77168" lon="0.11217">
        <ele>2794.6</ele>
        <time>2017-02-21T11:59:59Z</time>
      </trkpt>
      <trkpt lat="42.77168" lon="0.11217">
        <ele>2794.6</ele>
        <time>2017-02-21T12:00:04Z</time>
      </trkpt>
      <trkpt lat="42.77168" lon="0.11217">
        <ele>2794.6</ele>
        <time>2017-02-21T12:00:09Z</time>
      </trkpt>
      <trkpt lat="42.77168" lon="0.11217">
        <ele>2794.6</ele>
        <time>2017-02-21T12:00:14Z</time>
      </trkpt>
      <trkpt lat="42.77168" lon="0.11217">
        <ele>2794.6</ele>
        <time>2017-02-21T12:00:19Z</time>
      </trkpt>
      <trkpt lat="42.77168" lon="0.11217">
        <ele>2794.6</ele>
        <time>2017-02-21T12:00:24Z</time>
      </trkpt>
      <trkpt lat="42.77168" lon="0.11217">
        <ele>2794.4</ele>
        <time>2017-02-21T12:00:29Z</time>
      </trkpt>
      <trkpt lat="42.77168" lon="0.11217">
        <ele>2794.4</ele>
        <time>2017-02-21T12:00:34Z</time>
      </trkpt>
      <trkpt lat="42.77168" lon="0.11217">
        <ele>2794.4</ele>
        <time>2017-02-21T12:00:39Z</time>
      </trkpt>
      <trkpt lat="42.77168" lon="0.11217">
        <ele>2794.4</ele>
        <time>2017-02-21T12:00:44Z</time>
      </trkpt>
      <trkpt lat="42.77168" lon="0.11217">
        <ele>2794.4</ele>
        <time>2017-02-21T12:00:49Z</time>
      </trkpt>
      <trkpt lat="42.77168" lon="0.11217">
        <ele>2794.4</ele>
        <time>2017-02-21T12:00:54Z</time>
      </trkpt>
      <trkpt lat="42.77168" lon="0.11217">
        <ele>2794.4</ele>
        <time>2017-02-21T12:00:59Z</time>
      </trkpt>
      <trkpt lat="42.77169" lon="0.11217">
        <ele>2794.4</ele>
        <time>2017-02-21T12:01:04Z</time>
      </trkpt>
      <trkpt lat="42.77169" lon="0.11217">
        <ele>2794.4</ele>
        <time>2017-02-21T12:01:09Z</time>
      </trkpt>
      <trkpt lat="42.77169" lon="0.11217">
        <ele>2794.4</ele>
        <time>2017-02-21T12:01:14Z</time>
      </trkpt>
      <trkpt lat="42.77169" lon="0.11217">
        <ele>2794.4</ele>
        <time>2017-02-21T12:01:19Z</time>
      </trkpt>
      <trkpt lat="42.77169" lon="0.11217">
        <ele>2794.4</ele>
        <time>2017-02-21T12:01:24Z</time>
      </trkpt>
      <trkpt lat="42.77169" lon="0.11217">
        <ele>2794.4</ele>
        <time>2017-02-21T12:01:29Z</time>
      </trkpt>
      <trkpt lat="42.77169" lon="0.11217">
        <ele>2794.4</ele>
        <time>2017-02-21T12:01:34Z</time>
      </trkpt>
      <trkpt lat="42.77169" lon="0.11217">
        <ele>2794.4</ele>
        <time>2017-02-21T12:01:39Z</time>
      </trkpt>
      <trkpt lat="42.77169" lon="0.11217">
        <ele>2794.4</ele>
        <time>2017-02-21T12:01:44Z</time>
      </trkpt>
      <trkpt lat="42.77169" lon="0.11217">
        <ele>2794.4</ele>
        <time>2017-02-21T12:01:49Z</time>
      </trkpt>
      <trkpt lat="42.77169" lon="0.11217">
        <ele>2794.4</ele>
        <time>2017-02-21T12:01:54Z</time>
      </trkpt>
      <trkpt lat="42.77169" lon="0.11217">
        <ele>2794.4</ele>
        <time>2017-02-21T12:01:59Z</time>
      </trkpt>
      <trkpt lat="42.77169" lon="0.11217">
        <ele>2794.4</ele>
        <time>2017-02-21T12:02:04Z</time>
      </trkpt>
      <trkpt lat="42.77169" lon="0.11217">
        <ele>2794.4</ele>
        <time>2017-02-21T12:02:09Z</time>
      </trkpt>
      <trkpt lat="42.77169" lon="0.11217">
        <ele>2794.4</ele>
        <time>2017-02-21T12:02:14Z</time>
      </trkpt>
      <trkpt lat="42.77169" lon="0.11217">
        <ele>2794.4</ele>
        <time>2017-02-21T12:02:19Z</time>
      </trkpt>
      <trkpt lat="42.77169" lon="0.11217">
        <ele>2794.4</ele>
        <time>2017-02-21T12:02:24Z</time>
      </trkpt>
      <trkpt lat="42.77169" lon="0.11217">
        <ele>2794.4</ele>
        <time>2017-02-21T12:02:29Z</time>
      </trkpt>
      <trkpt lat="42.77169" lon="0.11217">
        <ele>2794.4</ele>
        <time>2017-02-21T12:02:34Z</time>
      </trkpt>
      <trkpt lat="42.77169" lon="0.11217">
        <ele>2794.4</ele>
        <time>2017-02-21T12:02:39Z</time>
      </trkpt>
      <trkpt lat="42.77169" lon="0.11217">
        <ele>2794.4</ele>
        <time>2017-02-21T12:02:44Z</time>
      </trkpt>
      <trkpt lat="42.77169" lon="0.11217">
        <ele>2794.4</ele>
        <time>2017-02-21T12:02:49Z</time>
      </trkpt>
      <trkpt lat="42.77169" lon="0.11217">
        <ele>2794.4</ele>
        <time>2017-02-21T12:02:54Z</time>
      </trkpt>
      <trkpt lat="42.77169" lon="0.11217">
        <ele>2794.4</ele>
        <time>2017-02-21T12:02:59Z</time>
      </trkpt>
      <trkpt lat="42.77169" lon="0.11217">
        <ele>2794.4</ele>
        <time>2017-02-21T12:03:04Z</time>
      </trkpt>
      <trkpt lat="42.77169" lon="0.11217">
        <ele>2794.4</ele>
        <time>2017-02-21T12:03:09Z</time>
      </trkpt>
      <trkpt lat="42.77169" lon="0.11217">
        <ele>2794.4</ele>
        <time>2017-02-21T12:03:14Z</time>
      </trkpt>
      <trkpt lat="42.77169" lon="0.11217">
        <ele>2794.4</ele>
        <time>2017-02-21T12:03:19Z</time>
      </trkpt>
      <trkpt lat="42.77169" lon="0.11217">
        <ele>2794.4</ele>
        <time>2017-02-21T12:03:24Z</time>
      </trkpt>
      <trkpt lat="42.77169" lon="0.11217">
        <ele>2794.4</ele>
        <time>2017-02-21T12:03:29Z</time>
      </trkpt>
      <trkpt lat="42.77169" lon="0.11217">
        <ele>2794.4</ele>
        <time>2017-02-21T12:03:34Z</time>
      </trkpt>
      <trkpt lat="42.77169" lon="0.11217">
        <ele>2794.4</ele>
        <time>2017-02-21T12:03:39Z</time>
      </trkpt>
      <trkpt lat="42.77169" lon="0.11217">
        <ele>2794.4</ele>
        <time>2017-02-21T12:03:44Z</time>
      </trkpt>
      <trkpt lat="42.77169" lon="0.11217">
        <ele>2794.4</ele>
        <time>2017-02-21T12:03:49Z</time>
      </trkpt>
      <trkpt lat="42.77169" lon="0.11217">
        <ele>2794.4</ele>
        <time>2017-02-21T12:03:54Z</time>
      </trkpt>
      <trkpt lat="42.77169" lon="0.11217">
        <ele>2794.4</ele>
        <time>2017-02-21T12:03:59Z</time>
      </trkpt>
      <trkpt lat="42.77169" lon="0.11217">
        <ele>2794.4</ele>
        <time>2017-02-21T12:04:04Z</time>
      </trkpt>
      <trkpt lat="42.77169" lon="0.11217">
        <ele>2794.4</ele>
        <time>2017-02-21T12:04:09Z</time>
      </trkpt>
      <trkpt lat="42.77169" lon="0.11217">
        <ele>2794.2</ele>
        <time>2017-02-21T12:04:14Z</time>
      </trkpt>
      <trkpt lat="42.77169" lon="0.11217">
        <ele>2794.2</ele>
        <time>2017-02-21T12:04:19Z</time>
      </trkpt>
      <trkpt lat="42.77169" lon="0.11217">
        <ele>2794.2</ele>
        <time>2017-02-21T12:04:24Z</time>
      </trkpt>
      <trkpt lat="42.77169" lon="0.11217">
        <ele>2794.2</ele>
        <time>2017-02-21T12:04:29Z</time>
      </trkpt>
      <trkpt lat="42.77169" lon="0.11217">
        <ele>2794.2</ele>
        <time>2017-02-21T12:04:34Z</time>
      </trkpt>
      <trkpt lat="42.77169" lon="0.11217">
        <ele>2794.2</ele>
        <time>2017-02-21T12:04:39Z</time>
      </trkpt>
      <trkpt lat="42.77169" lon="0.11216">
        <ele>2794.2</ele>
        <time>2017-02-21T12:04:44Z</time>
      </trkpt>
      <trkpt lat="42.77169" lon="0.11216">
        <ele>2794.2</ele>
        <time>2017-02-21T12:04:49Z</time>
      </trkpt>
      <trkpt lat="42.77169" lon="0.11216">
        <ele>2794.2</ele>
        <time>2017-02-21T12:04:54Z</time>
      </trkpt>
      <trkpt lat="42.77169" lon="0.11216">
        <ele>2794.2</ele>
        <time>2017-02-21T12:04:59Z</time>
      </trkpt>
      <trkpt lat="42.77169" lon="0.11216">
        <ele>2794.2</ele>
        <time>2017-02-21T12:05:04Z</time>
      </trkpt>
      <trkpt lat="42.77169" lon="0.11216">
        <ele>2794.2</ele>
        <time>2017-02-21T12:05:09Z</time>
      </trkpt>
      <trkpt lat="42.77169" lon="0.11216">
        <ele>2794.2</ele>
        <time>2017-02-21T12:05:14Z</time>
      </trkpt>
      <trkpt lat="42.77169" lon="0.11216">
        <ele>2794.2</ele>
        <time>2017-02-21T12:05:19Z</time>
      </trkpt>
      <trkpt lat="42.77169" lon="0.11216">
        <ele>2794.2</ele>
        <time>2017-02-21T12:05:24Z</time>
      </trkpt>
      <trkpt lat="42.77169" lon="0.11216">
        <ele>2794.2</ele>
        <time>2017-02-21T12:05:29Z</time>
      </trkpt>
      <trkpt lat="42.77169" lon="0.11216">
        <ele>2794.2</ele>
        <time>2017-02-21T12:05:34Z</time>
      </trkpt>
      <trkpt lat="42.77169" lon="0.11216">
        <ele>2794.2</ele>
        <time>2017-02-21T12:05:39Z</time>
      </trkpt>
      <trkpt lat="42.77169" lon="0.11216">
        <ele>2794.2</ele>
        <time>2017-02-21T12:05:44Z</time>
      </trkpt>
      <trkpt lat="42.77169" lon="0.11216">
        <ele>2794.2</ele>
        <time>2017-02-21T12:05:49Z</time>
      </trkpt>
      <trkpt lat="42.77169" lon="0.11216">
        <ele>2794.2</ele>
        <time>2017-02-21T12:05:54Z</time>
      </trkpt>
      <trkpt lat="42.77169" lon="0.11216">
        <ele>2794.2</ele>
        <time>2017-02-21T12:05:59Z</time>
      </trkpt>
      <trkpt lat="42.77169" lon="0.11216">
        <ele>2794.2</ele>
        <time>2017-02-21T12:06:04Z</time>
      </trkpt>
      <trkpt lat="42.77169" lon="0.11216">
        <ele>2794.2</ele>
        <time>2017-02-21T12:06:09Z</time>
      </trkpt>
      <trkpt lat="42.77169" lon="0.11216">
        <ele>2794.2</ele>
        <time>2017-02-21T12:06:14Z</time>
      </trkpt>
      <trkpt lat="42.77169" lon="0.11216">
        <ele>2794.2</ele>
        <time>2017-02-21T12:06:19Z</time>
      </trkpt>
      <trkpt lat="42.77169" lon="0.11216">
        <ele>2794.2</ele>
        <time>2017-02-21T12:06:24Z</time>
      </trkpt>
      <trkpt lat="42.77169" lon="0.11216">
        <ele>2794.2</ele>
        <time>2017-02-21T12:06:29Z</time>
      </trkpt>
      <trkpt lat="42.77169" lon="0.11216">
        <ele>2794.2</ele>
        <time>2017-02-21T12:06:34Z</time>
      </trkpt>
      <trkpt lat="42.77169" lon="0.11216">
        <ele>2794.2</ele>
        <time>2017-02-21T12:06:39Z</time>
      </trkpt>
      <trkpt lat="42.77169" lon="0.11216">
        <ele>2794.2</ele>
        <time>2017-02-21T12:06:44Z</time>
      </trkpt>
      <trkpt lat="42.77169" lon="0.11216">
        <ele>2794.2</ele>
        <time>2017-02-21T12:06:49Z</time>
      </trkpt>
      <trkpt lat="42.77169" lon="0.11216">
        <ele>2794</ele>
        <time>2017-02-21T12:06:54Z</time>
      </trkpt>
      <trkpt lat="42.7717" lon="0.11216">
        <ele>2794</ele>
        <time>2017-02-21T12:06:59Z</time>
      </trkpt>
      <trkpt lat="42.7717" lon="0.11216">
        <ele>2794</ele>
        <time>2017-02-21T12:07:04Z</time>
      </trkpt>
      <trkpt lat="42.7717" lon="0.11216">
        <ele>2794</ele>
        <time>2017-02-21T12:07:09Z</time>
      </trkpt>
      <trkpt lat="42.7717" lon="0.11216">
        <ele>2794</ele>
        <time>2017-02-21T12:07:14Z</time>
      </trkpt>
      <trkpt lat="42.7717" lon="0.11216">
        <ele>2794.2</ele>
        <time>2017-02-21T12:07:19Z</time>
      </trkpt>
      <trkpt lat="42.7717" lon="0.11216">
        <ele>2794.2</ele>
        <time>2017-02-21T12:07:24Z</time>
      </trkpt>
      <trkpt lat="42.7717" lon="0.11216">
        <ele>2794.2</ele>
        <time>2017-02-21T12:07:29Z</time>
      </trkpt>
      <trkpt lat="42.7717" lon="0.11216">
        <ele>2794.2</ele>
        <time>2017-02-21T12:07:34Z</time>
      </trkpt>
      <trkpt lat="42.7717" lon="0.11216">
        <ele>2794.2</ele>
        <time>2017-02-21T12:07:39Z</time>
      </trkpt>
      <trkpt lat="42.7717" lon="0.11216">
        <ele>2794.2</ele>
        <time>2017-02-21T12:07:44Z</time>
      </trkpt>
      <trkpt lat="42.7717" lon="0.11216">
        <ele>2794.2</ele>
        <time>2017-02-21T12:07:49Z</time>
      </trkpt>
      <trkpt lat="42.7717" lon="0.11216">
        <ele>2794.2</ele>
        <time>2017-02-21T12:07:54Z</time>
      </trkpt>
      <trkpt lat="42.7717" lon="0.11216">
        <ele>2794.2</ele>
        <time>2017-02-21T12:07:59Z</time>
      </trkpt>
      <trkpt lat="42.7717" lon="0.11216">
        <ele>2794.2</ele>
        <time>2017-02-21T12:08:04Z</time>
      </trkpt>
      <trkpt lat="42.7717" lon="0.11216">
        <ele>2794.2</ele>
        <time>2017-02-21T12:08:09Z</time>
      </trkpt>
      <trkpt lat="42.7717" lon="0.11216">
        <ele>2794.2</ele>
        <time>2017-02-21T12:08:14Z</time>
      </trkpt>
      <trkpt lat="42.7717" lon="0.11216">
        <ele>2794.2</ele>
        <time>2017-02-21T12:08:19Z</time>
      </trkpt>
      <trkpt lat="42.7717" lon="0.11216">
        <ele>2794.2</ele>
        <time>2017-02-21T12:08:24Z</time>
      </trkpt>
      <trkpt lat="42.7717" lon="0.11216">
        <ele>2794.2</ele>
        <time>2017-02-21T12:08:29Z</time>
      </trkpt>
      <trkpt lat="42.7717" lon="0.11216">
        <ele>2794.2</ele>
        <time>2017-02-21T12:08:34Z</time>
      </trkpt>
      <trkpt lat="42.7717" lon="0.11216">
        <ele>2794.2</ele>
        <time>2017-02-21T12:08:39Z</time>
      </trkpt>
      <trkpt lat="42.7717" lon="0.11216">
        <ele>2794.2</ele>
        <time>2017-02-21T12:08:44Z</time>
      </trkpt>
      <trkpt lat="42.77169" lon="0.11217">
        <ele>2794</ele>
        <time>2017-02-21T12:08:49Z</time>
      </trkpt>
      <trkpt lat="42.77169" lon="0.11217">
        <ele>2794.2</ele>
        <time>2017-02-21T12:08:54Z</time>
      </trkpt>
      <trkpt lat="42.77169" lon="0.11217">
        <ele>2794.2</ele>
        <time>2017-02-21T12:08:59Z</time>
      </trkpt>
      <trkpt lat="42.77169" lon="0.11217">
        <ele>2794.2</ele>
        <time>2017-02-21T12:09:04Z</time>
      </trkpt>
      <trkpt lat="42.77169" lon="0.11217">
        <ele>2794.2</ele>
        <time>2017-02-21T12:09:09Z</time>
      </trkpt>
      <trkpt lat="42.77169" lon="0.11217">
        <ele>2794.2</ele>
        <time>2017-02-21T12:09:14Z</time>
      </trkpt>
      <trkpt lat="42.77169" lon="0.11217">
        <ele>2794.2</ele>
        <time>2017-02-21T12:09:19Z</time>
      </trkpt>
      <trkpt lat="42.77169" lon="0.11217">
        <ele>2794.2</ele>
        <time>2017-02-21T12:09:24Z</time>
      </trkpt>
      <trkpt lat="42.77169" lon="0.11217">
        <ele>2794.2</ele>
        <time>2017-02-21T12:09:29Z</time>
      </trkpt>
      <trkpt lat="42.77169" lon="0.11217">
        <ele>2794.2</ele>
        <time>2017-02-21T12:09:34Z</time>
      </trkpt>
      <trkpt lat="42.77169" lon="0.11217">
        <ele>2794.2</ele>
        <time>2017-02-21T12:09:39Z</time>
      </trkpt>
      <trkpt lat="42.77169" lon="0.11217">
        <ele>2794.2</ele>
        <time>2017-02-21T12:09:44Z</time>
      </trkpt>
      <trkpt lat="42.77169" lon="0.11217">
        <ele>2794.2</ele>
        <time>2017-02-21T12:09:49Z</time>
      </trkpt>
      <trkpt lat="42.77169" lon="0.11217">
        <ele>2794.2</ele>
        <time>2017-02-21T12:09:54Z</time>
      </trkpt>
      <trkpt lat="42.77169" lon="0.11217">
        <ele>2794.2</ele>
        <time>2017-02-21T12:09:59Z</time>
      </trkpt>
      <trkpt lat="42.77169" lon="0.11217">
        <ele>2794.2</ele>
        <time>2017-02-21T12:10:04Z</time>
      </trkpt>
      <trkpt lat="42.77169" lon="0.11217">
        <ele>2794.2</ele>
        <time>2017-02-21T12:10:09Z</time>
      </trkpt>
      <trkpt lat="42.77169" lon="0.11217">
        <ele>2794.2</ele>
        <time>2017-02-21T12:10:14Z</time>
      </trkpt>
      <trkpt lat="42.77169" lon="0.11217">
        <ele>2794.2</ele>
        <time>2017-02-21T12:10:19Z</time>
      </trkpt>
      <trkpt lat="42.77169" lon="0.11217">
        <ele>2794.2</ele>
        <time>2017-02-21T12:10:24Z</time>
      </trkpt>
      <trkpt lat="42.77169" lon="0.11217">
        <ele>2794.2</ele>
        <time>2017-02-21T12:10:29Z</time>
      </trkpt>
      <trkpt lat="42.77169" lon="0.11217">
        <ele>2794.2</ele>
        <time>2017-02-21T12:10:34Z</time>
      </trkpt>
      <trkpt lat="42.77169" lon="0.11216">
        <ele>2794.2</ele>
        <time>2017-02-21T12:10:39Z</time>
      </trkpt>
      <trkpt lat="42.77169" lon="0.11216">
        <ele>2794.2</ele>
        <time>2017-02-21T12:10:44Z</time>
      </trkpt>
      <trkpt lat="42.77169" lon="0.11216">
        <ele>2794.2</ele>
        <time>2017-02-21T12:10:49Z</time>
      </trkpt>
      <trkpt lat="42.77169" lon="0.11216">
        <ele>2794.2</ele>
        <time>2017-02-21T12:10:54Z</time>
      </trkpt>
      <trkpt lat="42.77169" lon="0.11216">
        <ele>2794.2</ele>
        <time>2017-02-21T12:10:59Z</time>
      </trkpt>
      <trkpt lat="42.77169" lon="0.11216">
        <ele>2794.2</ele>
        <time>2017-02-21T12:11:04Z</time>
      </trkpt>
      <trkpt lat="42.77169" lon="0.11216">
        <ele>2794.2</ele>
        <time>2017-02-21T12:11:09Z</time>
      </trkpt>
      <trkpt lat="42.77169" lon="0.11216">
        <ele>2794.2</ele>
        <time>2017-02-21T12:11:14Z</time>
      </trkpt>
      <trkpt lat="42.77169" lon="0.11216">
        <ele>2794.2</ele>
        <time>2017-02-21T12:11:19Z</time>
      </trkpt>
      <trkpt lat="42.77169" lon="0.11216">
        <ele>2794.2</ele>
        <time>2017-02-21T12:11:24Z</time>
      </trkpt>
      <trkpt lat="42.77169" lon="0.11216">
        <ele>2794.2</ele>
        <time>2017-02-21T12:11:29Z</time>
      </trkpt>
      <trkpt lat="42.77169" lon="0.11216">
        <ele>2794.2</ele>
        <time>2017-02-21T12:11:34Z</time>
      </trkpt>
      <trkpt lat="42.77169" lon="0.11216">
        <ele>2794.2</ele>
        <time>2017-02-21T12:11:39Z</time>
      </trkpt>
      <trkpt lat="42.77169" lon="0.11216">
        <ele>2794.2</ele>
        <time>2017-02-21T12:11:44Z</time>
      </trkpt>
      <trkpt lat="42.77169" lon="0.11216">
        <ele>2794.2</ele>
        <time>2017-02-21T12:11:49Z</time>
      </trkpt>
      <trkpt lat="42.77169" lon="0.11216">
        <ele>2794.2</ele>
        <time>2017-02-21T12:11:54Z</time>
      </trkpt>
      <trkpt lat="42.77169" lon="0.11216">
        <ele>2794.2</ele>
        <time>2017-02-21T12:11:59Z</time>
      </trkpt>
      <trkpt lat="42.77169" lon="0.11216">
        <ele>2794.2</ele>
        <time>2017-02-21T12:12:04Z</time>
      </trkpt>
      <trkpt lat="42.77169" lon="0.11216">
        <ele>2794.2</ele>
        <time>2017-02-21T12:12:09Z</time>
      </trkpt>
      <trkpt lat="42.77169" lon="0.11216">
        <ele>2794.2</ele>
        <time>2017-02-21T12:12:14Z</time>
      </trkpt>
      <trkpt lat="42.77169" lon="0.11216">
        <ele>2794.2</ele>
        <time>2017-02-21T12:12:19Z</time>
      </trkpt>
      <trkpt lat="42.77169" lon="0.11216">
        <ele>2794.2</ele>
        <time>2017-02-21T12:12:24Z</time>
      </trkpt>
      <trkpt lat="42.77169" lon="0.11216">
        <ele>2794.2</ele>
        <time>2017-02-21T12:12:29Z</time>
      </trkpt>
      <trkpt lat="42.77169" lon="0.11216">
        <ele>2794.2</ele>
        <time>2017-02-21T12:12:34Z</time>
      </trkpt>
      <trkpt lat="42.77169" lon="0.11216">
        <ele>2794.2</ele>
        <time>2017-02-21T12:12:39Z</time>
      </trkpt>
      <trkpt lat="42.77169" lon="0.11216">
        <ele>2794.2</ele>
        <time>2017-02-21T12:12:44Z</time>
      </trkpt>
      <trkpt lat="42.77169" lon="0.11216">
        <ele>2794.2</ele>
        <time>2017-02-21T12:12:49Z</time>
      </trkpt>
      <trkpt lat="42.77169" lon="0.11216">
        <ele>2794.2</ele>
        <time>2017-02-21T12:12:54Z</time>
      </trkpt>
      <trkpt lat="42.77169" lon="0.11216">
        <ele>2794.2</ele>
        <time>2017-02-21T12:12:59Z</time>
      </trkpt>
      <trkpt lat="42.77169" lon="0.11216">
        <ele>2794.2</ele>
        <time>2017-02-21T12:13:04Z</time>
      </trkpt>
      <trkpt lat="42.77169" lon="0.11216">
        <ele>2794.2</ele>
        <time>2017-02-21T12:13:09Z</time>
      </trkpt>
      <trkpt lat="42.77169" lon="0.11216">
        <ele>2794.2</ele>
        <time>2017-02-21T12:13:14Z</time>
      </trkpt>
      <trkpt lat="42.77169" lon="0.11216">
        <ele>2794.2</ele>
        <time>2017-02-21T12:13:19Z</time>
      </trkpt>
      <trkpt lat="42.77169" lon="0.11216">
        <ele>2794.2</ele>
        <time>2017-02-21T12:13:24Z</time>
      </trkpt>
      <trkpt lat="42.77169" lon="0.11216">
        <ele>2794.2</ele>
        <time>2017-02-21T12:13:29Z</time>
      </trkpt>
      <trkpt lat="42.77169" lon="0.11216">
        <ele>2794.2</ele>
        <time>2017-02-21T12:13:34Z</time>
      </trkpt>
      <trkpt lat="42.77169" lon="0.11216">
        <ele>2794.2</ele>
        <time>2017-02-21T12:13:39Z</time>
      </trkpt>
      <trkpt lat="42.77169" lon="0.11216">
        <ele>2794.2</ele>
        <time>2017-02-21T12:13:44Z</time>
      </trkpt>
      <trkpt lat="42.77169" lon="0.11216">
        <ele>2794.2</ele>
        <time>2017-02-21T12:13:49Z</time>
      </trkpt>
      <trkpt lat="42.77169" lon="0.11216">
        <ele>2794.2</ele>
        <time>2017-02-21T12:13:54Z</time>
      </trkpt>
      <trkpt lat="42.77169" lon="0.11216">
        <ele>2794.2</ele>
        <time>2017-02-21T12:13:59Z</time>
      </trkpt>
      <trkpt lat="42.77169" lon="0.11216">
        <ele>2794.2</ele>
        <time>2017-02-21T12:14:04Z</time>
      </trkpt>
      <trkpt lat="42.77169" lon="0.11216">
        <ele>2794.2</ele>
        <time>2017-02-21T12:14:09Z</time>
      </trkpt>
      <trkpt lat="42.77169" lon="0.11216">
        <ele>2794.2</ele>
        <time>2017-02-21T12:14:14Z</time>
      </trkpt>
      <trkpt lat="42.77169" lon="0.11216">
        <ele>2794.2</ele>
        <time>2017-02-21T12:14:19Z</time>
      </trkpt>
      <trkpt lat="42.77169" lon="0.11216">
        <ele>2794.2</ele>
        <time>2017-02-21T12:14:24Z</time>
      </trkpt>
      <trkpt lat="42.77169" lon="0.11216">
        <ele>2794.2</ele>
        <time>2017-02-21T12:14:29Z</time>
      </trkpt>
      <trkpt lat="42.77169" lon="0.11216">
        <ele>2794.2</ele>
        <time>2017-02-21T12:14:34Z</time>
      </trkpt>
      <trkpt lat="42.77169" lon="0.11216">
        <ele>2794.2</ele>
        <time>2017-02-21T12:14:39Z</time>
      </trkpt>
      <trkpt lat="42.77169" lon="0.11216">
        <ele>2794.2</ele>
        <time>2017-02-21T12:14:44Z</time>
      </trkpt>
      <trkpt lat="42.77169" lon="0.11216">
        <ele>2794.2</ele>
        <time>2017-02-21T12:14:49Z</time>
      </trkpt>
      <trkpt lat="42.77169" lon="0.11216">
        <ele>2794.2</ele>
        <time>2017-02-21T12:14:54Z</time>
      </trkpt>
      <trkpt lat="42.7717" lon="0.11216">
        <ele>2794</ele>
        <time>2017-02-21T12:14:59Z</time>
      </trkpt>
      <trkpt lat="42.77169" lon="0.11216">
        <ele>2793.8</ele>
        <time>2017-02-21T12:15:04Z</time>
      </trkpt>
      <trkpt lat="42.77169" lon="0.11216">
        <ele>2793.8</ele>
        <time>2017-02-21T12:15:09Z</time>
      </trkpt>
      <trkpt lat="42.77169" lon="0.11216">
        <ele>2793.6</ele>
        <time>2017-02-21T12:15:14Z</time>
      </trkpt>
      <trkpt lat="42.77169" lon="0.11215">
        <ele>2792.8</ele>
        <time>2017-02-21T12:15:19Z</time>
      </trkpt>
      <trkpt lat="42.7717" lon="0.11215">
        <ele>2792.6</ele>
        <time>2017-02-21T12:15:24Z</time>
      </trkpt>
      <trkpt lat="42.7717" lon="0.11215">
        <ele>2792.4</ele>
        <time>2017-02-21T12:15:29Z</time>
      </trkpt>
      <trkpt lat="42.7717" lon="0.11215">
        <ele>2792.4</ele>
        <time>2017-02-21T12:15:34Z</time>
      </trkpt>
      <trkpt lat="42.7717" lon="0.11216">
        <ele>2792.2</ele>
        <time>2017-02-21T12:15:39Z</time>
      </trkpt>
      <trkpt lat="42.77171" lon="0.11216">
        <ele>2792.2</ele>
        <time>2017-02-21T12:15:44Z</time>
      </trkpt>
      <trkpt lat="42.77171" lon="0.11216">
        <ele>2793.2</ele>
        <time>2017-02-21T12:15:49Z</time>
      </trkpt>
      <trkpt lat="42.77172" lon="0.11216">
        <ele>2792.8</ele>
        <time>2017-02-21T12:15:54Z</time>
      </trkpt>
      <trkpt lat="42.77172" lon="0.11216">
        <ele>2792.6</ele>
        <time>2017-02-21T12:15:59Z</time>
      </trkpt>
      <trkpt lat="42.77172" lon="0.11215">
        <ele>2792.4</ele>
        <time>2017-02-21T12:16:04Z</time>
      </trkpt>
      <trkpt lat="42.77172" lon="0.11215">
        <ele>2792.4</ele>
        <time>2017-02-21T12:16:09Z</time>
      </trkpt>
      <trkpt lat="42.77172" lon="0.11215">
        <ele>2792.4</ele>
        <time>2017-02-21T12:16:14Z</time>
      </trkpt>
      <trkpt lat="42.77172" lon="0.11215">
        <ele>2792.4</ele>
        <time>2017-02-21T12:16:19Z</time>
      </trkpt>
      <trkpt lat="42.77172" lon="0.11215">
        <ele>2792.4</ele>
        <time>2017-02-21T12:16:24Z</time>
      </trkpt>
      <trkpt lat="42.77172" lon="0.11215">
        <ele>2792.4</ele>
        <time>2017-02-21T12:16:29Z</time>
      </trkpt>
      <trkpt lat="42.77172" lon="0.11215">
        <ele>2792.4</ele>
        <time>2017-02-21T12:16:34Z</time>
      </trkpt>
      <trkpt lat="42.77172" lon="0.11215">
        <ele>2792.6</ele>
        <time>2017-02-21T12:16:39Z</time>
      </trkpt>
      <trkpt lat="42.77172" lon="0.11215">
        <ele>2792.6</ele>
        <time>2017-02-21T12:16:44Z</time>
      </trkpt>
      <trkpt lat="42.77172" lon="0.11215">
        <ele>2793.6</ele>
        <time>2017-02-21T12:16:49Z</time>
      </trkpt>
      <trkpt lat="42.77172" lon="0.11215">
        <ele>2793.6</ele>
        <time>2017-02-21T12:16:54Z</time>
      </trkpt>
      <trkpt lat="42.77171" lon="0.11215">
        <ele>2797.2</ele>
        <time>2017-02-21T12:16:59Z</time>
      </trkpt>
      <trkpt lat="42.77171" lon="0.11215">
        <ele>2796.2</ele>
        <time>2017-02-21T12:17:04Z</time>
      </trkpt>
      <trkpt lat="42.77171" lon="0.11215">
        <ele>2795.6</ele>
        <time>2017-02-21T12:17:09Z</time>
      </trkpt>
      <trkpt lat="42.77171" lon="0.11214">
        <ele>2795.2</ele>
        <time>2017-02-21T12:17:14Z</time>
      </trkpt>
      <trkpt lat="42.77168" lon="0.11207">
        <ele>2792.6</ele>
        <time>2017-02-21T12:17:19Z</time>
      </trkpt>
      <trkpt lat="42.77161" lon="0.11188">
        <ele>2789.6</ele>
        <time>2017-02-21T12:17:24Z</time>
      </trkpt>
      <trkpt lat="42.77161" lon="0.11171">
        <ele>2787.4</ele>
        <time>2017-02-21T12:17:29Z</time>
      </trkpt>
      <trkpt lat="42.77173" lon="0.11161">
        <ele>2775.8</ele>
        <time>2017-02-21T12:17:34Z</time>
      </trkpt>
      <trkpt lat="42.77194" lon="0.11147">
        <ele>2764.6</ele>
        <time>2017-02-21T12:17:39Z</time>
      </trkpt>
      <trkpt lat="42.77217" lon="0.11135">
        <ele>2756.2</ele>
        <time>2017-02-21T12:17:44Z</time>
      </trkpt>
      <trkpt lat="42.77242" lon="0.11132">
        <ele>2749</ele>
        <time>2017-02-21T12:17:49Z</time>
      </trkpt>
      <trkpt lat="42.77263" lon="0.11117">
        <ele>2741</ele>
        <time>2017-02-21T12:17:54Z</time>
      </trkpt>
      <trkpt lat="42.77272" lon="0.1109">
        <ele>2739</ele>
        <time>2017-02-21T12:17:59Z</time>
      </trkpt>
      <trkpt lat="42.77272" lon="0.11089">
        <ele>2737.2</ele>
        <time>2017-02-21T12:18:04Z</time>
      </trkpt>
      <trkpt lat="42.77271" lon="0.11089">
        <ele>2736</ele>
        <time>2017-02-21T12:18:09Z</time>
      </trkpt>
      <trkpt lat="42.77271" lon="0.11089">
        <ele>2734.8</ele>
        <time>2017-02-21T12:18:14Z</time>
      </trkpt>
      <trkpt lat="42.77271" lon="0.11089">
        <ele>2734</ele>
        <time>2017-02-21T12:18:19Z</time>
      </trkpt>
      <trkpt lat="42.77271" lon="0.11089">
        <ele>2733.4</ele>
        <time>2017-02-21T12:18:24Z</time>
      </trkpt>
      <trkpt lat="42.77271" lon="0.11089">
        <ele>2732.6</ele>
        <time>2017-02-21T12:18:29Z</time>
      </trkpt>
      <trkpt lat="42.77271" lon="0.11089">
        <ele>2732</ele>
        <time>2017-02-21T12:18:34Z</time>
      </trkpt>
      <trkpt lat="42.77271" lon="0.11089">
        <ele>2731.4</ele>
        <time>2017-02-21T12:18:39Z</time>
      </trkpt>
      <trkpt lat="42.77271" lon="0.11089">
        <ele>2731.2</ele>
        <time>2017-02-21T12:18:44Z</time>
      </trkpt>
      <trkpt lat="42.7727" lon="0.1109">
        <ele>2730.8</ele>
        <time>2017-02-21T12:18:49Z</time>
      </trkpt>
      <trkpt lat="42.77269" lon="0.1109">
        <ele>2730</ele>
        <time>2017-02-21T12:18:54Z</time>
      </trkpt>
      <trkpt lat="42.77268" lon="0.11089">
        <ele>2729.6</ele>
        <time>2017-02-21T12:18:59Z</time>
      </trkpt>
      <trkpt lat="42.77267" lon="0.11088">
        <ele>2727.8</ele>
        <time>2017-02-21T12:19:04Z</time>
      </trkpt>
      <trkpt lat="42.77267" lon="0.11088">
        <ele>2726.4</ele>
        <time>2017-02-21T12:19:09Z</time>
      </trkpt>
      <trkpt lat="42.77267" lon="0.11088">
        <ele>2725.2</ele>
        <time>2017-02-21T12:19:14Z</time>
      </trkpt>
      <trkpt lat="42.77266" lon="0.11088">
        <ele>2724.4</ele>
        <time>2017-02-21T12:19:19Z</time>
      </trkpt>
      <trkpt lat="42.77266" lon="0.11088">
        <ele>2723.6</ele>
        <time>2017-02-21T12:19:24Z</time>
      </trkpt>
      <trkpt lat="42.77266" lon="0.11088">
        <ele>2723</ele>
        <time>2017-02-21T12:19:29Z</time>
      </trkpt>
      <trkpt lat="42.77266" lon="0.11088">
        <ele>2722.4</ele>
        <time>2017-02-21T12:19:34Z</time>
      </trkpt>
      <trkpt lat="42.77266" lon="0.11088">
        <ele>2722</ele>
        <time>2017-02-21T12:19:39Z</time>
      </trkpt>
      <trkpt lat="42.77266" lon="0.11088">
        <ele>2721.6</ele>
        <time>2017-02-21T12:19:44Z</time>
      </trkpt>
      <trkpt lat="42.77266" lon="0.11088">
        <ele>2721.4</ele>
        <time>2017-02-21T12:19:49Z</time>
      </trkpt>
      <trkpt lat="42.77266" lon="0.11088">
        <ele>2721.2</ele>
        <time>2017-02-21T12:19:54Z</time>
      </trkpt>
      <trkpt lat="42.77266" lon="0.11088">
        <ele>2721</ele>
        <time>2017-02-21T12:19:59Z</time>
      </trkpt>
      <trkpt lat="42.77266" lon="0.11087">
        <ele>2720.8</ele>
        <time>2017-02-21T12:20:04Z</time>
      </trkpt>
      <trkpt lat="42.77264" lon="0.11084">
        <ele>2717.4</ele>
        <time>2017-02-21T12:20:09Z</time>
      </trkpt>
      <trkpt lat="42.77264" lon="0.11084">
        <ele>2718</ele>
        <time>2017-02-21T12:20:14Z</time>
      </trkpt>
      <trkpt lat="42.77264" lon="0.11081">
        <ele>2719.2</ele>
        <time>2017-02-21T12:20:19Z</time>
      </trkpt>
      <trkpt lat="42.77273" lon="0.11063">
        <ele>2712.2</ele>
        <time>2017-02-21T12:20:24Z</time>
      </trkpt>
      <trkpt lat="42.77291" lon="0.11043">
        <ele>2697.2</ele>
        <time>2017-02-21T12:20:29Z</time>
      </trkpt>
      <trkpt lat="42.77308" lon="0.11024">
        <ele>2689.8</ele>
        <time>2017-02-21T12:20:34Z</time>
      </trkpt>
      <trkpt lat="42.77316" lon="0.11026">
        <ele>2690.4</ele>
        <time>2017-02-21T12:20:39Z</time>
      </trkpt>
      <trkpt lat="42.77316" lon="0.11026">
        <ele>2690</ele>
        <time>2017-02-21T12:20:44Z</time>
      </trkpt>
      <trkpt lat="42.77316" lon="0.11026">
        <ele>2689.6</ele>
        <time>2017-02-21T12:20:49Z</time>
      </trkpt>
      <trkpt lat="42.77315" lon="0.11026">
        <ele>2689.4</ele>
        <time>2017-02-21T12:20:54Z</time>
      </trkpt>
      <trkpt lat="42.77315" lon="0.11026">
        <ele>2688.8</ele>
        <time>2017-02-21T12:20:59Z</time>
      </trkpt>
      <trkpt lat="42.77314" lon="0.11026">
        <ele>2688.4</ele>
        <time>2017-02-21T12:21:04Z</time>
      </trkpt>
      <trkpt lat="42.77319" lon="0.11028">
        <ele>2685.2</ele>
        <time>2017-02-21T12:21:09Z</time>
      </trkpt>
      <trkpt lat="42.77336" lon="0.11013">
        <ele>2670</ele>
        <time>2017-02-21T12:21:14Z</time>
      </trkpt>
      <trkpt lat="42.77365" lon="0.10998">
        <ele>2661</ele>
        <time>2017-02-21T12:21:19Z</time>
      </trkpt>
      <trkpt lat="42.77391" lon="0.11002">
        <ele>2656.8</ele>
        <time>2017-02-21T12:21:24Z</time>
      </trkpt>
      <trkpt lat="42.77416" lon="0.11014">
        <ele>2652</ele>
        <time>2017-02-21T12:21:29Z</time>
      </trkpt>
      <trkpt lat="42.77441" lon="0.11023">
        <ele>2645.6</ele>
        <time>2017-02-21T12:21:34Z</time>
      </trkpt>
      <trkpt lat="42.77456" lon="0.11032">
        <ele>2642.8</ele>
        <time>2017-02-21T12:21:39Z</time>
      </trkpt>
      <trkpt lat="42.77459" lon="0.11035">
        <ele>2639.6</ele>
        <time>2017-02-21T12:21:44Z</time>
      </trkpt>
      <trkpt lat="42.77462" lon="0.11038">
        <ele>2637.4</ele>
        <time>2017-02-21T12:21:49Z</time>
      </trkpt>
      <trkpt lat="42.77466" lon="0.11043">
        <ele>2632</ele>
        <time>2017-02-21T12:21:54Z</time>
      </trkpt>
      <trkpt lat="42.77471" lon="0.11051">
        <ele>2633</ele>
        <time>2017-02-21T12:21:59Z</time>
      </trkpt>
      <trkpt lat="42.77477" lon="0.11059">
        <ele>2627.8</ele>
        <time>2017-02-21T12:22:04Z</time>
      </trkpt>
      <trkpt lat="42.77477" lon="0.11059">
        <ele>2627.8</ele>
        <time>2017-02-21T12:22:09Z</time>
      </trkpt>
      <trkpt lat="42.77479" lon="0.11055">
        <ele>2622.8</ele>
        <time>2017-02-21T12:22:14Z</time>
      </trkpt>
      <trkpt lat="42.77488" lon="0.11068">
        <ele>2618.6</ele>
        <time>2017-02-21T12:22:19Z</time>
      </trkpt>
      <trkpt lat="42.77497" lon="0.11095">
        <ele>2619.4</ele>
        <time>2017-02-21T12:22:24Z</time>
      </trkpt>
      <trkpt lat="42.77505" lon="0.11117">
        <ele>2618</ele>
        <time>2017-02-21T12:22:29Z</time>
      </trkpt>
      <trkpt lat="42.77514" lon="0.11139">
        <ele>2614.2</ele>
        <time>2017-02-21T12:22:34Z</time>
      </trkpt>
      <trkpt lat="42.77526" lon="0.1116">
        <ele>2611.8</ele>
        <time>2017-02-21T12:22:39Z</time>
      </trkpt>
      <trkpt lat="42.77533" lon="0.11183">
        <ele>2611.4</ele>
        <time>2017-02-21T12:22:44Z</time>
      </trkpt>
      <trkpt lat="42.77538" lon="0.11205">
        <ele>2607.8</ele>
        <time>2017-02-21T12:22:49Z</time>
      </trkpt>
      <trkpt lat="42.77537" lon="0.11206">
        <ele>2609.4</ele>
        <time>2017-02-21T12:22:54Z</time>
      </trkpt>
      <trkpt lat="42.77537" lon="0.11206">
        <ele>2609.6</ele>
        <time>2017-02-21T12:22:59Z</time>
      </trkpt>
      <trkpt lat="42.77537" lon="0.11206">
        <ele>2609.6</ele>
        <time>2017-02-21T12:23:04Z</time>
      </trkpt>
      <trkpt lat="42.77537" lon="0.11206">
        <ele>2609.8</ele>
        <time>2017-02-21T12:23:09Z</time>
      </trkpt>
      <trkpt lat="42.77537" lon="0.11206">
        <ele>2609.8</ele>
        <time>2017-02-21T12:23:14Z</time>
      </trkpt>
      <trkpt lat="42.77537" lon="0.11206">
        <ele>2609.8</ele>
        <time>2017-02-21T12:23:19Z</time>
      </trkpt>
      <trkpt lat="42.77537" lon="0.11208">
        <ele>2610.6</ele>
        <time>2017-02-21T12:23:24Z</time>
      </trkpt>
      <trkpt lat="42.77537" lon="0.11208">
        <ele>2610.2</ele>
        <time>2017-02-21T12:23:29Z</time>
      </trkpt>
      <trkpt lat="42.77537" lon="0.11208">
        <ele>2610</ele>
        <time>2017-02-21T12:23:34Z</time>
      </trkpt>
      <trkpt lat="42.77537" lon="0.11209">
        <ele>2608.2</ele>
        <time>2017-02-21T12:23:39Z</time>
      </trkpt>
      <trkpt lat="42.77546" lon="0.11232">
        <ele>2607.2</ele>
        <time>2017-02-21T12:23:45Z</time>
      </trkpt>
      <trkpt lat="42.77543" lon="0.11255">
        <ele>2602.8</ele>
        <time>2017-02-21T12:23:51Z</time>
      </trkpt>
      <trkpt lat="42.77524" lon="0.11265">
        <ele>2596.2</ele>
        <time>2017-02-21T12:23:56Z</time>
      </trkpt>
      <trkpt lat="42.77521" lon="0.11265">
        <ele>2600.6</ele>
        <time>2017-02-21T12:24:01Z</time>
      </trkpt>
      <trkpt lat="42.77519" lon="0.11268">
        <ele>2598.8</ele>
        <time>2017-02-21T12:24:06Z</time>
      </trkpt>
      <trkpt lat="42.7751" lon="0.1128">
        <ele>2594.6</ele>
        <time>2017-02-21T12:24:11Z</time>
      </trkpt>
      <trkpt lat="42.77499" lon="0.11295">
        <ele>2594.8</ele>
        <time>2017-02-21T12:24:16Z</time>
      </trkpt>
      <trkpt lat="42.77494" lon="0.11301">
        <ele>2592.2</ele>
        <time>2017-02-21T12:24:21Z</time>
      </trkpt>
      <trkpt lat="42.77494" lon="0.11301">
        <ele>2593.2</ele>
        <time>2017-02-21T12:24:26Z</time>
      </trkpt>
      <trkpt lat="42.77494" lon="0.11301">
        <ele>2594</ele>
        <time>2017-02-21T12:24:31Z</time>
      </trkpt>
      <trkpt lat="42.77494" lon="0.11301">
        <ele>2594.6</ele>
        <time>2017-02-21T12:24:36Z</time>
      </trkpt>
      <trkpt lat="42.77495" lon="0.11301">
        <ele>2594.8</ele>
        <time>2017-02-21T12:24:41Z</time>
      </trkpt>
      <trkpt lat="42.77495" lon="0.11301">
        <ele>2595</ele>
        <time>2017-02-21T12:24:46Z</time>
      </trkpt>
      <trkpt lat="42.77495" lon="0.11301">
        <ele>2595</ele>
        <time>2017-02-21T12:24:51Z</time>
      </trkpt>
      <trkpt lat="42.77495" lon="0.11301">
        <ele>2595.2</ele>
        <time>2017-02-21T12:24:56Z</time>
      </trkpt>
      <trkpt lat="42.77495" lon="0.11301">
        <ele>2595.2</ele>
        <time>2017-02-21T12:25:01Z</time>
      </trkpt>
      <trkpt lat="42.77488" lon="0.11313">
        <ele>2592.4</ele>
        <time>2017-02-21T12:25:06Z</time>
      </trkpt>
      <trkpt lat="42.7747" lon="0.11333">
        <ele>2590.8</ele>
        <time>2017-02-21T12:25:11Z</time>
      </trkpt>
      <trkpt lat="42.77458" lon="0.11342">
        <ele>2586.8</ele>
        <time>2017-02-21T12:25:16Z</time>
      </trkpt>
      <trkpt lat="42.77446" lon="0.11355">
        <ele>2585</ele>
        <time>2017-02-21T12:25:21Z</time>
      </trkpt>
      <trkpt lat="42.77441" lon="0.11377">
        <ele>2568.2</ele>
        <time>2017-02-21T12:25:26Z</time>
      </trkpt>
      <trkpt lat="42.77453" lon="0.11402">
        <ele>2562.2</ele>
        <time>2017-02-21T12:25:31Z</time>
      </trkpt>
      <trkpt lat="42.77451" lon="0.1143">
        <ele>2556.8</ele>
        <time>2017-02-21T12:25:36Z</time>
      </trkpt>
      <trkpt lat="42.7744" lon="0.11459">
        <ele>2546.2</ele>
        <time>2017-02-21T12:25:41Z</time>
      </trkpt>
      <trkpt lat="42.77431" lon="0.11488">
        <ele>2537.2</ele>
        <time>2017-02-21T12:25:46Z</time>
      </trkpt>
      <trkpt lat="42.77421" lon="0.11508">
        <ele>2531.4</ele>
        <time>2017-02-21T12:25:51Z</time>
      </trkpt>
      <trkpt lat="42.77419" lon="0.11504">
        <ele>2529.4</ele>
        <time>2017-02-21T12:25:56Z</time>
      </trkpt>
      <trkpt lat="42.77418" lon="0.11503">
        <ele>2524.6</ele>
        <time>2017-02-21T12:26:01Z</time>
      </trkpt>
      <trkpt lat="42.77417" lon="0.11499">
        <ele>2520.8</ele>
        <time>2017-02-21T12:26:06Z</time>
      </trkpt>
      <trkpt lat="42.77417" lon="0.11499">
        <ele>2517.4</ele>
        <time>2017-02-21T12:26:11Z</time>
      </trkpt>
      <trkpt lat="42.77417" lon="0.11499">
        <ele>2514.6</ele>
        <time>2017-02-21T12:26:16Z</time>
      </trkpt>
      <trkpt lat="42.77417" lon="0.115">
        <ele>2512.4</ele>
        <time>2017-02-21T12:26:21Z</time>
      </trkpt>
      <trkpt lat="42.77417" lon="0.11501">
        <ele>2510.6</ele>
        <time>2017-02-21T12:26:26Z</time>
      </trkpt>
      <trkpt lat="42.77416" lon="0.11501">
        <ele>2509.4</ele>
        <time>2017-02-21T12:26:31Z</time>
      </trkpt>
      <trkpt lat="42.77416" lon="0.11501">
        <ele>2508</ele>
        <time>2017-02-21T12:26:36Z</time>
      </trkpt>
      <trkpt lat="42.77415" lon="0.11502">
        <ele>2506.8</ele>
        <time>2017-02-21T12:26:41Z</time>
      </trkpt>
      <trkpt lat="42.77414" lon="0.11501">
        <ele>2505.8</ele>
        <time>2017-02-21T12:26:46Z</time>
      </trkpt>
      <trkpt lat="42.77412" lon="0.11501">
        <ele>2504.6</ele>
        <time>2017-02-21T12:26:51Z</time>
      </trkpt>
      <trkpt lat="42.77412" lon="0.11502">
        <ele>2503.2</ele>
        <time>2017-02-21T12:26:56Z</time>
      </trkpt>
      <trkpt lat="42.77413" lon="0.11502">
        <ele>2502.6</ele>
        <time>2017-02-21T12:27:01Z</time>
      </trkpt>
      <trkpt lat="42.77412" lon="0.11502">
        <ele>2502.4</ele>
        <time>2017-02-21T12:27:06Z</time>
      </trkpt>
      <trkpt lat="42.7741" lon="0.11501">
        <ele>2501.6</ele>
        <time>2017-02-21T12:27:11Z</time>
      </trkpt>
      <trkpt lat="42.77411" lon="0.11502">
        <ele>2500.4</ele>
        <time>2017-02-21T12:27:16Z</time>
      </trkpt>
      <trkpt lat="42.77411" lon="0.11502">
        <ele>2500.2</ele>
        <time>2017-02-21T12:27:21Z</time>
      </trkpt>
      <trkpt lat="42.77412" lon="0.11502">
        <ele>2500.2</ele>
        <time>2017-02-21T12:27:26Z</time>
      </trkpt>
      <trkpt lat="42.77411" lon="0.11502">
        <ele>2500.4</ele>
        <time>2017-02-21T12:27:31Z</time>
      </trkpt>
      <trkpt lat="42.77413" lon="0.11502">
        <ele>2500.6</ele>
        <time>2017-02-21T12:27:36Z</time>
      </trkpt>
      <trkpt lat="42.77413" lon="0.11501">
        <ele>2501.2</ele>
        <time>2017-02-21T12:27:41Z</time>
      </trkpt>
      <trkpt lat="42.77412" lon="0.115">
        <ele>2501.2</ele>
        <time>2017-02-21T12:27:46Z</time>
      </trkpt>
      <trkpt lat="42.77413" lon="0.115">
        <ele>2500.6</ele>
        <time>2017-02-21T12:27:51Z</time>
      </trkpt>
      <trkpt lat="42.77413" lon="0.115">
        <ele>2500.6</ele>
        <time>2017-02-21T12:27:56Z</time>
      </trkpt>
      <trkpt lat="42.77412" lon="0.11499">
        <ele>2500.4</ele>
        <time>2017-02-21T12:28:01Z</time>
      </trkpt>
      <trkpt lat="42.77411" lon="0.11499">
        <ele>2499.8</ele>
        <time>2017-02-21T12:28:06Z</time>
      </trkpt>
      <trkpt lat="42.77412" lon="0.11499">
        <ele>2499.2</ele>
        <time>2017-02-21T12:28:11Z</time>
      </trkpt>
      <trkpt lat="42.77413" lon="0.115">
        <ele>2499</ele>
        <time>2017-02-21T12:28:16Z</time>
      </trkpt>
      <trkpt lat="42.77413" lon="0.115">
        <ele>2499.2</ele>
        <time>2017-02-21T12:28:21Z</time>
      </trkpt>
      <trkpt lat="42.77412" lon="0.115">
        <ele>2499.6</ele>
        <time>2017-02-21T12:28:26Z</time>
      </trkpt>
      <trkpt lat="42.77412" lon="0.115">
        <ele>2499.4</ele>
        <time>2017-02-21T12:28:31Z</time>
      </trkpt>
      <trkpt lat="42.77414" lon="0.11501">
        <ele>2499.4</ele>
        <time>2017-02-21T12:28:36Z</time>
      </trkpt>
      <trkpt lat="42.77415" lon="0.11501">
        <ele>2500.4</ele>
        <time>2017-02-21T12:28:41Z</time>
      </trkpt>
      <trkpt lat="42.77416" lon="0.11502">
        <ele>2500.6</ele>
        <time>2017-02-21T12:28:46Z</time>
      </trkpt>
      <trkpt lat="42.77416" lon="0.11501">
        <ele>2501.2</ele>
        <time>2017-02-21T12:28:51Z</time>
      </trkpt>
      <trkpt lat="42.77416" lon="0.11501">
        <ele>2501.8</ele>
        <time>2017-02-21T12:28:56Z</time>
      </trkpt>
      <trkpt lat="42.77416" lon="0.11502">
        <ele>2502.4</ele>
        <time>2017-02-21T12:29:01Z</time>
      </trkpt>
      <trkpt lat="42.77416" lon="0.11502">
        <ele>2503</ele>
        <time>2017-02-21T12:29:06Z</time>
      </trkpt>
      <trkpt lat="42.77416" lon="0.11502">
        <ele>2503.6</ele>
        <time>2017-02-21T12:29:11Z</time>
      </trkpt>
      <trkpt lat="42.77416" lon="0.11502">
        <ele>2504.2</ele>
        <time>2017-02-21T12:29:16Z</time>
      </trkpt>
      <trkpt lat="42.77416" lon="0.11502">
        <ele>2504.6</ele>
        <time>2017-02-21T12:29:21Z</time>
      </trkpt>
      <trkpt lat="42.77417" lon="0.11502">
        <ele>2505</ele>
        <time>2017-02-21T12:29:26Z</time>
      </trkpt>
      <trkpt lat="42.77417" lon="0.11502">
        <ele>2505.4</ele>
        <time>2017-02-21T12:29:31Z</time>
      </trkpt>
      <trkpt lat="42.77417" lon="0.11502">
        <ele>2506</ele>
        <time>2017-02-21T12:29:36Z</time>
      </trkpt>
      <trkpt lat="42.77417" lon="0.11502">
        <ele>2506.2</ele>
        <time>2017-02-21T12:29:41Z</time>
      </trkpt>
      <trkpt lat="42.77417" lon="0.11502">
        <ele>2506.4</ele>
        <time>2017-02-21T12:29:46Z</time>
      </trkpt>
      <trkpt lat="42.77416" lon="0.11502">
        <ele>2506.6</ele>
        <time>2017-02-21T12:29:51Z</time>
      </trkpt>
      <trkpt lat="42.77416" lon="0.11502">
        <ele>2506.8</ele>
        <time>2017-02-21T12:29:56Z</time>
      </trkpt>
      <trkpt lat="42.77417" lon="0.11502">
        <ele>2507</ele>
        <time>2017-02-21T12:30:01Z</time>
      </trkpt>
      <trkpt lat="42.77418" lon="0.11501">
        <ele>2507.4</ele>
        <time>2017-02-21T12:30:06Z</time>
      </trkpt>
      <trkpt lat="42.77419" lon="0.11502">
        <ele>2508</ele>
        <time>2017-02-21T12:30:11Z</time>
      </trkpt>
      <trkpt lat="42.7742" lon="0.11502">
        <ele>2508.2</ele>
        <time>2017-02-21T12:30:16Z</time>
      </trkpt>
      <trkpt lat="42.77419" lon="0.11502">
        <ele>2507.6</ele>
        <time>2017-02-21T12:30:21Z</time>
      </trkpt>
      <trkpt lat="42.77419" lon="0.11502">
        <ele>2507.8</ele>
        <time>2017-02-21T12:30:26Z</time>
      </trkpt>
      <trkpt lat="42.77419" lon="0.11506">
        <ele>2502.2</ele>
        <time>2017-02-21T12:30:31Z</time>
      </trkpt>
      <trkpt lat="42.77409" lon="0.11516">
        <ele>2507</ele>
        <time>2017-02-21T12:30:36Z</time>
      </trkpt>
      <trkpt lat="42.77392" lon="0.11529">
        <ele>2494.4</ele>
        <time>2017-02-21T12:30:41Z</time>
      </trkpt>
      <trkpt lat="42.77392" lon="0.11555">
        <ele>2486.8</ele>
        <time>2017-02-21T12:30:46Z</time>
      </trkpt>
      <trkpt lat="42.77392" lon="0.11584">
        <ele>2484</ele>
        <time>2017-02-21T12:30:51Z</time>
      </trkpt>
      <trkpt lat="42.77399" lon="0.11605">
        <ele>2475.8</ele>
        <time>2017-02-21T12:30:56Z</time>
      </trkpt>
      <trkpt lat="42.77397" lon="0.11624">
        <ele>2473.2</ele>
        <time>2017-02-21T12:31:01Z</time>
      </trkpt>
      <trkpt lat="42.77365" lon="0.11631">
        <ele>2470.4</ele>
        <time>2017-02-21T12:31:06Z</time>
      </trkpt>
      <trkpt lat="42.77355" lon="0.11659">
        <ele>2464.2</ele>
        <time>2017-02-21T12:31:11Z</time>
      </trkpt>
      <trkpt lat="42.77371" lon="0.11682">
        <ele>2458</ele>
        <time>2017-02-21T12:31:16Z</time>
      </trkpt>
      <trkpt lat="42.77386" lon="0.11719">
        <ele>2445.6</ele>
        <time>2017-02-21T12:31:21Z</time>
      </trkpt>
      <trkpt lat="42.77394" lon="0.11758">
        <ele>2441.2</ele>
        <time>2017-02-21T12:31:26Z</time>
      </trkpt>
      <trkpt lat="42.77393" lon="0.11761">
        <ele>2438.2</ele>
        <time>2017-02-21T12:31:31Z</time>
      </trkpt>
      <trkpt lat="42.77391" lon="0.11758">
        <ele>2436.8</ele>
        <time>2017-02-21T12:31:36Z</time>
      </trkpt>
      <trkpt lat="42.7739" lon="0.11758">
        <ele>2434.4</ele>
        <time>2017-02-21T12:31:41Z</time>
      </trkpt>
      <trkpt lat="42.7739" lon="0.11758">
        <ele>2432.8</ele>
        <time>2017-02-21T12:31:46Z</time>
      </trkpt>
      <trkpt lat="42.7739" lon="0.11758">
        <ele>2431.6</ele>
        <time>2017-02-21T12:31:51Z</time>
      </trkpt>
      <trkpt lat="42.77389" lon="0.11757">
        <ele>2430.6</ele>
        <time>2017-02-21T12:31:56Z</time>
      </trkpt>
      <trkpt lat="42.77388" lon="0.11756">
        <ele>2429.4</ele>
        <time>2017-02-21T12:32:01Z</time>
      </trkpt>
      <trkpt lat="42.77388" lon="0.11756">
        <ele>2428.6</ele>
        <time>2017-02-21T12:32:07Z</time>
      </trkpt>
      <trkpt lat="42.77386" lon="0.11755">
        <ele>2428</ele>
        <time>2017-02-21T12:32:13Z</time>
      </trkpt>
      <trkpt lat="42.77386" lon="0.11754">
        <ele>2426.8</ele>
        <time>2017-02-21T12:32:18Z</time>
      </trkpt>
      <trkpt lat="42.77386" lon="0.11754">
        <ele>2425.8</ele>
        <time>2017-02-21T12:32:23Z</time>
      </trkpt>
      <trkpt lat="42.77385" lon="0.11754">
        <ele>2425</ele>
        <time>2017-02-21T12:32:28Z</time>
      </trkpt>
      <trkpt lat="42.77385" lon="0.11754">
        <ele>2424.4</ele>
        <time>2017-02-21T12:32:33Z</time>
      </trkpt>
      <trkpt lat="42.77385" lon="0.11754">
        <ele>2423.4</ele>
        <time>2017-02-21T12:32:38Z</time>
      </trkpt>
      <trkpt lat="42.77385" lon="0.11754">
        <ele>2422.8</ele>
        <time>2017-02-21T12:32:43Z</time>
      </trkpt>
      <trkpt lat="42.77384" lon="0.11754">
        <ele>2422.4</ele>
        <time>2017-02-21T12:32:48Z</time>
      </trkpt>
      <trkpt lat="42.77384" lon="0.11755">
        <ele>2421.6</ele>
        <time>2017-02-21T12:32:53Z</time>
      </trkpt>
      <trkpt lat="42.77383" lon="0.11755">
        <ele>2420.4</ele>
        <time>2017-02-21T12:32:58Z</time>
      </trkpt>
      <trkpt lat="42.77383" lon="0.11755">
        <ele>2418.2</ele>
        <time>2017-02-21T12:33:03Z</time>
      </trkpt>
      <trkpt lat="42.77382" lon="0.11755">
        <ele>2416.4</ele>
        <time>2017-02-21T12:33:08Z</time>
      </trkpt>
      <trkpt lat="42.77382" lon="0.11755">
        <ele>2415.2</ele>
        <time>2017-02-21T12:33:13Z</time>
      </trkpt>
      <trkpt lat="42.77382" lon="0.11755">
        <ele>2414.2</ele>
        <time>2017-02-21T12:33:18Z</time>
      </trkpt>
      <trkpt lat="42.77382" lon="0.11755">
        <ele>2413.6</ele>
        <time>2017-02-21T12:33:23Z</time>
      </trkpt>
      <trkpt lat="42.77382" lon="0.11754">
        <ele>2413.2</ele>
        <time>2017-02-21T12:33:28Z</time>
      </trkpt>
      <trkpt lat="42.77382" lon="0.11754">
        <ele>2412.8</ele>
        <time>2017-02-21T12:33:33Z</time>
      </trkpt>
      <trkpt lat="42.77382" lon="0.11754">
        <ele>2412.6</ele>
        <time>2017-02-21T12:33:38Z</time>
      </trkpt>
      <trkpt lat="42.77383" lon="0.11755">
        <ele>2412.4</ele>
        <time>2017-02-21T12:33:43Z</time>
      </trkpt>
      <trkpt lat="42.77383" lon="0.11755">
        <ele>2412</ele>
        <time>2017-02-21T12:33:48Z</time>
      </trkpt>
      <trkpt lat="42.77383" lon="0.11755">
        <ele>2411.8</ele>
        <time>2017-02-21T12:33:53Z</time>
      </trkpt>
      <trkpt lat="42.77383" lon="0.11755">
        <ele>2411.6</ele>
        <time>2017-02-21T12:33:58Z</time>
      </trkpt>
      <trkpt lat="42.77383" lon="0.11755">
        <ele>2411.6</ele>
        <time>2017-02-21T12:34:03Z</time>
      </trkpt>
      <trkpt lat="42.77383" lon="0.11755">
        <ele>2411.4</ele>
        <time>2017-02-21T12:34:08Z</time>
      </trkpt>
      <trkpt lat="42.77383" lon="0.11755">
        <ele>2411.4</ele>
        <time>2017-02-21T12:34:13Z</time>
      </trkpt>
      <trkpt lat="42.77383" lon="0.11755">
        <ele>2411.2</ele>
        <time>2017-02-21T12:34:18Z</time>
      </trkpt>
      <trkpt lat="42.77383" lon="0.11755">
        <ele>2411.2</ele>
        <time>2017-02-21T12:34:23Z</time>
      </trkpt>
      <trkpt lat="42.77383" lon="0.11755">
        <ele>2411.2</ele>
        <time>2017-02-21T12:34:28Z</time>
      </trkpt>
      <trkpt lat="42.77383" lon="0.11755">
        <ele>2411.2</ele>
        <time>2017-02-21T12:34:33Z</time>
      </trkpt>
      <trkpt lat="42.77383" lon="0.11755">
        <ele>2411</ele>
        <time>2017-02-21T12:34:38Z</time>
      </trkpt>
      <trkpt lat="42.77383" lon="0.11755">
        <ele>2411</ele>
        <time>2017-02-21T12:34:43Z</time>
      </trkpt>
      <trkpt lat="42.77383" lon="0.11755">
        <ele>2411</ele>
        <time>2017-02-21T12:34:48Z</time>
      </trkpt>
      <trkpt lat="42.77384" lon="0.11755">
        <ele>2411</ele>
        <time>2017-02-21T12:34:53Z</time>
      </trkpt>
      <trkpt lat="42.77384" lon="0.11755">
        <ele>2410.8</ele>
        <time>2017-02-21T12:34:58Z</time>
      </trkpt>
      <trkpt lat="42.77384" lon="0.11755">
        <ele>2410.6</ele>
        <time>2017-02-21T12:35:03Z</time>
      </trkpt>
      <trkpt lat="42.77384" lon="0.11755">
        <ele>2410.6</ele>
        <time>2017-02-21T12:35:08Z</time>
      </trkpt>
      <trkpt lat="42.77384" lon="0.11755">
        <ele>2410.2</ele>
        <time>2017-02-21T12:35:13Z</time>
      </trkpt>
      <trkpt lat="42.77387" lon="0.11755">
        <ele>2407.6</ele>
        <time>2017-02-21T12:35:19Z</time>
      </trkpt>
      <trkpt lat="42.77404" lon="0.11764">
        <ele>2405.8</ele>
        <time>2017-02-21T12:35:24Z</time>
      </trkpt>
      <trkpt lat="42.77408" lon="0.11786">
        <ele>2399</ele>
        <time>2017-02-21T12:35:29Z</time>
      </trkpt>
      <trkpt lat="42.77402" lon="0.11818">
        <ele>2392.8</ele>
        <time>2017-02-21T12:35:34Z</time>
      </trkpt>
      <trkpt lat="42.77397" lon="0.11846">
        <ele>2385.8</ele>
        <time>2017-02-21T12:35:39Z</time>
      </trkpt>
      <trkpt lat="42.77415" lon="0.11871">
        <ele>2375.2</ele>
        <time>2017-02-21T12:35:44Z</time>
      </trkpt>
      <trkpt lat="42.77427" lon="0.1191">
        <ele>2363.4</ele>
        <time>2017-02-21T12:35:49Z</time>
      </trkpt>
      <trkpt lat="42.77423" lon="0.11955">
        <ele>2353.2</ele>
        <time>2017-02-21T12:35:54Z</time>
      </trkpt>
      <trkpt lat="42.77389" lon="0.11975">
        <ele>2343.8</ele>
        <time>2017-02-21T12:35:59Z</time>
      </trkpt>
      <trkpt lat="42.77375" lon="0.11983">
        <ele>2338.2</ele>
        <time>2017-02-21T12:36:04Z</time>
      </trkpt>
      <trkpt lat="42.77375" lon="0.11983">
        <ele>2336.8</ele>
        <time>2017-02-21T12:36:09Z</time>
      </trkpt>
      <trkpt lat="42.77374" lon="0.11982">
        <ele>2335.8</ele>
        <time>2017-02-21T12:36:14Z</time>
      </trkpt>
      <trkpt lat="42.77372" lon="0.11983">
        <ele>2334.8</ele>
        <time>2017-02-21T12:36:19Z</time>
      </trkpt>
      <trkpt lat="42.77369" lon="0.11996">
        <ele>2333</ele>
        <time>2017-02-21T12:36:24Z</time>
      </trkpt>
      <trkpt lat="42.77368" lon="0.12029">
        <ele>2321.6</ele>
        <time>2017-02-21T12:36:29Z</time>
      </trkpt>
      <trkpt lat="42.77369" lon="0.12071">
        <ele>2306.2</ele>
        <time>2017-02-21T12:36:34Z</time>
      </trkpt>
      <trkpt lat="42.77367" lon="0.12114">
        <ele>2303.6</ele>
        <time>2017-02-21T12:36:39Z</time>
      </trkpt>
      <trkpt lat="42.77366" lon="0.12168">
        <ele>2293.8</ele>
        <time>2017-02-21T12:36:44Z</time>
      </trkpt>
      <trkpt lat="42.77372" lon="0.1223">
        <ele>2284.8</ele>
        <time>2017-02-21T12:36:49Z</time>
      </trkpt>
      <trkpt lat="42.77363" lon="0.12299">
        <ele>2276.6</ele>
        <time>2017-02-21T12:36:54Z</time>
      </trkpt>
      <trkpt lat="42.77362" lon="0.12369">
        <ele>2263.6</ele>
        <time>2017-02-21T12:36:59Z</time>
      </trkpt>
      <trkpt lat="42.7737" lon="0.12403">
        <ele>2259</ele>
        <time>2017-02-21T12:37:04Z</time>
      </trkpt>
      <trkpt lat="42.7737" lon="0.12408">
        <ele>2260.8</ele>
        <time>2017-02-21T12:37:09Z</time>
      </trkpt>
      <trkpt lat="42.77367" lon="0.12407">
        <ele>2259.2</ele>
        <time>2017-02-21T12:37:14Z</time>
      </trkpt>
      <trkpt lat="42.77367" lon="0.12406">
        <ele>2258</ele>
        <time>2017-02-21T12:37:19Z</time>
      </trkpt>
      <trkpt lat="42.77367" lon="0.12406">
        <ele>2257</ele>
        <time>2017-02-21T12:37:24Z</time>
      </trkpt>
      <trkpt lat="42.77367" lon="0.12406">
        <ele>2257.4</ele>
        <time>2017-02-21T12:37:29Z</time>
      </trkpt>
      <trkpt lat="42.77366" lon="0.12406">
        <ele>2256.6</ele>
        <time>2017-02-21T12:37:34Z</time>
      </trkpt>
      <trkpt lat="42.77364" lon="0.12405">
        <ele>2256</ele>
        <time>2017-02-21T12:37:39Z</time>
      </trkpt>
      <trkpt lat="42.77364" lon="0.12405">
        <ele>2255.4</ele>
        <time>2017-02-21T12:37:44Z</time>
      </trkpt>
      <trkpt lat="42.77364" lon="0.12405">
        <ele>2254.6</ele>
        <time>2017-02-21T12:37:49Z</time>
      </trkpt>
      <trkpt lat="42.77363" lon="0.12406">
        <ele>2255.6</ele>
        <time>2017-02-21T12:37:54Z</time>
      </trkpt>
      <trkpt lat="42.77364" lon="0.12406">
        <ele>2254.8</ele>
        <time>2017-02-21T12:37:59Z</time>
      </trkpt>
      <trkpt lat="42.77363" lon="0.12407">
        <ele>2254.2</ele>
        <time>2017-02-21T12:38:04Z</time>
      </trkpt>
      <trkpt lat="42.77363" lon="0.12408">
        <ele>2253.6</ele>
        <time>2017-02-21T12:38:09Z</time>
      </trkpt>
      <trkpt lat="42.77363" lon="0.12408">
        <ele>2253.4</ele>
        <time>2017-02-21T12:38:14Z</time>
      </trkpt>
      <trkpt lat="42.77363" lon="0.12408">
        <ele>2253.2</ele>
        <time>2017-02-21T12:38:19Z</time>
      </trkpt>
      <trkpt lat="42.77363" lon="0.12408">
        <ele>2253.2</ele>
        <time>2017-02-21T12:38:24Z</time>
      </trkpt>
      <trkpt lat="42.77363" lon="0.12408">
        <ele>2253.2</ele>
        <time>2017-02-21T12:38:29Z</time>
      </trkpt>
      <trkpt lat="42.77363" lon="0.12408">
        <ele>2253</ele>
        <time>2017-02-21T12:38:34Z</time>
      </trkpt>
      <trkpt lat="42.77363" lon="0.12408">
        <ele>2253</ele>
        <time>2017-02-21T12:38:40Z</time>
      </trkpt>
      <trkpt lat="42.77363" lon="0.12408">
        <ele>2253</ele>
        <time>2017-02-21T12:38:45Z</time>
      </trkpt>
      <trkpt lat="42.77363" lon="0.12407">
        <ele>2253</ele>
        <time>2017-02-21T12:38:50Z</time>
      </trkpt>
      <trkpt lat="42.77363" lon="0.12407">
        <ele>2253</ele>
        <time>2017-02-21T12:38:55Z</time>
      </trkpt>
      <trkpt lat="42.77363" lon="0.12407">
        <ele>2253</ele>
        <time>2017-02-21T12:39:00Z</time>
      </trkpt>
      <trkpt lat="42.77363" lon="0.12407">
        <ele>2253</ele>
        <time>2017-02-21T12:39:05Z</time>
      </trkpt>
      <trkpt lat="42.77363" lon="0.12407">
        <ele>2253</ele>
        <time>2017-02-21T12:39:10Z</time>
      </trkpt>
      <trkpt lat="42.77364" lon="0.12406">
        <ele>2253</ele>
        <time>2017-02-21T12:39:15Z</time>
      </trkpt>
      <trkpt lat="42.77364" lon="0.12406">
        <ele>2252.8</ele>
        <time>2017-02-21T12:39:20Z</time>
      </trkpt>
      <trkpt lat="42.77364" lon="0.12406">
        <ele>2252.8</ele>
        <time>2017-02-21T12:39:25Z</time>
      </trkpt>
      <trkpt lat="42.77365" lon="0.12405">
        <ele>2252.6</ele>
        <time>2017-02-21T12:39:30Z</time>
      </trkpt>
      <trkpt lat="42.77365" lon="0.12405">
        <ele>2252.6</ele>
        <time>2017-02-21T12:39:35Z</time>
      </trkpt>
      <trkpt lat="42.77365" lon="0.12405">
        <ele>2252.6</ele>
        <time>2017-02-21T12:39:40Z</time>
      </trkpt>
      <trkpt lat="42.77365" lon="0.12405">
        <ele>2252.4</ele>
        <time>2017-02-21T12:39:45Z</time>
      </trkpt>
      <trkpt lat="42.77365" lon="0.12405">
        <ele>2252.4</ele>
        <time>2017-02-21T12:39:50Z</time>
      </trkpt>
      <trkpt lat="42.77365" lon="0.12404">
        <ele>2252.4</ele>
        <time>2017-02-21T12:39:55Z</time>
      </trkpt>
      <trkpt lat="42.77365" lon="0.12404">
        <ele>2252.4</ele>
        <time>2017-02-21T12:40:00Z</time>
      </trkpt>
      <trkpt lat="42.77365" lon="0.12404">
        <ele>2252.2</ele>
        <time>2017-02-21T12:40:05Z</time>
      </trkpt>
      <trkpt lat="42.77365" lon="0.12404">
        <ele>2252</ele>
        <time>2017-02-21T12:40:10Z</time>
      </trkpt>
      <trkpt lat="42.77365" lon="0.12404">
        <ele>2252</ele>
        <time>2017-02-21T12:40:15Z</time>
      </trkpt>
      <trkpt lat="42.77365" lon="0.12404">
        <ele>2251.8</ele>
        <time>2017-02-21T12:40:20Z</time>
      </trkpt>
      <trkpt lat="42.77365" lon="0.12404">
        <ele>2251.8</ele>
        <time>2017-02-21T12:40:25Z</time>
      </trkpt>
      <trkpt lat="42.77365" lon="0.12404">
        <ele>2251.8</ele>
        <time>2017-02-21T12:40:30Z</time>
      </trkpt>
      <trkpt lat="42.77365" lon="0.12404">
        <ele>2251.6</ele>
        <time>2017-02-21T12:40:35Z</time>
      </trkpt>
      <trkpt lat="42.77365" lon="0.12403">
        <ele>2251.6</ele>
        <time>2017-02-21T12:40:40Z</time>
      </trkpt>
      <trkpt lat="42.77365" lon="0.12403">
        <ele>2251.6</ele>
        <time>2017-02-21T12:40:45Z</time>
      </trkpt>
      <trkpt lat="42.77365" lon="0.12402">
        <ele>2251.6</ele>
        <time>2017-02-21T12:40:50Z</time>
      </trkpt>
      <trkpt lat="42.77365" lon="0.12402">
        <ele>2251.6</ele>
        <time>2017-02-21T12:40:55Z</time>
      </trkpt>
      <trkpt lat="42.77365" lon="0.12402">
        <ele>2251.6</ele>
        <time>2017-02-21T12:41:00Z</time>
      </trkpt>
      <trkpt lat="42.77365" lon="0.12402">
        <ele>2251.6</ele>
        <time>2017-02-21T12:41:05Z</time>
      </trkpt>
      <trkpt lat="42.77365" lon="0.12402">
        <ele>2251.6</ele>
        <time>2017-02-21T12:41:10Z</time>
      </trkpt>
      <trkpt lat="42.77365" lon="0.12402">
        <ele>2251.6</ele>
        <time>2017-02-21T12:41:15Z</time>
      </trkpt>
      <trkpt lat="42.77366" lon="0.12402">
        <ele>2251.6</ele>
        <time>2017-02-21T12:41:20Z</time>
      </trkpt>
      <trkpt lat="42.77366" lon="0.12402">
        <ele>2251.4</ele>
        <time>2017-02-21T12:41:25Z</time>
      </trkpt>
      <trkpt lat="42.77366" lon="0.12402">
        <ele>2251.2</ele>
        <time>2017-02-21T12:41:30Z</time>
      </trkpt>
      <trkpt lat="42.77366" lon="0.12402">
        <ele>2251.2</ele>
        <time>2017-02-21T12:41:35Z</time>
      </trkpt>
      <trkpt lat="42.77366" lon="0.12402">
        <ele>2251.2</ele>
        <time>2017-02-21T12:41:40Z</time>
      </trkpt>
      <trkpt lat="42.77366" lon="0.12402">
        <ele>2251.2</ele>
        <time>2017-02-21T12:41:45Z</time>
      </trkpt>
      <trkpt lat="42.77366" lon="0.12402">
        <ele>2251</ele>
        <time>2017-02-21T12:41:50Z</time>
      </trkpt>
      <trkpt lat="42.77366" lon="0.12402">
        <ele>2251</ele>
        <time>2017-02-21T12:41:55Z</time>
      </trkpt>
      <trkpt lat="42.77366" lon="0.12402">
        <ele>2251</ele>
        <time>2017-02-21T12:42:01Z</time>
      </trkpt>
      <trkpt lat="42.77366" lon="0.12402">
        <ele>2251</ele>
        <time>2017-02-21T12:42:07Z</time>
      </trkpt>
      <trkpt lat="42.77366" lon="0.12402">
        <ele>2251</ele>
        <time>2017-02-21T12:42:12Z</time>
      </trkpt>
      <trkpt lat="42.77366" lon="0.12402">
        <ele>2251</ele>
        <time>2017-02-21T12:42:17Z</time>
      </trkpt>
      <trkpt lat="42.77366" lon="0.12402">
        <ele>2251</ele>
        <time>2017-02-21T12:42:22Z</time>
      </trkpt>
      <trkpt lat="42.77366" lon="0.12402">
        <ele>2251</ele>
        <time>2017-02-21T12:42:27Z</time>
      </trkpt>
      <trkpt lat="42.77366" lon="0.12402">
        <ele>2251</ele>
        <time>2017-02-21T12:42:32Z</time>
      </trkpt>
      <trkpt lat="42.77366" lon="0.12402">
        <ele>2251</ele>
        <time>2017-02-21T12:42:37Z</time>
      </trkpt>
      <trkpt lat="42.77366" lon="0.12402">
        <ele>2251</ele>
        <time>2017-02-21T12:42:42Z</time>
      </trkpt>
      <trkpt lat="42.77366" lon="0.12402">
        <ele>2251</ele>
        <time>2017-02-21T12:42:47Z</time>
      </trkpt>
      <trkpt lat="42.77366" lon="0.12402">
        <ele>2251</ele>
        <time>2017-02-21T12:42:52Z</time>
      </trkpt>
      <trkpt lat="42.77366" lon="0.12402">
        <ele>2251</ele>
        <time>2017-02-21T12:42:57Z</time>
      </trkpt>
      <trkpt lat="42.77366" lon="0.12402">
        <ele>2251</ele>
        <time>2017-02-21T12:43:02Z</time>
      </trkpt>
      <trkpt lat="42.77366" lon="0.12402">
        <ele>2251</ele>
        <time>2017-02-21T12:43:07Z</time>
      </trkpt>
      <trkpt lat="42.77366" lon="0.12402">
        <ele>2251</ele>
        <time>2017-02-21T12:43:12Z</time>
      </trkpt>
      <trkpt lat="42.77366" lon="0.12402">
        <ele>2251</ele>
        <time>2017-02-21T12:43:17Z</time>
      </trkpt>
      <trkpt lat="42.77366" lon="0.12402">
        <ele>2251</ele>
        <time>2017-02-21T12:43:22Z</time>
      </trkpt>
      <trkpt lat="42.77366" lon="0.12402">
        <ele>2251</ele>
        <time>2017-02-21T12:43:27Z</time>
      </trkpt>
      <trkpt lat="42.77366" lon="0.12402">
        <ele>2251</ele>
        <time>2017-02-21T12:43:32Z</time>
      </trkpt>
      <trkpt lat="42.77366" lon="0.12402">
        <ele>2251</ele>
        <time>2017-02-21T12:43:37Z</time>
      </trkpt>
      <trkpt lat="42.77366" lon="0.12402">
        <ele>2251</ele>
        <time>2017-02-21T12:43:42Z</time>
      </trkpt>
      <trkpt lat="42.77366" lon="0.12402">
        <ele>2251</ele>
        <time>2017-02-21T12:43:47Z</time>
      </trkpt>
      <trkpt lat="42.77366" lon="0.12402">
        <ele>2251</ele>
        <time>2017-02-21T12:43:52Z</time>
      </trkpt>
      <trkpt lat="42.77366" lon="0.12402">
        <ele>2251</ele>
        <time>2017-02-21T12:43:57Z</time>
      </trkpt>
      <trkpt lat="42.77366" lon="0.12402">
        <ele>2251</ele>
        <time>2017-02-21T12:44:02Z</time>
      </trkpt>
      <trkpt lat="42.77366" lon="0.12402">
        <ele>2251</ele>
        <time>2017-02-21T12:44:07Z</time>
      </trkpt>
      <trkpt lat="42.77366" lon="0.12402">
        <ele>2251</ele>
        <time>2017-02-21T12:44:12Z</time>
      </trkpt>
      <trkpt lat="42.77366" lon="0.12402">
        <ele>2251</ele>
        <time>2017-02-21T12:44:17Z</time>
      </trkpt>
      <trkpt lat="42.77366" lon="0.12402">
        <ele>2251</ele>
        <time>2017-02-21T12:44:22Z</time>
      </trkpt>
      <trkpt lat="42.77366" lon="0.12402">
        <ele>2251</ele>
        <time>2017-02-21T12:44:27Z</time>
      </trkpt>
      <trkpt lat="42.77366" lon="0.12402">
        <ele>2251</ele>
        <time>2017-02-21T12:44:32Z</time>
      </trkpt>
      <trkpt lat="42.77366" lon="0.12402">
        <ele>2251</ele>
        <time>2017-02-21T12:44:37Z</time>
      </trkpt>
      <trkpt lat="42.77366" lon="0.12402">
        <ele>2251</ele>
        <time>2017-02-21T12:44:42Z</time>
      </trkpt>
      <trkpt lat="42.77366" lon="0.12402">
        <ele>2251</ele>
        <time>2017-02-21T12:44:47Z</time>
      </trkpt>
      <trkpt lat="42.77366" lon="0.12402">
        <ele>2251</ele>
        <time>2017-02-21T12:44:52Z</time>
      </trkpt>
      <trkpt lat="42.77366" lon="0.12402">
        <ele>2251</ele>
        <time>2017-02-21T12:44:57Z</time>
      </trkpt>
      <trkpt lat="42.77366" lon="0.12402">
        <ele>2251</ele>
        <time>2017-02-21T12:45:02Z</time>
      </trkpt>
      <trkpt lat="42.77366" lon="0.12402">
        <ele>2251</ele>
        <time>2017-02-21T12:45:07Z</time>
      </trkpt>
      <trkpt lat="42.77365" lon="0.12402">
        <ele>2251</ele>
        <time>2017-02-21T12:45:12Z</time>
      </trkpt>
      <trkpt lat="42.77365" lon="0.12402">
        <ele>2251.2</ele>
        <time>2017-02-21T12:45:17Z</time>
      </trkpt>
      <trkpt lat="42.77365" lon="0.12402">
        <ele>2251.2</ele>
        <time>2017-02-21T12:45:22Z</time>
      </trkpt>
      <trkpt lat="42.77365" lon="0.12402">
        <ele>2251.2</ele>
        <time>2017-02-21T12:45:27Z</time>
      </trkpt>
      <trkpt lat="42.77365" lon="0.12402">
        <ele>2251.2</ele>
        <time>2017-02-21T12:45:32Z</time>
      </trkpt>
      <trkpt lat="42.77365" lon="0.12402">
        <ele>2251.2</ele>
        <time>2017-02-21T12:45:37Z</time>
      </trkpt>
      <trkpt lat="42.77365" lon="0.12402">
        <ele>2251.2</ele>
        <time>2017-02-21T12:45:42Z</time>
      </trkpt>
      <trkpt lat="42.77365" lon="0.12402">
        <ele>2251.2</ele>
        <time>2017-02-21T12:45:47Z</time>
      </trkpt>
      <trkpt lat="42.77365" lon="0.12402">
        <ele>2251.2</ele>
        <time>2017-02-21T12:45:52Z</time>
      </trkpt>
      <trkpt lat="42.77365" lon="0.12402">
        <ele>2251.2</ele>
        <time>2017-02-21T12:45:57Z</time>
      </trkpt>
      <trkpt lat="42.77365" lon="0.12402">
        <ele>2251.2</ele>
        <time>2017-02-21T12:46:02Z</time>
      </trkpt>
      <trkpt lat="42.77365" lon="0.12402">
        <ele>2251.2</ele>
        <time>2017-02-21T12:46:07Z</time>
      </trkpt>
      <trkpt lat="42.77365" lon="0.12402">
        <ele>2251.2</ele>
        <time>2017-02-21T12:46:12Z</time>
      </trkpt>
      <trkpt lat="42.77365" lon="0.12402">
        <ele>2251.2</ele>
        <time>2017-02-21T12:46:17Z</time>
      </trkpt>
      <trkpt lat="42.77365" lon="0.12402">
        <ele>2251.2</ele>
        <time>2017-02-21T12:46:22Z</time>
      </trkpt>
      <trkpt lat="42.77365" lon="0.12402">
        <ele>2251.2</ele>
        <time>2017-02-21T12:46:27Z</time>
      </trkpt>
      <trkpt lat="42.77365" lon="0.12402">
        <ele>2251.2</ele>
        <time>2017-02-21T12:46:32Z</time>
      </trkpt>
      <trkpt lat="42.77365" lon="0.12402">
        <ele>2251.2</ele>
        <time>2017-02-21T12:46:37Z</time>
      </trkpt>
      <trkpt lat="42.77365" lon="0.12402">
        <ele>2251.2</ele>
        <time>2017-02-21T12:46:42Z</time>
      </trkpt>
      <trkpt lat="42.77365" lon="0.12402">
        <ele>2251.2</ele>
        <time>2017-02-21T12:46:47Z</time>
      </trkpt>
      <trkpt lat="42.77365" lon="0.12402">
        <ele>2251.2</ele>
        <time>2017-02-21T12:46:52Z</time>
      </trkpt>
      <trkpt lat="42.77365" lon="0.12402">
        <ele>2251.2</ele>
        <time>2017-02-21T12:46:57Z</time>
      </trkpt>
      <trkpt lat="42.77365" lon="0.12402">
        <ele>2251.2</ele>
        <time>2017-02-21T12:47:02Z</time>
      </trkpt>
      <trkpt lat="42.77365" lon="0.12402">
        <ele>2251.2</ele>
        <time>2017-02-21T12:47:07Z</time>
      </trkpt>
      <trkpt lat="42.77365" lon="0.12402">
        <ele>2251.2</ele>
        <time>2017-02-21T12:47:12Z</time>
      </trkpt>
      <trkpt lat="42.77365" lon="0.12402">
        <ele>2251.2</ele>
        <time>2017-02-21T12:47:17Z</time>
      </trkpt>
      <trkpt lat="42.77365" lon="0.12402">
        <ele>2251.2</ele>
        <time>2017-02-21T12:47:23Z</time>
      </trkpt>
      <trkpt lat="42.77365" lon="0.12402">
        <ele>2251.4</ele>
        <time>2017-02-21T12:47:28Z</time>
      </trkpt>
      <trkpt lat="42.77365" lon="0.12402">
        <ele>2251.4</ele>
        <time>2017-02-21T12:47:33Z</time>
      </trkpt>
      <trkpt lat="42.77365" lon="0.12402">
        <ele>2251.4</ele>
        <time>2017-02-21T12:47:38Z</time>
      </trkpt>
      <trkpt lat="42.77365" lon="0.12402">
        <ele>2251.4</ele>
        <time>2017-02-21T12:47:43Z</time>
      </trkpt>
      <trkpt lat="42.77365" lon="0.12402">
        <ele>2251.4</ele>
        <time>2017-02-21T12:47:48Z</time>
      </trkpt>
      <trkpt lat="42.77365" lon="0.12402">
        <ele>2251.4</ele>
        <time>2017-02-21T12:47:53Z</time>
      </trkpt>
      <trkpt lat="42.77365" lon="0.12402">
        <ele>2251.4</ele>
        <time>2017-02-21T12:47:58Z</time>
      </trkpt>
      <trkpt lat="42.77365" lon="0.12402">
        <ele>2251.4</ele>
        <time>2017-02-21T12:48:03Z</time>
      </trkpt>
      <trkpt lat="42.77365" lon="0.12402">
        <ele>2251.4</ele>
        <time>2017-02-21T12:48:08Z</time>
      </trkpt>
      <trkpt lat="42.77365" lon="0.12402">
        <ele>2251.4</ele>
        <time>2017-02-21T12:48:13Z</time>
      </trkpt>
      <trkpt lat="42.77365" lon="0.12402">
        <ele>2251.4</ele>
        <time>2017-02-21T12:48:18Z</time>
      </trkpt>
      <trkpt lat="42.77365" lon="0.12402">
        <ele>2251.4</ele>
        <time>2017-02-21T12:48:23Z</time>
      </trkpt>
      <trkpt lat="42.77365" lon="0.12402">
        <ele>2251.4</ele>
        <time>2017-02-21T12:48:28Z</time>
      </trkpt>
      <trkpt lat="42.77365" lon="0.12402">
        <ele>2251.4</ele>
        <time>2017-02-21T12:48:33Z</time>
      </trkpt>
      <trkpt lat="42.77365" lon="0.12402">
        <ele>2251.4</ele>
        <time>2017-02-21T12:48:38Z</time>
      </trkpt>
      <trkpt lat="42.77365" lon="0.12402">
        <ele>2251.4</ele>
        <time>2017-02-21T12:48:43Z</time>
      </trkpt>
      <trkpt lat="42.77365" lon="0.12402">
        <ele>2251.4</ele>
        <time>2017-02-21T12:48:48Z</time>
      </trkpt>
      <trkpt lat="42.77365" lon="0.12402">
        <ele>2251.4</ele>
        <time>2017-02-21T12:48:53Z</time>
      </trkpt>
      <trkpt lat="42.77365" lon="0.12402">
        <ele>2251.4</ele>
        <time>2017-02-21T12:48:58Z</time>
      </trkpt>
      <trkpt lat="42.77365" lon="0.12402">
        <ele>2251.4</ele>
        <time>2017-02-21T12:49:03Z</time>
      </trkpt>
      <trkpt lat="42.77365" lon="0.12402">
        <ele>2251.4</ele>
        <time>2017-02-21T12:49:08Z</time>
      </trkpt>
      <trkpt lat="42.77365" lon="0.12402">
        <ele>2251.4</ele>
        <time>2017-02-21T12:49:13Z</time>
      </trkpt>
      <trkpt lat="42.77365" lon="0.12402">
        <ele>2251.4</ele>
        <time>2017-02-21T12:49:18Z</time>
      </trkpt>
      <trkpt lat="42.77365" lon="0.12402">
        <ele>2251.4</ele>
        <time>2017-02-21T12:49:23Z</time>
      </trkpt>
      <trkpt lat="42.77365" lon="0.12402">
        <ele>2251.4</ele>
        <time>2017-02-21T12:49:28Z</time>
      </trkpt>
      <trkpt lat="42.77365" lon="0.12402">
        <ele>2251.4</ele>
        <time>2017-02-21T12:49:33Z</time>
      </trkpt>
      <trkpt lat="42.77365" lon="0.12402">
        <ele>2251.4</ele>
        <time>2017-02-21T12:49:38Z</time>
      </trkpt>
      <trkpt lat="42.77365" lon="0.12402">
        <ele>2251.4</ele>
        <time>2017-02-21T12:49:43Z</time>
      </trkpt>
      <trkpt lat="42.77365" lon="0.12402">
        <ele>2251.4</ele>
        <time>2017-02-21T12:49:48Z</time>
      </trkpt>
      <trkpt lat="42.77365" lon="0.12402">
        <ele>2251.4</ele>
        <time>2017-02-21T12:49:53Z</time>
      </trkpt>
      <trkpt lat="42.77365" lon="0.12402">
        <ele>2251.4</ele>
        <time>2017-02-21T12:49:58Z</time>
      </trkpt>
      <trkpt lat="42.77365" lon="0.12402">
        <ele>2251.4</ele>
        <time>2017-02-21T12:50:03Z</time>
      </trkpt>
      <trkpt lat="42.77365" lon="0.12402">
        <ele>2251.4</ele>
        <time>2017-02-21T12:50:08Z</time>
      </trkpt>
      <trkpt lat="42.77365" lon="0.12402">
        <ele>2251.4</ele>
        <time>2017-02-21T12:50:13Z</time>
      </trkpt>
      <trkpt lat="42.77365" lon="0.12402">
        <ele>2251.4</ele>
        <time>2017-02-21T12:50:18Z</time>
      </trkpt>
      <trkpt lat="42.77365" lon="0.12402">
        <ele>2251.4</ele>
        <time>2017-02-21T12:50:23Z</time>
      </trkpt>
      <trkpt lat="42.77365" lon="0.12402">
        <ele>2251.4</ele>
        <time>2017-02-21T12:50:28Z</time>
      </trkpt>
      <trkpt lat="42.77365" lon="0.12402">
        <ele>2251.4</ele>
        <time>2017-02-21T12:50:33Z</time>
      </trkpt>
      <trkpt lat="42.77366" lon="0.12402">
        <ele>2251.4</ele>
        <time>2017-02-21T12:50:38Z</time>
      </trkpt>
      <trkpt lat="42.77366" lon="0.12402">
        <ele>2251.4</ele>
        <time>2017-02-21T12:50:43Z</time>
      </trkpt>
      <trkpt lat="42.77366" lon="0.12402">
        <ele>2251.4</ele>
        <time>2017-02-21T12:50:48Z</time>
      </trkpt>
      <trkpt lat="42.77366" lon="0.12402">
        <ele>2251.4</ele>
        <time>2017-02-21T12:50:53Z</time>
      </trkpt>
      <trkpt lat="42.77366" lon="0.12402">
        <ele>2251.4</ele>
        <time>2017-02-21T12:50:58Z</time>
      </trkpt>
      <trkpt lat="42.77366" lon="0.12402">
        <ele>2251.4</ele>
        <time>2017-02-21T12:51:03Z</time>
      </trkpt>
      <trkpt lat="42.77366" lon="0.12402">
        <ele>2251.4</ele>
        <time>2017-02-21T12:51:08Z</time>
      </trkpt>
      <trkpt lat="42.77366" lon="0.12402">
        <ele>2251.4</ele>
        <time>2017-02-21T12:51:13Z</time>
      </trkpt>
      <trkpt lat="42.77366" lon="0.12402">
        <ele>2251.4</ele>
        <time>2017-02-21T12:51:18Z</time>
      </trkpt>
      <trkpt lat="42.77366" lon="0.12402">
        <ele>2251.4</ele>
        <time>2017-02-21T12:51:23Z</time>
      </trkpt>
      <trkpt lat="42.77366" lon="0.12402">
        <ele>2251.4</ele>
        <time>2017-02-21T12:51:28Z</time>
      </trkpt>
      <trkpt lat="42.77366" lon="0.12402">
        <ele>2251.4</ele>
        <time>2017-02-21T12:51:33Z</time>
      </trkpt>
      <trkpt lat="42.77366" lon="0.12402">
        <ele>2251.4</ele>
        <time>2017-02-21T12:51:38Z</time>
      </trkpt>
      <trkpt lat="42.77366" lon="0.12402">
        <ele>2251.4</ele>
        <time>2017-02-21T12:51:43Z</time>
      </trkpt>
      <trkpt lat="42.77366" lon="0.12402">
        <ele>2251.4</ele>
        <time>2017-02-21T12:51:48Z</time>
      </trkpt>
      <trkpt lat="42.77366" lon="0.12402">
        <ele>2251.4</ele>
        <time>2017-02-21T12:51:53Z</time>
      </trkpt>
      <trkpt lat="42.77366" lon="0.12402">
        <ele>2251.4</ele>
        <time>2017-02-21T12:51:58Z</time>
      </trkpt>
      <trkpt lat="42.77366" lon="0.12402">
        <ele>2251.4</ele>
        <time>2017-02-21T12:52:03Z</time>
      </trkpt>
      <trkpt lat="42.77366" lon="0.12402">
        <ele>2251.4</ele>
        <time>2017-02-21T12:52:08Z</time>
      </trkpt>
      <trkpt lat="42.77366" lon="0.12402">
        <ele>2251.4</ele>
        <time>2017-02-21T12:52:13Z</time>
      </trkpt>
      <trkpt lat="42.77366" lon="0.12402">
        <ele>2251.4</ele>
        <time>2017-02-21T12:52:18Z</time>
      </trkpt>
      <trkpt lat="42.77366" lon="0.12402">
        <ele>2251.4</ele>
        <time>2017-02-21T12:52:23Z</time>
      </trkpt>
      <trkpt lat="42.77366" lon="0.12402">
        <ele>2251.4</ele>
        <time>2017-02-21T12:52:28Z</time>
      </trkpt>
      <trkpt lat="42.77366" lon="0.12402">
        <ele>2251.4</ele>
        <time>2017-02-21T12:52:33Z</time>
      </trkpt>
      <trkpt lat="42.77366" lon="0.12402">
        <ele>2251.4</ele>
        <time>2017-02-21T12:52:38Z</time>
      </trkpt>
      <trkpt lat="42.77366" lon="0.12402">
        <ele>2251.4</ele>
        <time>2017-02-21T12:52:43Z</time>
      </trkpt>
      <trkpt lat="42.77366" lon="0.12402">
        <ele>2251.4</ele>
        <time>2017-02-21T12:52:48Z</time>
      </trkpt>
      <trkpt lat="42.77366" lon="0.12402">
        <ele>2251.4</ele>
        <time>2017-02-21T12:52:53Z</time>
      </trkpt>
      <trkpt lat="42.77366" lon="0.12402">
        <ele>2251.4</ele>
        <time>2017-02-21T12:52:58Z</time>
      </trkpt>
      <trkpt lat="42.77366" lon="0.12402">
        <ele>2251.4</ele>
        <time>2017-02-21T12:53:03Z</time>
      </trkpt>
      <trkpt lat="42.77366" lon="0.12402">
        <ele>2251.4</ele>
        <time>2017-02-21T12:53:08Z</time>
      </trkpt>
      <trkpt lat="42.77366" lon="0.12402">
        <ele>2251.4</ele>
        <time>2017-02-21T12:53:13Z</time>
      </trkpt>
      <trkpt lat="42.77366" lon="0.12402">
        <ele>2251.2</ele>
        <time>2017-02-21T12:53:18Z</time>
      </trkpt>
      <trkpt lat="42.77366" lon="0.12402">
        <ele>2251.2</ele>
        <time>2017-02-21T12:53:23Z</time>
      </trkpt>
      <trkpt lat="42.77366" lon="0.12402">
        <ele>2251.2</ele>
        <time>2017-02-21T12:53:28Z</time>
      </trkpt>
      <trkpt lat="42.77366" lon="0.12402">
        <ele>2251.2</ele>
        <time>2017-02-21T12:53:33Z</time>
      </trkpt>
      <trkpt lat="42.77366" lon="0.12402">
        <ele>2251.2</ele>
        <time>2017-02-21T12:53:39Z</time>
      </trkpt>
      <trkpt lat="42.77366" lon="0.12402">
        <ele>2251.2</ele>
        <time>2017-02-21T12:53:44Z</time>
      </trkpt>
      <trkpt lat="42.77366" lon="0.12402">
        <ele>2251.2</ele>
        <time>2017-02-21T12:53:49Z</time>
      </trkpt>
      <trkpt lat="42.77366" lon="0.12402">
        <ele>2251.2</ele>
        <time>2017-02-21T12:53:54Z</time>
      </trkpt>
      <trkpt lat="42.77366" lon="0.12402">
        <ele>2251.2</ele>
        <time>2017-02-21T12:53:59Z</time>
      </trkpt>
      <trkpt lat="42.77366" lon="0.12402">
        <ele>2251.2</ele>
        <time>2017-02-21T12:54:04Z</time>
      </trkpt>
      <trkpt lat="42.77366" lon="0.12402">
        <ele>2251.2</ele>
        <time>2017-02-21T12:54:09Z</time>
      </trkpt>
      <trkpt lat="42.77366" lon="0.12402">
        <ele>2251.2</ele>
        <time>2017-02-21T12:54:14Z</time>
      </trkpt>
      <trkpt lat="42.77366" lon="0.12403">
        <ele>2251.2</ele>
        <time>2017-02-21T12:54:19Z</time>
      </trkpt>
      <trkpt lat="42.77366" lon="0.12403">
        <ele>2251.2</ele>
        <time>2017-02-21T12:54:24Z</time>
      </trkpt>
      <trkpt lat="42.77366" lon="0.12403">
        <ele>2251.2</ele>
        <time>2017-02-21T12:54:29Z</time>
      </trkpt>
      <trkpt lat="42.77366" lon="0.12403">
        <ele>2251.2</ele>
        <time>2017-02-21T12:54:34Z</time>
      </trkpt>
      <trkpt lat="42.77366" lon="0.12403">
        <ele>2251.2</ele>
        <time>2017-02-21T12:54:39Z</time>
      </trkpt>
      <trkpt lat="42.77366" lon="0.12403">
        <ele>2251.2</ele>
        <time>2017-02-21T12:54:44Z</time>
      </trkpt>
      <trkpt lat="42.77366" lon="0.12403">
        <ele>2251.2</ele>
        <time>2017-02-21T12:54:49Z</time>
      </trkpt>
      <trkpt lat="42.77366" lon="0.12403">
        <ele>2251.2</ele>
        <time>2017-02-21T12:54:54Z</time>
      </trkpt>
      <trkpt lat="42.77366" lon="0.12403">
        <ele>2251.2</ele>
        <time>2017-02-21T12:54:59Z</time>
      </trkpt>
      <trkpt lat="42.77366" lon="0.12403">
        <ele>2251.2</ele>
        <time>2017-02-21T12:55:04Z</time>
      </trkpt>
      <trkpt lat="42.77366" lon="0.12403">
        <ele>2251.2</ele>
        <time>2017-02-21T12:55:09Z</time>
      </trkpt>
      <trkpt lat="42.77366" lon="0.12403">
        <ele>2251.4</ele>
        <time>2017-02-21T12:55:14Z</time>
      </trkpt>
      <trkpt lat="42.77366" lon="0.12403">
        <ele>2251.4</ele>
        <time>2017-02-21T12:55:19Z</time>
      </trkpt>
      <trkpt lat="42.77366" lon="0.12403">
        <ele>2251.4</ele>
        <time>2017-02-21T12:55:24Z</time>
      </trkpt>
      <trkpt lat="42.77366" lon="0.12403">
        <ele>2251.4</ele>
        <time>2017-02-21T12:55:29Z</time>
      </trkpt>
      <trkpt lat="42.77366" lon="0.12403">
        <ele>2251.4</ele>
        <time>2017-02-21T12:55:34Z</time>
      </trkpt>
      <trkpt lat="42.77366" lon="0.12403">
        <ele>2251.4</ele>
        <time>2017-02-21T12:55:39Z</time>
      </trkpt>
      <trkpt lat="42.77366" lon="0.12403">
        <ele>2251.4</ele>
        <time>2017-02-21T12:55:44Z</time>
      </trkpt>
      <trkpt lat="42.77366" lon="0.12403">
        <ele>2251.4</ele>
        <time>2017-02-21T12:55:49Z</time>
      </trkpt>
      <trkpt lat="42.77366" lon="0.12403">
        <ele>2251.4</ele>
        <time>2017-02-21T12:55:54Z</time>
      </trkpt>
      <trkpt lat="42.77366" lon="0.12403">
        <ele>2251.4</ele>
        <time>2017-02-21T12:55:59Z</time>
      </trkpt>
      <trkpt lat="42.77366" lon="0.12403">
        <ele>2251.4</ele>
        <time>2017-02-21T12:56:04Z</time>
      </trkpt>
      <trkpt lat="42.77366" lon="0.12403">
        <ele>2251.4</ele>
        <time>2017-02-21T12:56:09Z</time>
      </trkpt>
      <trkpt lat="42.77366" lon="0.12403">
        <ele>2251.4</ele>
        <time>2017-02-21T12:56:14Z</time>
      </trkpt>
      <trkpt lat="42.77366" lon="0.12403">
        <ele>2251.4</ele>
        <time>2017-02-21T12:56:19Z</time>
      </trkpt>
      <trkpt lat="42.77366" lon="0.12403">
        <ele>2251.4</ele>
        <time>2017-02-21T12:56:24Z</time>
      </trkpt>
      <trkpt lat="42.77366" lon="0.12403">
        <ele>2251.4</ele>
        <time>2017-02-21T12:56:29Z</time>
      </trkpt>
      <trkpt lat="42.77366" lon="0.12403">
        <ele>2251.4</ele>
        <time>2017-02-21T12:56:34Z</time>
      </trkpt>
      <trkpt lat="42.77366" lon="0.12403">
        <ele>2251.4</ele>
        <time>2017-02-21T12:56:39Z</time>
      </trkpt>
      <trkpt lat="42.77366" lon="0.12403">
        <ele>2251.4</ele>
        <time>2017-02-21T12:56:44Z</time>
      </trkpt>
      <trkpt lat="42.77366" lon="0.12403">
        <ele>2251.4</ele>
        <time>2017-02-21T12:56:49Z</time>
      </trkpt>
      <trkpt lat="42.77366" lon="0.12403">
        <ele>2251.4</ele>
        <time>2017-02-21T12:56:54Z</time>
      </trkpt>
      <trkpt lat="42.77366" lon="0.12403">
        <ele>2251.4</ele>
        <time>2017-02-21T12:56:59Z</time>
      </trkpt>
      <trkpt lat="42.77366" lon="0.12403">
        <ele>2251.4</ele>
        <time>2017-02-21T12:57:04Z</time>
      </trkpt>
      <trkpt lat="42.77366" lon="0.12403">
        <ele>2251.4</ele>
        <time>2017-02-21T12:57:09Z</time>
      </trkpt>
      <trkpt lat="42.77366" lon="0.12403">
        <ele>2251.4</ele>
        <time>2017-02-21T12:57:14Z</time>
      </trkpt>
      <trkpt lat="42.77366" lon="0.12403">
        <ele>2251.4</ele>
        <time>2017-02-21T12:57:19Z</time>
      </trkpt>
      <trkpt lat="42.77366" lon="0.12403">
        <ele>2251.4</ele>
        <time>2017-02-21T12:57:24Z</time>
      </trkpt>
      <trkpt lat="42.77366" lon="0.12403">
        <ele>2251.4</ele>
        <time>2017-02-21T12:57:29Z</time>
      </trkpt>
      <trkpt lat="42.77366" lon="0.12403">
        <ele>2251.4</ele>
        <time>2017-02-21T12:57:34Z</time>
      </trkpt>
      <trkpt lat="42.77366" lon="0.12403">
        <ele>2251.4</ele>
        <time>2017-02-21T12:57:39Z</time>
      </trkpt>
      <trkpt lat="42.77366" lon="0.12403">
        <ele>2251.4</ele>
        <time>2017-02-21T12:57:44Z</time>
      </trkpt>
      <trkpt lat="42.77366" lon="0.12403">
        <ele>2251.4</ele>
        <time>2017-02-21T12:57:49Z</time>
      </trkpt>
      <trkpt lat="42.77366" lon="0.12403">
        <ele>2251.4</ele>
        <time>2017-02-21T12:57:54Z</time>
      </trkpt>
      <trkpt lat="42.77366" lon="0.12403">
        <ele>2251.4</ele>
        <time>2017-02-21T12:57:59Z</time>
      </trkpt>
      <trkpt lat="42.77366" lon="0.12403">
        <ele>2251.4</ele>
        <time>2017-02-21T12:58:04Z</time>
      </trkpt>
      <trkpt lat="42.77366" lon="0.12403">
        <ele>2251.4</ele>
        <time>2017-02-21T12:58:09Z</time>
      </trkpt>
      <trkpt lat="42.77366" lon="0.12403">
        <ele>2251.4</ele>
        <time>2017-02-21T12:58:14Z</time>
      </trkpt>
      <trkpt lat="42.77366" lon="0.12403">
        <ele>2251.4</ele>
        <time>2017-02-21T12:58:19Z</time>
      </trkpt>
      <trkpt lat="42.77366" lon="0.12403">
        <ele>2251.4</ele>
        <time>2017-02-21T12:58:24Z</time>
      </trkpt>
      <trkpt lat="42.77366" lon="0.12403">
        <ele>2251.4</ele>
        <time>2017-02-21T12:58:29Z</time>
      </trkpt>
      <trkpt lat="42.77366" lon="0.12403">
        <ele>2251.4</ele>
        <time>2017-02-21T12:58:34Z</time>
      </trkpt>
      <trkpt lat="42.77366" lon="0.12403">
        <ele>2251.4</ele>
        <time>2017-02-21T12:58:39Z</time>
      </trkpt>
      <trkpt lat="42.77366" lon="0.12403">
        <ele>2251.4</ele>
        <time>2017-02-21T12:58:44Z</time>
      </trkpt>
      <trkpt lat="42.77366" lon="0.12403">
        <ele>2251.4</ele>
        <time>2017-02-21T12:58:49Z</time>
      </trkpt>
      <trkpt lat="42.77366" lon="0.12403">
        <ele>2251.4</ele>
        <time>2017-02-21T12:58:54Z</time>
      </trkpt>
      <trkpt lat="42.77366" lon="0.12403">
        <ele>2251.4</ele>
        <time>2017-02-21T12:58:59Z</time>
      </trkpt>
      <trkpt lat="42.77366" lon="0.12403">
        <ele>2251.4</ele>
        <time>2017-02-21T12:59:04Z</time>
      </trkpt>
      <trkpt lat="42.77366" lon="0.12403">
        <ele>2251.4</ele>
        <time>2017-02-21T12:59:09Z</time>
      </trkpt>
      <trkpt lat="42.77366" lon="0.12403">
        <ele>2251.4</ele>
        <time>2017-02-21T12:59:14Z</time>
      </trkpt>
      <trkpt lat="42.77366" lon="0.12403">
        <ele>2251.4</ele>
        <time>2017-02-21T12:59:19Z</time>
      </trkpt>
      <trkpt lat="42.77366" lon="0.12403">
        <ele>2251.4</ele>
        <time>2017-02-21T12:59:24Z</time>
      </trkpt>
      <trkpt lat="42.77366" lon="0.12403">
        <ele>2251.4</ele>
        <time>2017-02-21T12:59:30Z</time>
      </trkpt>
      <trkpt lat="42.77366" lon="0.12403">
        <ele>2251.4</ele>
        <time>2017-02-21T12:59:35Z</time>
      </trkpt>
      <trkpt lat="42.77366" lon="0.12403">
        <ele>2251.4</ele>
        <time>2017-02-21T12:59:40Z</time>
      </trkpt>
      <trkpt lat="42.77366" lon="0.12403">
        <ele>2251.4</ele>
        <time>2017-02-21T12:59:45Z</time>
      </trkpt>
      <trkpt lat="42.77366" lon="0.12403">
        <ele>2251.4</ele>
        <time>2017-02-21T12:59:50Z</time>
      </trkpt>
      <trkpt lat="42.77365" lon="0.12403">
        <ele>2251.6</ele>
        <time>2017-02-21T12:59:55Z</time>
      </trkpt>
      <trkpt lat="42.77365" lon="0.12403">
        <ele>2252</ele>
        <time>2017-02-21T13:00:00Z</time>
      </trkpt>
      <trkpt lat="42.77365" lon="0.12403">
        <ele>2252.2</ele>
        <time>2017-02-21T13:00:05Z</time>
      </trkpt>
      <trkpt lat="42.77365" lon="0.12403">
        <ele>2252.4</ele>
        <time>2017-02-21T13:00:10Z</time>
      </trkpt>
      <trkpt lat="42.77365" lon="0.12403">
        <ele>2252.6</ele>
        <time>2017-02-21T13:00:15Z</time>
      </trkpt>
      <trkpt lat="42.77365" lon="0.12403">
        <ele>2252.8</ele>
        <time>2017-02-21T13:00:20Z</time>
      </trkpt>
      <trkpt lat="42.77365" lon="0.12403">
        <ele>2252.8</ele>
        <time>2017-02-21T13:00:25Z</time>
      </trkpt>
      <trkpt lat="42.77365" lon="0.12403">
        <ele>2252.8</ele>
        <time>2017-02-21T13:00:30Z</time>
      </trkpt>
      <trkpt lat="42.77365" lon="0.12403">
        <ele>2253</ele>
        <time>2017-02-21T13:00:35Z</time>
      </trkpt>
      <trkpt lat="42.77365" lon="0.12403">
        <ele>2253</ele>
        <time>2017-02-21T13:00:40Z</time>
      </trkpt>
      <trkpt lat="42.77365" lon="0.12403">
        <ele>2253</ele>
        <time>2017-02-21T13:00:45Z</time>
      </trkpt>
      <trkpt lat="42.77365" lon="0.12403">
        <ele>2253</ele>
        <time>2017-02-21T13:00:50Z</time>
      </trkpt>
      <trkpt lat="42.77365" lon="0.12403">
        <ele>2253</ele>
        <time>2017-02-21T13:00:55Z</time>
      </trkpt>
      <trkpt lat="42.77365" lon="0.12403">
        <ele>2253</ele>
        <time>2017-02-21T13:01:00Z</time>
      </trkpt>
      <trkpt lat="42.77365" lon="0.12403">
        <ele>2253</ele>
        <time>2017-02-21T13:01:05Z</time>
      </trkpt>
      <trkpt lat="42.77365" lon="0.12403">
        <ele>2253</ele>
        <time>2017-02-21T13:01:10Z</time>
      </trkpt>
      <trkpt lat="42.77365" lon="0.12403">
        <ele>2253</ele>
        <time>2017-02-21T13:01:15Z</time>
      </trkpt>
      <trkpt lat="42.77365" lon="0.12403">
        <ele>2253</ele>
        <time>2017-02-21T13:01:20Z</time>
      </trkpt>
      <trkpt lat="42.77365" lon="0.12403">
        <ele>2253</ele>
        <time>2017-02-21T13:01:25Z</time>
      </trkpt>
      <trkpt lat="42.77365" lon="0.12403">
        <ele>2253.2</ele>
        <time>2017-02-21T13:01:30Z</time>
      </trkpt>
      <trkpt lat="42.77365" lon="0.12403">
        <ele>2253.2</ele>
        <time>2017-02-21T13:01:35Z</time>
      </trkpt>
      <trkpt lat="42.77365" lon="0.12403">
        <ele>2253.2</ele>
        <time>2017-02-21T13:01:40Z</time>
      </trkpt>
      <trkpt lat="42.77365" lon="0.12403">
        <ele>2253.2</ele>
        <time>2017-02-21T13:01:45Z</time>
      </trkpt>
      <trkpt lat="42.77365" lon="0.12403">
        <ele>2253.2</ele>
        <time>2017-02-21T13:01:50Z</time>
      </trkpt>
      <trkpt lat="42.77365" lon="0.12403">
        <ele>2253.2</ele>
        <time>2017-02-21T13:01:55Z</time>
      </trkpt>
      <trkpt lat="42.77365" lon="0.12403">
        <ele>2253.2</ele>
        <time>2017-02-21T13:02:00Z</time>
      </trkpt>
      <trkpt lat="42.77365" lon="0.12403">
        <ele>2253.2</ele>
        <time>2017-02-21T13:02:05Z</time>
      </trkpt>
      <trkpt lat="42.77365" lon="0.12403">
        <ele>2253.2</ele>
        <time>2017-02-21T13:02:10Z</time>
      </trkpt>
      <trkpt lat="42.77365" lon="0.12403">
        <ele>2253.2</ele>
        <time>2017-02-21T13:02:15Z</time>
      </trkpt>
      <trkpt lat="42.77365" lon="0.12403">
        <ele>2253.2</ele>
        <time>2017-02-21T13:02:20Z</time>
      </trkpt>
      <trkpt lat="42.77365" lon="0.12403">
        <ele>2253.2</ele>
        <time>2017-02-21T13:02:25Z</time>
      </trkpt>
      <trkpt lat="42.77365" lon="0.12403">
        <ele>2253.2</ele>
        <time>2017-02-21T13:02:30Z</time>
      </trkpt>
      <trkpt lat="42.77365" lon="0.12403">
        <ele>2253.2</ele>
        <time>2017-02-21T13:02:35Z</time>
      </trkpt>
      <trkpt lat="42.77365" lon="0.12403">
        <ele>2253.2</ele>
        <time>2017-02-21T13:02:40Z</time>
      </trkpt>
      <trkpt lat="42.77365" lon="0.12403">
        <ele>2253.2</ele>
        <time>2017-02-21T13:02:45Z</time>
      </trkpt>
      <trkpt lat="42.77365" lon="0.12403">
        <ele>2253.2</ele>
        <time>2017-02-21T13:02:50Z</time>
      </trkpt>
      <trkpt lat="42.77365" lon="0.12403">
        <ele>2253.2</ele>
        <time>2017-02-21T13:02:55Z</time>
      </trkpt>
      <trkpt lat="42.77365" lon="0.12403">
        <ele>2253.2</ele>
        <time>2017-02-21T13:03:00Z</time>
      </trkpt>
      <trkpt lat="42.77365" lon="0.12403">
        <ele>2253.2</ele>
        <time>2017-02-21T13:03:05Z</time>
      </trkpt>
      <trkpt lat="42.77365" lon="0.12403">
        <ele>2253.2</ele>
        <time>2017-02-21T13:03:10Z</time>
      </trkpt>
      <trkpt lat="42.77365" lon="0.12403">
        <ele>2253.2</ele>
        <time>2017-02-21T13:03:15Z</time>
      </trkpt>
      <trkpt lat="42.77365" lon="0.12403">
        <ele>2253.2</ele>
        <time>2017-02-21T13:03:20Z</time>
      </trkpt>
      <trkpt lat="42.77365" lon="0.12403">
        <ele>2253.2</ele>
        <time>2017-02-21T13:03:25Z</time>
      </trkpt>
      <trkpt lat="42.77365" lon="0.12403">
        <ele>2253.2</ele>
        <time>2017-02-21T13:03:30Z</time>
      </trkpt>
      <trkpt lat="42.77365" lon="0.12403">
        <ele>2253.2</ele>
        <time>2017-02-21T13:03:35Z</time>
      </trkpt>
      <trkpt lat="42.77365" lon="0.12403">
        <ele>2253.2</ele>
        <time>2017-02-21T13:03:40Z</time>
      </trkpt>
      <trkpt lat="42.77365" lon="0.12402">
        <ele>2253.2</ele>
        <time>2017-02-21T13:03:45Z</time>
      </trkpt>
      <trkpt lat="42.77365" lon="0.12401">
        <ele>2253.4</ele>
        <time>2017-02-21T13:03:50Z</time>
      </trkpt>
      <trkpt lat="42.77365" lon="0.12401">
        <ele>2253.6</ele>
        <time>2017-02-21T13:03:55Z</time>
      </trkpt>
      <trkpt lat="42.77364" lon="0.12403">
        <ele>2253.8</ele>
        <time>2017-02-21T13:04:00Z</time>
      </trkpt>
      <trkpt lat="42.77364" lon="0.12403">
        <ele>2253.8</ele>
        <time>2017-02-21T13:04:05Z</time>
      </trkpt>
      <trkpt lat="42.77364" lon="0.12403">
        <ele>2254</ele>
        <time>2017-02-21T13:04:10Z</time>
      </trkpt>
      <trkpt lat="42.77365" lon="0.12404">
        <ele>2255.6</ele>
        <time>2017-02-21T13:04:15Z</time>
      </trkpt>
      <trkpt lat="42.77365" lon="0.12404">
        <ele>2255.2</ele>
        <time>2017-02-21T13:04:20Z</time>
      </trkpt>
      <trkpt lat="42.77365" lon="0.12404">
        <ele>2254.8</ele>
        <time>2017-02-21T13:04:25Z</time>
      </trkpt>
      <trkpt lat="42.77364" lon="0.12404">
        <ele>2254.6</ele>
        <time>2017-02-21T13:04:30Z</time>
      </trkpt>
      <trkpt lat="42.77364" lon="0.12404">
        <ele>2254.4</ele>
        <time>2017-02-21T13:04:35Z</time>
      </trkpt>
      <trkpt lat="42.77364" lon="0.12404">
        <ele>2254.2</ele>
        <time>2017-02-21T13:04:40Z</time>
      </trkpt>
      <trkpt lat="42.77364" lon="0.12404">
        <ele>2254.2</ele>
        <time>2017-02-21T13:04:45Z</time>
      </trkpt>
      <trkpt lat="42.77364" lon="0.12404">
        <ele>2254</ele>
        <time>2017-02-21T13:04:50Z</time>
      </trkpt>
      <trkpt lat="42.77364" lon="0.12404">
        <ele>2254</ele>
        <time>2017-02-21T13:04:55Z</time>
      </trkpt>
      <trkpt lat="42.77364" lon="0.12404">
        <ele>2253.8</ele>
        <time>2017-02-21T13:05:00Z</time>
      </trkpt>
      <trkpt lat="42.77364" lon="0.12404">
        <ele>2252.8</ele>
        <time>2017-02-21T13:05:05Z</time>
      </trkpt>
      <trkpt lat="42.77364" lon="0.12407">
        <ele>2253.2</ele>
        <time>2017-02-21T13:05:10Z</time>
      </trkpt>
      <trkpt lat="42.77363" lon="0.12407">
        <ele>2253.4</ele>
        <time>2017-02-21T13:05:15Z</time>
      </trkpt>
      <trkpt lat="42.77363" lon="0.12407">
        <ele>2253.6</ele>
        <time>2017-02-21T13:05:20Z</time>
      </trkpt>
      <trkpt lat="42.77363" lon="0.12407">
        <ele>2253.6</ele>
        <time>2017-02-21T13:05:25Z</time>
      </trkpt>
      <trkpt lat="42.77363" lon="0.12407">
        <ele>2253.6</ele>
        <time>2017-02-21T13:05:30Z</time>
      </trkpt>
      <trkpt lat="42.77363" lon="0.12407">
        <ele>2253.6</ele>
        <time>2017-02-21T13:05:35Z</time>
      </trkpt>
      <trkpt lat="42.77363" lon="0.12407">
        <ele>2253.6</ele>
        <time>2017-02-21T13:05:40Z</time>
      </trkpt>
      <trkpt lat="42.77363" lon="0.12407">
        <ele>2253.6</ele>
        <time>2017-02-21T13:05:45Z</time>
      </trkpt>
      <trkpt lat="42.77363" lon="0.12407">
        <ele>2253.6</ele>
        <time>2017-02-21T13:05:50Z</time>
      </trkpt>
      <trkpt lat="42.77363" lon="0.12407">
        <ele>2253.6</ele>
        <time>2017-02-21T13:05:55Z</time>
      </trkpt>
      <trkpt lat="42.77363" lon="0.12407">
        <ele>2253.6</ele>
        <time>2017-02-21T13:06:00Z</time>
      </trkpt>
      <trkpt lat="42.77363" lon="0.12407">
        <ele>2253.6</ele>
        <time>2017-02-21T13:06:05Z</time>
      </trkpt>
      <trkpt lat="42.77364" lon="0.12407">
        <ele>2253.6</ele>
        <time>2017-02-21T13:06:10Z</time>
      </trkpt>
      <trkpt lat="42.77364" lon="0.12407">
        <ele>2253.6</ele>
        <time>2017-02-21T13:06:15Z</time>
      </trkpt>
      <trkpt lat="42.77364" lon="0.12407">
        <ele>2253.6</ele>
        <time>2017-02-21T13:06:20Z</time>
      </trkpt>
      <trkpt lat="42.77364" lon="0.12407">
        <ele>2253.6</ele>
        <time>2017-02-21T13:06:25Z</time>
      </trkpt>
      <trkpt lat="42.77364" lon="0.12407">
        <ele>2253.6</ele>
        <time>2017-02-21T13:06:30Z</time>
      </trkpt>
      <trkpt lat="42.77364" lon="0.12406">
        <ele>2253.6</ele>
        <time>2017-02-21T13:06:35Z</time>
      </trkpt>
      <trkpt lat="42.77364" lon="0.12406">
        <ele>2253.6</ele>
        <time>2017-02-21T13:06:40Z</time>
      </trkpt>
      <trkpt lat="42.77364" lon="0.12406">
        <ele>2253.6</ele>
        <time>2017-02-21T13:06:45Z</time>
      </trkpt>
      <trkpt lat="42.77364" lon="0.12405">
        <ele>2253.4</ele>
        <time>2017-02-21T13:06:50Z</time>
      </trkpt>
      <trkpt lat="42.77364" lon="0.12405">
        <ele>2253.4</ele>
        <time>2017-02-21T13:06:55Z</time>
      </trkpt>
      <trkpt lat="42.77364" lon="0.12405">
        <ele>2253.4</ele>
        <time>2017-02-21T13:07:00Z</time>
      </trkpt>
      <trkpt lat="42.77364" lon="0.12405">
        <ele>2253.4</ele>
        <time>2017-02-21T13:07:05Z</time>
      </trkpt>
      <trkpt lat="42.77364" lon="0.12404">
        <ele>2251.8</ele>
        <time>2017-02-21T13:07:10Z</time>
      </trkpt>
      <trkpt lat="42.77365" lon="0.12404">
        <ele>2252.2</ele>
        <time>2017-02-21T13:07:15Z</time>
      </trkpt>
      <trkpt lat="42.77365" lon="0.12405">
        <ele>2252.6</ele>
        <time>2017-02-21T13:07:20Z</time>
      </trkpt>
      <trkpt lat="42.77365" lon="0.12405">
        <ele>2252.4</ele>
        <time>2017-02-21T13:07:25Z</time>
      </trkpt>
      <trkpt lat="42.77365" lon="0.12405">
        <ele>2252.8</ele>
        <time>2017-02-21T13:07:30Z</time>
      </trkpt>
      <trkpt lat="42.77365" lon="0.12405">
        <ele>2253</ele>
        <time>2017-02-21T13:07:35Z</time>
      </trkpt>
      <trkpt lat="42.77365" lon="0.12405">
        <ele>2253.2</ele>
        <time>2017-02-21T13:07:40Z</time>
      </trkpt>
      <trkpt lat="42.77366" lon="0.12406">
        <ele>2253.4</ele>
        <time>2017-02-21T13:07:45Z</time>
      </trkpt>
      <trkpt lat="42.77365" lon="0.12409">
        <ele>2253.6</ele>
        <time>2017-02-21T13:07:50Z</time>
      </trkpt>
      <trkpt lat="42.77366" lon="0.12409">
        <ele>2252.6</ele>
        <time>2017-02-21T13:07:55Z</time>
      </trkpt>
      <trkpt lat="42.77366" lon="0.12409">
        <ele>2252.8</ele>
        <time>2017-02-21T13:08:00Z</time>
      </trkpt>
      <trkpt lat="42.77366" lon="0.1241">
        <ele>2253</ele>
        <time>2017-02-21T13:08:05Z</time>
      </trkpt>
      <trkpt lat="42.77365" lon="0.12415">
        <ele>2251.2</ele>
        <time>2017-02-21T13:08:10Z</time>
      </trkpt>
      <trkpt lat="42.77359" lon="0.12424">
        <ele>2249</ele>
        <time>2017-02-21T13:08:15Z</time>
      </trkpt>
      <trkpt lat="42.7736" lon="0.12424">
        <ele>2250</ele>
        <time>2017-02-21T13:08:20Z</time>
      </trkpt>
      <trkpt lat="42.7736" lon="0.12424">
        <ele>2250.8</ele>
        <time>2017-02-21T13:08:25Z</time>
      </trkpt>
      <trkpt lat="42.7736" lon="0.12424">
        <ele>2251.2</ele>
        <time>2017-02-21T13:08:30Z</time>
      </trkpt>
      <trkpt lat="42.7736" lon="0.12424">
        <ele>2251.6</ele>
        <time>2017-02-21T13:08:35Z</time>
      </trkpt>
      <trkpt lat="42.7736" lon="0.12424">
        <ele>2251.8</ele>
        <time>2017-02-21T13:08:40Z</time>
      </trkpt>
      <trkpt lat="42.77357" lon="0.12444">
        <ele>2248.4</ele>
        <time>2017-02-21T13:08:45Z</time>
      </trkpt>
      <trkpt lat="42.77354" lon="0.12472">
        <ele>2248.8</ele>
        <time>2017-02-21T13:08:50Z</time>
      </trkpt>
      <trkpt lat="42.7735" lon="0.12483">
        <ele>2252.4</ele>
        <time>2017-02-21T13:08:55Z</time>
      </trkpt>
      <trkpt lat="42.77349" lon="0.12489">
        <ele>2249</ele>
        <time>2017-02-21T13:09:00Z</time>
      </trkpt>
      <trkpt lat="42.77348" lon="0.12501">
        <ele>2250.2</ele>
        <time>2017-02-21T13:09:05Z</time>
      </trkpt>
      <trkpt lat="42.77347" lon="0.12505">
        <ele>2248.8</ele>
        <time>2017-02-21T13:09:10Z</time>
      </trkpt>
      <trkpt lat="42.77347" lon="0.12505">
        <ele>2249</ele>
        <time>2017-02-21T13:09:15Z</time>
      </trkpt>
      <trkpt lat="42.77347" lon="0.12505">
        <ele>2249</ele>
        <time>2017-02-21T13:09:20Z</time>
      </trkpt>
      <trkpt lat="42.77347" lon="0.12505">
        <ele>2249.2</ele>
        <time>2017-02-21T13:09:25Z</time>
      </trkpt>
      <trkpt lat="42.77347" lon="0.12505">
        <ele>2249.2</ele>
        <time>2017-02-21T13:09:30Z</time>
      </trkpt>
      <trkpt lat="42.77347" lon="0.12505">
        <ele>2249.2</ele>
        <time>2017-02-21T13:09:35Z</time>
      </trkpt>
      <trkpt lat="42.77347" lon="0.12505">
        <ele>2249.2</ele>
        <time>2017-02-21T13:09:40Z</time>
      </trkpt>
      <trkpt lat="42.77347" lon="0.12505">
        <ele>2249.2</ele>
        <time>2017-02-21T13:09:45Z</time>
      </trkpt>
      <trkpt lat="42.77347" lon="0.12505">
        <ele>2249.2</ele>
        <time>2017-02-21T13:09:50Z</time>
      </trkpt>
      <trkpt lat="42.77347" lon="0.12505">
        <ele>2249.2</ele>
        <time>2017-02-21T13:09:55Z</time>
      </trkpt>
      <trkpt lat="42.77347" lon="0.12505">
        <ele>2249.2</ele>
        <time>2017-02-21T13:10:00Z</time>
      </trkpt>
      <trkpt lat="42.77347" lon="0.12504">
        <ele>2249.2</ele>
        <time>2017-02-21T13:10:06Z</time>
      </trkpt>
      <trkpt lat="42.77347" lon="0.12504">
        <ele>2249</ele>
        <time>2017-02-21T13:10:11Z</time>
      </trkpt>
      <trkpt lat="42.77347" lon="0.12504">
        <ele>2249</ele>
        <time>2017-02-21T13:10:16Z</time>
      </trkpt>
      <trkpt lat="42.77347" lon="0.12504">
        <ele>2249</ele>
        <time>2017-02-21T13:10:21Z</time>
      </trkpt>
      <trkpt lat="42.77347" lon="0.12504">
        <ele>2249</ele>
        <time>2017-02-21T13:10:26Z</time>
      </trkpt>
      <trkpt lat="42.77347" lon="0.12504">
        <ele>2249</ele>
        <time>2017-02-21T13:10:31Z</time>
      </trkpt>
      <trkpt lat="42.77347" lon="0.12504">
        <ele>2249</ele>
        <time>2017-02-21T13:10:36Z</time>
      </trkpt>
      <trkpt lat="42.77347" lon="0.12504">
        <ele>2249</ele>
        <time>2017-02-21T13:10:41Z</time>
      </trkpt>
      <trkpt lat="42.77347" lon="0.12504">
        <ele>2249</ele>
        <time>2017-02-21T13:10:46Z</time>
      </trkpt>
      <trkpt lat="42.77347" lon="0.12505">
        <ele>2248.6</ele>
        <time>2017-02-21T13:10:51Z</time>
      </trkpt>
      <trkpt lat="42.77348" lon="0.12513">
        <ele>2249.2</ele>
        <time>2017-02-21T13:10:56Z</time>
      </trkpt>
      <trkpt lat="42.77353" lon="0.12537">
        <ele>2245.2</ele>
        <time>2017-02-21T13:11:01Z</time>
      </trkpt>
      <trkpt lat="42.77371" lon="0.12541">
        <ele>2232.2</ele>
        <time>2017-02-21T13:11:06Z</time>
      </trkpt>
      <trkpt lat="42.77382" lon="0.1256">
        <ele>2227.4</ele>
        <time>2017-02-21T13:11:11Z</time>
      </trkpt>
      <trkpt lat="42.77398" lon="0.1258">
        <ele>2220.8</ele>
        <time>2017-02-21T13:11:16Z</time>
      </trkpt>
      <trkpt lat="42.77403" lon="0.12582">
        <ele>2220.2</ele>
        <time>2017-02-21T13:11:21Z</time>
      </trkpt>
      <trkpt lat="42.77401" lon="0.12583">
        <ele>2221</ele>
        <time>2017-02-21T13:11:26Z</time>
      </trkpt>
      <trkpt lat="42.77401" lon="0.12583">
        <ele>2221.2</ele>
        <time>2017-02-21T13:11:31Z</time>
      </trkpt>
      <trkpt lat="42.77401" lon="0.12583">
        <ele>2221.4</ele>
        <time>2017-02-21T13:11:36Z</time>
      </trkpt>
      <trkpt lat="42.77401" lon="0.12583">
        <ele>2221.4</ele>
        <time>2017-02-21T13:11:41Z</time>
      </trkpt>
      <trkpt lat="42.77401" lon="0.12582">
        <ele>2221.4</ele>
        <time>2017-02-21T13:11:46Z</time>
      </trkpt>
      <trkpt lat="42.77402" lon="0.12582">
        <ele>2220.8</ele>
        <time>2017-02-21T13:11:51Z</time>
      </trkpt>
      <trkpt lat="42.77402" lon="0.12582">
        <ele>2219.8</ele>
        <time>2017-02-21T13:11:56Z</time>
      </trkpt>
      <trkpt lat="42.77402" lon="0.12582">
        <ele>2219.2</ele>
        <time>2017-02-21T13:12:01Z</time>
      </trkpt>
      <trkpt lat="42.77402" lon="0.12582">
        <ele>2218.6</ele>
        <time>2017-02-21T13:12:06Z</time>
      </trkpt>
      <trkpt lat="42.77402" lon="0.12581">
        <ele>2218</ele>
        <time>2017-02-21T13:12:11Z</time>
      </trkpt>
      <trkpt lat="42.77402" lon="0.12581">
        <ele>2217.2</ele>
        <time>2017-02-21T13:12:16Z</time>
      </trkpt>
      <trkpt lat="42.77402" lon="0.12581">
        <ele>2216.6</ele>
        <time>2017-02-21T13:12:21Z</time>
      </trkpt>
      <trkpt lat="42.77402" lon="0.12581">
        <ele>2216</ele>
        <time>2017-02-21T13:12:26Z</time>
      </trkpt>
      <trkpt lat="42.77402" lon="0.12581">
        <ele>2215.8</ele>
        <time>2017-02-21T13:12:31Z</time>
      </trkpt>
      <trkpt lat="42.77402" lon="0.12581">
        <ele>2215.6</ele>
        <time>2017-02-21T13:12:36Z</time>
      </trkpt>
      <trkpt lat="42.77402" lon="0.12581">
        <ele>2215.4</ele>
        <time>2017-02-21T13:12:41Z</time>
      </trkpt>
      <trkpt lat="42.77402" lon="0.12581">
        <ele>2215.2</ele>
        <time>2017-02-21T13:12:46Z</time>
      </trkpt>
      <trkpt lat="42.77402" lon="0.12581">
        <ele>2215.2</ele>
        <time>2017-02-21T13:12:51Z</time>
      </trkpt>
      <trkpt lat="42.77402" lon="0.12581">
        <ele>2215</ele>
        <time>2017-02-21T13:12:56Z</time>
      </trkpt>
      <trkpt lat="42.77402" lon="0.12581">
        <ele>2215</ele>
        <time>2017-02-21T13:13:01Z</time>
      </trkpt>
      <trkpt lat="42.77402" lon="0.12581">
        <ele>2215</ele>
        <time>2017-02-21T13:13:06Z</time>
      </trkpt>
      <trkpt lat="42.77402" lon="0.12581">
        <ele>2215</ele>
        <time>2017-02-21T13:13:11Z</time>
      </trkpt>
      <trkpt lat="42.77402" lon="0.12581">
        <ele>2215</ele>
        <time>2017-02-21T13:13:16Z</time>
      </trkpt>
      <trkpt lat="42.77402" lon="0.12581">
        <ele>2215</ele>
        <time>2017-02-21T13:13:21Z</time>
      </trkpt>
      <trkpt lat="42.77402" lon="0.12581">
        <ele>2215</ele>
        <time>2017-02-21T13:13:26Z</time>
      </trkpt>
      <trkpt lat="42.77402" lon="0.12581">
        <ele>2214.8</ele>
        <time>2017-02-21T13:13:31Z</time>
      </trkpt>
      <trkpt lat="42.77402" lon="0.12581">
        <ele>2214.8</ele>
        <time>2017-02-21T13:13:36Z</time>
      </trkpt>
      <trkpt lat="42.77403" lon="0.12581">
        <ele>2214.8</ele>
        <time>2017-02-21T13:13:41Z</time>
      </trkpt>
      <trkpt lat="42.77403" lon="0.12581">
        <ele>2214.8</ele>
        <time>2017-02-21T13:13:46Z</time>
      </trkpt>
      <trkpt lat="42.77403" lon="0.12581">
        <ele>2214.8</ele>
        <time>2017-02-21T13:13:51Z</time>
      </trkpt>
      <trkpt lat="42.77403" lon="0.12581">
        <ele>2214.8</ele>
        <time>2017-02-21T13:13:56Z</time>
      </trkpt>
      <trkpt lat="42.77403" lon="0.12581">
        <ele>2214.8</ele>
        <time>2017-02-21T13:14:01Z</time>
      </trkpt>
      <trkpt lat="42.77403" lon="0.12581">
        <ele>2214.8</ele>
        <time>2017-02-21T13:14:06Z</time>
      </trkpt>
      <trkpt lat="42.77403" lon="0.12581">
        <ele>2214.8</ele>
        <time>2017-02-21T13:14:11Z</time>
      </trkpt>
      <trkpt lat="42.77403" lon="0.12581">
        <ele>2214.8</ele>
        <time>2017-02-21T13:14:16Z</time>
      </trkpt>
      <trkpt lat="42.77403" lon="0.12581">
        <ele>2214.8</ele>
        <time>2017-02-21T13:14:21Z</time>
      </trkpt>
      <trkpt lat="42.77403" lon="0.12581">
        <ele>2214.8</ele>
        <time>2017-02-21T13:14:26Z</time>
      </trkpt>
      <trkpt lat="42.77402" lon="0.12581">
        <ele>2214.8</ele>
        <time>2017-02-21T13:14:31Z</time>
      </trkpt>
      <trkpt lat="42.77394" lon="0.12595">
        <ele>2213.4</ele>
        <time>2017-02-21T13:14:36Z</time>
      </trkpt>
      <trkpt lat="42.77389" lon="0.1262">
        <ele>2211</ele>
        <time>2017-02-21T13:14:41Z</time>
      </trkpt>
      <trkpt lat="42.77403" lon="0.12632">
        <ele>2198.6</ele>
        <time>2017-02-21T13:14:46Z</time>
      </trkpt>
      <trkpt lat="42.77408" lon="0.12662">
        <ele>2191</ele>
        <time>2017-02-21T13:14:51Z</time>
      </trkpt>
      <trkpt lat="42.77422" lon="0.12689">
        <ele>2182.8</ele>
        <time>2017-02-21T13:14:56Z</time>
      </trkpt>
      <trkpt lat="42.7742" lon="0.12729">
        <ele>2174.2</ele>
        <time>2017-02-21T13:15:01Z</time>
      </trkpt>
      <trkpt lat="42.77421" lon="0.1276">
        <ele>2169.2</ele>
        <time>2017-02-21T13:15:06Z</time>
      </trkpt>
      <trkpt lat="42.77441" lon="0.12791">
        <ele>2155.2</ele>
        <time>2017-02-21T13:15:11Z</time>
      </trkpt>
      <trkpt lat="42.77458" lon="0.12834">
        <ele>2146</ele>
        <time>2017-02-21T13:15:16Z</time>
      </trkpt>
      <trkpt lat="42.77468" lon="0.12876">
        <ele>2141.2</ele>
        <time>2017-02-21T13:15:21Z</time>
      </trkpt>
      <trkpt lat="42.77476" lon="0.12899">
        <ele>2133.4</ele>
        <time>2017-02-21T13:15:26Z</time>
      </trkpt>
      <trkpt lat="42.77476" lon="0.12901">
        <ele>2130.8</ele>
        <time>2017-02-21T13:15:31Z</time>
      </trkpt>
      <trkpt lat="42.77476" lon="0.12901">
        <ele>2126.4</ele>
        <time>2017-02-21T13:15:36Z</time>
      </trkpt>
      <trkpt lat="42.77476" lon="0.129">
        <ele>2123.2</ele>
        <time>2017-02-21T13:15:41Z</time>
      </trkpt>
      <trkpt lat="42.77475" lon="0.12903">
        <ele>2123.8</ele>
        <time>2017-02-21T13:15:46Z</time>
      </trkpt>
      <trkpt lat="42.77474" lon="0.12905">
        <ele>2121.2</ele>
        <time>2017-02-21T13:15:51Z</time>
      </trkpt>
      <trkpt lat="42.77474" lon="0.12905">
        <ele>2119</ele>
        <time>2017-02-21T13:15:56Z</time>
      </trkpt>
      <trkpt lat="42.77474" lon="0.12905">
        <ele>2117.6</ele>
        <time>2017-02-21T13:16:01Z</time>
      </trkpt>
      <trkpt lat="42.77474" lon="0.12905">
        <ele>2116.6</ele>
        <time>2017-02-21T13:16:06Z</time>
      </trkpt>
      <trkpt lat="42.77474" lon="0.12905">
        <ele>2115.8</ele>
        <time>2017-02-21T13:16:11Z</time>
      </trkpt>
      <trkpt lat="42.77474" lon="0.12905">
        <ele>2115.2</ele>
        <time>2017-02-21T13:16:16Z</time>
      </trkpt>
      <trkpt lat="42.77474" lon="0.12905">
        <ele>2115</ele>
        <time>2017-02-21T13:16:21Z</time>
      </trkpt>
      <trkpt lat="42.77473" lon="0.12906">
        <ele>2114.2</ele>
        <time>2017-02-21T13:16:26Z</time>
      </trkpt>
      <trkpt lat="42.77473" lon="0.12906">
        <ele>2114.2</ele>
        <time>2017-02-21T13:16:31Z</time>
      </trkpt>
      <trkpt lat="42.77473" lon="0.12906">
        <ele>2114.2</ele>
        <time>2017-02-21T13:16:36Z</time>
      </trkpt>
      <trkpt lat="42.7747" lon="0.12909">
        <ele>2111</ele>
        <time>2017-02-21T13:16:41Z</time>
      </trkpt>
      <trkpt lat="42.7747" lon="0.12925">
        <ele>2103.8</ele>
        <time>2017-02-21T13:16:46Z</time>
      </trkpt>
      <trkpt lat="42.7748" lon="0.12938">
        <ele>2103.2</ele>
        <time>2017-02-21T13:16:51Z</time>
      </trkpt>
      <trkpt lat="42.77497" lon="0.12948">
        <ele>2096.4</ele>
        <time>2017-02-21T13:16:56Z</time>
      </trkpt>
      <trkpt lat="42.7751" lon="0.12979">
        <ele>2091.6</ele>
        <time>2017-02-21T13:17:01Z</time>
      </trkpt>
      <trkpt lat="42.77515" lon="0.1301">
        <ele>2091.2</ele>
        <time>2017-02-21T13:17:06Z</time>
      </trkpt>
      <trkpt lat="42.77513" lon="0.13049">
        <ele>2086.4</ele>
        <time>2017-02-21T13:17:11Z</time>
      </trkpt>
      <trkpt lat="42.775" lon="0.13078">
        <ele>2083.2</ele>
        <time>2017-02-21T13:17:16Z</time>
      </trkpt>
      <trkpt lat="42.77498" lon="0.13084">
        <ele>2082.8</ele>
        <time>2017-02-21T13:17:21Z</time>
      </trkpt>
      <trkpt lat="42.77497" lon="0.13084">
        <ele>2082.4</ele>
        <time>2017-02-21T13:17:26Z</time>
      </trkpt>
      <trkpt lat="42.77497" lon="0.13084">
        <ele>2082</ele>
        <time>2017-02-21T13:17:31Z</time>
      </trkpt>
      <trkpt lat="42.77498" lon="0.13084">
        <ele>2081.6</ele>
        <time>2017-02-21T13:17:36Z</time>
      </trkpt>
      <trkpt lat="42.77498" lon="0.13084">
        <ele>2081.4</ele>
        <time>2017-02-21T13:17:41Z</time>
      </trkpt>
      <trkpt lat="42.77498" lon="0.13084">
        <ele>2081.2</ele>
        <time>2017-02-21T13:17:46Z</time>
      </trkpt>
      <trkpt lat="42.77493" lon="0.13093">
        <ele>2078.2</ele>
        <time>2017-02-21T13:17:51Z</time>
      </trkpt>
      <trkpt lat="42.77486" lon="0.13114">
        <ele>2077.4</ele>
        <time>2017-02-21T13:17:56Z</time>
      </trkpt>
      <trkpt lat="42.77483" lon="0.13122">
        <ele>2077.4</ele>
        <time>2017-02-21T13:18:01Z</time>
      </trkpt>
      <trkpt lat="42.77481" lon="0.13126">
        <ele>2075.8</ele>
        <time>2017-02-21T13:18:06Z</time>
      </trkpt>
      <trkpt lat="42.77477" lon="0.13134">
        <ele>2078.2</ele>
        <time>2017-02-21T13:18:11Z</time>
      </trkpt>
      <trkpt lat="42.77464" lon="0.13147">
        <ele>2078</ele>
        <time>2017-02-21T13:18:16Z</time>
      </trkpt>
      <trkpt lat="42.77445" lon="0.13167">
        <ele>2074</ele>
        <time>2017-02-21T13:18:21Z</time>
      </trkpt>
      <trkpt lat="42.77439" lon="0.13174">
        <ele>2071.6</ele>
        <time>2017-02-21T13:18:26Z</time>
      </trkpt>
      <trkpt lat="42.77438" lon="0.13175">
        <ele>2071.4</ele>
        <time>2017-02-21T13:18:31Z</time>
      </trkpt>
      <trkpt lat="42.77438" lon="0.13174">
        <ele>2071.2</ele>
        <time>2017-02-21T13:18:36Z</time>
      </trkpt>
      <trkpt lat="42.77438" lon="0.13174">
        <ele>2071</ele>
        <time>2017-02-21T13:18:41Z</time>
      </trkpt>
      <trkpt lat="42.77437" lon="0.13175">
        <ele>2068.8</ele>
        <time>2017-02-21T13:18:46Z</time>
      </trkpt>
      <trkpt lat="42.77435" lon="0.13178">
        <ele>2069.6</ele>
        <time>2017-02-21T13:18:51Z</time>
      </trkpt>
      <trkpt lat="42.77432" lon="0.13181">
        <ele>2071</ele>
        <time>2017-02-21T13:18:56Z</time>
      </trkpt>
      <trkpt lat="42.77432" lon="0.13181">
        <ele>2070.4</ele>
        <time>2017-02-21T13:19:01Z</time>
      </trkpt>
      <trkpt lat="42.77432" lon="0.13181">
        <ele>2070</ele>
        <time>2017-02-21T13:19:06Z</time>
      </trkpt>
      <trkpt lat="42.77432" lon="0.13181">
        <ele>2069.8</ele>
        <time>2017-02-21T13:19:11Z</time>
      </trkpt>
      <trkpt lat="42.77431" lon="0.13181">
        <ele>2073</ele>
        <time>2017-02-21T13:19:16Z</time>
      </trkpt>
      <trkpt lat="42.77425" lon="0.13186">
        <ele>2070.8</ele>
        <time>2017-02-21T13:19:21Z</time>
      </trkpt>
      <trkpt lat="42.77425" lon="0.13186">
        <ele>2070.2</ele>
        <time>2017-02-21T13:19:26Z</time>
      </trkpt>
      <trkpt lat="42.77424" lon="0.13186">
        <ele>2069.6</ele>
        <time>2017-02-21T13:19:32Z</time>
      </trkpt>
      <trkpt lat="42.77424" lon="0.13186">
        <ele>2069.2</ele>
        <time>2017-02-21T13:19:37Z</time>
      </trkpt>
      <trkpt lat="42.77424" lon="0.13186">
        <ele>2069</ele>
        <time>2017-02-21T13:19:42Z</time>
      </trkpt>
      <trkpt lat="42.77416" lon="0.13194">
        <ele>2067.6</ele>
        <time>2017-02-21T13:19:47Z</time>
      </trkpt>
      <trkpt lat="42.77415" lon="0.13194">
        <ele>2066.6</ele>
        <time>2017-02-21T13:19:52Z</time>
      </trkpt>
      <trkpt lat="42.77414" lon="0.13196">
        <ele>2068.4</ele>
        <time>2017-02-21T13:19:57Z</time>
      </trkpt>
      <trkpt lat="42.77415" lon="0.13199">
        <ele>2066.2</ele>
        <time>2017-02-21T13:20:02Z</time>
      </trkpt>
      <trkpt lat="42.77415" lon="0.13199">
        <ele>2065.8</ele>
        <time>2017-02-21T13:20:07Z</time>
      </trkpt>
      <trkpt lat="42.77415" lon="0.13199">
        <ele>2065.8</ele>
        <time>2017-02-21T13:20:12Z</time>
      </trkpt>
      <trkpt lat="42.77415" lon="0.132">
        <ele>2065.6</ele>
        <time>2017-02-21T13:20:17Z</time>
      </trkpt>
      <trkpt lat="42.77415" lon="0.132">
        <ele>2065.4</ele>
        <time>2017-02-21T13:20:22Z</time>
      </trkpt>
      <trkpt lat="42.77415" lon="0.132">
        <ele>2065.2</ele>
        <time>2017-02-21T13:20:27Z</time>
      </trkpt>
      <trkpt lat="42.77415" lon="0.132">
        <ele>2065</ele>
        <time>2017-02-21T13:20:32Z</time>
      </trkpt>
      <trkpt lat="42.77415" lon="0.13199">
        <ele>2065</ele>
        <time>2017-02-21T13:20:37Z</time>
      </trkpt>
      <trkpt lat="42.77415" lon="0.13199">
        <ele>2064.8</ele>
        <time>2017-02-21T13:20:42Z</time>
      </trkpt>
      <trkpt lat="42.77415" lon="0.13199">
        <ele>2064.8</ele>
        <time>2017-02-21T13:20:47Z</time>
      </trkpt>
      <trkpt lat="42.77416" lon="0.13198">
        <ele>2065.8</ele>
        <time>2017-02-21T13:20:52Z</time>
      </trkpt>
      <trkpt lat="42.77416" lon="0.13198">
        <ele>2065.2</ele>
        <time>2017-02-21T13:20:57Z</time>
      </trkpt>
      <trkpt lat="42.77416" lon="0.13198">
        <ele>2064.8</ele>
        <time>2017-02-21T13:21:02Z</time>
      </trkpt>
      <trkpt lat="42.77416" lon="0.13198">
        <ele>2064.4</ele>
        <time>2017-02-21T13:21:07Z</time>
      </trkpt>
      <trkpt lat="42.77416" lon="0.13198">
        <ele>2064.2</ele>
        <time>2017-02-21T13:21:12Z</time>
      </trkpt>
      <trkpt lat="42.77416" lon="0.13198">
        <ele>2064</ele>
        <time>2017-02-21T13:21:17Z</time>
      </trkpt>
      <trkpt lat="42.77419" lon="0.13197">
        <ele>2065.4</ele>
        <time>2017-02-21T13:21:22Z</time>
      </trkpt>
      <trkpt lat="42.77422" lon="0.13206">
        <ele>2057.8</ele>
        <time>2017-02-21T13:21:27Z</time>
      </trkpt>
      <trkpt lat="42.77428" lon="0.13204">
        <ele>2057.8</ele>
        <time>2017-02-21T13:21:32Z</time>
      </trkpt>
      <trkpt lat="42.77428" lon="0.13209">
        <ele>2055.8</ele>
        <time>2017-02-21T13:21:37Z</time>
      </trkpt>
      <trkpt lat="42.77426" lon="0.1321">
        <ele>2056.8</ele>
        <time>2017-02-21T13:21:42Z</time>
      </trkpt>
      <trkpt lat="42.77421" lon="0.13226">
        <ele>2053.2</ele>
        <time>2017-02-21T13:21:47Z</time>
      </trkpt>
      <trkpt lat="42.77439" lon="0.13221">
        <ele>2048.4</ele>
        <time>2017-02-21T13:21:52Z</time>
      </trkpt>
      <trkpt lat="42.77441" lon="0.1324">
        <ele>2039.4</ele>
        <time>2017-02-21T13:21:57Z</time>
      </trkpt>
      <trkpt lat="42.77445" lon="0.13258">
        <ele>2028.8</ele>
        <time>2017-02-21T13:22:02Z</time>
      </trkpt>
      <trkpt lat="42.77444" lon="0.13283">
        <ele>2019.2</ele>
        <time>2017-02-21T13:22:07Z</time>
      </trkpt>
      <trkpt lat="42.77459" lon="0.13294">
        <ele>2009.2</ele>
        <time>2017-02-21T13:22:12Z</time>
      </trkpt>
      <trkpt lat="42.7746" lon="0.13294">
        <ele>2006.8</ele>
        <time>2017-02-21T13:22:17Z</time>
      </trkpt>
      <trkpt lat="42.7746" lon="0.13294">
        <ele>2006.2</ele>
        <time>2017-02-21T13:22:22Z</time>
      </trkpt>
      <trkpt lat="42.7746" lon="0.13294">
        <ele>2005.8</ele>
        <time>2017-02-21T13:22:27Z</time>
      </trkpt>
      <trkpt lat="42.77461" lon="0.13292">
        <ele>2005.6</ele>
        <time>2017-02-21T13:22:32Z</time>
      </trkpt>
      <trkpt lat="42.77461" lon="0.13292">
        <ele>2005</ele>
        <time>2017-02-21T13:22:37Z</time>
      </trkpt>
      <trkpt lat="42.77461" lon="0.13292">
        <ele>2004.4</ele>
        <time>2017-02-21T13:22:42Z</time>
      </trkpt>
      <trkpt lat="42.77461" lon="0.13292">
        <ele>2004</ele>
        <time>2017-02-21T13:22:47Z</time>
      </trkpt>
      <trkpt lat="42.77462" lon="0.13292">
        <ele>2003.8</ele>
        <time>2017-02-21T13:22:52Z</time>
      </trkpt>
      <trkpt lat="42.77468" lon="0.1329">
        <ele>2003.4</ele>
        <time>2017-02-21T13:22:57Z</time>
      </trkpt>
      <trkpt lat="42.77476" lon="0.13289">
        <ele>2003.6</ele>
        <time>2017-02-21T13:23:02Z</time>
      </trkpt>
      <trkpt lat="42.77484" lon="0.13286">
        <ele>2001.4</ele>
        <time>2017-02-21T13:23:07Z</time>
      </trkpt>
      <trkpt lat="42.77491" lon="0.13283">
        <ele>2000.2</ele>
        <time>2017-02-21T13:23:12Z</time>
      </trkpt>
      <trkpt lat="42.77495" lon="0.13282">
        <ele>2000.6</ele>
        <time>2017-02-21T13:23:17Z</time>
      </trkpt>
      <trkpt lat="42.77497" lon="0.13281">
        <ele>1996.2</ele>
        <time>2017-02-21T13:23:22Z</time>
      </trkpt>
      <trkpt lat="42.77512" lon="0.13281">
        <ele>1995.4</ele>
        <time>2017-02-21T13:23:27Z</time>
      </trkpt>
      <trkpt lat="42.7752" lon="0.13291">
        <ele>1994.8</ele>
        <time>2017-02-21T13:23:32Z</time>
      </trkpt>
      <trkpt lat="42.77529" lon="0.13304">
        <ele>1990.2</ele>
        <time>2017-02-21T13:23:37Z</time>
      </trkpt>
      <trkpt lat="42.77543" lon="0.13317">
        <ele>1991</ele>
        <time>2017-02-21T13:23:42Z</time>
      </trkpt>
      <trkpt lat="42.7756" lon="0.13324">
        <ele>1987.8</ele>
        <time>2017-02-21T13:23:47Z</time>
      </trkpt>
      <trkpt lat="42.77577" lon="0.13328">
        <ele>1989.2</ele>
        <time>2017-02-21T13:23:52Z</time>
      </trkpt>
      <trkpt lat="42.77603" lon="0.1333">
        <ele>1984.2</ele>
        <time>2017-02-21T13:23:57Z</time>
      </trkpt>
      <trkpt lat="42.77627" lon="0.13333">
        <ele>1979</ele>
        <time>2017-02-21T13:24:03Z</time>
      </trkpt>
      <trkpt lat="42.77643" lon="0.13335">
        <ele>1978</ele>
        <time>2017-02-21T13:24:08Z</time>
      </trkpt>
      <trkpt lat="42.77658" lon="0.13339">
        <ele>1971.4</ele>
        <time>2017-02-21T13:24:13Z</time>
      </trkpt>
      <trkpt lat="42.77672" lon="0.13345">
        <ele>1971</ele>
        <time>2017-02-21T13:24:18Z</time>
      </trkpt>
      <trkpt lat="42.77684" lon="0.13352">
        <ele>1971.8</ele>
        <time>2017-02-21T13:24:23Z</time>
      </trkpt>
      <trkpt lat="42.77696" lon="0.13361">
        <ele>1970.8</ele>
        <time>2017-02-21T13:24:28Z</time>
      </trkpt>
      <trkpt lat="42.77707" lon="0.13366">
        <ele>1967.8</ele>
        <time>2017-02-21T13:24:33Z</time>
      </trkpt>
      <trkpt lat="42.77716" lon="0.1337">
        <ele>1967.8</ele>
        <time>2017-02-21T13:24:38Z</time>
      </trkpt>
      <trkpt lat="42.77724" lon="0.13373">
        <ele>1964.8</ele>
        <time>2017-02-21T13:24:43Z</time>
      </trkpt>
      <trkpt lat="42.77732" lon="0.13376">
        <ele>1964.2</ele>
        <time>2017-02-21T13:24:48Z</time>
      </trkpt>
      <trkpt lat="42.77741" lon="0.13381">
        <ele>1966</ele>
        <time>2017-02-21T13:24:53Z</time>
      </trkpt>
      <trkpt lat="42.77751" lon="0.13389">
        <ele>1962.8</ele>
        <time>2017-02-21T13:24:58Z</time>
      </trkpt>
      <trkpt lat="42.77759" lon="0.13395">
        <ele>1959.8</ele>
        <time>2017-02-21T13:25:03Z</time>
      </trkpt>
      <trkpt lat="42.77769" lon="0.13399">
        <ele>1959.2</ele>
        <time>2017-02-21T13:25:08Z</time>
      </trkpt>
      <trkpt lat="42.7778" lon="0.13404">
        <ele>1956.4</ele>
        <time>2017-02-21T13:25:13Z</time>
      </trkpt>
      <trkpt lat="42.77791" lon="0.13408">
        <ele>1954.6</ele>
        <time>2017-02-21T13:25:18Z</time>
      </trkpt>
      <trkpt lat="42.77801" lon="0.13412">
        <ele>1956.8</ele>
        <time>2017-02-21T13:25:23Z</time>
      </trkpt>
      <trkpt lat="42.7781" lon="0.13416">
        <ele>1955.8</ele>
        <time>2017-02-21T13:25:28Z</time>
      </trkpt>
      <trkpt lat="42.77827" lon="0.13419">
        <ele>1952.2</ele>
        <time>2017-02-21T13:25:33Z</time>
      </trkpt>
      <trkpt lat="42.77842" lon="0.13423">
        <ele>1950.4</ele>
        <time>2017-02-21T13:25:38Z</time>
      </trkpt>
      <trkpt lat="42.77855" lon="0.13426">
        <ele>1950.4</ele>
        <time>2017-02-21T13:25:43Z</time>
      </trkpt>
      <trkpt lat="42.77871" lon="0.13428">
        <ele>1949.4</ele>
        <time>2017-02-21T13:25:48Z</time>
      </trkpt>
      <trkpt lat="42.77886" lon="0.13431">
        <ele>1946.6</ele>
        <time>2017-02-21T13:25:53Z</time>
      </trkpt>
      <trkpt lat="42.77902" lon="0.13433">
        <ele>1942.8</ele>
        <time>2017-02-21T13:25:58Z</time>
      </trkpt>
      <trkpt lat="42.77913" lon="0.13434">
        <ele>1943.4</ele>
        <time>2017-02-21T13:26:03Z</time>
      </trkpt>
      <trkpt lat="42.77926" lon="0.13435">
        <ele>1941.6</ele>
        <time>2017-02-21T13:26:08Z</time>
      </trkpt>
      <trkpt lat="42.77936" lon="0.13436">
        <ele>1941</ele>
        <time>2017-02-21T13:26:13Z</time>
      </trkpt>
      <trkpt lat="42.77945" lon="0.13437">
        <ele>1942.4</ele>
        <time>2017-02-21T13:26:18Z</time>
      </trkpt>
      <trkpt lat="42.77961" lon="0.13437">
        <ele>1940.4</ele>
        <time>2017-02-21T13:26:23Z</time>
      </trkpt>
      <trkpt lat="42.7797" lon="0.1344">
        <ele>1937</ele>
        <time>2017-02-21T13:26:28Z</time>
      </trkpt>
      <trkpt lat="42.77981" lon="0.13443">
        <ele>1934.2</ele>
        <time>2017-02-21T13:26:33Z</time>
      </trkpt>
      <trkpt lat="42.77992" lon="0.13445">
        <ele>1934.6</ele>
        <time>2017-02-21T13:26:38Z</time>
      </trkpt>
      <trkpt lat="42.78008" lon="0.13451">
        <ele>1932.6</ele>
        <time>2017-02-21T13:26:43Z</time>
      </trkpt>
      <trkpt lat="42.78024" lon="0.13462">
        <ele>1929.2</ele>
        <time>2017-02-21T13:26:48Z</time>
      </trkpt>
      <trkpt lat="42.78037" lon="0.13469">
        <ele>1928.2</ele>
        <time>2017-02-21T13:26:53Z</time>
      </trkpt>
      <trkpt lat="42.78043" lon="0.13473">
        <ele>1927</ele>
        <time>2017-02-21T13:26:58Z</time>
      </trkpt>
      <trkpt lat="42.78049" lon="0.13478">
        <ele>1925.8</ele>
        <time>2017-02-21T13:27:03Z</time>
      </trkpt>
      <trkpt lat="42.78065" lon="0.13489">
        <ele>1926</ele>
        <time>2017-02-21T13:27:08Z</time>
      </trkpt>
      <trkpt lat="42.78075" lon="0.13497">
        <ele>1925.8</ele>
        <time>2017-02-21T13:27:13Z</time>
      </trkpt>
      <trkpt lat="42.78076" lon="0.13498">
        <ele>1925.8</ele>
        <time>2017-02-21T13:27:18Z</time>
      </trkpt>
      <trkpt lat="42.78084" lon="0.13511">
        <ele>1924.4</ele>
        <time>2017-02-21T13:27:23Z</time>
      </trkpt>
      <trkpt lat="42.78098" lon="0.13533">
        <ele>1917</ele>
        <time>2017-02-21T13:27:28Z</time>
      </trkpt>
      <trkpt lat="42.78118" lon="0.1357">
        <ele>1911</ele>
        <time>2017-02-21T13:27:33Z</time>
      </trkpt>
      <trkpt lat="42.78118" lon="0.13598">
        <ele>1910.4</ele>
        <time>2017-02-21T13:27:38Z</time>
      </trkpt>
      <trkpt lat="42.78118" lon="0.13621">
        <ele>1910.2</ele>
        <time>2017-02-21T13:27:43Z</time>
      </trkpt>
      <trkpt lat="42.78119" lon="0.13642">
        <ele>1907.6</ele>
        <time>2017-02-21T13:27:48Z</time>
      </trkpt>
      <trkpt lat="42.78121" lon="0.13661">
        <ele>1906.6</ele>
        <time>2017-02-21T13:27:53Z</time>
      </trkpt>
      <trkpt lat="42.78121" lon="0.13674">
        <ele>1906.4</ele>
        <time>2017-02-21T13:27:58Z</time>
      </trkpt>
      <trkpt lat="42.78122" lon="0.13686">
        <ele>1904.4</ele>
        <time>2017-02-21T13:28:03Z</time>
      </trkpt>
      <trkpt lat="42.78125" lon="0.13699">
        <ele>1904.2</ele>
        <time>2017-02-21T13:28:08Z</time>
      </trkpt>
      <trkpt lat="42.7813" lon="0.13718">
        <ele>1901.8</ele>
        <time>2017-02-21T13:28:13Z</time>
      </trkpt>
      <trkpt lat="42.78134" lon="0.13735">
        <ele>1900.4</ele>
        <time>2017-02-21T13:28:18Z</time>
      </trkpt>
      <trkpt lat="42.78138" lon="0.13747">
        <ele>1900.2</ele>
        <time>2017-02-21T13:28:23Z</time>
      </trkpt>
      <trkpt lat="42.78141" lon="0.13753">
        <ele>1900.4</ele>
        <time>2017-02-21T13:28:28Z</time>
      </trkpt>
      <trkpt lat="42.78144" lon="0.13759">
        <ele>1901.2</ele>
        <time>2017-02-21T13:28:33Z</time>
      </trkpt>
      <trkpt lat="42.7815" lon="0.13771">
        <ele>1897.2</ele>
        <time>2017-02-21T13:28:38Z</time>
      </trkpt>
      <trkpt lat="42.78152" lon="0.13779">
        <ele>1897.2</ele>
        <time>2017-02-21T13:28:43Z</time>
      </trkpt>
      <trkpt lat="42.78154" lon="0.13786">
        <ele>1896.4</ele>
        <time>2017-02-21T13:28:48Z</time>
      </trkpt>
      <trkpt lat="42.78156" lon="0.13792">
        <ele>1896</ele>
        <time>2017-02-21T13:28:53Z</time>
      </trkpt>
      <trkpt lat="42.78158" lon="0.13796">
        <ele>1898.8</ele>
        <time>2017-02-21T13:28:58Z</time>
      </trkpt>
      <trkpt lat="42.78159" lon="0.13798">
        <ele>1898.2</ele>
        <time>2017-02-21T13:29:03Z</time>
      </trkpt>
      <trkpt lat="42.78159" lon="0.13798">
        <ele>1897.8</ele>
        <time>2017-02-21T13:29:08Z</time>
      </trkpt>
      <trkpt lat="42.7816" lon="0.13801">
        <ele>1898.2</ele>
        <time>2017-02-21T13:29:13Z</time>
      </trkpt>
      <trkpt lat="42.78163" lon="0.13806">
        <ele>1898</ele>
        <time>2017-02-21T13:29:18Z</time>
      </trkpt>
      <trkpt lat="42.78166" lon="0.1381">
        <ele>1894.8</ele>
        <time>2017-02-21T13:29:23Z</time>
      </trkpt>
      <trkpt lat="42.78166" lon="0.13812">
        <ele>1897</ele>
        <time>2017-02-21T13:29:28Z</time>
      </trkpt>
      <trkpt lat="42.78166" lon="0.13812">
        <ele>1897</ele>
        <time>2017-02-21T13:29:33Z</time>
      </trkpt>
      <trkpt lat="42.78167" lon="0.13813">
        <ele>1896.2</ele>
        <time>2017-02-21T13:29:38Z</time>
      </trkpt>
      <trkpt lat="42.78171" lon="0.13818">
        <ele>1896</ele>
        <time>2017-02-21T13:29:44Z</time>
      </trkpt>
      <trkpt lat="42.78174" lon="0.13823">
        <ele>1896</ele>
        <time>2017-02-21T13:29:50Z</time>
      </trkpt>
      <trkpt lat="42.78175" lon="0.13824">
        <ele>1897.4</ele>
        <time>2017-02-21T13:29:56Z</time>
      </trkpt>
      <trkpt lat="42.78178" lon="0.13827">
        <ele>1897.4</ele>
        <time>2017-02-21T13:30:01Z</time>
      </trkpt>
      <trkpt lat="42.78181" lon="0.1383">
        <ele>1896.2</ele>
        <time>2017-02-21T13:30:06Z</time>
      </trkpt>
      <trkpt lat="42.78185" lon="0.13834">
        <ele>1896.6</ele>
        <time>2017-02-21T13:30:11Z</time>
      </trkpt>
      <trkpt lat="42.78188" lon="0.13838">
        <ele>1894.4</ele>
        <time>2017-02-21T13:30:16Z</time>
      </trkpt>
      <trkpt lat="42.78191" lon="0.13842">
        <ele>1895.4</ele>
        <time>2017-02-21T13:30:21Z</time>
      </trkpt>
      <trkpt lat="42.78195" lon="0.13847">
        <ele>1894.4</ele>
        <time>2017-02-21T13:30:26Z</time>
      </trkpt>
      <trkpt lat="42.78198" lon="0.13853">
        <ele>1896</ele>
        <time>2017-02-21T13:30:31Z</time>
      </trkpt>
      <trkpt lat="42.78201" lon="0.13857">
        <ele>1894</ele>
        <time>2017-02-21T13:30:36Z</time>
      </trkpt>
      <trkpt lat="42.78204" lon="0.13861">
        <ele>1896.4</ele>
        <time>2017-02-21T13:30:41Z</time>
      </trkpt>
      <trkpt lat="42.78208" lon="0.13866">
        <ele>1894.8</ele>
        <time>2017-02-21T13:30:46Z</time>
      </trkpt>
      <trkpt lat="42.78211" lon="0.13868">
        <ele>1896</ele>
        <time>2017-02-21T13:30:51Z</time>
      </trkpt>
      <trkpt lat="42.78214" lon="0.13872">
        <ele>1896.8</ele>
        <time>2017-02-21T13:30:56Z</time>
      </trkpt>
      <trkpt lat="42.78218" lon="0.13876">
        <ele>1898.8</ele>
        <time>2017-02-21T13:31:01Z</time>
      </trkpt>
      <trkpt lat="42.78223" lon="0.1388">
        <ele>1893.4</ele>
        <time>2017-02-21T13:31:06Z</time>
      </trkpt>
      <trkpt lat="42.78227" lon="0.13885">
        <ele>1895.8</ele>
        <time>2017-02-21T13:31:11Z</time>
      </trkpt>
      <trkpt lat="42.78231" lon="0.13891">
        <ele>1894</ele>
        <time>2017-02-21T13:31:16Z</time>
      </trkpt>
      <trkpt lat="42.78235" lon="0.13895">
        <ele>1894.2</ele>
        <time>2017-02-21T13:31:21Z</time>
      </trkpt>
      <trkpt lat="42.78238" lon="0.13901">
        <ele>1895.4</ele>
        <time>2017-02-21T13:31:26Z</time>
      </trkpt>
      <trkpt lat="42.78242" lon="0.13906">
        <ele>1895.8</ele>
        <time>2017-02-21T13:31:31Z</time>
      </trkpt>
      <trkpt lat="42.78245" lon="0.13911">
        <ele>1897</ele>
        <time>2017-02-21T13:31:36Z</time>
      </trkpt>
      <trkpt lat="42.78249" lon="0.13915">
        <ele>1895.6</ele>
        <time>2017-02-21T13:31:41Z</time>
      </trkpt>
      <trkpt lat="42.78253" lon="0.13919">
        <ele>1896.4</ele>
        <time>2017-02-21T13:31:46Z</time>
      </trkpt>
      <trkpt lat="42.78257" lon="0.13924">
        <ele>1897.2</ele>
        <time>2017-02-21T13:31:51Z</time>
      </trkpt>
      <trkpt lat="42.78261" lon="0.13927">
        <ele>1897.8</ele>
        <time>2017-02-21T13:31:56Z</time>
      </trkpt>
      <trkpt lat="42.78265" lon="0.13932">
        <ele>1896.6</ele>
        <time>2017-02-21T13:32:01Z</time>
      </trkpt>
      <trkpt lat="42.78266" lon="0.13945">
        <ele>1897.2</ele>
        <time>2017-02-21T13:32:06Z</time>
      </trkpt>
      <trkpt lat="42.78267" lon="0.13966">
        <ele>1896.6</ele>
        <time>2017-02-21T13:32:11Z</time>
      </trkpt>
      <trkpt lat="42.78269" lon="0.13995">
        <ele>1893</ele>
        <time>2017-02-21T13:32:16Z</time>
      </trkpt>
      <trkpt lat="42.78274" lon="0.14024">
        <ele>1890.6</ele>
        <time>2017-02-21T13:32:21Z</time>
      </trkpt>
      <trkpt lat="42.78281" lon="0.1406">
        <ele>1891.4</ele>
        <time>2017-02-21T13:32:26Z</time>
      </trkpt>
      <trkpt lat="42.78293" lon="0.14094">
        <ele>1890.8</ele>
        <time>2017-02-21T13:32:31Z</time>
      </trkpt>
      <trkpt lat="42.783" lon="0.14128">
        <ele>1885.2</ele>
        <time>2017-02-21T13:32:36Z</time>
      </trkpt>
      <trkpt lat="42.78301" lon="0.14152">
        <ele>1887.2</ele>
        <time>2017-02-21T13:32:41Z</time>
      </trkpt>
      <trkpt lat="42.78304" lon="0.14156">
        <ele>1884.8</ele>
        <time>2017-02-21T13:32:46Z</time>
      </trkpt>
      <trkpt lat="42.78306" lon="0.14161">
        <ele>1884.4</ele>
        <time>2017-02-21T13:32:51Z</time>
      </trkpt>
      <trkpt lat="42.78307" lon="0.14165">
        <ele>1885</ele>
        <time>2017-02-21T13:32:56Z</time>
      </trkpt>
      <trkpt lat="42.78307" lon="0.14165">
        <ele>1885.6</ele>
        <time>2017-02-21T13:33:01Z</time>
      </trkpt>
      <trkpt lat="42.78308" lon="0.14164">
        <ele>1885.8</ele>
        <time>2017-02-21T13:33:06Z</time>
      </trkpt>
      <trkpt lat="42.78308" lon="0.14167">
        <ele>1884.8</ele>
        <time>2017-02-21T13:33:11Z</time>
      </trkpt>
      <trkpt lat="42.78308" lon="0.14167">
        <ele>1885</ele>
        <time>2017-02-21T13:33:16Z</time>
      </trkpt>
      <trkpt lat="42.78308" lon="0.14167">
        <ele>1885</ele>
        <time>2017-02-21T13:33:21Z</time>
      </trkpt>
      <trkpt lat="42.78308" lon="0.14167">
        <ele>1885.2</ele>
        <time>2017-02-21T13:33:26Z</time>
      </trkpt>
      <trkpt lat="42.78308" lon="0.14167">
        <ele>1885.2</ele>
        <time>2017-02-21T13:33:31Z</time>
      </trkpt>
      <trkpt lat="42.78308" lon="0.14167">
        <ele>1885</ele>
        <time>2017-02-21T13:33:36Z</time>
      </trkpt>
      <trkpt lat="42.78308" lon="0.14167">
        <ele>1885</ele>
        <time>2017-02-21T13:33:41Z</time>
      </trkpt>
      <trkpt lat="42.78307" lon="0.14167">
        <ele>1884.6</ele>
        <time>2017-02-21T13:33:46Z</time>
      </trkpt>
      <trkpt lat="42.78305" lon="0.14168">
        <ele>1884.6</ele>
        <time>2017-02-21T13:33:51Z</time>
      </trkpt>
      <trkpt lat="42.78305" lon="0.14168">
        <ele>1884.4</ele>
        <time>2017-02-21T13:33:57Z</time>
      </trkpt>
      <trkpt lat="42.78305" lon="0.14168">
        <ele>1884.2</ele>
        <time>2017-02-21T13:34:02Z</time>
      </trkpt>
      <trkpt lat="42.78303" lon="0.1417">
        <ele>1884.4</ele>
        <time>2017-02-21T13:34:07Z</time>
      </trkpt>
      <trkpt lat="42.78305" lon="0.14172">
        <ele>1884.2</ele>
        <time>2017-02-21T13:34:12Z</time>
      </trkpt>
      <trkpt lat="42.78307" lon="0.14174">
        <ele>1884.4</ele>
        <time>2017-02-21T13:34:17Z</time>
      </trkpt>
      <trkpt lat="42.7831" lon="0.1418">
        <ele>1885</ele>
        <time>2017-02-21T13:34:22Z</time>
      </trkpt>
      <trkpt lat="42.78313" lon="0.14183">
        <ele>1887</ele>
        <time>2017-02-21T13:34:27Z</time>
      </trkpt>
      <trkpt lat="42.78315" lon="0.14185">
        <ele>1885.4</ele>
        <time>2017-02-21T13:34:32Z</time>
      </trkpt>
      <trkpt lat="42.78318" lon="0.14189">
        <ele>1885</ele>
        <time>2017-02-21T13:34:37Z</time>
      </trkpt>
      <trkpt lat="42.7832" lon="0.14195">
        <ele>1883.6</ele>
        <time>2017-02-21T13:34:42Z</time>
      </trkpt>
      <trkpt lat="42.78321" lon="0.142">
        <ele>1884.4</ele>
        <time>2017-02-21T13:34:47Z</time>
      </trkpt>
      <trkpt lat="42.78321" lon="0.14204">
        <ele>1887.2</ele>
        <time>2017-02-21T13:34:52Z</time>
      </trkpt>
      <trkpt lat="42.78322" lon="0.14207">
        <ele>1885</ele>
        <time>2017-02-21T13:34:57Z</time>
      </trkpt>
      <trkpt lat="42.78325" lon="0.1421">
        <ele>1883.2</ele>
        <time>2017-02-21T13:35:02Z</time>
      </trkpt>
      <trkpt lat="42.78327" lon="0.14217">
        <ele>1882.8</ele>
        <time>2017-02-21T13:35:07Z</time>
      </trkpt>
      <trkpt lat="42.78328" lon="0.14224">
        <ele>1886</ele>
        <time>2017-02-21T13:35:12Z</time>
      </trkpt>
      <trkpt lat="42.7833" lon="0.14229">
        <ele>1887</ele>
        <time>2017-02-21T13:35:17Z</time>
      </trkpt>
      <trkpt lat="42.78332" lon="0.14233">
        <ele>1888</ele>
        <time>2017-02-21T13:35:22Z</time>
      </trkpt>
      <trkpt lat="42.78332" lon="0.14237">
        <ele>1889</ele>
        <time>2017-02-21T13:35:27Z</time>
      </trkpt>
      <trkpt lat="42.78333" lon="0.14241">
        <ele>1889.8</ele>
        <time>2017-02-21T13:35:32Z</time>
      </trkpt>
      <trkpt lat="42.78334" lon="0.14244">
        <ele>1891.8</ele>
        <time>2017-02-21T13:35:37Z</time>
      </trkpt>
      <trkpt lat="42.78336" lon="0.14248">
        <ele>1888.8</ele>
        <time>2017-02-21T13:35:42Z</time>
      </trkpt>
      <trkpt lat="42.78337" lon="0.14252">
        <ele>1889.2</ele>
        <time>2017-02-21T13:35:47Z</time>
      </trkpt>
      <trkpt lat="42.78338" lon="0.14256">
        <ele>1890.6</ele>
        <time>2017-02-21T13:35:52Z</time>
      </trkpt>
      <trkpt lat="42.7834" lon="0.1426">
        <ele>1890.8</ele>
        <time>2017-02-21T13:35:57Z</time>
      </trkpt>
      <trkpt lat="42.78342" lon="0.14265">
        <ele>1891.2</ele>
        <time>2017-02-21T13:36:02Z</time>
      </trkpt>
      <trkpt lat="42.78343" lon="0.14269">
        <ele>1890.6</ele>
        <time>2017-02-21T13:36:07Z</time>
      </trkpt>
      <trkpt lat="42.78344" lon="0.14271">
        <ele>1890.8</ele>
        <time>2017-02-21T13:36:12Z</time>
      </trkpt>
      <trkpt lat="42.78345" lon="0.14273">
        <ele>1890</ele>
        <time>2017-02-21T13:36:17Z</time>
      </trkpt>
      <trkpt lat="42.78347" lon="0.14277">
        <ele>1889.8</ele>
        <time>2017-02-21T13:36:22Z</time>
      </trkpt>
      <trkpt lat="42.78351" lon="0.14288">
        <ele>1889.6</ele>
        <time>2017-02-21T13:36:27Z</time>
      </trkpt>
      <trkpt lat="42.78353" lon="0.14297">
        <ele>1890</ele>
        <time>2017-02-21T13:36:32Z</time>
      </trkpt>
      <trkpt lat="42.78354" lon="0.143">
        <ele>1890.2</ele>
        <time>2017-02-21T13:36:37Z</time>
      </trkpt>
      <trkpt lat="42.78354" lon="0.143">
        <ele>1890.4</ele>
        <time>2017-02-21T13:36:42Z</time>
      </trkpt>
      <trkpt lat="42.78354" lon="0.143">
        <ele>1890.4</ele>
        <time>2017-02-21T13:36:47Z</time>
      </trkpt>
      <trkpt lat="42.78354" lon="0.14301">
        <ele>1889.6</ele>
        <time>2017-02-21T13:36:52Z</time>
      </trkpt>
      <trkpt lat="42.78354" lon="0.14306">
        <ele>1892.2</ele>
        <time>2017-02-21T13:36:57Z</time>
      </trkpt>
      <trkpt lat="42.78354" lon="0.14306">
        <ele>1889.8</ele>
        <time>2017-02-21T13:37:02Z</time>
      </trkpt>
      <trkpt lat="42.78354" lon="0.14306">
        <ele>1889.8</ele>
        <time>2017-02-21T13:37:07Z</time>
      </trkpt>
      <trkpt lat="42.78354" lon="0.14307">
        <ele>1889.6</ele>
        <time>2017-02-21T13:37:12Z</time>
      </trkpt>
      <trkpt lat="42.78354" lon="0.14307">
        <ele>1889.6</ele>
        <time>2017-02-21T13:37:17Z</time>
      </trkpt>
      <trkpt lat="42.78354" lon="0.14309">
        <ele>1888.6</ele>
        <time>2017-02-21T13:37:22Z</time>
      </trkpt>
      <trkpt lat="42.78359" lon="0.1433">
        <ele>1886.4</ele>
        <time>2017-02-21T13:37:27Z</time>
      </trkpt>
      <trkpt lat="42.78372" lon="0.1436">
        <ele>1885</ele>
        <time>2017-02-21T13:37:32Z</time>
      </trkpt>
      <trkpt lat="42.78386" lon="0.14385">
        <ele>1888</ele>
        <time>2017-02-21T13:37:37Z</time>
      </trkpt>
      <trkpt lat="42.78397" lon="0.14401">
        <ele>1888</ele>
        <time>2017-02-21T13:37:42Z</time>
      </trkpt>
      <trkpt lat="42.78406" lon="0.14417">
        <ele>1888</ele>
        <time>2017-02-21T13:37:47Z</time>
      </trkpt>
      <trkpt lat="42.78418" lon="0.14438">
        <ele>1884.6</ele>
        <time>2017-02-21T13:37:52Z</time>
      </trkpt>
      <trkpt lat="42.78436" lon="0.14471">
        <ele>1879.6</ele>
        <time>2017-02-21T13:37:57Z</time>
      </trkpt>
      <trkpt lat="42.78462" lon="0.14513">
        <ele>1874.8</ele>
        <time>2017-02-21T13:38:02Z</time>
      </trkpt>
      <trkpt lat="42.78486" lon="0.14561">
        <ele>1863.4</ele>
        <time>2017-02-21T13:38:07Z</time>
      </trkpt>
      <trkpt lat="42.78503" lon="0.14611">
        <ele>1861.2</ele>
        <time>2017-02-21T13:38:12Z</time>
      </trkpt>
      <trkpt lat="42.78515" lon="0.14652">
        <ele>1856.4</ele>
        <time>2017-02-21T13:38:17Z</time>
      </trkpt>
      <trkpt lat="42.78524" lon="0.14678">
        <ele>1854.2</ele>
        <time>2017-02-21T13:38:22Z</time>
      </trkpt>
      <trkpt lat="42.7853" lon="0.14699">
        <ele>1849.8</ele>
        <time>2017-02-21T13:38:27Z</time>
      </trkpt>
      <trkpt lat="42.78535" lon="0.1472">
        <ele>1849.8</ele>
        <time>2017-02-21T13:38:32Z</time>
      </trkpt>
      <trkpt lat="42.78539" lon="0.14742">
        <ele>1845.4</ele>
        <time>2017-02-21T13:38:37Z</time>
      </trkpt>
      <trkpt lat="42.78545" lon="0.14765">
        <ele>1845.4</ele>
        <time>2017-02-21T13:38:42Z</time>
      </trkpt>
      <trkpt lat="42.7855" lon="0.14784">
        <ele>1842.8</ele>
        <time>2017-02-21T13:38:47Z</time>
      </trkpt>
      <trkpt lat="42.78556" lon="0.14803">
        <ele>1842.6</ele>
        <time>2017-02-21T13:38:52Z</time>
      </trkpt>
      <trkpt lat="42.78565" lon="0.14833">
        <ele>1842.4</ele>
        <time>2017-02-21T13:38:58Z</time>
      </trkpt>
      <trkpt lat="42.78572" lon="0.14858">
        <ele>1841</ele>
        <time>2017-02-21T13:39:03Z</time>
      </trkpt>
      <trkpt lat="42.78579" lon="0.1489">
        <ele>1838.6</ele>
        <time>2017-02-21T13:39:08Z</time>
      </trkpt>
      <trkpt lat="42.78587" lon="0.14919">
        <ele>1836.2</ele>
        <time>2017-02-21T13:39:13Z</time>
      </trkpt>
      <trkpt lat="42.78592" lon="0.14944">
        <ele>1835.2</ele>
        <time>2017-02-21T13:39:18Z</time>
      </trkpt>
      <trkpt lat="42.78598" lon="0.14964">
        <ele>1833.6</ele>
        <time>2017-02-21T13:39:23Z</time>
      </trkpt>
      <trkpt lat="42.78601" lon="0.1498">
        <ele>1831.6</ele>
        <time>2017-02-21T13:39:28Z</time>
      </trkpt>
      <trkpt lat="42.78606" lon="0.14994">
        <ele>1830.6</ele>
        <time>2017-02-21T13:39:33Z</time>
      </trkpt>
      <trkpt lat="42.78611" lon="0.15008">
        <ele>1829</ele>
        <time>2017-02-21T13:39:38Z</time>
      </trkpt>
      <trkpt lat="42.78616" lon="0.15019">
        <ele>1831.2</ele>
        <time>2017-02-21T13:39:43Z</time>
      </trkpt>
      <trkpt lat="42.78622" lon="0.15029">
        <ele>1829.6</ele>
        <time>2017-02-21T13:39:48Z</time>
      </trkpt>
      <trkpt lat="42.7863" lon="0.15042">
        <ele>1830.8</ele>
        <time>2017-02-21T13:39:53Z</time>
      </trkpt>
      <trkpt lat="42.78635" lon="0.15059">
        <ele>1830</ele>
        <time>2017-02-21T13:39:58Z</time>
      </trkpt>
      <trkpt lat="42.78642" lon="0.1508">
        <ele>1830.2</ele>
        <time>2017-02-21T13:40:03Z</time>
      </trkpt>
      <trkpt lat="42.78646" lon="0.15098">
        <ele>1830.8</ele>
        <time>2017-02-21T13:40:08Z</time>
      </trkpt>
      <trkpt lat="42.78646" lon="0.15111">
        <ele>1831.6</ele>
        <time>2017-02-21T13:40:13Z</time>
      </trkpt>
      <trkpt lat="42.78647" lon="0.15119">
        <ele>1830.2</ele>
        <time>2017-02-21T13:40:18Z</time>
      </trkpt>
      <trkpt lat="42.78647" lon="0.15124">
        <ele>1829.2</ele>
        <time>2017-02-21T13:40:23Z</time>
      </trkpt>
      <trkpt lat="42.78647" lon="0.15131">
        <ele>1830</ele>
        <time>2017-02-21T13:40:28Z</time>
      </trkpt>
      <trkpt lat="42.78648" lon="0.15137">
        <ele>1828</ele>
        <time>2017-02-21T13:40:33Z</time>
      </trkpt>
      <trkpt lat="42.78648" lon="0.15146">
        <ele>1827</ele>
        <time>2017-02-21T13:40:38Z</time>
      </trkpt>
      <trkpt lat="42.78648" lon="0.15154">
        <ele>1830.6</ele>
        <time>2017-02-21T13:40:43Z</time>
      </trkpt>
      <trkpt lat="42.78647" lon="0.15163">
        <ele>1829</ele>
        <time>2017-02-21T13:40:48Z</time>
      </trkpt>
      <trkpt lat="42.78647" lon="0.15173">
        <ele>1830.6</ele>
        <time>2017-02-21T13:40:53Z</time>
      </trkpt>
      <trkpt lat="42.78647" lon="0.15181">
        <ele>1831.2</ele>
        <time>2017-02-21T13:40:58Z</time>
      </trkpt>
      <trkpt lat="42.78647" lon="0.15189">
        <ele>1830.2</ele>
        <time>2017-02-21T13:41:03Z</time>
      </trkpt>
      <trkpt lat="42.78649" lon="0.15195">
        <ele>1827.8</ele>
        <time>2017-02-21T13:41:08Z</time>
      </trkpt>
      <trkpt lat="42.7865" lon="0.15203">
        <ele>1828</ele>
        <time>2017-02-21T13:41:13Z</time>
      </trkpt>
      <trkpt lat="42.78651" lon="0.15211">
        <ele>1830.8</ele>
        <time>2017-02-21T13:41:18Z</time>
      </trkpt>
      <trkpt lat="42.78653" lon="0.15219">
        <ele>1832.8</ele>
        <time>2017-02-21T13:41:23Z</time>
      </trkpt>
      <trkpt lat="42.78652" lon="0.15227">
        <ele>1832</ele>
        <time>2017-02-21T13:41:28Z</time>
      </trkpt>
      <trkpt lat="42.78653" lon="0.15236">
        <ele>1835.4</ele>
        <time>2017-02-21T13:41:33Z</time>
      </trkpt>
      <trkpt lat="42.78653" lon="0.15245">
        <ele>1838.4</ele>
        <time>2017-02-21T13:41:38Z</time>
      </trkpt>
      <trkpt lat="42.78653" lon="0.15253">
        <ele>1837.8</ele>
        <time>2017-02-21T13:41:43Z</time>
      </trkpt>
      <trkpt lat="42.78653" lon="0.15262">
        <ele>1839</ele>
        <time>2017-02-21T13:41:48Z</time>
      </trkpt>
      <trkpt lat="42.78653" lon="0.15271">
        <ele>1839</ele>
        <time>2017-02-21T13:41:53Z</time>
      </trkpt>
      <trkpt lat="42.78653" lon="0.1528">
        <ele>1838.8</ele>
        <time>2017-02-21T13:41:58Z</time>
      </trkpt>
      <trkpt lat="42.78653" lon="0.15288">
        <ele>1839.6</ele>
        <time>2017-02-21T13:42:03Z</time>
      </trkpt>
      <trkpt lat="42.78652" lon="0.15297">
        <ele>1840.6</ele>
        <time>2017-02-21T13:42:08Z</time>
      </trkpt>
      <trkpt lat="42.78651" lon="0.15304">
        <ele>1840</ele>
        <time>2017-02-21T13:42:13Z</time>
      </trkpt>
      <trkpt lat="42.78652" lon="0.15311">
        <ele>1840</ele>
        <time>2017-02-21T13:42:18Z</time>
      </trkpt>
      <trkpt lat="42.78654" lon="0.15317">
        <ele>1842.6</ele>
        <time>2017-02-21T13:42:24Z</time>
      </trkpt>
      <trkpt lat="42.78656" lon="0.15321">
        <ele>1840.6</ele>
        <time>2017-02-21T13:42:29Z</time>
      </trkpt>
      <trkpt lat="42.78658" lon="0.15325">
        <ele>1841.4</ele>
        <time>2017-02-21T13:42:34Z</time>
      </trkpt>
      <trkpt lat="42.7866" lon="0.15331">
        <ele>1843.8</ele>
        <time>2017-02-21T13:42:39Z</time>
      </trkpt>
      <trkpt lat="42.78661" lon="0.15334">
        <ele>1843.2</ele>
        <time>2017-02-21T13:42:44Z</time>
      </trkpt>
      <trkpt lat="42.78661" lon="0.15333">
        <ele>1843</ele>
        <time>2017-02-21T13:42:49Z</time>
      </trkpt>
      <trkpt lat="42.78662" lon="0.15333">
        <ele>1841.8</ele>
        <time>2017-02-21T13:42:54Z</time>
      </trkpt>
      <trkpt lat="42.78661" lon="0.15332">
        <ele>1841.8</ele>
        <time>2017-02-21T13:42:59Z</time>
      </trkpt>
      <trkpt lat="42.78662" lon="0.15332">
        <ele>1841.8</ele>
        <time>2017-02-21T13:43:04Z</time>
      </trkpt>
      <trkpt lat="42.78663" lon="0.15334">
        <ele>1839.2</ele>
        <time>2017-02-21T13:43:09Z</time>
      </trkpt>
      <trkpt lat="42.78666" lon="0.15337">
        <ele>1843.2</ele>
        <time>2017-02-21T13:43:14Z</time>
      </trkpt>
      <trkpt lat="42.78666" lon="0.15338">
        <ele>1843</ele>
        <time>2017-02-21T13:43:19Z</time>
      </trkpt>
      <trkpt lat="42.78666" lon="0.15338">
        <ele>1843</ele>
        <time>2017-02-21T13:43:24Z</time>
      </trkpt>
      <trkpt lat="42.78666" lon="0.15343">
        <ele>1844.2</ele>
        <time>2017-02-21T13:43:29Z</time>
      </trkpt>
      <trkpt lat="42.78668" lon="0.15348">
        <ele>1842</ele>
        <time>2017-02-21T13:43:34Z</time>
      </trkpt>
      <trkpt lat="42.78672" lon="0.15352">
        <ele>1841.4</ele>
        <time>2017-02-21T13:43:39Z</time>
      </trkpt>
      <trkpt lat="42.78676" lon="0.15353">
        <ele>1843</ele>
        <time>2017-02-21T13:43:44Z</time>
      </trkpt>
      <trkpt lat="42.78681" lon="0.15357">
        <ele>1842.4</ele>
        <time>2017-02-21T13:43:49Z</time>
      </trkpt>
      <trkpt lat="42.78684" lon="0.15361">
        <ele>1840.8</ele>
        <time>2017-02-21T13:43:54Z</time>
      </trkpt>
      <trkpt lat="42.78686" lon="0.15369">
        <ele>1841.2</ele>
        <time>2017-02-21T13:43:59Z</time>
      </trkpt>
      <trkpt lat="42.78685" lon="0.15377">
        <ele>1840.4</ele>
        <time>2017-02-21T13:44:04Z</time>
      </trkpt>
      <trkpt lat="42.78683" lon="0.15385">
        <ele>1842.2</ele>
        <time>2017-02-21T13:44:09Z</time>
      </trkpt>
      <trkpt lat="42.78681" lon="0.15393">
        <ele>1843.2</ele>
        <time>2017-02-21T13:44:14Z</time>
      </trkpt>
      <trkpt lat="42.7868" lon="0.154">
        <ele>1840</ele>
        <time>2017-02-21T13:44:19Z</time>
      </trkpt>
      <trkpt lat="42.78678" lon="0.15407">
        <ele>1840.6</ele>
        <time>2017-02-21T13:44:24Z</time>
      </trkpt>
      <trkpt lat="42.78677" lon="0.15415">
        <ele>1839</ele>
        <time>2017-02-21T13:44:29Z</time>
      </trkpt>
      <trkpt lat="42.78676" lon="0.15423">
        <ele>1839.4</ele>
        <time>2017-02-21T13:44:34Z</time>
      </trkpt>
      <trkpt lat="42.78675" lon="0.15431">
        <ele>1840.6</ele>
        <time>2017-02-21T13:44:39Z</time>
      </trkpt>
      <trkpt lat="42.78675" lon="0.15438">
        <ele>1840.2</ele>
        <time>2017-02-21T13:44:44Z</time>
      </trkpt>
      <trkpt lat="42.78674" lon="0.15447">
        <ele>1840.6</ele>
        <time>2017-02-21T13:44:49Z</time>
      </trkpt>
      <trkpt lat="42.78675" lon="0.15454">
        <ele>1842</ele>
        <time>2017-02-21T13:44:54Z</time>
      </trkpt>
      <trkpt lat="42.78674" lon="0.15463">
        <ele>1841</ele>
        <time>2017-02-21T13:44:59Z</time>
      </trkpt>
      <trkpt lat="42.78674" lon="0.15471">
        <ele>1840</ele>
        <time>2017-02-21T13:45:04Z</time>
      </trkpt>
      <trkpt lat="42.78674" lon="0.15479">
        <ele>1840.4</ele>
        <time>2017-02-21T13:45:09Z</time>
      </trkpt>
      <trkpt lat="42.78675" lon="0.15488">
        <ele>1841.8</ele>
        <time>2017-02-21T13:45:14Z</time>
      </trkpt>
      <trkpt lat="42.78675" lon="0.15495">
        <ele>1843.8</ele>
        <time>2017-02-21T13:45:19Z</time>
      </trkpt>
      <trkpt lat="42.78675" lon="0.15502">
        <ele>1843.2</ele>
        <time>2017-02-21T13:45:24Z</time>
      </trkpt>
      <trkpt lat="42.78676" lon="0.15508">
        <ele>1841.2</ele>
        <time>2017-02-21T13:45:29Z</time>
      </trkpt>
      <trkpt lat="42.78676" lon="0.15509">
        <ele>1841</ele>
        <time>2017-02-21T13:45:34Z</time>
      </trkpt>
      <trkpt lat="42.78677" lon="0.15511">
        <ele>1841</ele>
        <time>2017-02-21T13:45:39Z</time>
      </trkpt>
      <trkpt lat="42.78675" lon="0.15513">
        <ele>1842</ele>
        <time>2017-02-21T13:45:44Z</time>
      </trkpt>
      <trkpt lat="42.78675" lon="0.15513">
        <ele>1841.8</ele>
        <time>2017-02-21T13:45:49Z</time>
      </trkpt>
      <trkpt lat="42.78676" lon="0.15513">
        <ele>1841.8</ele>
        <time>2017-02-21T13:45:54Z</time>
      </trkpt>
      <trkpt lat="42.78675" lon="0.15513">
        <ele>1842</ele>
        <time>2017-02-21T13:45:59Z</time>
      </trkpt>
      <trkpt lat="42.78675" lon="0.15513">
        <ele>1841.8</ele>
        <time>2017-02-21T13:46:04Z</time>
      </trkpt>
      <trkpt lat="42.78676" lon="0.15513">
        <ele>1841.8</ele>
        <time>2017-02-21T13:46:09Z</time>
      </trkpt>
      <trkpt lat="42.78674" lon="0.15512">
        <ele>1839.6</ele>
        <time>2017-02-21T13:46:14Z</time>
      </trkpt>
      <trkpt lat="42.78674" lon="0.15512">
        <ele>1839.8</ele>
        <time>2017-02-21T13:46:19Z</time>
      </trkpt>
      <trkpt lat="42.78674" lon="0.15512">
        <ele>1840.2</ele>
        <time>2017-02-21T13:46:24Z</time>
      </trkpt>
      <trkpt lat="42.78674" lon="0.15512">
        <ele>1840.4</ele>
        <time>2017-02-21T13:46:29Z</time>
      </trkpt>
      <trkpt lat="42.78674" lon="0.15512">
        <ele>1840.6</ele>
        <time>2017-02-21T13:46:34Z</time>
      </trkpt>
      <trkpt lat="42.78674" lon="0.15512">
        <ele>1840.6</ele>
        <time>2017-02-21T13:46:39Z</time>
      </trkpt>
      <trkpt lat="42.78674" lon="0.15512">
        <ele>1840.8</ele>
        <time>2017-02-21T13:46:44Z</time>
      </trkpt>
    </trkseg>
  </trk>
</gpx>